              Height (m), 1500.0000, 1650.0000, 1800.0000, 1950.0000, 2100.0000, 2250.0000, 2400.0000, 2550.0000, 2700.0000, 2850.0000, 3000.0000, 3150.0000, 3300.0000, 3450.0000, 3600.0000, 3750.0000, 3900.0000, 4050.0000, 4200.0000, 4350.0000, 4500.0000, 4650.0000, 4800.0000, 4950.0000, 5100.0000, 5250.0000, 5400.0000, 5550.0000, 5700.0000, 5850.0000, 6000.0000, 6150.0000, 6300.0000, 6450.0000, 6600.0000, 6750.0000, 6900.0000, 7050.0000, 7200.0000, 7350.0000, 7500.0000, 7650.0000, 7800.0000, 7950.0000, 8100.0000, 8250.0000, 8400.0000, 8550.0000, 8700.0000, 8850.0000, 9000.0000, 9150.0000, 9300.0000, 9450.0000, 9600.0000, 9750.0000, 9900.0000,10050.0000,10200.0000,10350.0000,10500.0000,10650.0000,10800.0000,10950.0000,11100.0000,
 30-OCT-1996 00:00:17.94,    1.4413,    0.9864,    0.7917,    0.6990,    0.5525,    0.4847,  999.0000,   -0.4153,   -1.1138,   -0.9903,   -0.8617,   -0.1885,    1.3974,  999.0000,    2.5059,    2.5481,  999.0000,    0.7999,    1.2992,    1.4820,    1.7236,    0.6085,  999.0000,    1.0191,    0.7488,   -0.3204,   -1.4596,   -1.5853,   -0.8824,   -1.3264,   -0.7332,   -0.3242,   -0.6063,    0.1859,    0.4906,    0.4953,    0.5332,    0.3550,    1.3711,    2.0191,    2.9837,    4.0869,    5.4378,    5.6314,    4.7993,    3.7814,    4.2728,    6.0969,    6.9365,    6.1644,    4.6962,    4.0965,    3.2209,    1.7542,    0.5061,    1.5573,    2.9679,    4.6318,    4.4589,    4.4912,    4.3240,    3.9153,    3.7228,    1.6196,  999.0000,
 30-OCT-1996 00:02:56.98,    0.7545,   -0.1813,   -0.3600,    0.2447,    0.1799,   -0.0084,    0.0919,   -0.2865,   -1.0937,   -1.0049,   -0.9107,  999.0000,  999.0000,    0.9538,    2.1307,    2.0923,    1.3425,    0.5550,    0.6979,    0.4592,    0.5621,    0.1361,    1.0301,    0.7544,    1.2274,   -0.2558,   -1.4737,   -1.7192,   -0.8313,   -1.3777,   -0.6049,   -0.4329,   -0.5951,   -0.0232,    0.3383,    0.2113,   -0.0199,    0.2226,    1.2868,    1.9309,    3.1253,    4.0443,    5.1256,    5.4021,    4.1505,    3.1477,    3.7235,    5.3167,    6.1972,    5.1279,    4.2646,    3.9882,    2.5534,    0.7815,   -0.3993,    1.1144,    3.5729,    4.7798,    4.2514,    3.8083,    3.4099,    3.4708,    3.6149,    1.4715,    0.4670,
 30-OCT-1996 00:05:36.02,    0.2028,    0.5269,    1.1696,    0.7301,   -0.5454,   -0.9953,   -0.5711,   -1.0220,   -1.2947,   -1.1406,  999.0000,   -0.1363,    1.3462,    1.9558,  999.0000,    2.0172,    0.9420,    0.4829,  999.0000,   -0.8828,   -0.8844,   -0.6855,    0.5655,    0.5378,   -0.0848,   -0.2042,   -1.4016,   -1.4139,   -0.8769,   -0.9653,   -0.0579,    0.5344,    0.0903,    0.1150,    0.5105,    0.4232,    0.4879,    0.4773,    0.6914,    1.6481,    2.7565,    3.3524,    4.4493,    5.0711,    4.1097,    3.2374,    3.5907,    5.3756,    5.9944,    4.6295,    3.6289,    3.4936,    2.4637,    0.8373,    0.0599,    2.0331,    3.8774,    4.1991,  999.0000,    4.0368,    3.6349,    3.8320,    3.7026,    1.3863,   -0.3496,
 30-OCT-1996 00:08:13.22,    0.4916,    0.5617,    0.9634,    0.8644,    0.0041,    0.3172,   -0.5323,   -0.8045,   -1.1275,   -1.0644,   -1.2803,   -0.1945,    1.7111,    2.4332,    2.6919,    1.8568,    0.7333,   -0.1587,   -0.4933,   -0.4819,   -0.5008,   -0.0044,    0.1814,    0.3398,   -0.0896,   -0.5166,   -1.3836,   -1.4629,   -0.7919,   -0.9659,   -0.1626,    0.6397,    0.1983,    0.3134,    0.5977,    0.4520,    0.5261,    0.4606,    0.3397,    1.0993,    2.6960,    3.6612,    4.9156,    5.7385,    5.1413,    3.9559,    3.5759,  999.0000,    6.5369,    5.4213,  999.0000,  999.0000,    2.8848,    1.7534,  999.0000,  999.0000,  999.0000,    4.4699,    4.0157,    4.1920,  999.0000,    4.1183,    3.7216,    1.4260,    0.4422,
 30-OCT-1996 00:10:50.22,  999.0000,   -0.6803,   -0.6126,    0.0688,   -0.4820,  999.0000,   -1.5384,   -0.5439,   -1.3405,   -1.5119,   -1.6269,    0.0554,    1.4536,    2.2828,    2.3210,    2.0342,    1.0449,    0.4194,   -0.1996,   -0.3465,   -0.3854,   -0.0442,    0.9113,    0.0546,   -0.2056,   -0.9055,   -1.2776,   -1.3147,   -1.3433,   -1.0079,   -0.0747,    0.4061,   -0.1942,    0.0754,    0.4322,    0.1788,    0.5040,    0.4512,    0.6220,    1.1932,    2.6712,    3.9135,    5.2869,    6.2698,    5.5542,    4.0344,    3.5233,    5.3545,    6.6660,    5.6818,    4.6488,    4.4026,    3.2905,    1.8664,   -0.0042,    1.0362,    3.6290,    4.7962,    3.8734,    3.3568,    3.1820,  999.0000,    3.7850,  999.0000,    0.9440,
 30-OCT-1996 00:13:29.48,    1.0593,    0.1339,  999.0000,   -0.5835,   -0.2329,   -0.2368,   -0.2292,   -0.8174,   -1.5195,   -1.2395,  999.0000,   -0.3095,    1.0988,    2.3111,    2.5566,    2.2671,    0.9490,    0.1569,    0.7946,    0.6429,    0.4961,    0.5152,  999.0000,    0.5009,    0.3749,    0.1226,   -1.0584,   -0.7557,   -1.3209,   -0.9376,   -0.0712,    0.2861,    0.0076,    0.2535,    0.5699,    0.6774,    0.9419,    1.0214,    1.3961,    2.0142,    3.0063,    4.0774,    5.5919,    6.2784,    5.6582,    4.3940,    4.1934,    5.4746,    5.9669,  999.0000,  999.0000,    4.3603,    3.0846,    1.7155,    0.5358,    1.4310,    3.5744,    4.8117,    4.8143,    4.3901,    3.1675,  999.0000,    4.1535,    1.8304,    1.2966,
 30-OCT-1996 00:16:06.47,    1.4903,  999.0000,   -0.7268,   -1.5673,   -0.9422,   -0.2575,   -0.0236,   -0.7450,   -1.5697,   -1.4485,   -1.1521,  999.0000,    2.1348,    2.6516,    2.8074,    2.6656,    1.0578,  999.0000,    0.9915,    0.8939,    1.0347,    1.1268,    0.3233,    1.0280,    0.8253,    0.0294,   -0.6008,   -0.6680,   -1.3938,   -0.8770,    0.3894,    0.5057,    0.3832,    0.6133,    0.6755,    1.0750,    0.9968,    0.6423,    1.4831,    1.8060,    2.9920,    4.0385,    5.7354,    6.8715,    6.5423,    4.7240,    4.5567,    6.1181,    6.5570,    5.4475,    4.6432,    4.3003,    2.7991,    1.5332,    0.6688,  999.0000,  999.0000,    5.2526,    4.7353,    3.9164,    3.8810,    4.5693,    4.4036,  999.0000,    2.1017,
 30-OCT-1996 00:18:45.98,    0.1848,   -0.2692,   -0.2602,   -0.4116,   -0.3860,   -0.2365,   -0.0047,   -0.8179,   -1.2812,   -1.0512,   -0.7156,    0.0778,    1.7466,    2.4556,    2.9639,    2.5363,    0.7897,    0.9178,   -0.0357,   -0.5790,   -0.2256,    0.8777,  999.0000,    1.1281,    0.9235,    0.5574,    0.0652,   -0.1653,   -0.8485,   -0.4845,    0.5517,    0.9943,    0.6709,    0.6225,    1.2224,    1.3485,    1.3273,    1.0918,    1.1851,    1.2981,    2.5316,    3.7082,    5.6773,    6.9782,    6.5678,    4.8205,    4.4399,    5.9654,    6.5400,    5.2608,    3.8605,    3.5079,    2.7244,    1.2559,    1.3646,    2.1243,    3.1880,    4.0851,    3.5444,    3.2774,    3.2728,    4.3330,    4.4293,    1.9588,    1.2808,
 30-OCT-1996 00:21:23.08,    0.1636,   -0.9649,   -1.2575,   -0.2856,    0.1119,    0.3996,    0.2262,   -0.4760,   -0.8116,   -1.0263,   -1.0152,   -0.2959,    1.5299,    2.3307,    3.0622,    2.3082,    0.5754,    0.5914,   -0.2536,   -0.6467,   -0.6525,   -0.0004,    1.1058,    1.3137,    1.4442,    0.5596,    0.3172,   -0.0402,   -0.4757,   -0.2788,    0.9990,    1.0621,    0.6724,    0.5728,    0.9643,    1.1870,    0.9759,    0.9583,    0.7640,    0.8164,    2.1321,    3.5387,    5.2295,    6.5505,    6.8002,    5.2982,    4.3888,    5.6563,  999.0000,  999.0000,    4.1276,    3.7031,    2.8387,    1.6163,    1.5401,    1.9741,    3.2850,    4.8171,    3.5975,    3.0636,  999.0000,  999.0000,    4.1355,    2.0484,    0.7203,
 30-OCT-1996 00:24:00.02,    0.6578,  999.0000,   -1.3786,  999.0000,    0.6027,    0.9676,    0.0538,   -0.2419,   -0.7366,   -1.1792,   -1.2347,   -0.1158,    1.5559,    1.9126,    2.2176,    1.7547,    0.8972,    0.7176,    0.9038,    1.0257,    1.0992,  999.0000,    2.4309,    1.7839,    1.9178,    0.9695,    0.6622,   -0.0975,   -0.6499,   -0.3594,    1.1024,    1.1017,    1.1658,    1.3293,    1.1818,    1.4248,    1.0828,  999.0000,    1.4524,    1.6440,    2.6119,    3.6557,  999.0000,    6.2361,    6.3029,    5.1194,    4.2717,    5.5195,    6.2401,    5.1385,    4.4131,    4.0679,    2.8355,    1.0718,  999.0000,  999.0000,    3.4127,    4.0492,    3.2182,  999.0000,    3.9805,    4.6999,    4.4024,  999.0000,    1.5654,
 30-OCT-1996 00:26:39.09,  999.0000,  999.0000,    0.2473,    0.8486,    0.9315,  999.0000,    0.4439,   -0.0393,   -1.0835,   -1.2149,   -1.0804,    0.2786,  999.0000,    1.7621,    2.2546,    1.9149,    0.6973,    0.4278,    0.2072,    0.3956,    0.7901,    1.5337,    2.5356,    1.4504,    1.5532,    0.1486,    0.0781,   -0.5828,   -1.2322,   -0.7502,    1.2551,    1.0514,    1.5367,    1.1903,    1.2242,    1.4107,    1.2543,    0.9746,    1.1998,    2.1027,    2.7751,    3.7080,    5.1451,    6.1868,    6.2002,    5.9317,    4.9111,    5.7844,    6.7839,    5.6797,    4.3103,    3.8026,    3.2462,    1.8374,    1.1770,    1.6826,    3.2747,    4.4116,    4.1766,    4.7582,  999.0000,    5.0779,  999.0000,    1.9241,    2.0711,
 30-OCT-1996 00:29:16.25,    1.0243,    0.1261,    0.4166,    1.1886,    1.4251,    1.3811,    1.0333,    0.0102,   -0.8512,   -0.6970,   -0.3652,    0.6245,    1.9158,    2.2378,    1.8940,    2.2429,    0.6424,    0.1715,    0.3062,    0.0572,    0.4792,    1.1135,    1.3045,    1.5623,    1.7822,  999.0000,    0.1630,    0.1275,   -0.9577,   -0.1252,    1.6562,    1.7798,    1.9679,    1.3441,    1.9776,    1.9666,    1.8954,    2.2575,    2.0095,    2.5073,    3.0416,    4.1134,    5.6851,    6.8107,    7.0843,    6.2906,    5.3294,    6.0955,    6.7911,    5.8243,    4.9359,    4.6633,    3.7068,    2.2187,    1.0248,    1.7084,  999.0000,  999.0000,  999.0000,    5.8450,    5.1929,    5.5907,    5.2466,    2.7126,    2.0922,
 30-OCT-1996 00:31:55.31,    0.7565,  999.0000,    0.8566,    1.1570,    1.2872,  999.0000,    0.9401,    0.3359,   -0.6643,   -0.6258,   -0.2252,    0.2300,    1.1762,    2.0497,    2.3362,    2.4512,  999.0000,  999.0000,    1.0127,    0.9800,    1.1744,    1.4887,    1.8184,    1.5661,    1.6379,    0.7130,    0.6212,   -0.5912,   -1.2271,   -0.3835,    1.4116,    1.5764,    1.6364,    1.3083,    1.6013,    1.7088,    1.5223,    1.9227,    1.8539,    1.8737,    3.1061,    4.0380,    5.3211,    6.8316,    7.2822,  999.0000,    4.8282,    5.4375,  999.0000,  999.0000,    4.1715,    4.1146,    3.4873,    2.0806,    1.8001,    2.4124,    3.7372,    3.8892,    3.4985,    4.7293,    5.1916,    5.4441,    5.4224,    3.0933,    2.1363,
 30-OCT-1996 00:34:32.68,    0.1317,    0.2648,    0.5684,  999.0000,    1.1321,  999.0000,    0.5964,   -0.0143,  999.0000,   -1.2538,   -1.2545,  999.0000,  999.0000,    2.3989,    2.4895,    2.5794,    1.9151,    0.6234,    1.1438,    1.3600,    1.3731,    1.5963,    1.4217,    1.9832,    2.0052,    0.7092,    0.4009,   -0.4412,   -1.0847,   -1.2188,    0.3714,    0.9368,    1.1895,    0.8558,    1.2164,    1.2375,    1.1301,    1.3310,    1.9207,    1.9716,    3.4327,    3.8623,    5.1249,    6.7585,    7.4037,    6.4194,    5.2268,    5.3800,    6.5335,    5.6748,    4.2929,    3.6764,    2.7785,    1.6755,    1.0778,    1.8123,    3.3873,    2.9138,    3.2266,    4.8044,    5.1979,    5.5588,    4.9557,    2.5540,    1.9032,
 30-OCT-1996 00:37:11.85,   -0.2248,   -0.3727,    0.3725,    0.7914,    0.7671,    0.1997,   -0.2045,   -0.1418,  999.0000,   -0.7794,  999.0000,   -0.2684,    0.7181,  999.0000,    2.1925,    1.9822,  999.0000,    0.7204,    0.6889,    0.7837,    0.8456,    1.6041,    2.3115,    2.2453,    2.2570,    0.8668,    0.4241,   -0.3414,   -1.5430,   -1.3591,   -0.6361,    0.7983,    0.9949,    0.6257,    1.1499,    1.4184,    1.7448,    1.5552,    1.6700,    2.3292,    3.0946,    3.8570,    5.5092,    7.3118,    8.1752,    6.6952,    5.4627,    5.3393,    6.4762,    5.8963,    4.5747,    4.0171,    2.9350,    1.5379,  999.0000,  999.0000,    3.1138,    2.7304,    3.0835,    4.4676,    5.3589,    5.5887,    4.5714,    2.2694,    2.3373,
 30-OCT-1996 00:39:48.64,   -0.3092,   -0.2497,    0.8439,    0.6708,    0.5835,    0.3075,   -1.0034,   -1.3564,   -1.0709,   -1.3224,   -1.2483,   -0.4966,    1.2061,    2.2027,    2.8632,    2.4219,    0.8261,  999.0000,    0.6269,    0.2210,    0.3479,    1.3887,    2.3898,    2.2452,    1.9155,    0.7909,    1.7387,   -0.6335,   -1.2566,   -1.1127,   -0.4450,    1.1875,    1.4119,    1.1246,    1.3167,    1.6943,    1.8882,    1.4292,    0.9304,    2.2173,    3.1209,    4.2259,    5.3627,    6.9407,    7.6086,    6.3584,    4.7199,    4.5985,    6.0482,    5.8672,    4.5886,    3.8848,  999.0000,  999.0000,    0.0312,    0.1240,    2.4101,    3.6638,    3.9243,    4.5810,    5.0870,    5.3682,    4.1695,    2.0835,    2.2570,
 30-OCT-1996 00:42:28.04,    0.4070,    0.8593,    1.1475,    1.2641,    1.3802,  999.0000,   -2.4797,   -2.9304,  999.0000,   -1.2479,   -0.7974,    0.3496,    1.6629,    2.0321,    2.7653,    2.7425,    1.7766,    1.4130,    0.7025,    0.2477,    0.3757,    1.2793,    2.1062,    2.4133,    1.4842,    0.8787,    0.9202,   -0.3496,   -0.6809,   -1.1456,   -0.3613,    1.1323,    1.9743,    1.5592,    1.8488,    1.9592,    1.9281,    1.3232,    1.1686,    1.7601,    2.5300,    3.5990,    5.0783,    6.6091,    7.1304,    5.9387,    4.7271,    4.6781,    5.9024,    5.8956,    4.9209,    3.9790,    2.4784,    0.5963,   -0.1833,    0.5691,    2.5103,    4.1315,  999.0000,    5.4121,    5.0452,    5.1125,    4.2761,    2.5165,    1.9565,
 30-OCT-1996 00:45:07.74,    0.7086,    0.7966,    0.9547,    0.2869,    1.4716,    0.6061,    0.4390,  999.0000,   -0.5751,   -0.6892,   -0.4002,   -0.0632,  999.0000,    2.1613,    3.2996,    3.4006,    2.6428,    2.1555,    1.5327,    1.7284,    1.7547,    1.7578,    2.7529,    2.5522,    1.8224,    0.9199,    0.8311,   -0.1501,   -1.0375,   -1.0603,   -0.1894,    1.3761,    2.1628,    1.9392,    2.0327,    2.1941,    2.0023,    1.4920,    2.5110,    2.6636,    2.9712,    3.8745,    5.0907,    6.8244,    7.8515,    6.8491,    5.2850,    4.8512,    5.7729,    6.0709,    5.1503,    3.7298,    2.3337,    0.5321,   -0.2511,    0.8212,    2.0532,    3.5235,    4.4095,    4.9236,    5.2299,    5.5637,    3.9976,    2.2441,    2.6856,
 30-OCT-1996 00:47:47.05,    0.9027,  999.0000,  999.0000,   -4.5956,  999.0000,   -0.2590,   -0.2228,    0.0212,   -0.2532,   -0.3460,    0.3586,    0.6866,    1.9706,    2.6853,    3.5696,    3.6288,    2.4421,    1.9684,    1.3788,    1.3416,    1.1094,    1.5555,    2.7094,    1.9823,    1.2333,    0.5573,    0.4470,   -0.0416,   -1.0383,   -1.1169,   -0.3160,    1.4624,    2.0537,    2.0015,    1.7966,    1.7188,    1.6709,    1.4582,    2.0448,    2.1045,    2.9868,    4.0529,    5.0524,    6.3925,    7.8383,    7.3684,    5.2887,    4.3643,    5.2482,    5.8870,    4.7677,    3.3571,    2.5009,    1.0426,    0.1575,    0.6142,    1.9575,    3.4617,    4.5008,    4.4199,    4.5701,    4.9300,    3.6522,    1.8517,    2.1373,
 30-OCT-1996 00:50:25.52,    0.8048,  999.0000,  999.0000,   -7.0833,  999.0000,  999.0000,   -0.4585,    0.0369,   -0.5341,   -0.6999,  999.0000,    0.4159,  999.0000,    1.5979,    2.1796,  999.0000,    2.2039,    1.3109,    0.8065,    0.6303,    0.9580,    1.8637,    2.0229,    2.0479,    1.3590,    0.4035,    0.2690,   -0.0961,   -0.5049,   -0.8404,    0.1256,    1.5004,    2.0587,    2.0352,    1.8535,    1.8645,    1.8081,    1.7393,    1.4935,    2.0053,    3.0417,    3.6921,    4.5986,    5.6360,    6.0694,  999.0000,    4.8583,    3.6708,    5.0023,    6.1714,    5.3480,    3.8121,    2.7050,    1.2258,    0.6239,  999.0000,  999.0000,  999.0000,    5.2242,    5.6572,    4.8719,    5.0021,    3.9964,    2.4532,    1.6295,
 30-OCT-1996 00:53:02.60,    0.7546,  999.0000,    1.3354,    1.5573,    1.4461,   -0.8995,    0.7580,  999.0000,  999.0000,    0.1763,  999.0000,    0.7498,  999.0000,    1.7313,    2.3590,    3.1304,    2.3248,    2.1714,    1.6453,    1.2066,    1.4799,    2.0725,    2.2655,    2.0492,    1.8615,    0.3552,   -0.2710,    0.1073,   -0.2494,   -0.6078,    0.5672,    1.8499,    2.1847,    2.4324,    2.4456,    2.1504,    2.2794,    2.3577,    2.4455,    2.7086,    3.4003,    4.0419,    5.1844,    6.0881,    7.4632,    6.9382,    4.8123,    4.0055,    5.2108,    6.4285,    5.7300,    3.7009,    1.9113,    0.8877,    0.3792,    0.8553,  999.0000,  999.0000,    5.0944,    5.1747,    4.4703,    5.3707,    4.2620,    2.3526,    2.3542,
 30-OCT-1996 00:55:42.01,    1.0581,    1.2270,    1.3268,  999.0000,  999.0000,   -2.3809,  999.0000,  999.0000,   -1.5915,   -0.1007,    0.9128,    0.9931,    1.5734,    1.9278,    3.1686,    3.8058,    2.6671,    2.3836,    2.0148,    1.7885,    1.9790,    2.4169,    2.7054,    2.7299,    1.8585,    0.7765,    0.2432,    0.2182,   -1.3864,    0.1361,    0.4739,    1.9154,    2.3377,    2.4345,    2.0613,    2.0063,    2.2378,    1.7973,    1.8610,    2.6070,    3.5804,    4.0872,    4.9593,    6.1751,    7.6466,    7.4078,    5.4106,    4.4290,    5.0360,    6.1886,    5.4263,    3.5146,    2.1318,  999.0000,  999.0000,  999.0000,  999.0000,    3.5739,    4.0806,    2.6356,    3.3629,    5.2501,    4.0506,    1.9735,  999.0000,
 30-OCT-1996 00:58:21.06,    0.9170,    1.1714,    1.4494,    1.6314,    1.3399,    1.0064,    0.8269,   -0.1905,  999.0000,   -0.9131,   -0.1239,    0.1982,    1.4018,  999.0000,    3.1191,  999.0000,    2.6891,    1.8689,    1.8571,    1.8778,    2.0847,    1.9720,    2.4801,    2.2479,    2.4131,    0.2604,    0.2074,    0.2180,   -0.5922,   -0.3239,    0.3352,    1.7969,    1.9567,    2.0431,    2.0566,    2.3389,    2.3789,    1.3806,    1.7729,    2.8610,    3.4184,    3.9160,    4.9575,    6.2760,    7.2281,    7.1542,    5.2247,    4.0936,    4.7835,    6.2222,    5.3098,    3.2122,    2.5704,    1.6260,    0.8253,    1.3901,    2.2239,    3.4225,    4.0293,    3.6480,    4.0200,    5.0898,    4.0193,    2.5736,    2.9931,
 30-OCT-1996 01:00:58.39,    0.9265,    1.0780,    1.0043,    0.5963,    0.8058,    0.0188,    0.1391,   -0.0872,   -0.9796,   -0.9262,   -0.2295,    0.0681,    1.6184,    1.1855,  999.0000,    2.5832,    2.5646,    2.3554,    1.6445,    1.8887,    1.8323,    1.7418,    2.4007,    1.9869,    1.6939,   -0.2116,   -0.7953,   -0.7690,   -0.5184,   -0.0799,    0.1628,    1.3285,    1.9949,    2.1598,    2.0736,    2.0554,    1.4336,    0.1754,    1.4959,    2.5472,    3.3377,    3.9796,    4.8461,    5.8229,    6.7016,    6.4061,    5.2704,    3.9483,    4.2683,    5.6352,    4.8828,    3.5328,    2.9807,    1.2222,  999.0000,  999.0000,    2.0392,    3.1198,    3.6219,    3.4195,    3.5387,    4.3711,    2.6945,    1.6396,    2.5236,
 30-OCT-1996 01:03:35.29,    0.7624,  999.0000,    0.0376,   -0.9248,  999.0000,   -0.6993,   -0.0441,    0.2932,   -0.6666,  999.0000,    0.4642,    0.7239,    2.0007,    2.5249,    2.7453,    2.8466,    2.7142,    2.7301,    2.1285,    1.7978,    1.5305,    1.7574,    2.3710,    1.6898,    1.4411,    0.1196,   -0.6111,   -0.2623,   -0.4227,   -0.3098,   -0.3152,    0.9687,    1.9113,    1.9081,    1.6469,    1.9518,    1.6401,    0.3932,    1.9891,    2.4330,    3.2025,    3.4081,    3.9927,    4.9054,    6.3977,    6.7145,    5.2287,    4.0571,    4.3542,    5.7047,    4.7888,    3.6641,    3.1493,    1.3230,    0.6350,    1.2460,    2.1911,    3.3928,    3.7536,    4.4192,    4.9551,    4.9278,    3.2188,    2.2636,    3.0960,
 30-OCT-1996 01:06:14.27,    0.8281,  999.0000,    0.6582,    0.7218,  999.0000,   -0.2432,   -0.2101,   -0.4201,   -0.9910,   -0.3728,  999.0000,    0.6529,    1.7187,    1.9567,    2.3660,    2.4254,  999.0000,    2.3181,    2.3605,  999.0000,    1.2074,    1.5716,    2.1647,    1.7405,    1.4016,    0.1104,   -0.4880,    0.0570,   -0.1226,   -0.4411,   -0.1559,    1.2076,    2.3156,    2.1331,    1.6129,    2.0320,    2.2335,    1.8269,    2.5086,    2.7739,    3.4050,    4.8810,    4.4557,    5.5847,    6.9885,    6.8768,    5.4290,    4.0255,    4.0995,    5.3590,    5.1548,    4.1635,    3.1205,    1.9917,    0.9705,    0.6981,  999.0000,  999.0000,    4.2403,    4.9584,    5.3579,    5.8377,    3.6476,    2.1756,    2.9930,
 30-OCT-1996 01:08:51.38,    0.9626,    0.9286,    0.8767,    0.8543,    0.6869,   -0.1113,   -0.4083,   -0.5691,   -1.0203,   -0.5897,   -0.0261,    0.4423,    1.8093,    1.8260,    2.1128,    2.6250,    2.3829,    1.5323,    1.8064,    1.6209,    1.9009,    1.8955,    2.3090,    1.4372,    0.8255,   -0.1444,   -0.3759,   -0.4039,   -0.4488,   -0.5519,   -0.3250,    0.8161,    2.0464,    1.9760,    1.7245,    1.8855,    1.9038,    2.0325,    2.4616,    2.7303,    3.2418,    3.4449,    4.1664,    5.0373,    6.2380,    6.6530,    5.7657,    4.0151,    3.9949,    5.2907,    5.1566,    3.9901,    2.7793,    1.4177,    0.2918,    0.2016,    0.5794,  999.0000,    3.1470,    4.8474,    5.2844,    5.6277,    3.8899,    2.3181,    3.0327,
 30-OCT-1996 01:11:30.47,    1.0359,    1.1419,    1.0731,    1.0528,    1.0203,    0.5104,    0.1861,   -0.3959,   -1.3021,   -0.8314,   -0.5739,    0.3055,    1.3530,    1.6520,    2.1931,    2.8016,    2.3386,    0.7120,    1.1657,  999.0000,    1.4213,    1.3974,    2.1791,    1.6513,    1.0277,    0.0848,   -0.2704,   -0.1401,    0.3875,   -0.7666,   -0.7148,    0.7595,    1.5513,    1.6389,    1.5020,    1.4766,    1.9142,    2.0497,    2.0309,    2.5607,    2.8719,    3.1905,    3.5910,    4.5770,    5.7177,    6.0854,    5.6495,    4.3577,    4.4447,    5.5857,    4.8433,    3.7077,    2.8308,    1.1922,    0.4909,    0.5306,    1.5490,    3.3559,    3.2007,    4.1057,    5.3039,    5.8310,    4.0884,    2.9691,    3.5810,
 30-OCT-1996 01:14:07.50,    0.6778,    0.5575,   -0.0068,   -0.0181,    0.0168,   -0.2407,   -0.0762,  999.0000,   -2.7043,   -2.8528,   -1.7187,  999.0000,    0.5661,    0.6565,    2.1878,    3.2809,    2.9044,    1.5105,    1.2599,    0.4732,    0.0816,    1.1373,  999.0000,    2.1597,    1.5705,    0.5086,    0.0885,    0.3040,  999.0000,   -0.2627,   -0.2893,    0.9041,    2.2456,    2.3943,    1.8173,    0.9514,    1.9327,    2.4200,    2.3993,    3.2299,    3.7310,    3.9493,    3.8097,    4.7497,    6.0504,    6.1592,    5.9513,    4.2997,    4.2111,    5.4094,    5.0873,    3.9737,    3.4102,    1.8693,    1.1604,  999.0000,  999.0000,  999.0000,    5.0411,    5.5257,    5.8637,    6.2337,  999.0000,    3.8228,    4.3864,
 30-OCT-1996 01:16:44.52,    1.1598,    0.7313,    0.5233,    0.8676,    1.1992,    0.3698,   -0.1271,   -0.1473,   -0.6647,   -1.0286,   -0.7057,    0.0360,    1.0109,    1.5704,    2.7155,    4.1043,    3.4419,    1.7663,    1.4725,  999.0000,  999.0000,    1.9116,    2.0092,    2.3277,    1.4298,    0.2743,   -0.0766,    0.0318,   -0.0917,   -0.1165,   -0.3072,    0.3936,    2.0106,    2.3407,    2.2201,    1.7206,  999.0000,    2.5939,    1.8982,    3.0736,    3.8749,    3.1038,    3.5946,    4.2495,    5.9035,    6.0593,    5.5110,    4.0065,    3.9513,    4.6072,    5.6636,    4.5142,    3.6896,    2.6444,    1.7537,    1.0152,    2.5525,    4.2589,    5.5315,    6.3868,    6.7835,    7.1700,    5.8805,    4.4104,    4.9339,
 30-OCT-1996 01:19:23.97,    1.3136,  999.0000,    0.8054,    1.0038,    1.2767,  999.0000,    0.1637,    0.1124,   -0.2456,   -0.2539,   -0.9509,   -0.2180,    1.4779,    3.0381,    3.6522,    4.1759,    3.3860,    2.5617,    2.1849,    1.8605,    1.7891,  999.0000,    2.1605,    2.3167,    1.3877,    0.1040,   -0.0913,    0.1786,   -0.1956,   -0.3316,   -0.6602,   -0.5015,    2.0540,    2.4276,    2.1827,    2.1401,    2.5162,    2.6526,    2.6825,    3.3581,    3.8455,    4.4753,    4.2880,    5.1369,    6.1326,    6.4598,    6.1624,    4.3656,    4.2249,  999.0000,  999.0000,    5.3837,    3.7155,    2.2903,    1.5300,    1.3381,    2.8049,    4.0598,  999.0000,    5.0894,  999.0000,    6.9451,    6.5184,  999.0000,    4.7696,
 30-OCT-1996 01:22:01.46,    0.7941,    0.2458,   -0.0708,    0.1035,    1.1277,    1.3235,    0.9786,    0.2664,  999.0000,  999.0000,   -3.4310,   -2.2901,  999.0000,  999.0000,    3.1965,    3.3283,    2.5325,    1.8682,    1.6304,    1.3664,    1.2944,    1.2645,    2.0871,    2.0884,    1.4269,    0.0315,   -0.5325,   -0.4288,   -0.7622,   -0.7898,   -0.8960,   -0.5390,    1.8681,    2.3681,    2.0863,    1.7805,    2.2140,    2.5595,    2.7524,    2.9304,    3.0318,    3.5350,    3.6008,    4.3567,    5.4147,    6.1962,    5.7388,    3.6343,    3.7851,    5.4303,    5.7940,    4.7804,    3.1651,    1.6153,    1.1772,    1.7790,    3.5541,    5.5749,    5.9728,  999.0000,    5.8620,    6.6359,    5.7667,    4.3078,    4.6810,
 30-OCT-1996 01:24:38.36,    0.9822,  999.0000,   -0.1042,   -0.7730,  999.0000,    0.8501,    0.6723,   -0.0088,   -0.6298,   -0.3786,   -0.0884,    0.2427,  999.0000,    2.1367,    1.9713,    2.2952,    2.5120,    1.6583,    1.6418,    1.8553,  999.0000,    1.3421,    1.8961,    2.1580,    1.9211,    0.4450,   -0.1320,   -0.5383,   -0.1911,   -0.4819,   -0.8367,   -0.6124,    1.2607,    2.3816,    2.1864,    1.9953,    3.2451,    3.0813,    2.9200,    3.1810,    3.2709,    3.6933,    3.5228,    4.6248,    5.8967,    6.2305,    5.9134,    3.7390,    3.7752,    5.2670,    4.6085,  999.0000,  999.0000,    1.0356,    0.3781,    1.2710,    2.9419,    4.7582,  999.0000,  999.0000,  999.0000,    6.3957,    5.3453,    4.4807,    4.6297,
 30-OCT-1996 01:27:15.32,    0.7622,    1.1327,    1.2821,    1.0788,    0.8173,    0.5937,    0.5856,   -0.1076,   -0.6999,   -1.0110,  999.0000,   -0.2430,    0.9075,    3.0478,    1.7980,    2.4124,    2.6498,    2.2058,    2.3753,    1.9239,    2.0499,    1.9036,    2.2624,    2.1521,    2.1353,    0.4725,   -0.1520,   -1.0790,   -0.6264,   -0.4818,   -0.7576,   -0.3743,    1.2577,    2.1582,    1.9982,    1.8433,    2.4005,    3.1963,    3.3105,    3.6256,    3.4938,    3.3639,    2.9834,    4.2692,    6.1403,    6.3693,    5.5889,    4.0586,    4.0684,    5.4529,    5.3535,    3.8286,    2.7180,    1.3186,    0.6017,    1.1833,    3.2230,    4.7742,  999.0000,   -3.1775,  999.0000,    5.2782,  999.0000,    4.4553,    4.2496,
 30-OCT-1996 01:29:52.20,    0.8374,    0.6528,    0.6839,    0.8122,    0.7242,  999.0000,  999.0000,   -0.5092,   -0.8983,   -1.4458,   -1.1790,   -1.2292,   -0.2729,  999.0000,    1.1123,    2.0768,    2.4099,    2.1704,    1.7315,    1.0968,    1.1927,    1.4221,    1.9462,    2.5835,    2.1895,    0.8646,   -0.2848,   -1.2153,   -1.0533,   -0.4353,   -0.3621,   -0.5434,    0.8214,    1.8219,    1.5822,    2.0887,    2.3357,    2.7450,    2.8684,    3.5237,    3.7205,    3.1057,    2.6869,    4.0218,    6.2143,    6.8179,    6.2323,    5.0145,    4.3394,    5.2548,    5.6723,    4.2892,    2.7944,    1.7526,    1.1993,    2.1478,    3.6396,  999.0000,  999.0000,    1.4531,  999.0000,  999.0000,  999.0000,    3.3931,    3.6796,
 30-OCT-1996 01:32:29.21,    0.4807,    0.0511,   -0.3256,   -0.3096,   -0.3192,   -0.1425,    0.0910,    0.1815,   -0.3245,   -1.0532,   -1.1862,   -0.9717,   -0.2451,  999.0000,    1.6790,    2.4852,    2.3137,    1.4311,    1.5891,    1.0900,    1.0990,    1.4908,    2.0172,    2.0867,    2.0962,    1.1699,    0.1171,   -0.9921,   -0.9826,   -0.8589,   -0.4543,   -0.3610,    1.0737,    2.0548,    2.1303,    2.4611,    2.9347,    3.5455,    3.6765,    3.4671,    3.9470,    4.1253,    3.9313,    4.6721,    6.2448,    6.9350,    5.7757,    4.3299,    3.9054,    4.9780,    4.8686,    3.6942,    2.3519,    1.0821,    1.0638,  999.0000,  999.0000,    3.5774,  999.0000,   -1.0374,  999.0000,    4.0873,    4.6007,    3.0555,    3.1828,
 30-OCT-1996 01:35:08.56,    0.4032,    0.2255,   -0.2218,   -0.3555,   -0.2305,   -0.3296,   -0.0187,    0.3005,   -0.0684,   -0.8895,   -0.7630,   -0.5411,    0.8201,    2.1293,    2.2716,    2.5052,    2.3998,    2.0281,    2.3770,    1.8718,    1.5576,    1.5143,    1.9312,    1.5249,    1.9413,    0.9902,    0.4141,   -0.7785,   -0.8419,   -0.8692,   -0.4451,   -0.1630,    1.4977,    2.0362,    2.4149,    2.4551,    3.2422,    4.1148,    4.0253,    4.5304,    4.6055,    4.6740,    4.4945,    4.6941,    5.2635,    5.8642,    5.1820,    3.7045,    3.5741,    4.8045,    4.6785,    3.7655,    2.5341,    1.0816,    1.0321,  999.0000,  999.0000,    3.7860,    3.4578,  999.0000,    6.1266,    5.2907,    4.2257,    2.5714,    2.8955,
 30-OCT-1996 01:37:45.49,    0.5366,    0.4410,    0.1689,   -0.2657,   -0.4323,   -0.4989,   -0.3697,   -0.2295,  999.0000,   -0.9737,   -1.0284,   -0.8377,  999.0000,    2.3171,    2.2197,    2.7123,    2.6210,    1.8672,    2.3256,    2.5785,    2.1525,    1.6051,    1.9745,    2.1896,    2.4785,    0.9720,    0.5790,   -0.9551,   -1.1786,   -0.8930,   -0.8090,   -0.3198,    1.6349,    2.0532,    1.6848,    2.2304,    2.5601,    3.7476,    4.9401,    4.6507,    4.2279,    3.4249,    3.2961,    4.2045,    4.8579,    5.2742,    5.2512,    4.3673,    3.7215,    4.6195,    4.6525,  999.0000,  999.0000,  999.0000,  999.0000,  999.0000,    3.6246,  999.0000,  999.0000,  999.0000,    6.6394,    5.8793,    4.2581,    2.5821,    3.0619,
 30-OCT-1996 01:40:22.82,    0.4640,    0.3593,   -0.0877,   -0.4066,   -0.5148,   -0.4453,    0.1402,   -0.2499,   -0.0767,   -0.2549,   -0.2419,    0.2753,    1.4286,    2.1502,    1.8984,    2.1453,    2.4552,  999.0000,    2.1317,    2.2846,    2.1627,    2.2375,    2.6713,    2.7287,    3.2762,    1.4584,    1.1980,   -0.6412,   -0.8217,   -0.6738,   -0.4444,   -0.1091,    1.3946,    1.8989,    1.8218,    2.3645,    3.0531,    3.7190,    4.1227,    4.5556,    3.5092,    2.8057,    3.0834,    4.4547,    5.0664,    5.3252,    5.2402,    4.0621,    3.7168,    4.3295,    4.7118,    4.8456,  999.0000,  999.0000,    1.2009,    2.6841,  999.0000,  999.0000,  999.0000,  999.0000,  999.0000,    4.3004,    3.1318,    1.9515,    2.3729,
 30-OCT-1996 01:43:01.84,    0.4099,    0.1766,   -0.4249,   -0.5689,   -0.6391,   -0.3581,   -0.0578,   -0.3733,   -0.2096,   -0.0238,   -0.0355,    1.0982,    1.9549,    1.8760,    1.1566,    1.8636,    2.3206,    2.0190,    1.9208,    2.0691,    1.9982,    2.0859,    2.2500,    2.5029,    2.9667,    1.2869,    1.3186,   -0.4828,   -0.6854,   -0.5343,   -0.1985,    0.1835,    1.8587,    2.5104,    2.4869,    2.7512,    3.6159,    4.1440,    3.8889,    4.1406,    3.5235,    2.2262,    2.3050,    4.0083,    5.4452,    6.1053,    5.1877,    3.8241,    3.3911,    4.3175,    5.2058,    4.3475,    2.0068,    0.8490,    0.7810,    1.9803,    2.7236,    3.4785,  999.0000,  999.0000,    5.4471,    4.7480,    3.0131,    2.1085,    3.2473,
 30-OCT-1996 01:45:41.02,    0.3194,   -0.0952,    0.0111,   -0.0113,   -0.2904,   -0.5663,   -0.2914,   -0.4166,   -0.6536,   -0.4128,   -0.3036,    0.6564,    1.3862,    1.4297,    1.2058,    1.6148,    1.8888,    1.6014,    1.8068,    1.8190,    1.9625,    1.8486,  999.0000,    2.1313,    2.6482,    1.1494,    0.8928,   -0.3390,   -0.9661,   -0.8877,   -0.4601,   -0.0739,    1.6423,    2.4886,    2.2160,    2.5572,    3.2142,    3.6888,    4.0978,    3.8511,    3.4858,    2.8173,    3.3902,    4.7752,    5.5471,    5.9132,    5.9267,    4.5247,    4.1174,    4.2688,    4.4169,  999.0000,  999.0000,  999.0000,  999.0000,    1.7858,    2.5559,    2.5838,  999.0000,   17.1609,  999.0000,    7.2854,    3.0894,    1.8165,  999.0000,
 30-OCT-1996 01:48:18.45,    0.5831,  999.0000,    1.2182,    0.9600,    0.4018,   -0.1440,   -0.4516,   -1.1057,   -1.1664,   -0.5399,    0.1133,    0.6844,    0.8709,    1.4774,    1.2590,    1.4230,    2.2931,    1.8569,    1.3912,    1.7744,    2.0491,    1.8040,    1.6390,    1.7105,    2.7374,    1.8838,    1.0400,   -0.0131,   -0.3800,   -0.5348,    0.1795,    0.0623,    1.1094,    2.7550,    2.4776,    2.9116,    3.4972,    3.7816,    3.0678,    3.8804,    3.5104,    3.2858,    3.5630,    4.5715,    5.4878,    6.2997,    6.4636,    4.6063,    4.0102,    4.0048,    4.4080,    4.3127,    2.1326,    1.0859,    0.8346,    1.6881,    3.0709,    2.8928,  999.0000,    8.2806,  999.0000,    5.6860,  999.0000,    2.3587,    2.8633,
 30-OCT-1996 01:50:59.42,    0.6567,    1.5174,    1.3641,    1.1718,    0.7203,  999.0000,    0.5533,    0.4301,  999.0000,  999.0000,    0.8266,    1.1106,    1.5694,    2.0714,    1.8982,    2.2716,    2.8569,    2.1177,    1.9938,    1.8084,    1.9320,    2.1231,    1.3966,    1.5824,    2.3564,    1.7401,    0.6519,    0.4615,   -0.7144,   -0.9730,   -0.5090,   -0.0439,    1.0542,    2.6430,    2.1351,    2.5631,    3.0819,    3.8615,    4.9989,  999.0000,    3.7699,    3.3158,    3.6591,    4.7806,    5.9306,  999.0000,    5.5835,    4.7855,    4.7012,    4.8942,    4.2209,    3.3376,    2.3883,    1.2664,    1.4972,    2.4573,    3.3198,    2.4290,    1.5990,  999.0000,    5.4464,    5.0317,    3.3571,    2.7916,    3.7685,
 30-OCT-1996 01:53:36.40,    0.9682,  999.0000,    1.3060,    1.0678,    0.8080,    0.9744,    1.0537,    0.9161,    0.6878,    0.3544,   -0.2423,    0.4612,  999.0000,    2.0891,    1.5982,    2.3101,    2.4332,    1.8990,    1.0264,    1.1388,    1.4060,    1.8547,    1.1932,    1.2042,    1.7167,    1.4042,    1.0468,    0.1737,   -0.6117,   -0.9360,   -0.9696,   -0.1395,    1.0091,    2.1079,    1.6492,    2.0305,    3.3121,    3.5913,    4.0493,    3.8178,    3.8307,    3.2365,    3.8423,    4.8628,    6.0084,    6.7705,    6.4257,    5.4844,    5.0463,    4.9122,    4.3800,    3.5830,    2.3198,    1.2259,    1.5100,    2.3248,    3.3818,    2.9352,  999.0000,  999.0000,  999.0000,    5.0283,    3.2101,    3.1499,    3.3711,
 30-OCT-1996 01:56:15.76,    1.2881,    1.3564,    1.2278,  999.0000,    1.0818,    1.2121,  999.0000,  999.0000,    0.4017,   -0.2783,   -0.4846,    0.0281,  999.0000,    2.1120,    1.8193,    2.2353,    1.9945,    1.5470,    1.8848,    2.0019,    1.7163,    2.0196,    1.7052,    0.8038,    1.5974,    1.5806,    0.7254,    0.1202,  999.0000,   -0.8748,   -0.5766,    0.0100,    0.9844,    1.9651,    2.0243,    2.9583,    3.4425,    3.6134,    3.7591,    3.7924,    3.5306,    2.8405,    3.6821,    4.6230,    5.6392,    6.5686,    6.3579,    5.1569,    4.5136,    3.6567,    3.4612,    3.2422,    1.9158,    0.7329,    0.2939,    1.3088,    2.2939,  999.0000,  999.0000,  999.0000,   -2.6030,    5.1169,    3.7035,    3.7090,    3.2510,
 30-OCT-1996 01:58:55.00,  999.0000,    0.6555,    0.7930,    0.9810,    1.2046,    1.3919,    1.1985,    0.9974,    0.7138,    0.2444,   -0.5365,   -0.3175,    1.5130,    1.5508,    1.3942,  999.0000,    2.2100,    1.6814,    1.8199,    1.8961,    1.7858,    1.8677,  999.0000,    0.6587,    1.0330,    1.4946,    0.5972,   -0.1025,   -0.9347,   -0.9105,   -0.8290,   -0.3135,    0.8950,    1.5676,    1.7785,    2.8226,    3.0626,    3.2729,    4.1065,    3.9776,    3.0569,    2.2893,    3.3254,    4.4651,    4.9936,    5.6630,    5.0195,    3.8436,    3.3735,    3.1529,    3.7013,    3.3807,    1.8192,    0.5628,    0.5289,    1.7085,    2.5408,    2.9878,  999.0000,  999.0000,    2.9378,    5.2203,    3.8048,    3.3552,    3.3585,
 30-OCT-1996 02:01:34.13,    0.6473,    0.8073,    0.7679,    0.8587,    1.0419,    1.3792,    1.2533,    0.9033,    0.2822,  999.0000,   -0.7348,   -0.6449,  999.0000,    1.1544,  999.0000,    1.4802,    1.8605,  999.0000,    0.8962,    1.1868,  999.0000,    0.9355,  999.0000,    0.3091,    0.7543,    1.3216,    0.7012,    0.1585,   -1.1758,   -0.9367,   -0.5701,   -0.2009,    0.7224,    1.6096,    1.9744,    2.3401,    2.8466,    2.6790,    3.0117,    3.5667,    2.6600,    2.0566,    2.9073,    4.1862,    4.8136,    5.0732,    4.2668,    3.1645,    2.9107,    2.7833,    3.1904,    2.7744,    1.5804,    0.3671,    0.5596,    2.0460,    2.0655,    1.3834,  999.0000,    5.1500,    6.3887,    5.1872,    3.5227,    3.0189,    3.2401,
 30-OCT-1996 02:04:11.29,    0.8437,    1.3319,    1.3670,  999.0000,    1.3547,    1.7386,    1.0772,    0.9431,    0.9097,    0.6095,    0.1867,    0.1550,    1.4275,    0.7174,  999.0000,    1.1142,    1.9984,    1.2048,    1.4998,    1.3887,    1.2077,    1.4233,    1.1738,    0.6812,    1.1191,    1.5934,    1.2067,    0.5109,   -0.1767,   -0.3586,   -0.2124,    0.3266,    1.3194,    2.0489,    2.8030,    3.1623,    3.7659,    3.3441,    3.0808,    3.5149,    3.2788,    2.6891,    3.1318,    4.3713,    5.0396,    5.2078,    3.9588,    2.9969,    2.8839,    2.7854,    3.3579,    2.9047,    1.5428,  999.0000,  999.0000,    1.9225,    2.2050,  999.0000,  999.0000,    5.4197,    6.5077,    5.0429,    3.5882,    3.1719,    3.2479,
 30-OCT-1996 02:06:49.05,    1.1815,    1.1753,    1.2145,    1.3292,    1.7364,    2.2129,  999.0000,    0.7119,    0.3461,    0.0144,   -0.1651,    0.1515,  999.0000,    0.8867,    0.8418,    1.9908,    2.3821,    1.9374,    1.7446,    1.1189,    1.4517,    1.8765,    1.0546,    0.6879,    1.2679,    1.4664,    1.4206,    0.4679,    0.1970,    0.0390,   -0.3074,   -0.0890,    0.5258,    1.7043,    2.3695,    2.9974,    3.5823,  999.0000,    3.1857,    3.3886,    3.2232,    2.4077,    2.5694,    4.2313,    4.6389,    5.0206,    3.8933,    2.8884,    2.6903,    2.4688,    3.0738,    2.9270,    1.3559,    0.3428,    2.3195,  999.0000,    2.2377,  999.0000,  999.0000,  999.0000,    6.1833,    5.1439,    4.0182,    3.4366,    3.3922,
 30-OCT-1996 02:09:28.47,    0.5939,    0.8640,    0.8763,    1.1506,  999.0000,    1.0673,    1.0901,    0.6996,    0.5853,  999.0000,   -0.0325,    0.3968,  999.0000,    1.6989,    1.4808,    2.1273,    2.6629,    2.2442,    1.9119,    1.6881,    1.7326,    1.9298,    1.0707,    0.3889,    0.7034,    1.2513,    1.0971,    0.6718,    0.1810,   -0.3441,   -0.4940,   -0.5423,   -0.3197,    1.5916,    1.9457,    2.7934,    3.4083,    3.0326,    3.1658,    3.5112,    3.5480,    2.4931,    2.6586,    3.8653,    4.0981,    4.1414,    3.4969,    2.2889,    1.8268,    1.7607,    2.5054,    2.4286,    0.8848,   -0.5826,   -0.2391,    1.0419,    1.4783,    2.2546,  999.0000,  999.0000,    5.2223,    5.0434,    3.9681,    2.8563,    3.4937,
 30-OCT-1996 02:12:05.50,    0.4525,    1.1723,    1.1644,    1.0318,    1.0970,    0.5958,    0.4373,    0.7472,    0.8631,    0.2997,   -0.1735,    0.1066,    1.6711,    1.9303,    1.8120,    1.7128,    2.0171,    1.7790,  999.0000,    1.4910,    1.4716,    2.1142,  999.0000,    0.8377,    0.9459,    1.5828,    1.3873,    0.9788,    0.4337,   -0.1451,   -0.4297,   -0.2794,   -0.5491,    1.2894,    2.1298,    2.6300,    3.2934,    3.3168,    3.4966,    3.6297,    3.4513,    2.5533,    2.7460,    3.8876,    4.2652,    4.1007,    3.2881,    2.4709,    2.1667,    1.4794,    2.0206,    2.2511,    0.9721,   -0.5173,   -0.3761,    0.9267,    1.4724,  999.0000,  999.0000,    4.5568,    5.1298,    4.7060,    3.8197,    2.9415,    3.6329,
 30-OCT-1996 02:14:44.60,    0.8715,    1.0996,    1.2043,    0.9530,    0.4835,    0.0614,    0.3556,    0.6909,    0.3446,    0.0080,   -0.5347,   -0.2955,    1.7243,    2.5323,    2.5297,    2.7806,    2.2836,    1.5526,    2.0357,    2.3064,    2.1442,    2.3070,    0.7458,    0.5355,    0.8971,    1.4534,    0.9724,    0.6096,    0.2107,   -0.0873,   -0.3218,   -0.4211,   -0.6685,    1.2839,    1.9769,    2.4170,    3.1625,    3.1031,    3.0951,    3.1241,    3.1526,    2.2150,    2.6578,    4.0832,    4.3299,    3.8967,    3.2532,    2.4737,    1.9087,    0.8948,    1.6892,    2.2929,    1.1438,  999.0000,  999.0000,  999.0000,  999.0000,  999.0000,  999.0000,    4.5227,    5.1612,    4.1909,    2.4895,    2.2620,  999.0000,
 30-OCT-1996 02:17:21.51,    1.4973,  999.0000,    1.1296,    0.7403,    0.7523,    1.0987,    0.7901,    0.3638,  999.0000,   -0.5298,   -1.0489,   -0.9583,  999.0000,    2.4213,    3.0699,    3.0256,    2.2283,    1.6035,    2.0606,    2.8123,    2.3868,    1.9436,    0.3628,   -0.1026,    0.6238,    1.3595,    0.4455,    0.5802,   -0.0824,   -0.5083,   -1.5009,    0.6538,    0.2337,    1.0011,    2.0503,    2.6797,    3.4099,    3.1892,  999.0000,    4.3177,    3.2681,    2.4836,    2.9956,    4.0473,    4.3027,    4.4986,    3.7142,    3.0649,    2.0479,    0.7313,    1.7872,    2.9343,    2.0359,    0.1060,   -1.3276,   -0.4116,    0.8147,  999.0000,  999.0000,    4.6780,    5.1102,    3.9574,    2.5920,    2.0530,    2.7316,
 30-OCT-1996 02:19:58.71,    0.6469,    0.8529,    0.6237,    0.3016,    0.3344,   -0.4692,   -0.1236,   -0.3348,   -0.5192,   -0.9458,   -0.9830,   -0.8033,    0.5753,    1.9406,    2.5445,    3.0110,    2.5568,    2.0276,    2.1991,    2.0464,    2.2935,    1.3923,   -0.0836,   -0.2091,    0.0569,    0.9185,   -0.1785,   -0.0393,   -0.1291,   -0.4235,   -1.0577,    0.1452,    0.1026,    0.6666,    2.4973,    1.9861,    2.1791,    1.9679,  999.0000,    3.0218,    2.8181,    1.4522,    1.9331,    3.3611,    3.5863,    3.8727,    3.5797,    2.9279,    2.0331,  999.0000,  999.0000,  999.0000,    0.9416,   -0.8660,   -1.3241,   -0.0449,    1.1960,  999.0000,  999.0000,  999.0000,    6.9979,    3.7195,    2.9914,    1.9942,    1.6520,
 30-OCT-1996 02:22:37.66,    0.6203,    1.2654,    1.4307,    1.0783,  999.0000,   -1.2560,  999.0000,  999.0000,    0.1181,   -0.2785,   -0.6204,   -0.3092,    1.4439,    2.0614,    1.8297,    2.9968,    2.9185,    2.3241,    1.9796,    1.6343,    1.9215,    1.5338,   -0.1597,   -0.0408,    0.3367,    1.3745,    0.4776,    0.1716,    0.1541,    0.0330,   -0.0982,    0.2171,   -0.4049,    1.2218,    2.3649,    2.6258,    2.8919,    2.4879,    2.8699,    3.0609,    3.0846,  999.0000,    2.3315,    3.6890,    4.0324,    3.9927,    3.4128,    2.6868,    1.8041,    1.0011,    2.1535,    3.1913,    1.5252,  999.0000,  999.0000,    0.4409,    0.8528,  999.0000,  999.0000,  999.0000,    3.0501,    4.4309,    3.7258,    3.1522,    2.9739,
 30-OCT-1996 02:25:16.65,    0.7782,    1.2513,    1.2931,    1.3005,    1.3309,    0.8850,    0.5114,    0.2703,    0.2621,    0.4921,    0.1894,    0.1646,    1.3855,    2.3668,    2.3414,    2.8324,    2.3697,    2.1376,    2.0455,    1.9876,    2.0517,    2.5408,    1.3396,    0.5867,    0.8564,    2.0094,    0.6839,    0.3705,    0.4513,    0.7249,    0.4453,   -0.0650,   -0.5049,    0.5120,    2.0707,    2.5790,    3.4481,    0.3498,    3.3380,  -14.2404,    3.6038,    1.8045,    2.4622,    4.0067,    4.0620,    3.4994,    3.8363,    3.0941,    1.8812,    1.4293,    2.5389,    2.5950,    1.5391,   -0.2171,  999.0000,  999.0000,    1.3513,    0.2260,  999.0000,  999.0000,    3.2740,    3.9334,    3.0741,    2.8981,    3.8325,
 30-OCT-1996 02:27:55.99,    1.0201,    1.2524,    0.9842,    0.7437,    0.6770,    0.8021,    0.7488,    0.6737,    0.6884,    0.4011,    0.1934,    0.2657,    1.5370,    2.6748,    3.0347,    3.0577,  999.0000,    2.3147,    2.4571,    2.3409,    2.0387,    2.1416,    1.9585,   -0.0469,    0.7192,    1.4519,    1.9105,    0.9309,  999.0000,    0.0758,    0.1425,    0.3519,   -0.3055,    0.8089,    1.9875,    2.7048,    3.3627,    2.3518,    3.9550,   -2.5087,    3.2163,    2.0294,    2.6083,    4.1395,    4.5985,    3.7323,    3.3426,    2.6560,    1.4148,    1.3094,    2.6106,    2.8352,    1.9092,    0.2203,   -0.5465,    0.5997,    0.6592,  999.0000,  999.0000,  999.0000,   10.2800,    4.0900,    3.6802,    3.0572,    3.1736,
 30-OCT-1996 02:30:35.06,    0.8220,    1.0467,    0.8526,    0.5558,    0.4640,    0.1482,    0.2983,    0.6803,    0.6239,    0.1334,   -0.0220,    0.1660,    1.3244,    2.4361,    2.9913,    3.0019,    2.2133,    2.2224,    2.0004,    1.6814,    1.6310,    1.9356,  999.0000,   -0.0428,    1.0042,    1.6784,    0.6307,    0.5294,    0.4421,    0.2853,    0.6658,    0.9667,  999.0000,    0.7835,    2.0452,    3.1749,    3.8858,    3.9907,    3.3243,    2.7464,    3.1684,    2.0789,    2.3628,    4.0850,    4.6829,    4.3590,    3.0930,    2.3807,    1.4212,    1.7453,    3.1321,    2.8103,    1.7021,    0.6319,   -0.0781,    0.4552,  999.0000,  999.0000,  999.0000,    4.8722,    7.4619,    4.4380,    3.6038,    3.7162,    3.4247,
 30-OCT-1996 02:33:12.24,    0.9301,    1.7522,    1.2875,    1.1007,    1.0014,    0.4310,   -0.0541,    0.1040,    0.3480,    0.1826,   -0.0158,    0.0365,  999.0000,    2.2975,    2.5890,    2.6132,    2.1608,    2.2253,    1.7325,    0.7114,    0.7618,  999.0000,    0.9778,   -0.0003,    0.8256,    1.6122,    0.9105,    0.1992,    0.6458,    0.6625,    0.9224,    0.5985,   -0.1639,    1.1412,    2.1102,    2.9393,    3.6057,    3.7217,    3.6504,    3.7723,    3.5811,    2.4300,    2.7552,    4.2147,    4.6951,    3.9449,    3.0790,    2.2462,    1.5099,    1.9770,    3.3291,    3.1711,    1.6416,    0.4467,    0.1814,    0.6764,    2.7650,    5.2218,    5.2826,    5.2510,    5.7364,    4.5345,    3.5736,    3.5974,    2.9890,
 30-OCT-1996 02:35:51.54,    0.6306,  999.0000,    0.2873,    0.7665,    0.9686,    0.8141,  999.0000,   -0.9554,   -1.1854,   -0.5698,   -0.5678,   -0.4693,  999.0000,    1.4401,    1.5536,    1.5337,    1.7168,    1.4184,    0.5149,  999.0000,   -0.4605,  999.0000,    0.1574,   -0.7438,    0.3208,    1.2623,    1.0633,   -0.1172,    0.5386,    1.1003,    1.4363,    1.1477,    0.3296,    1.2932,    2.5734,    3.3051,    3.8142,    3.3721,    3.1325,    3.8057,    3.6176,    2.9668,    3.3464,    4.4709,    5.1670,    4.8218,    3.5395,    2.4096,    2.1813,    2.6636,    2.9677,    3.0283,    1.7678,    0.3316,   -0.0683,    0.7259,    2.2902,    3.6078,    5.2503,  999.0000,    5.4889,    4.6336,    3.3919,    3.3797,    2.8083,
 30-OCT-1996 02:38:28.61,    0.4610,    0.4931,    0.6704,    0.7257,    0.6183,    0.3478,   -0.4852,   -1.6137,   -1.8099,   -0.9205,   -1.0230,   -0.4926,    1.5019,    1.8045,    1.5778,    1.7455,    1.0684,    0.4417,   -0.2789,   -1.1413,   -1.4057,   -0.9775,   -1.0383,   -0.8974,   -0.1757,    1.1815,    1.0557,    0.1403,    0.6609,    0.8023,    1.8177,    1.4224,    0.0694,    1.5091,    2.5637,    3.3151,    3.7318,    3.0248,    2.6505,    3.2869,    3.2003,    2.5616,    3.0816,    4.4325,    5.2937,    5.1764,    3.3509,    2.0538,    1.7899,    2.3655,    2.6361,    2.2315,    1.5546,    0.7480,    0.5074,    1.4990,    2.3765,    4.0604,    5.2940,    5.7561,    5.4067,    4.6931,    3.2225,    3.5362,    3.2266,
 30-OCT-1996 02:41:08.05,    0.4764,    0.8961,    1.1218,    0.8989,    0.8359,    0.5458,   -0.5912,   -1.0655,   -0.6922,   -0.7180,   -0.7196,  999.0000,    1.3405,    1.5670,    1.8382,    1.7089,    1.2099,    0.8977,    0.2109,  999.0000,   -0.4220,   -0.0932,   -0.6630,   -0.9010,   -0.2121,    0.9703,    0.8847,    0.2047,    0.2177,    0.8661,    1.2330,    1.3219,    0.5247,    1.3800,    2.2860,    3.2027,    3.8090,    2.8774,    2.9685,    3.1632,    2.9056,    1.9725,    2.6831,    4.2821,    4.5275,    4.3685,    3.5541,    2.0192,    1.8929,    2.7122,    2.5632,  999.0000,  999.0000,  999.0000,    0.2369,    1.4193,  999.0000,  999.0000,    4.0981,    4.1039,    5.3044,    4.8498,    3.5464,    3.8048,  999.0000,
 30-OCT-1996 02:43:44.95,    0.4938,    0.9605,    0.8898,    0.2978,   -0.0197,   -0.4284,   -1.7653,   -1.9499,  999.0000,    0.1654,    0.1907,    0.2581,    1.1757,    1.4553,    1.9403,    1.6086,    1.5084,    1.4097,    0.9205,  999.0000,    0.3888,    1.2696,    0.3617,   -0.4950,   -0.0503,    1.0669,    0.9060,    0.9697,    0.3078,    0.6955,    0.8927,    1.3533,    1.0222,    1.4024,    2.4019,    3.2466,    4.3798,    3.9319,    3.8830,    3.3086,    3.3847,    2.2257,    2.9554,    4.5920,    4.8898,    4.5685,    3.5555,    2.0828,    1.8936,    1.7662,    2.2545,    1.6099,    1.1490,    1.0212,    0.9734,    2.3221,    3.4085,    4.3413,    4.9951,    6.2019,  999.0000,  999.0000,    3.0166,  999.0000,    2.8800,
 30-OCT-1996 02:46:22.19,    0.3852,    0.7550,    0.5467,    0.3476,    0.0658,   -0.1282,   -0.5562,   -0.6492,   -0.0970,    0.4136,    0.1611,    0.4645,    1.1571,    0.9150,    1.7436,  999.0000,    1.9687,  999.0000,    1.7214,    0.9691,    1.1842,    1.5058,    0.6351,    0.0357,    0.6327,    1.5133,    1.2393,    0.4264,    0.6959,    0.9355,    1.6426,    1.5249,    1.3861,    1.4357,    2.5341,    3.5113,    3.9171,    3.8824,    3.9758,    3.1811,    3.3803,    2.3087,    2.8919,    4.4646,    4.8944,    4.2796,    2.7373,    0.8435,    0.8320,    1.8782,    2.4272,    2.0919,    1.7462,    1.0312,    0.7608,    1.8875,    2.1679,    3.3027,    4.4677,    5.9604,    6.2022,    4.5409,    2.9512,    3.8335,    3.5131,
 30-OCT-1996 02:49:01.80,    0.3002,    0.6183,    0.6415,    0.7302,    0.7708,    0.7350,    0.1170,   -0.7962,   -0.8893,   -0.4413,   -0.5453,   -0.3131,    1.2686,    1.5064,    1.6409,    1.8647,    1.5637,    1.3631,    1.6482,    0.9997,    0.7981,    1.3312,    0.4823,   -0.1434,    0.6501,    1.7113,    1.2550,    0.3555,    0.7299,    0.6290,    1.3280,  999.0000,    1.1446,    1.3861,    2.4815,    3.1361,    3.7642,    3.9555,    4.3339,    3.7103,    2.9299,    1.4947,    2.1909,    3.7103,    4.3691,    3.8187,    2.3232,    0.7287,    0.8063,    1.8955,    2.2565,  999.0000,  999.0000,    1.0076,    0.7498,    1.9324,    2.9492,    3.9255,    4.4130,    5.5570,    5.6220,    4.2180,    3.2019,    4.0036,    3.2942,
 30-OCT-1996 02:51:41.23,    0.3921,    0.3702,    0.5959,    0.1212,   -0.3150,   -0.4198,   -0.6763,   -0.5248,   -0.0656,  999.0000,    0.1619,    0.6683,    1.7471,    1.9717,    2.0649,    2.0681,  999.0000,    1.2199,    1.1406,    0.6463,    0.1148,  999.0000,    0.7098,   -0.0813,    0.7643,    1.6671,    1.0954,    0.5062,    0.9471,    0.9282,    1.5433,    1.8762,    1.0698,    1.2110,    2.4783,    3.9713,    4.5710,  999.0000,    4.2879,    3.8085,    2.8805,    1.8744,    2.3147,    3.4244,    4.0002,    3.3611,    2.4297,    1.1968,    1.0388,    1.6458,    2.0709,    2.0964,    1.6410,    0.9652,    1.0797,    2.1931,  999.0000,  999.0000,    4.6577,    5.7522,    4.9661,    3.6076,    2.3717,    3.3969,    3.5374,
 30-OCT-1996 02:54:18.33,    0.3172,   -0.0102,  999.0000,    0.4146,    0.3396,   -0.0227,   -0.7174,   -0.1124,    0.8498,    0.4514,   -0.0003,    0.6049,    1.3831,    1.5049,  999.0000,    1.7284,    0.9771,    0.7515,    0.6029,    0.5228,    0.1207,    0.7704,    1.2350,    0.2120,    0.8502,    1.8134,    1.3118,    0.6838,    1.1609,    1.4649,    1.9804,    1.9084,    0.9695,    1.4917,    2.4619,    3.7451,    4.7465,    4.6444,    4.6400,    3.7042,    3.2232,    2.1785,    2.4822,    3.7125,    3.6872,    3.1149,    1.8535,    0.7550,    0.3987,    0.7755,    1.4777,    1.5644,    1.2794,    0.7237,    0.8386,    1.7392,    2.1535,  999.0000,  999.0000,    6.1604,    4.9605,    3.5534,  999.0000,    4.0877,    3.6516,
 30-OCT-1996 02:56:55.73,    0.3912,    0.6626,    1.2264,    1.3621,    1.1285,   -0.0781,    1.0951,    1.2064,    1.3763,    0.5212,   -0.3189,    0.6613,    1.7124,    1.8636,    1.9968,    1.9847,    0.9246,    0.6535,    1.0794,    0.9497,  999.0000,  999.0000,  999.0000,   -0.4347,    0.4712,    1.5924,    1.9462,    1.0219,    1.0261,    1.6179,    1.9341,    1.5400,    0.7863,    1.7130,    2.7383,    3.5831,    4.3861,    4.9450,    5.0435,    3.9753,    3.0919,    2.1428,    2.4769,    3.7141,    3.5485,    2.7148,    1.1357,    0.1758,    0.0777,    0.5399,    1.0022,    0.9583,    1.0772,    0.3723,    0.3581,    1.6106,  999.0000,  999.0000,  999.0000,    5.7787,    5.2668,    3.9239,    2.6408,    4.1807,    3.2662,
 30-OCT-1996 02:59:34.79,    0.7665,    1.0872,    0.8452,    0.5955,  999.0000,   -1.7813,  999.0000,    0.4606,    0.9578,    0.8470,    0.3738,    1.7016,    2.1789,    1.4698,    1.5837,    1.8003,    1.3050,    1.0868,    1.1841,    0.2488,    0.2238,    0.9533,    0.1288,    0.0370,    0.3674,    1.4398,    1.5630,    1.1363,    1.1840,    1.7570,    1.9214,    1.1901,    0.9889,    1.6344,    2.6795,    3.7156,    4.5859,    5.0508,    5.2550,    4.0260,    3.0635,    1.7127,    2.5323,    3.7203,    4.0479,    3.3203,    1.6247,    0.3956,    0.4507,  999.0000,  999.0000,    1.2380,    1.3428,    0.1373,   -0.2983,    1.6112,  999.0000,  999.0000,  999.0000,    5.9775,    5.2624,    3.6874,    2.5292,    3.6535,    3.1298,
 30-OCT-1996 03:02:14.21,    1.3635,    1.0353,    0.8177,    0.5949,    0.5217,    0.3271,    0.3545,    0.6873,    1.0734,    1.4212,    1.2637,    1.7104,    2.7819,  999.0000,    2.0412,    1.9825,    2.0032,    1.9742,    1.5129,    0.8135,    0.7975,  999.0000,    0.6422,    0.1360,    0.6052,    1.5751,    1.4860,    1.2825,    1.3466,    1.9989,  999.0000,    1.6573,    1.1933,    1.8695,    4.5448,    3.9885,    5.0462,    5.5481,    5.8200,    4.5811,    3.5283,    2.2693,    3.1767,    4.3566,    4.6361,    3.7295,    2.1581,    1.1583,    1.1991,    1.3859,    1.9694,    1.9389,    1.7512,    0.9449,    0.8301,    2.3200,    3.6556,  999.0000,  999.0000,    6.4601,    5.7973,    4.2083,    2.9905,    4.2539,    3.9430,
 30-OCT-1996 03:04:51.35,    2.2491,  999.0000,    1.1755,    0.7850,  999.0000,    0.2649,   -0.0483,    0.1358,    0.7999,  999.0000,    1.1543,  999.0000,    1.7299,    2.4207,  999.0000,    1.9279,    1.3542,    2.3295,    1.5276,    0.5164,    0.3115,  999.0000,    0.9403,    0.4407,   -0.0191,    1.0474,    1.3589,    0.9270,    0.9611,    1.4916,    1.8799,    1.9361,    1.4929,    1.7914,    2.5214,    3.4611,    5.2737,    6.0583,    6.2936,    5.1102,    4.1785,    3.0570,    3.9761,    5.1873,    5.1580,    3.9736,    2.2619,    1.3353,    1.5694,    1.7240,    2.1499,    2.2332,    1.7367,    0.8825,    0.8389,  999.0000,  999.0000,  999.0000,  999.0000,    7.1313,    6.2770,    4.5337,    3.5173,    4.9142,    4.6049,
 30-OCT-1996 03:07:30.38,    0.7660,    1.0621,    0.9637,    0.8507,    0.5548,    0.2709,    0.2264,    0.4755,    0.9660,    1.1214,    1.1235,    1.6715,    1.8325,    2.2062,    2.3092,    2.4203,    1.4385,    1.2055,    1.5195,    0.1812,    0.3578,    1.4142,    1.4005,    0.1539,    0.1023,    1.0490,    1.7192,    1.0200,    0.9192,    1.4371,    1.9664,    1.6493,    1.3800,    2.8777,    2.9491,    4.2551,    5.5100,    6.2665,    6.3906,    5.3692,    4.4924,    3.5945,    4.4210,    5.4196,    4.8657,    3.0890,  999.0000,    0.9709,    1.4005,    1.8931,    2.1456,    2.3270,    1.5568,  999.0000,  999.0000,  999.0000,    4.5850,    4.0795,    5.2397,    6.7377,    5.7122,    4.4714,    3.5535,    5.2801,    5.0609,
 30-OCT-1996 03:10:07.48,    0.2836,    0.6428,    0.7032,    0.7400,    0.9496,    0.5218,    0.0100,    0.1260,    0.3500,    0.5718,    0.9343,    1.8284,    2.6779,    2.1020,    2.1926,    2.1023,    1.6193,    1.0745,  999.0000,    0.0924,   -0.0945,    0.9075,    0.6137,    0.0524,    0.1430,    1.1019,    1.5759,    0.9815,    1.2506,    1.4005,    1.8624,   -4.6951,    1.5467,    1.8867,    3.2623,    4.4773,    5.7881,    6.2401,    6.5346,    5.4816,    4.0111,    3.2091,    4.2128,    5.0974,    4.7453,    2.9960,    1.5834,    0.4805,    0.6444,    1.2745,    1.7624,    1.9896,    1.5110,    0.6549,    1.1907,    2.9889,    3.9889,  999.0000,  999.0000,    6.8106,    5.7586,    4.1890,    3.2173,    4.9041,    4.3935,
 30-OCT-1996 03:12:44.43,    0.1800,    0.8678,    1.0616,    0.9103,    0.7404,  999.0000,  999.0000,    0.3247,   -0.1415,    0.0844,    0.1487,    0.8116,    2.1271,    2.0622,    2.0711,    1.8180,    1.6187,    1.0839,    0.6796,    0.4796,  999.0000,    0.5892,    0.9363,   -0.0230,   -0.1334,    1.0417,    1.0641,    1.0099,    0.7617,    1.0332,    1.3798,    1.1111,    1.2500,    1.6901,    3.1653,  999.0000,    5.8654,    5.7884,    5.6908,    5.5444,    3.9542,    3.0075,  999.0000,    4.4283,    4.4195,    3.1647,  999.0000,    0.8249,    0.6796,    1.0694,    1.7529,    2.1591,    1.3700,    0.5691,    1.7125,    3.5096,  999.0000,  999.0000,    4.4070,    6.2998,    5.7540,    4.2048,    3.5098,    5.0120,    3.8391,
 30-OCT-1996 03:15:24.39,    0.2354,    0.6200,    0.7480,    0.7715,    0.6681,   -0.0217,  999.0000,    0.3315,    0.7913,    0.9687,    0.9590,    1.2866,    1.7613,    1.6808,    1.9225,    1.4938,    1.3170,    0.8502,    0.5029,    0.4147,    0.3392,    0.2289,    0.7695,    0.2939,   -0.3892,    0.3896,    0.8449,    0.7347,    0.5984,    0.7153,    1.0711,    0.9460,    1.4126,    1.5979,    3.0392,    4.5598,    5.2937,    6.0084,    6.3910,    5.7482,    4.3257,    2.5376,    3.1316,    4.1460,    4.4782,    3.3887,    2.1075,    1.3746,    1.2432,    0.9760,    1.3624,  999.0000,    0.9412,    0.2001,    1.5586,    3.7597,    4.6379,    5.0111,    5.3230,    6.6549,    5.6344,    4.2803,    3.3285,    4.5188,    3.0494,
 30-OCT-1996 03:18:03.66,    0.2674,   -0.0575,   -0.0975,    0.2073,    0.6371,  999.0000,    0.2242,    0.2660,    0.1777,    0.4673,    0.7321,    1.2734,    1.7253,    1.7474,    2.0264,    1.6372,    1.3521,    0.7679,    0.5081,    0.2957,    0.2462,   -0.2406,    0.2043,    0.1932,   -0.5860,    0.3689,    0.9298,    0.6584,    0.5151,    0.7615,    1.1255,    1.1858,    1.5051,    1.6129,    3.1310,    5.1816,    5.9010,    6.4052,    6.2592,    5.7081,    4.6671,    2.4410,    2.4503,    3.5970,    4.1211,    3.5489,    2.0214,    0.3767,    0.1686,    0.6554,    1.1261,    1.6639,    1.2439,    0.3116,    1.2274,  999.0000,  999.0000,  999.0000,  999.0000,    6.5673,    5.5037,    4.1440,    4.3569,    5.2156,    3.1919,
 30-OCT-1996 03:20:41.11,    0.8527,    0.3833,    0.2061,    0.2435,    0.3745,   -0.2482,    0.0674,    0.3169,    0.3423,    0.1999,    0.1463,    0.9848,    1.6049,    1.3582,    1.3880,    1.3201,    0.9998,    0.9461,    0.3264,  999.0000,   -0.2805,   -0.1941,    0.7688,   -0.0664,   -0.5885,    0.0796,    0.6598,    0.6293,    0.3935,    0.8461,    1.1514,    1.0783,    1.3624,    1.9025,    3.1472,    4.8278,    5.9574,    6.0868,    5.7010,    5.2717,    3.7516,    2.0046,    1.8960,    3.3401,    3.5760,    2.9878,  999.0000,  999.0000,   -0.0109,    0.1849,    0.6465,    1.3582,    0.3382,   -0.4107,    0.9088,    2.4643,    3.8696,    4.3162,    5.3512,    6.6902,    5.6804,    4.4861,    5.6164,    6.3053,  999.0000,
 30-OCT-1996 03:23:18.36,    2.7473,  999.0000,  999.0000,    0.3014,    0.0276,  999.0000,    0.3411,  999.0000,    1.0583,    1.0536,    0.9251,    1.1245,    1.1698,    0.9460,    0.9424,    0.8543,    0.3789,    0.4643,  999.0000,  999.0000,   -0.9631,   -0.5671,   -0.1763,   -0.3401,   -0.6666,   -0.5982,    0.4464,    0.6316,    0.4337,  999.0000,    1.2827,    1.3951,    1.6690,    1.9601,    3.4121,    4.4900,    5.7232,    6.2869,  999.0000,    5.0562,    4.0146,    2.1095,    1.6451,    2.8316,    3.6394,    3.4751,    1.6548,    0.0841,    0.3548,    0.4502,    1.0439,    1.5127,  999.0000,  999.0000,    0.5355,  999.0000,  999.0000,    4.7993,    6.0946,    7.1942,    6.0242,    4.5909,    5.7484,    6.4859,  999.0000,
 30-OCT-1996 03:25:55.29,    2.5100,  999.0000,    0.2882,   -0.1949,   -0.3227,   -0.2976,    0.3242,    0.6120,    0.9396,    1.0835,    0.9223,    1.6963,    1.7074,    1.7042,    1.6646,    0.7058,   -0.4560,   -0.8891,   -0.9453,   -1.4944,   -1.7491,  999.0000,  999.0000,   -0.4027,   -0.7695,   -0.7113,    0.8502,    0.7960,    0.7475,    1.1317,    1.3469,    1.4631,    1.5981,    2.1216,    3.8826,    5.1831,    6.2052,    6.5467,    5.1596,    5.1383,    3.9989,    2.3602,    1.8471,    2.8125,    2.8665,    2.7026,    1.3520,    0.4005,    0.3157,    0.4381,  999.0000,  999.0000,  999.0000,  999.0000,  999.0000,    2.7460,    3.8448,    4.2834,    5.6761,    7.0591,    5.7067,    4.0777,  999.0000,    5.8555,  999.0000,
 30-OCT-1996 03:28:32.44,    2.1764,    1.5671,    0.4904,   -0.0492,   -0.4543,   -1.0909,    0.0925,    0.2723,    0.9260,    1.3950,  999.0000,    1.6029,    1.2756,    1.2085,    1.1760,   -0.1155,   -0.7226,   -1.1932,   -1.6432,   -1.7496,   -2.0114,   -2.1444,   -1.3847,   -0.4912,   -0.8543,   -0.5556,    0.3669,    0.9056,    0.9048,    1.3562,    1.8317,    1.6072,    1.7471,    2.3298,    4.0658,    5.7541,  999.0000,    6.3367,    5.4530,    5.4684,    3.8677,    2.4372,    2.6702,    3.7273,    3.7094,    3.7918,    1.9182,    1.1279,    0.9410,    0.7709,    1.1568,    0.9803,    0.2877,   -0.0671,    1.3037,    3.2314,    4.4185,    4.8080,    5.4436,    6.4078,    4.9215,    3.4947,    5.2581,    6.6106,  999.0000,
 30-OCT-1996 03:31:09.45,    2.9445,  999.0000,    1.2323,    0.6251,    0.5089,  999.0000,    0.7828,  999.0000,    0.8962,  999.0000,    1.3519,    1.4306,    1.1370,    1.1225,    1.1647,    0.0693,  999.0000,   -1.3456,  999.0000,   -1.6565,   -2.0391,   -2.3121,  999.0000,   -0.4809,   -1.3404,   -0.8564,    0.3883,    0.7051,    0.7333,    1.1911,    1.7021,    1.6495,    1.7105,    2.5706,    3.9584,    5.3857,    6.4099,    5.8187,    5.5357,    5.2591,    4.1753,    2.1478,    2.5594,    3.6728,    3.8048,    2.8290,    1.6157,    1.0935,  999.0000,    0.7220,    1.2598,    1.7948,    0.9098,   -0.0866,    1.7994,    3.6994,    4.1526,    4.4080,    5.5792,    6.3189,    4.7054,    3.0964,    4.8360,    6.0968,    2.8800,
 30-OCT-1996 03:33:48.91,    2.1665,    2.2502,  999.0000,    0.8109,    0.5249,    0.4933,    0.2491,    0.9982,    0.8287,    1.1204,    1.2218,    1.4992,    0.8829,    0.8010,    0.6721,   -0.4265,   -1.2233,   -1.5344,   -1.4680,   -1.8948,   -2.0221,   -2.1271,   -1.6067,   -0.4745,   -1.1876,   -0.7958,    0.4306,    0.8817,    0.8439,    1.0673,    1.4301,    1.4006,    1.8115,    2.5184,    3.8437,    5.3908,    6.5842,    5.8778,    5.2790,    5.3307,    3.7668,    2.1525,    2.2105,    3.2576,    3.6577,    2.8348,    0.6841,    0.2509,    0.7474,    0.8604,    1.1326,  999.0000,  999.0000,   -0.2821,    1.1726,    3.3792,    3.5628,    3.9388,    6.0203,    6.3953,    4.4894,    2.9008,    4.3905,    5.6437,    3.3257,
 30-OCT-1996 03:36:26.05,    1.5900,    1.1745,    1.0902,    0.9160,    0.8492,  999.0000,   -1.2317,  999.0000,    0.1693,  999.0000,    1.2357,    1.2533,    0.9418,    0.9305,    0.9933,    0.1362,  999.0000,   -1.8542,   -1.7942,   -2.3097,   -2.4178,   -2.1375,   -0.9745,   -0.3861,   -1.0611,   -0.6418,    0.5281,    0.7487,    0.5415,    1.3492,    1.4750,   -0.9158,    1.9692,    2.5879,    4.0024,    5.2108,    6.1555,    5.7502,    4.9032,    5.0763,    3.5883,    1.5903,    2.8716,    3.0070,    3.4097,    2.3720,    0.1980,   -0.1851,    0.4944,    0.5833,    0.6754,    1.2132,    0.8692,   -0.3890,    0.6354,    2.8714,    2.9746,    3.3880,    5.2721,    5.8176,    4.0358,    2.4997,    4.2375,    5.5694,    3.0633,
 30-OCT-1996 03:39:03.48,    3.1249,    2.1094,    0.9463,    0.5418,    0.6190,    0.8102,  999.0000,   -0.1958,  999.0000,    0.3693,    0.9684,    1.7758,    1.4876,    1.5952,    1.2905,   -0.4201,   -1.2529,   -1.4902,   -1.4116,   -1.8748,   -2.3174,   -1.9662,   -0.6476,   -0.3754,   -1.0929,   -0.7155,    0.3005,    0.3006,    0.7706,    1.5985,    1.7065,    2.1954,    2.3999,    2.8099,    4.6745,    6.2929,    7.2692,    6.2829,    5.1259,    5.3264,    3.3418,    1.7476,    2.3838,    3.3549,    3.3583,    2.4074,    0.4306,   -0.1702,    0.5555,    1.1762,    1.4694,    1.6349,    0.7860,   -0.3931,    0.4437,    2.2577,    2.5033,    3.1521,    4.8616,    5.1434,    3.6649,    2.8638,    4.5571,    5.9121,    3.2804,
 30-OCT-1996 03:41:43.01,    0.7968,    0.9404,  999.0000,    0.2011,    0.3076,    0.2081,    0.3696,    0.8722,    1.2015,    1.0652,  999.0000,    2.2020,  999.0000,    1.4163,    0.8667,   -0.4817,   -1.3000,   -1.4278,   -1.4919,   -1.7425,   -1.9385,   -1.6006,   -0.4321,    0.0472,   -0.6577,   -0.3414,    0.5340,    0.5616,    1.0794,    1.6112,    2.0403,    2.2240,    2.6566,    3.3404,    4.4791,    6.9221,    7.1379,    5.7527,    5.5574,    5.4828,    3.1819,    2.0697,    2.8298,    3.7892,    3.8211,    2.5933,    0.4382,    0.2878,    1.1024,    1.3255,    1.4425,    1.5415,    1.2102,    0.1139,    0.6576,    2.1439,    2.3815,    3.5957,    5.2794,    5.3551,    3.6191,    2.6115,    4.0255,    5.6644,    3.1116,
 30-OCT-1996 03:44:20.44,    1.3971,    1.0561,    0.4139,    0.3137,  999.0000,  999.0000,    0.4599,    0.5728,    1.0085,    1.3931,    1.5776,    1.6023,    1.6219,    1.5910,    0.0593,   -1.1429,   -1.5306,   -1.6114,   -1.7969,   -1.8126,   -1.6841,   -1.1064,   -0.3758,    0.1549,    0.0442,    0.3141,    1.1116,    1.0016,    1.4922,    2.0242,    2.1081,    2.4029,    2.8923,    3.3496,    3.9899,    6.7392,    6.7245,    5.1220,    5.6515,    5.4333,    3.1995,    2.0844,    2.9639,    3.8909,    3.6067,    2.2695,    0.5006,    0.5074,    1.2038,    0.9594,    0.6642,    1.0214,    1.2822,    0.3746,  999.0000,  999.0000,    3.1439,    3.6743,    4.7806,    5.3246,    3.9195,    2.2460,    2.9022,    5.0315,    3.1405,
 30-OCT-1996 03:46:58.16,    1.0785,    0.7815,    0.6255,    0.7392,    0.7721,    0.3904,    0.0395,    0.3140,    0.8948,    1.6594,    1.5870,    1.8779,    1.9027,    1.6053,    0.2993,   -0.8372,   -1.5819,   -1.6708,   -1.2833,   -1.5076,   -1.5670,   -0.8155,    0.0145,    0.2612,   -0.0234,    0.3919,    1.2142,    1.0648,    1.7382,    2.2426,    2.4318,    2.6295,    3.1220,    2.8586,    4.0165,    6.2686,    5.8590,    5.0691,    5.1385,    4.9772,    3.1186,    2.1313,    3.0513,    3.8704,    3.5344,    2.1094,    0.5012,    0.2668,    1.5251,    0.7371,    0.7470,    0.8216,    0.9257,    0.5079,    1.5806,    2.6644,    3.7101,    4.4759,    5.2245,    5.2445,    3.7314,    2.2040,    3.3489,    5.7418,    3.8027,
 30-OCT-1996 03:49:35.84,    0.5336,    0.5378,    0.5253,    1.0267,    1.1787,    0.9489,    0.9927,    1.0199,    0.7823,    1.0182,    0.5423,    1.2353,    1.4545,    1.3926,    0.6810,   -0.7919,   -1.4697,   -1.6951,   -1.6635,   -1.2739,   -1.4198,   -0.9255,   -0.2067,    0.4136,    1.2799,    1.1221,    1.6334,    1.2538,    1.9244,    2.3639,    2.4290,    2.5787,    2.7150,    2.4990,    3.7871,    5.8869,    5.0286,    4.4044,    4.5205,    4.3034,  999.0000,  999.0000,    2.5563,    3.1201,    2.9593,    1.6239,    0.1792,    0.1850,    0.9789,    1.2828,  999.0000,    1.4836,    1.2062,    0.7639,    1.2929,    2.2982,    3.3980,    4.4154,    4.9404,    4.5547,    2.9228,    1.4009,    3.4511,    5.6060,    3.6843,
 30-OCT-1996 03:52:13.19,    0.2089,    0.3287,  999.0000,    1.2136,    1.1842,    0.9340,    0.9458,    0.9114,    0.8770,    0.9094,    0.7553,    0.4844,    0.7705,    1.4661,    1.2578,   -0.1542,   -1.0879,   -1.4915,   -1.1651,   -0.8635,   -0.5953,   -0.4118,   -0.0192,    0.5861,    0.6698,    1.1562,    1.8731,    1.5205,    1.8385,    2.0491,    2.4983,    2.5897,    2.8705,    2.8111,    3.8543,    5.6383,    4.8142,    4.2595,    4.2120,    3.9945,    2.4520,    1.8481,    2.4773,    3.1531,    3.0349,    1.6059,  999.0000,    0.2843,    1.3573,    1.2982,    1.2192,    1.6608,    1.2913,    0.1961,    0.4530,    2.1731,    3.1876,    3.1162,    4.3394,    4.2074,    2.2093,    0.6400,  999.0000,    5.5409,  999.0000,
 30-OCT-1996 03:54:52.32,    0.4584,   -0.1915,    0.0435,    0.7421,    0.6291,    0.2394,    0.1736,    0.9788,    1.1323,    1.4304,    1.4316,  999.0000,    1.3606,  999.0000,    1.3024,    0.3136,   -0.9049,   -1.5714,  999.0000,   -0.3522,    0.1558,    0.3829,    0.6912,    1.0026,    0.2061,    0.8419,    1.6287,    1.5141,    1.7629,    1.8952,    2.1829,    2.5663,    2.9491,    2.9234,    4.0281,    5.7339,    5.0177,    5.1302,    4.4205,    3.6007,    2.5753,    2.0155,    2.6663,    3.4198,    3.1986,    1.0491,   -0.7483,   -0.1298,    1.2313,    1.6713,    1.5199,    1.5438,    1.1079,   -0.0524,    0.1921,    1.8803,    3.1129,    3.5591,    4.6771,    4.3205,    2.2288,    1.3822,    4.5760,    6.7348,  999.0000,
 30-OCT-1996 03:57:29.72,    0.8716,    0.2188,    0.1450,    0.1930,   -0.1756,   -0.1728,    0.1997,    0.6271,    0.7465,    1.0333,    1.1778,    1.1299,    1.2656,    1.7095,    1.2112,   -0.1493,   -0.6683,   -1.0103,   -0.9252,   -0.4938,   -0.7993,   -0.3508,    0.2907,    0.3987,   -0.5561,    0.4679,    1.2663,    1.9476,    1.5271,    1.9573,    2.4974,    2.7373,    2.8994,    2.7262,    4.2265,    6.2642,    5.5081,    4.8690,    4.7467,    3.9275,    2.3851,    1.6216,    2.2925,    3.2194,    2.8605,    0.5942,   -1.1051,   -0.6448,    0.7563,    1.5436,    1.4758,    1.4496,    1.0231,   -0.0382,    0.3573,  999.0000,  999.0000,    3.5613,    4.6590,    4.0781,    2.3063,    1.6897,    4.5311,    6.3095,    4.3862,
 30-OCT-1996 04:00:08.31,    1.0121,    0.4568,    0.5058,    0.7318,    0.8151,    1.0887,  999.0000,    1.0681,    0.3517,    1.3073,    0.4766,    1.4468,    1.5687,    1.3511,    0.7544,   -0.9832,   -1.0066,   -0.8741,   -1.3033,   -1.3550,   -1.3695,   -1.2534,   -0.4367,    0.0582,   -0.2091,    0.3119,    0.8883,    0.7348,    1.2216,    1.8901,    2.2236,    2.4364,    2.5063,    2.8502,    4.4612,    6.2423,    4.9924,    4.3703,    3.9251,    3.2430,    1.6479,    1.0297,    1.8638,    2.5382,    2.4228,    0.1875,   -1.6700,   -0.9235,    0.7229,    1.2224,    1.3483,    1.5049,    0.7058,  999.0000,  999.0000,    2.8414,    4.1428,    3.9625,    4.9915,    4.5113,    2.2994,    1.6597,    4.5000,    6.4618,  999.0000,
 30-OCT-1996 04:02:45.52,   -0.0127,   -0.2608,  999.0000,    0.4626,    0.9606,    0.9393,    0.5368,  999.0000,   -1.4250,  999.0000,  999.0000,    1.3105,    1.4103,    1.9367,    1.1542,   -0.4369,   -0.8705,   -0.8551,   -1.0505,   -1.3843,   -1.1958,   -0.4049,   -0.1884,    0.1941,   -0.1215,   -0.0143,    0.8510,    0.9023,    1.5827,    1.8412,    2.0479,    2.0486,    2.2140,    2.9707,    4.9313,    6.4139,    4.9624,    4.0768,    3.5254,  999.0000,    1.5694,    1.1102,    2.1381,    2.7944,    2.0942,  999.0000,   -1.8310,   -1.3059,    0.5489,    0.7931,    0.8902,    1.1458,    0.4877,   -0.1410,    0.4798,    2.4053,    3.6023,    3.7058,    4.3281,    4.2417,    2.6077,    1.9030,    4.4729,    6.6769,    4.6483,
 30-OCT-1996 04:05:22.62,   -0.8953,   -1.1094,   -0.3985,    0.0167,  999.0000,    0.7761,    0.6713,    1.1722,    1.1661,    1.3170,    0.7799,    1.1343,  999.0000,    2.2616,    1.5681,    0.4299,   -0.7995,   -1.0722,   -0.6330,   -0.7937,   -0.3496,    0.6283,    0.5481,    0.3431,    0.0327,    0.4872,    0.8479,    1.3251,    1.8054,    1.8378,    2.3543,    2.6589,    2.8093,    3.7310,    5.4560,    6.2832,    5.1096,    4.7492,    3.7188,    2.6975,    1.6320,    1.4374,    2.5192,    3.1176,    2.3456,    1.1267,   -1.1153,   -1.1368,    0.4945,    1.0656,    1.1180,    1.0758,    0.7772,    0.3535,    0.7804,    2.3424,    3.7485,    3.8442,    4.1810,    3.9100,    2.6240,    1.8882,  999.0000,    7.4047,  999.0000,
 30-OCT-1996 04:07:59.63,    1.2068,    0.4106,    0.2228,    0.0265,    0.5546,    0.7760,    0.7291,    0.4802,    0.9753,    1.3899,    1.6578,    1.5664,    1.9414,    1.0730,    0.4669,    0.0065,   -1.1044,   -1.1902,   -1.3165,  999.0000,   -0.1332,    0.3695,    1.4831,    0.4431,    0.1589,    0.5817,    0.9048,    1.2835,    2.2673,    2.0650,    2.3857,    2.4735,    2.9207,    3.6908,    5.2977,    6.0723,    4.8547,    4.5902,    4.0584,    2.8443,    1.7309,    1.7633,    2.8877,    3.2008,    2.0892,   -0.7594,   -1.7171,   -0.9783,    0.6769,    0.9952,    0.7284,    0.3813,    0.0824,   -0.3457,    0.1867,    1.9157,    2.9498,    2.4707,    3.4065,    3.6919,    2.5653,    2.1417,    5.4870,  999.0000,  999.0000,
 30-OCT-1996 04:10:38.73,    1.5923,    0.9498,    0.0863,    0.3124,    1.0169,    0.7558,  999.0000,   -0.2927,  999.0000,    1.3023,    1.4080,    1.4090,    1.6050,    0.7408,   -0.2334,  999.0000,   -1.2397,   -1.3670,   -1.2900,   -0.8327,   -0.2207,  999.0000,    0.6087,    0.5118,   -0.1719,    0.1002,    0.3600,    0.4550,    1.1521,    1.7037,    1.6927,    2.1063,    2.3608,    3.2177,    4.5121,    5.9058,    4.7864,    4.0971,    3.5293,    2.3076,    1.0545,    1.2508,    2.6079,    3.0534,    2.3217,   -0.0547,   -1.5441,   -1.0855,  999.0000,    1.0945,    1.0567,    0.4971,   -0.0220,   -0.0593,    0.2819,    1.5891,    2.8409,    2.3942,    3.1909,    3.7932,    2.4790,    2.1729,  999.0000,    7.2274,    4.6594,
 30-OCT-1996 04:13:17.79,    1.1825,    1.0017,    0.4562,    0.3606,    0.6619,    0.9295,    0.9157,    0.9610,    0.9663,    0.9552,    0.9363,    1.0315,    1.1570,    0.8038,    0.4529,    0.1229,   -0.1365,  999.0000,   -0.8195,   -0.5269,   -0.4704,   -0.2818,    0.0038,    0.0692,   -0.4630,   -0.2130,   -0.1010,    0.3402,    1.3332,    1.9473,    1.7588,    1.9720,    2.4824,    3.4242,    4.2382,    5.4229,    4.4588,    4.0297,    3.1656,    2.0478,    0.8474,    1.3429,    2.5572,    2.9249,    2.5281,    0.3905,   -1.2267,   -1.0320,    0.6029,    1.4361,    1.4498,    0.8382,    0.1789,    0.2958,    0.5996,    1.9128,    2.3051,    2.1961,    3.2250,    3.6179,    2.8132,    2.5921,    5.8284,    7.5688,    4.5967,
 30-OCT-1996 04:15:57.08,    0.4828,    0.6194,    0.0845,    0.2313,    0.4595,    0.4312,    0.3323,    0.1753,    0.2730,    0.3585,    0.4168,    1.0826,    1.5655,    0.9804,    0.5061,    0.0121,  999.0000,   -0.7931,   -1.1919,   -1.1872,   -1.0656,   -0.4060,   -0.6041,   -0.2159,   -0.6867,   -0.3456,   -0.0904,    0.2349,    1.1698,    1.6993,    1.8868,    2.1159,    2.6948,    3.1415,    3.8434,  999.0000,    4.7169,    4.4176,    3.2778,    2.4712,    1.2507,    1.7103,    2.7304,    2.9596,    2.3311,   -0.0309,   -1.4423,   -1.0555,    0.4701,    1.1974,    0.8793,    0.4122,   -0.1134,  999.0000,  999.0000,    1.6285,    2.0106,    2.0512,    3.3110,    4.1774,    2.9846,    2.5501,  999.0000,    7.0409,    5.1916,
 30-OCT-1996 04:18:36.52,    0.3837,   -0.3763,   -0.3313,  999.0000,    0.1158,    0.3809,    0.2425,    0.4024,    0.8511,    1.0343,    0.9615,    1.4829,    1.6934,    0.7580,   -0.0471,   -0.4358,   -0.3903,   -0.4486,   -0.9913,   -0.8123,   -0.8213,  999.0000,   -0.5876,   -0.0119,   -0.2910,   -0.2026,    0.0236,    0.2561,    1.0018,    1.2184,    2.0743,    2.6147,    2.7443,    3.3750,    4.7152,    5.7381,    4.8426,    4.5083,    3.3202,    2.3108,    1.3345,    1.9053,    3.0029,    3.4734,    2.5405,   -0.3135,   -1.7489,   -0.8948,    0.5834,    1.2095,    1.2918,    0.4124,   -0.4846,   -0.2539,    0.3175,    1.5223,    2.1945,    2.2696,  999.0000,    3.6214,    2.3743,    2.3157,    5.5767,    6.8825,    4.9431,
 30-OCT-1996 04:21:15.84,  999.0000,   -0.7528,  999.0000,   -0.7497,   -0.0424,    0.3585,    0.7708,    0.9999,    1.2281,    1.4733,    1.5956,    1.5773,    1.8358,  999.0000,    0.2245,   -0.4450,   -0.9317,   -0.9353,   -0.4208,  999.0000,   -0.3975,   -0.2750,    0.2279,    0.5208,    0.3610,    0.0812,    0.4535,    0.5722,    1.1753,    1.8101,    2.1645,    2.2593,    3.0209,    3.3381,    4.7580,    5.6080,    5.0286,    4.6371,    3.3847,    2.4655,    1.4703,    1.8273,    3.2902,    3.5078,    2.7356,    0.4118,   -1.2224,   -0.7276,    0.5200,    0.7604,    0.9692,    0.3850,   -0.5174,   -0.2329,    0.4026,    1.4476,    2.3628,    2.3712,    2.9781,    3.3319,    2.1113,    2.0972,  999.0000,    5.9605,    5.1469,
 30-OCT-1996 04:23:55.08,    2.3722,  999.0000,    0.0219,   -0.3983,  999.0000,    1.0169,    1.0026,    0.6706,    0.3030,    0.4461,    0.5706,    0.7018,    1.1940,    0.9344,   -0.2511,   -0.8040,   -1.0071,   -1.0386,  999.0000,  999.0000,    0.0875,   -0.2558,    0.5937,    1.1561,    0.2503,    0.0287,    0.3496,    0.5355,    0.9386,    1.7289,    2.8594,    2.1013,    2.6841,    3.2168,    4.5000,    5.3667,    5.0415,    4.2478,    3.2563,    2.5404,    0.8799,    1.2656,    2.7817,    2.9436,    2.1570,    0.0343,   -1.4536,   -1.1912,    0.1993,    0.8224,    0.5984,   -0.0919,   -0.6649,   -0.3686,    0.3513,    1.3900,    1.8343,    1.9605,    2.3760,    3.1966,    2.2221,    2.5597,    5.9678,    6.0995,    4.4625,
 30-OCT-1996 04:26:34.15,    2.2019,  999.0000,  999.0000,   -0.3530,    0.1848,  999.0000,    0.6137,  999.0000,    0.6770,  999.0000,    1.1276,    1.1071,    1.4231,  999.0000,   -0.2951,   -1.2380,   -1.2524,   -0.7342,   -0.3710,  999.0000,    0.0876,   -0.1993,  999.0000,    1.1892,    0.6033,    0.1823,    0.4781,    0.5147,    1.0086,    1.4398,    2.1722,    1.9816,    2.9646,    3.5475,    4.4699,    4.9303,    4.4765,    3.8553,    2.6930,  999.0000,    1.0911,    1.4625,    2.5836,    2.5382,    1.6091,   -0.5180,   -1.9934,   -1.7754,    0.0285,  999.0000,  999.0000,   -0.4473,  999.0000,  999.0000,    0.6169,    1.2990,    2.0641,    1.8793,    3.0947,    4.0865,    2.6316,    2.7613,  999.0000,    5.9573,    5.0780,
 30-OCT-1996 04:29:11.36,    2.7127,  999.0000,    0.2713,   -0.0824,    0.7865,    1.1156,    0.9375,    1.1240,    1.4826,    1.9953,    1.7544,    1.3774,    1.7500,    1.6168,    0.7839,   -0.1165,   -0.4823,   -0.1188,    0.0054,    0.3127,    0.4193,    0.5976,    0.9942,    1.1301,    0.5995,    0.4375,    0.8206,    0.7539,    1.1991,    1.6919,    2.1731,    2.2096,    3.0810,    3.3427,    4.1105,    4.5662,    4.0705,    3.4665,    2.9246,    1.9495,    1.1619,    1.7617,    2.8436,    2.6703,    1.8372,   -0.3671,   -1.9810,   -1.6586,    0.2303,    0.6053,    0.3923,   -0.2848,   -0.6085,   -0.0880,    0.6520,    1.8004,    2.4766,    2.0702,    3.4944,    3.9920,    1.7795,    2.3469,    6.0432,    6.3613,    5.4780,
 30-OCT-1996 04:31:48.64,    1.4405,    0.6942,    0.1714,    0.3312,    0.8870,    0.9426,    0.7334,    0.9612,    1.3314,    1.3640,    0.9504,    0.7295,    1.3643,    1.3631,    0.8132,   -0.4279,   -0.5167,    0.0214,    0.3584,    0.4310,    0.1884,    0.1506,    0.9810,    1.1370,    0.7409,    0.7017,    0.9668,    1.9096,    1.3048,    1.5015,    2.1522,    2.2185,    3.1349,    3.6480,    4.3268,    3.8639,    3.9252,    3.4517,    2.7583,    1.7658,    0.9232,    1.0943,    2.2718,    2.6073,    1.7426,   -0.7338,   -2.1666,   -1.2066,    0.4971,    0.5051,    0.2520,   -0.4434,   -0.9849,   -0.1833,    0.5190,    1.1243,    1.8439,    1.9681,    3.2764,    3.6383,    1.6344,  999.0000,    6.4816,    6.4189,    5.5604,
 30-OCT-1996 04:34:27.85,   -0.3403,  999.0000,   -0.2354,    0.3271,    0.7063,    0.9266,    0.6148,    0.6036,  999.0000,    0.6784,    1.0595,    1.2683,    1.3072,    1.0821,    0.7129,   -0.4336,   -0.7646,   -0.3703,    0.0362,   -0.2441,   -1.0954,   -1.5348,   -0.9717,    0.8163,    0.4163,    0.4547,    1.2503,    0.8719,    1.1191,    1.4773,    2.3790,    2.7251,    2.9864,    3.7338,    4.3095,    4.8698,    4.3064,    3.7187,    3.2537,    2.3104,    1.2143,    1.4126,    2.1434,    2.8334,    1.8583,   -0.5949,   -1.9283,   -1.1216,    0.4921,    0.6439,    0.4885,   -0.1726,   -0.6470,   -1.2582,  999.0000,  999.0000,  999.0000,    2.3649,  999.0000,   34.8414,   42.1090,   50.2168,   45.2199,  999.0000,  999.0000,
 30-OCT-1996 04:37:06.95,    1.4722,    0.0877,   -0.2502,    0.2567,    0.9189,    0.9329,    0.8836,    0.9544,    1.4354,    1.0252,    0.9732,    1.5565,    1.6204,    1.1510,  999.0000,   -0.2836,   -1.1088,   -1.3806,   -1.0390,   -1.1343,   -1.3964,   -1.4060,  999.0000,    0.3577,   -0.0305,    0.1008,    1.0399,    0.5230,    0.8107,    1.7085,    2.1277,    2.4502,    2.4905,    2.9397,    3.7071,    4.5882,    4.0349,    3.8402,  999.0000,    1.9700,    1.3183,    1.4922,    2.4037,    2.8207,    1.7580,    0.4657,   -1.8404,   -0.6634,  999.0000,  999.0000,  999.0000,  999.0000,  999.0000,  999.0000,  999.0000,  999.0000,    1.3480,    1.4557,    2.5949,    1.6215,   15.6525,   17.3261,  999.0000,    6.4430,  999.0000,
 30-OCT-1996 04:39:43.88,    2.7214,  999.0000,    0.5716,   -0.0167,  999.0000,   -0.0244,    0.1415,    0.4669,    1.0682,    0.9797,    0.8548,    1.0537,    1.1080,  999.0000,    0.3130,   -0.7798,   -0.6538,   -0.8098,   -0.4523,  999.0000,   -0.8328,   -0.7243,   -0.0832,    0.5996,   -0.2761,   -0.1618,    0.3395,    0.3264,    0.3498,    1.3916,    2.1780,    2.3880,    2.5616,    3.1029,    3.9049,    4.4900,    4.4395,    3.8299,    3.2226,    2.6294,    1.1853,    1.4816,    2.7295,    2.9219,    1.8977,   -0.4397,   -1.7255,   -0.4998,    1.5307,    1.3358,    0.4629,   -0.8720,   -1.5042,   -0.4198,    0.4731,    0.8362,    1.0240,    1.1598,  999.0000,    0.4747,  999.0000,  999.0000,  999.0000,  999.0000,  999.0000,
 30-OCT-1996 04:42:21.08,    2.8125,    1.8818,  999.0000,  999.0000,   -0.0152,   -0.0097,    0.4195,    0.4634,    0.7311,    1.1814,    1.1099,    0.5899,    0.7090,   -0.0631,   -0.6173,   -1.1552,   -0.8126,   -0.5632,   -0.9115,   -0.5192,    0.0711,    0.5301,    1.0551,    1.2294,    0.5285,    0.3415,    0.8805,    0.8587,    0.8383,    1.7926,    2.2732,    2.4610,    3.1009,    3.3025,    4.6485,    5.2750,    5.0006,    4.2521,    2.7740,    2.0446,    0.5961,    1.1896,    2.9616,    3.2514,    3.6483,  999.0000,   -1.9169,   -0.9577,    1.0173,    0.9974,   -0.1456,   -1.6272,   -1.4156,    0.0547,  999.0000,  999.0000,    1.0964,    1.0042,    1.5796,    4.7988,    0.6024,  999.0000,    9.9085,    6.1012,    3.9102,
 30-OCT-1996 04:44:58.16,    2.9149,    1.5454,    0.2972,    0.1132,    0.4505,    0.6161,    0.4843,    0.2469,    0.5340,    0.9476,    0.4846,   -0.2665,   -0.2294,  999.0000,   -0.9477,   -1.3760,   -1.6684,   -1.4218,   -0.7820,   -0.7165,   -0.0971,    1.1220,    1.4740,    1.3108,    0.7493,    0.4448,    1.1837,    1.3612,    1.2379,    1.9941,    2.3204,    2.4618,    3.3283,    3.6143,    5.0065,    5.3594,    4.7801,    3.9482,    2.4672,    1.2788,    0.5417,    1.2418,    2.6134,    2.4713,    2.1671,   -1.1155,   -2.4709,   -1.3438,    0.9380,  999.0000,  999.0000,   -1.6506,   -1.6077,    0.2101,    1.0080,    1.3882,    1.4596,    1.3396,    2.2694,    1.5217,    1.1554,  999.0000,    5.6731,    6.2969,  999.0000,
 30-OCT-1996 04:47:37.43,  999.0000,    0.3566,  999.0000,   -0.1747,    0.1411,    0.2033,    0.0664,   -0.0534,   -0.1266,    0.4741,   -0.3623,   -0.6808,   -0.6493,   -0.6456,   -0.9062,   -1.5562,   -1.8980,   -1.0530,   -0.1924,   -0.8691,   -0.0173,    0.9960,    1.7156,    1.6776,    0.8737,    0.5215,    0.9759,    1.2854,    1.5093,    2.1966,    2.3884,    3.0158,    3.2723,    3.8276,    5.0027,    5.4912,    4.5463,    4.1026,    2.7037,    1.5204,    0.9681,    1.4017,    2.4275,    2.5816,    1.6090,   -0.8899,  999.0000,  999.0000,    0.3984,    0.8601,    0.1202,   -1.6854,   -1.3566,    0.4400,    1.0327,    1.1233,    1.0270,    1.1071,    2.0661,    1.1851,    1.8346,    4.2575,    5.4460,    5.5282,    3.2141,
 30-OCT-1996 04:50:16.98,  999.0000,   -0.0746,  999.0000,   -0.3840,   -0.1017,    0.0185,   -0.0986,   -0.3083,   -0.4024,  999.0000,  999.0000,    0.0378,   -0.3618,   -0.4649,   -0.4277,   -0.9681,   -1.1923,   -1.1766,   -1.1082,   -0.4229,    0.6927,    1.1394,    2.0361,    2.3083,    1.1840,    0.6873,    1.1076,    1.0512,    1.3076,    2.1463,    2.5229,    2.9350,    3.6447,    3.7579,    4.8349,    5.7997,    4.9889,    4.3625,    3.1840,    1.4169,    1.1365,    1.7969,    2.7337,    2.8819,    1.8479,   -0.5338,   -2.0535,   -1.5204,    0.4764,    1.1429,    0.2150,   -1.6895,   -1.6346,   -0.0020,    1.0412,    1.7465,    1.4976,    1.0820,    1.9397,    0.2625,    1.8764,    4.1889,    5.4807,    4.9910,    2.7860,
 30-OCT-1996 04:52:53.93,  999.0000,    0.1008,  999.0000,    0.1606,    0.4611,    0.7436,    0.4091,    0.4093,    1.0839,    0.7915,   -0.1386,  999.0000,   -0.5515,   -0.4629,   -0.1758,   -0.5655,   -1.4063,   -0.3454,  999.0000,  999.0000,    1.3046,  999.0000,    2.5830,    2.5364,    1.5523,    1.9259,    1.1439,    1.2517,    1.1817,    1.7932,    2.5882,    2.4377,    3.1045,    3.5296,    4.2993,    5.1512,    4.6095,    3.7796,    2.7888,    1.2187,    0.9436,    1.5768,    2.2943,    2.7076,    1.6014,   -0.7317,   -2.4447,   -1.8337,    0.3134,    0.9390,   -0.1457,   -1.6401,   -1.4689,   -0.0709,    0.7791,    1.7472,    2.2093,    1.5812,    2.1370,    1.2944,    1.5813,    4.3374,    5.6291,    5.0815,    3.2442,
 30-OCT-1996 04:55:33.43,   -0.0269,   -0.4712,    0.2118,    0.0064,   -0.0050,    0.3356,    0.3081,    0.5307,    1.1788,    0.9246,    0.7398,  999.0000,   -0.3587,   -0.7341,   -1.1660,  999.0000,   -1.5997,   -0.5834,   -0.1404,   -0.1625,    1.1732,    1.7929,    2.4673,    2.8944,    1.6782,    0.8375,    1.1564,    1.2287,    1.1873,    1.8287,    2.2169,    2.2896,    2.8432,    2.9997,    3.3926,    4.4183,    4.1064,    3.5710,    2.5380,    1.0247,    0.7412,    1.3565,    2.3015,    2.4941,    1.6015,   -0.6525,   -2.3494,   -1.6258,    0.3426,    0.8129,   -0.2159,   -1.6469,   -1.4986,    0.2784,    1.3140,    1.7612,    2.1751,    1.7879,    2.3065,    1.9900,    2.6748,    4.9669,    5.6291,    4.9247,    3.4122,
 30-OCT-1996 04:58:10.48,    0.6401,   -0.9152,  999.0000,   -0.2774,   -0.0273,    0.3201,    0.0538,    0.4354,    1.0203,    1.6064,    1.1204,   -0.2047,   -1.0432,   -1.0755,   -1.4915,  999.0000,   -1.7905,   -0.4734,   -0.6727,   -0.5427,  999.0000,    1.6610,    2.5964,    3.1176,    1.8440,    1.1749,    1.1995,    1.2796,    1.2161,    2.2872,    2.5860,    2.6280,    2.9354,    2.8650,    3.3452,    4.4460,    4.0285,    3.0033,    1.5506,    1.1217,    0.9823,    1.4484,    1.8905,    2.4869,    1.4967,   -1.2186,   -2.6490,   -1.7066,    0.4953,    0.5508,   -0.3001,   -1.5574,   -1.1999,    0.5700,    1.3431,  999.0000,  999.0000,    2.2566,    3.0989,    2.6366,    3.4881,    5.1897,    5.8844,  999.0000,    3.5381,
 30-OCT-1996 05:00:49.55,    2.3564,  999.0000,    0.3449,   -0.1949,    0.0801,  999.0000,    0.0946,    0.5209,    1.3144,    2.4247,    1.5097,   -0.0092,   -0.7425,   -0.7050,   -0.8313,   -1.5379,   -1.0207,  999.0000,   -0.3975,    0.3834,    0.6263,    1.4451,    2.5413,    3.4806,    1.9664,    1.6761,    1.5761,    1.7684,    1.8050,    2.5597,    3.3383,    3.3483,    2.7386,    3.0449,    3.8613,    4.6918,    3.7774,    2.9150,    1.5596,    1.3013,    1.3899,    1.7495,    2.1870,    2.5952,    1.5520,  999.0000,   -1.9866,   -1.2054,    0.7070,    0.8383,    0.0296,   -1.1566,   -0.6801,    0.8899,    1.5447,    2.0195,    1.7189,    1.3605,    2.4560,    2.5297,    3.3817,    5.0793,    5.5059,    3.7892,    3.0494,
 30-OCT-1996 05:03:26.60,    1.4154,    0.4959,    0.5205,    0.3369,    0.1653,    0.3005,   -0.1357,    0.4475,    0.9336,    0.8102,    0.7200,    1.3717,    0.7351,    0.2648,    0.4158,    0.5017,    0.2380,  999.0000,   -0.8465,    0.2629,    0.7869,    0.9624,    2.2055,    2.4813,    2.2547,    1.4931,    2.0534,    1.5838,    1.7121,    2.5207,    3.4763,    3.1398,    2.9735,    3.1723,    4.3147,    5.0063,    4.0135,    3.0571,    2.5563,    1.8734,    1.8346,    2.1378,    2.6513,    3.2931,    2.1600,   -0.4976,   -1.7309,   -0.6871,    1.2957,    1.3237,    0.3063,  999.0000,  999.0000,  999.0000,  999.0000,    2.8311,    2.0870,    1.3875,    2.4569,    2.7938,    3.3960,    4.7757,    5.5343,    3.9135,    3.1902,
 30-OCT-1996 05:06:03.67,    2.3941,  999.0000,    0.2751,    0.0249,  999.0000,    0.0328,   -0.2094,   -0.1621,    0.2862,    0.5610,    0.4465,    1.4543,    1.1404,    0.8037,    1.1726,    1.4179,    0.7517,   -0.4307,   -0.6809,  999.0000,    1.3719,    1.7618,    2.5790,    3.2590,  999.0000,    1.5311,    1.6703,    1.7335,    1.6444,    2.5833,    3.0357,    2.8493,    3.1607,    4.0188,    4.1763,    4.8348,    4.1578,    3.2337,    2.6321,    2.0033,    2.5240,    2.7452,    3.0449,    3.6754,    2.4919,    0.0958,   -1.5158,   -0.6486,    1.3330,    1.3024,    0.3173,   -0.3297,   -0.1429,    1.5075,    2.2235,    2.8873,    2.3815,    2.2221,    3.0410,    3.4763,    4.1952,    4.8976,  999.0000,    3.3665,    3.3245,
 30-OCT-1996 05:08:42.72,    2.1808,  999.0000,   -0.3525,   -0.7241,   -0.3471,   -0.2881,   -0.8998,   -0.8968,    0.0343,    0.3006,   -0.1208,    0.5659,  999.0000,    0.4018,    0.7314,    1.1801,    0.7178,  999.0000,  999.0000,    0.8912,    1.9588,    2.5553,    2.8464,    3.0774,  999.0000,    1.5887,    1.8054,    1.6774,    1.5533,    2.5279,    3.2198,    3.3912,    3.4074,    3.9697,    4.4275,    4.8770,    4.0201,    3.3209,    1.8103,    2.1601,    2.2417,    2.7803,    3.4981,    3.7456,    2.8373,    0.1801,   -1.1843,   -0.3753,    1.6828,    1.6081,    0.0996,   -1.0221,   -0.1252,    1.8239,  999.0000,  999.0000,    2.4013,    2.0328,    2.9506,    3.4307,    4.0200,    4.8463,    5.3409,  999.0000,    3.8690,
 30-OCT-1996 05:11:21.87,    1.4716,    0.5281,   -0.1006,  999.0000,   -1.1204,  999.0000,   -1.3015,   -1.1884,   -0.8460,   -0.6377,   -0.6890,   -0.1180,   -0.2869,   -0.6318,   -0.7081,   -0.9313,   -1.1014,  999.0000,    0.1412,    0.3566,    1.1637,    1.9505,    2.4874,    3.0086,    2.6829,    1.9238,    2.1175,    2.0957,    2.0618,    2.9604,    3.6430,    3.6145,    3.5511,    4.1656,    4.7102,    5.0406,    4.1554,    2.9608,    1.6472,    2.0853,    1.7908,    1.6685,    2.8064,    3.5357,    2.7139,  999.0000,   -1.2583,  999.0000,  999.0000,    1.2819,    0.0185,   -0.7886,   -0.2867,  999.0000,  999.0000,    3.3361,    2.3280,    1.6543,    2.9662,    3.4924,    3.9534,    4.7059,    5.3670,  999.0000,    4.2191,
 30-OCT-1996 05:14:00.90,    2.1300,  999.0000,    0.1214,   -0.5174,   -0.4633,   -0.7310,   -0.9160,   -0.9945,   -0.5792,  999.0000,   -0.2689,   -0.3109,   -0.4228,   -0.9897,   -1.0710,   -0.7778,   -0.7879,   -1.1198,   -0.3008,    0.6402,    1.1096,    1.3626,    2.5997,    3.7954,    2.4117,    1.8499,    1.8320,    1.9784,    2.3782,    2.8904,    3.8315,    3.9397,    3.5099,    4.0795,    5.0036,    4.9664,    3.5283,    2.8507,    2.1061,    1.8397,    1.5225,    1.6166,    2.6270,    3.1293,    2.3696,    0.2576,   -1.5391,   -1.7998,  999.0000,    1.1157,    0.0679,   -1.0545,   -0.6721,    1.5766,    2.7310,    3.0169,    2.0029,    1.2288,    2.8907,    3.7488,    4.2246,    4.6517,    5.4561,    3.8844,    3.9732,
 30-OCT-1996 05:16:40.32,    1.3281,    0.5353,    0.2278,   -0.3498,   -0.6635,   -1.2857,   -1.2130,   -0.8461,   -0.5902,   -0.0663,    0.1115,   -0.0562,   -0.3946,   -0.5505,   -0.7269,   -0.7595,   -1.3782,   -1.4707,  999.0000,    0.3767,    1.2974,    1.8870,    2.5445,    3.5060,    2.7069,    1.6486,    1.6913,    2.0088,    2.1751,    2.6128,    3.6094,    3.4417,    3.2846,    3.8329,    4.9781,    4.7920,    3.2454,    2.3893,    2.0406,    1.9167,    1.7354,    1.9387,    2.4108,    2.6712,    2.1474,   -0.0761,   -2.2663,  999.0000,  999.0000,    1.2851,   -0.1641,   -1.6948,   -0.9755,    1.1916,    2.3951,    2.6934,    1.8986,    1.4927,    2.2868,    3.8944,    3.7691,    4.4888,    4.7881,    3.4765,    4.0891,
 30-OCT-1996 05:19:17.56,    2.2941,  999.0000,  999.0000,   -0.8143,  999.0000,   -1.6815,  999.0000,   -0.3885,   -0.3206,   -0.0534,   -0.3193,   -0.1926,   -0.8232,   -0.7778,  999.0000,   -0.7589,   -1.1374,  999.0000,    0.3550,  999.0000,    1.4351,    2.1433,    2.8061,    3.2774,    2.3985,    1.6363,    1.8094,    1.6572,    1.7704,    2.5323,    3.3007,    4.3005,    2.9285,    3.8983,    5.1925,    4.8122,    3.6878,    2.6133,    1.7233,    1.4271,    1.3171,    1.6231,    2.5719,    2.7676,    1.9611,   -0.1488,   -2.0589,   -0.7701,  999.0000,  999.0000,   -0.8953,   -2.2408,   -1.2190,    1.2716,    2.6225,    2.5966,    1.6669,  999.0000,  999.0000,    2.9216,    3.2512,    3.7487,    3.9799,    3.5323,    4.1880,
 30-OCT-1996 05:21:56.77,    2.3902,  999.0000,  999.0000,   -1.2125,  999.0000,   -1.0168,   -0.9973,   -0.8214,   -0.1257,   -0.0572,   -0.7687,   -0.5899,   -0.8849,   -1.2787,   -1.0657,   -0.9466,   -0.7444,   -0.7245,   -0.0176,    0.4491,    1.2026,    2.1038,    2.8614,    2.8487,    2.2561,    1.7656,    2.0623,    1.6778,    1.6370,    2.3256,    3.1044,    3.8095,    3.2632,    3.9975,    5.0820,    4.3369,    3.2042,    3.5375,    1.5055,    1.6054,    1.8564,    2.0003,    2.2790,    2.4489,    1.4514,   -0.8002,   -2.5314,   -1.4703,    0.8220,    0.7195,   -1.3311,   -2.0474,  999.0000,  999.0000,    2.1419,  999.0000,  999.0000,    1.1132,    2.1134,    2.7000,    3.2257,    3.9871,    4.3061,    3.5515,    4.2928,
 30-OCT-1996 05:24:33.75,    2.7038,    1.4368,    0.3842,    0.1344,   -0.1609,   -0.2966,   -0.4694,   -0.3388,   -0.0033,    0.3719,   -0.0873,   -0.4219,   -0.4543,   -0.6390,   -0.2337,   -0.1813,   -0.6855,   -0.2873,    0.4350,    0.7757,    1.3082,    2.1926,    2.7787,    3.1401,    2.3162,    1.9069,  999.0000,    2.0050,    2.0280,    2.7725,    3.3929,    3.8758,    3.4998,    3.7114,    4.6224,    3.8150,    2.8899,    2.0280,    1.6143,    1.4280,    1.9924,    1.7926,    1.6260,    1.6901,    1.2455,  999.0000,   -2.1312,   -1.0642,    1.0253,    0.6572,   -0.8888,   -1.8432,   -1.2798,    0.9058,    2.2799,    2.4784,    1.1544,    1.2068,    1.9616,    2.6437,    3.5848,    4.0420,    4.3546,    3.6336,    4.8899,
 30-OCT-1996 05:27:12.76,    2.8486,  999.0000,    0.3007,   -0.7291,   -1.1991,   -0.9560,   -0.7420,   -0.2086,    0.4267,    0.7999,    0.0592,   -0.7825,   -1.2173,   -0.9624,   -0.0060,    0.0801,   -0.0042,   -0.0587,    0.0151,   -0.1474,    0.7380,    1.7773,    2.4488,    2.4951,    2.1489,    1.8801,    2.4968,    1.9492,    2.1480,    2.6820,    3.6615,    3.4668,    2.9763,    3.7163,    4.3963,    3.6541,    2.8167,    1.7884,    1.3961,    1.4376,    1.6485,    1.5921,    1.8466,    1.9383,    1.2450,   -0.9627,   -2.1392,  999.0000,  999.0000,  999.0000,  999.0000,   -2.2418,   -1.3006,    0.4737,    1.7790,    2.1793,    1.4442,    0.8826,    1.2563,    2.5667,    3.4953,    3.4356,    4.1349,    3.5123,    4.4749,
 30-OCT-1996 05:29:49.82,    2.8439,  999.0000,    0.0135,   -1.1106,   -1.6750,   -1.0339,   -0.8477,   -0.3497,  999.0000,    0.2689,   -0.7439,   -1.3197,   -1.5315,   -1.3073,  999.0000,    0.1220,   -0.1855,   -0.6468,   -0.4282,   -0.0541,    0.3905,    0.8913,    2.0067,    2.5973,    2.1982,    1.6692,    2.1434,    1.8159,    1.7734,    2.7170,    3.6022,    3.4818,    3.6216,    3.8285,    4.3098,    3.4833,    2.8758,    1.9115,    1.3393,    1.4057,    2.2104,    1.4993,    1.6591,    1.7896,    1.2926,   -0.5937,   -2.3374,   -1.1097,    0.5302,    0.0032,   -1.5006,   -2.2400,   -1.5798,   -0.1567,    1.2777,  999.0000,  999.0000,  999.0000,  999.0000,    2.1072,    2.7150,    3.5670,    3.8466,    2.5578,    3.8517,
 30-OCT-1996 05:32:28.91,    2.7809,  999.0000,    0.1107,    0.1275,    0.4151,   -0.0462,   -0.6168,   -0.6929,   -0.2371,   -0.2534,   -0.7136,   -1.3615,   -1.4777,   -0.9454,  999.0000,    0.9402,    0.1794,  999.0000,    0.2441,    0.1050,    0.4815,    1.0164,    1.9413,    2.5232,    2.0591,    1.4495,    2.1052,    2.1414,    1.7092,    2.8577,    3.2629,    3.2137,    3.5950,    3.6534,    4.2242,    3.5462,    3.2353,    1.9603,    1.1374,    1.1744,    1.3578,    1.6258,    2.1661,    2.0035,    0.9668,   -1.1545,   -2.5244,   -0.9549,  999.0000,  999.0000,   -1.6858,   -2.2404,  999.0000,  999.0000,  999.0000,  999.0000,    0.7792,    0.4006,    1.3920,    2.1947,    2.7008,    3.8389,    3.4252,    2.2590,    3.7016,
 30-OCT-1996 05:35:06.26,    2.8979,    2.3619,  999.0000,    0.7805,    0.7621,   -0.2024,   -1.0674,   -0.6667,   -0.0499,   -0.0426,   -0.1147,   -0.7776,   -0.7507,   -0.1632,    0.1951,    0.3883,    0.0810,   -0.1550,    0.1567,   -0.7377,  999.0000,    1.0854,    2.0463,    2.6566,    2.0037,    1.4648,    2.1149,    2.2203,    1.9635,    2.7044,    3.4245,    3.0226,    3.0508,    3.5018,    4.0066,    3.2733,    2.9221,    1.7900,    1.1661,    0.9263,    1.3305,    1.9837,    2.6608,    2.0694,    0.7917,   -1.5139,   -2.2304,   -0.6242,    0.4859,   -0.4504,   -2.0388,   -2.0311,   -1.3388,   -0.1469,    1.4830,    1.5502,    0.5927,    0.0880,    1.1017,    2.0985,    2.4036,    3.3280,    3.4355,    2.2006,  999.0000,
 30-OCT-1996 05:37:43.34,    2.8228,    2.4374,  999.0000,    0.3735,    0.1691,   -0.1615,   -0.5256,   -0.2258,    0.3977,    0.6792,   -0.2714,   -0.6830,   -0.6862,   -0.4653,   -0.2019,    0.1741,    0.4255,   -0.0584,   -0.1886,    0.0513,    0.9235,    1.2721,    2.2174,    2.7734,    2.2633,    2.2388,    2.4710,    2.1412,    2.0346,    2.7774,    3.9222,    3.6075,    2.9906,    3.4922,    3.8817,    2.9648,    2.6880,    1.7827,    1.0693,    1.0468,    1.3660,    1.8143,    2.3523,    2.0829,    0.6741,   -1.6595,   -2.1023,   -0.1922,    0.6725,   -0.7309,   -2.2223,   -2.1074,   -1.3717,    0.1763,    1.3840,    0.9342,    0.5231,    0.6557,    1.5153,    2.1630,    2.6441,    3.1183,    3.1429,    2.2793,    3.6164,
 30-OCT-1996 05:40:22.65,    2.5303,  999.0000,    0.3559,    0.0050,   -0.3894,   -0.1604,   -0.0098,    0.3705,    0.7089,    1.0253,  999.0000,  999.0000,   -0.6517,   -1.0211,   -0.5605,  999.0000,    0.1246,   -0.3528,   -0.2422,  999.0000,    1.3576,    1.5708,    2.3869,    3.1879,    2.1831,    1.4648,    2.3684,    2.6283,    2.1563,    3.0167,    4.0533,    3.4647,    3.1121,    3.2425,    3.8135,    2.9443,    2.3322,    1.6172,    1.3045,  999.0000,    1.6341,    1.7504,    1.5872,    1.7346,    0.8143,   -1.3457,   -1.9300,   -0.1120,    0.5183,   -0.7807,   -2.3432,   -1.8849,   -0.8205,    0.9594,    2.0429,    1.3508,  999.0000,  999.0000,    1.8999,    2.3581,    2.9024,  999.0000,    3.0104,    2.1844,    3.7276,
 30-OCT-1996 05:43:05.30,    2.6084,    2.2620,  999.0000,    0.3163,   -0.2633,   -0.0384,    0.1247,    0.5871,    0.4924,    0.9007,   -0.3452,   -0.9907,   -1.3180,   -1.4708,   -1.0623,   -0.5127,   -0.3604,   -0.6280,   -0.1095,    0.4912,    1.1236,    1.5815,    2.9682,    3.2745,    1.9620,    1.4350,    1.7329,    2.0093,    1.5441,    2.6155,    3.1564,    3.0080,    3.1468,    3.1204,    3.5897,    2.5579,    2.2594,  999.0000,    1.1926,    0.9175,    1.4635,    1.5084,    1.3808,    1.2082,    0.2445,   -1.7335,   -2.1056,    0.0387,    0.4332,   -0.9855,   -2.2690,   -2.2247,   -1.2276,    0.4456,    1.6056,    1.6109,    0.9977,    0.9225,    1.7520,    2.3444,    3.1074,    3.2471,    2.3718,  999.0000,  999.0000,
 30-OCT-1996 05:45:42.56,    2.7279,  999.0000,    0.6442,   -0.3579,   -0.2840,   -0.0998,    0.0942,    0.1944,  999.0000,    1.2939,    0.6336,  999.0000,   -1.1440,   -1.3770,   -1.0973,   -0.6395,   -0.8754,  999.0000,   -0.4621,   -0.3505,    0.6301,    1.0394,    2.7090,    3.5710,    2.5514,    2.0344,    1.4452,    1.7599,    1.5375,    2.6860,  999.0000,    2.9717,    3.0795,    3.3081,    3.2886,    2.0677,    2.1770,    1.5139,    0.9128,    0.4794,    0.9382,    1.2063,    1.0845,    0.8661,   -0.4643,   -2.2921,   -2.1051,   -0.4409,   -0.3193,   -1.1376,   -2.4442,   -2.2864,  999.0000,  999.0000,    0.9208,    1.4205,    1.0484,    0.9889,    1.5871,    2.3857,    3.0818,    3.3565,    2.7039,    2.7071,    3.9292,
 30-OCT-1996 05:48:21.93,    2.8940,  999.0000,    0.3906,   -0.3781,   -0.3050,   -0.3319,  999.0000,    0.3692,  999.0000,    0.8782,  999.0000,   -0.7844,   -1.1284,   -1.0034,   -1.0498,   -0.4373,   -0.3728,   -0.8628,  999.0000,   -0.1804,    0.1768,    0.8021,    1.9308,    3.7051,    2.6701,    1.6917,    1.5100,    1.7846,    1.8589,    2.5324,    3.0395,    3.6028,    3.1676,    3.3560,    3.1831,    2.1248,    2.1242,    1.2433,    0.5864,    0.3945,    1.0283,    1.0289,    1.1368,    1.1223,   -0.1998,   -2.0534,   -1.9019,   -0.1178,  999.0000,  999.0000,   -2.4297,  999.0000,  999.0000,  999.0000,    1.4139,    1.0204,    0.7067,  999.0000,  999.0000,    2.8145,    3.2859,    4.0737,    3.3024,  999.0000,    4.0145,
 30-OCT-1996 05:51:01.21,  999.0000,  999.0000,    0.0911,   -0.7870,   -0.6124,   -0.1511,    0.2772,    0.3431,    0.3513,    0.9671,    0.1691,  999.0000,   -1.0687,   -0.7207,   -0.2558,    0.4344,    0.3145,   -0.0855,  999.0000,    0.0113,    0.2444,    1.2233,    2.5208,    3.2850,    2.5585,    1.4502,    1.4201,    1.6008,    1.7845,    2.4154,    3.3363,    3.6144,    2.9176,    3.5469,    3.0972,    1.9870,    1.7356,    1.0312,    0.4641,    0.2565,    0.9577,    1.4278,    1.3639,    0.8544,   -0.2715,   -2.1311,  999.0000,  999.0000,   -0.2106,   -1.3755,   -2.2608,   -1.8689,   -0.6975,    0.7488,    1.2008,    0.4646,    0.9307,    2.0745,    2.5417,    2.9970,    3.9299,    4.0539,    3.1619,    4.1049,    4.9041,
 30-OCT-1996 05:53:38.28,    3.4035,  999.0000,   -0.0621,   -0.8859,   -0.8094,   -0.2316,    0.1576,    0.1560,    0.1168,    0.8656,    0.4175,   -0.1457,    0.0439,    0.4803,    1.2990,    1.6365,    1.6920,    0.5466,   -0.0580,    0.4966,    1.0192,  999.0000,    2.6915,    3.6785,    2.6601,    1.6975,    1.4438,    1.7437,    2.1320,    2.3861,  999.0000,    3.8102,    2.7273,    3.6008,    2.9631,    1.9646,    2.0095,  999.0000,    0.7227,    0.6441,    0.9932,    1.4835,    0.9558,    1.0496,   -0.3532,   -2.4105,   -1.8879,   -0.0889,   -0.2162,   -1.5439,   -2.2507,   -1.7001,   -0.2096,    1.0722,    1.3739,    0.7455,  999.0000,    2.5565,    2.0208,    2.5253,    3.6255,    4.0221,    3.7070,  999.0000,    4.9172,
 30-OCT-1996 05:56:17.59,    2.6048,  999.0000,   -0.2136,   -1.6231,   -1.9191,   -0.4907,  999.0000,    0.7214,  999.0000,  999.0000,    0.8899,    0.1322,    0.0239,    0.3007,    1.6635,    1.8150,    1.4126,    0.7218,  999.0000,    0.8685,  999.0000,    1.8437,    2.9020,    3.3548,    3.1108,    1.8256,    1.6564,    1.9167,    2.1652,    2.8233,    4.5135,    3.6352,    3.1261,    3.2060,    2.7798,    2.1345,    2.2443,    1.0686,    0.8992,    1.1851,    1.6805,    1.5797,    1.3039,    0.7443,   -0.8378,   -2.4688,   -1.8237,   -0.3850,   -0.7521,   -1.8697,   -2.6667,   -1.7467,   -0.1916,    0.8957,    1.3237,    0.7411,    0.7703,    2.1603,    2.6096,    2.6875,    3.9524,    4.9056,    4.2486,    4.0655,    4.4688,
 30-OCT-1996 05:58:54.55,    2.8471,  999.0000,    0.7360,   -0.5228,   -0.6552,    0.3889,    0.3139,    0.1777,    0.6247,    1.0607,    0.2106,   -0.4678,   -0.4799,   -0.1175,  999.0000,  999.0000,    1.5811,    1.0546,    0.5936,  999.0000,    1.3921,    1.7655,    2.7208,    3.3681,    2.6748,    1.5352,    1.7935,    1.8925,    2.1703,    2.7807,    3.7237,    3.4542,    3.4456,    3.3850,    2.5653,    2.1012,    2.0156,    1.0748,    0.6963,    1.1429,    1.6148,    1.5857,    0.8473,  999.0000,   -1.2306,   -2.7583,   -1.7512,   -0.5668,   -1.1709,   -2.1871,  999.0000,  999.0000,    0.3794,    1.1783,    1.4697,    1.2664,    1.1833,    2.3130,    3.2999,    3.6157,    4.2432,    5.1582,    4.0641,    2.6318,  999.0000,
 30-OCT-1996 06:01:31.96,    2.9923,    2.6341,  999.0000,    0.1110,   -0.1618,    0.1251,   -0.1926,   -0.2675,    0.3475,    0.4660,    0.3813,   -0.3429,   -0.1710,    0.7118,    1.7634,    1.9218,    1.4557,    0.9971,    0.3185,    0.6223,    1.2885,  999.0000,    2.6734,    3.2461,  999.0000,    1.3052,    1.5785,    2.0375,    2.1643,    3.2982,    4.0358,    3.5962,    3.4603,    3.3708,    2.0173,    1.7598,    1.5879,    0.8321,    0.7551,    1.0587,    1.2027,    0.9792,    0.4871,   -0.2271,   -1.7816,   -2.9562,   -1.9013,   -1.0670,   -2.0884,   -2.6138,  999.0000,  999.0000,  999.0000,  999.0000,    1.7317,    1.3307,    1.2764,    2.4089,    2.8711,    3.0414,    3.6249,  999.0000,    3.4670,  999.0000,    3.6006,
 30-OCT-1996 06:04:11.28,    2.7940,  999.0000,  999.0000,    0.0779,    0.0387,    0.4871,    0.4955,  999.0000,  999.0000,    0.1583,  999.0000,  999.0000,   -0.3229,    0.4499,  999.0000,    1.7788,    1.4971,  999.0000,    0.6746,    0.2538,    0.8111,    1.0626,    1.7460,    2.9675,    2.3420,    1.3097,    1.5879,    1.7399,    2.0201,    3.2208,    3.8088,    3.3521,    3.1596,    2.6704,    1.5660,    1.5465,    1.5752,    1.0975,    0.7193,    0.8778,    1.0652,    0.7239,    0.0577,   -0.4233,   -1.8447,   -2.6534,  999.0000,   -1.3397,   -2.5464,   -3.1891,   -2.6261,   -0.4940,    0.6846,    0.7129,    1.4026,    0.8586,    0.5903,    1.7203,    2.4595,    2.7545,    3.0380,    4.2536,  999.0000,    2.2848,    2.5527,
 30-OCT-1996 06:06:48.27,    2.8461,  999.0000,  999.0000,   -0.0901,    0.3677,    1.1333,    1.1987,    0.7781,    0.6329,    0.9821,    0.6651,   -0.8314,   -0.9914,    0.0793,    1.4313,  999.0000,  999.0000,    1.2377,  999.0000,  999.0000,    0.6736,  999.0000,  999.0000,    2.7635,    2.7119,    1.6502,    1.5632,    1.7530,    1.8841,    2.8868,    3.6536,    3.3660,    3.1077,    2.6146,    1.9640,    1.6623,    1.6778,    1.1343,    0.8056,    0.9369,    1.0861,    0.9320,    0.5032,   -0.1890,   -1.8977,   -2.4597,   -1.3558,   -1.4278,   -3.0184,   -3.7842,   -3.0483,   -1.5434,   -0.0823,    0.7445,    1.0015,    0.6938,    0.8423,    1.9115,    2.2944,    2.5245,    3.2145,    3.9698,    3.0991,    2.0575,    2.8680,
 30-OCT-1996 06:09:27.58,  999.0000,  999.0000,    0.4265,    0.1556,    0.5055,    0.8985,    0.9923,    0.3825,    0.6984,    1.0261,  999.0000,   -0.9056,   -1.1251,    0.2377,  999.0000,    1.4575,    1.3851,    1.6292,    1.3134,    1.0938,  999.0000,  999.0000,  999.0000,    2.8466,    3.0580,    1.4103,    1.8010,    2.0732,    2.5021,    3.4202,    4.1621,    3.2212,    3.5653,    3.0058,    2.4185,    2.0031,    1.6135,    0.7602,    0.8051,    0.5050,    0.6252,    0.8089,    0.7187,   -0.5566,   -2.1431,   -2.0656,   -0.9045,   -1.3138,   -2.6795,   -3.5823,   -3.1720,   -2.2161,   -0.7334,    0.5555,  999.0000,  999.0000,    0.4714,    1.6121,    2.2809,    2.6082,    3.3437,    3.8195,    2.8422,    1.9653,    2.5156,
 30-OCT-1996 06:12:06.86,    2.7811,  999.0000,    0.5924,    0.0864,   -0.1025,    0.2412,  999.0000,    0.3097,    0.9003,    1.2294,    0.3932,  999.0000,   -1.0262,  999.0000,  999.0000,    1.7652,  999.0000,  999.0000,    0.3007,  999.0000,  999.0000,  999.0000,  999.0000,  999.0000,    2.5763,    1.4331,    2.0249,    2.2638,    2.6038,    3.8558,    4.7060,    3.1098,    3.6428,  999.0000,    2.2119,    2.1533,    1.8170,    0.9474,    0.7102,    1.1133,    1.0475,    0.9476,    0.9752,   -0.4880,   -2.2785,   -1.8330,   -0.9812,   -1.5594,   -2.6985,   -3.0731,   -2.4791,   -1.2776,    0.0859,    0.7374,    1.1400,  999.0000,  999.0000,    1.4421,    2.2297,    2.7905,    3.0945,    3.1259,    2.1417,    1.6316,  999.0000,
 30-OCT-1996 06:14:46.04,    3.1071,    1.6960,    0.6875,    0.0889,   -0.3491,   -0.3325,    0.2946,  999.0000,  999.0000,  999.0000,    0.1526,    0.0148,   -0.1720,    0.6990,    1.4656,    1.7306,    1.2849,    0.8570,  999.0000,    0.9768,    0.7876,    1.0674,    2.4334,    3.2197,    2.5091,    1.4351,    1.6771,    2.1282,    2.8605,    4.0568,    5.1105,    3.4805,    3.7060,    3.2207,    2.6109,    1.9471,    1.5051,    0.9898,    0.9392,    1.8364,    1.9926,    1.2690,    1.0660,   -0.1596,   -1.8993,   -0.9923,  999.0000,  999.0000,  999.0000,   -2.9860,   -2.1146,    0.0990,    1.3305,    1.0974,    0.8244,    0.2499,    0.2279,    1.4622,    2.3247,    2.7711,    3.0046,  999.0000,  999.0000,    1.1699,    1.4934,
 30-OCT-1996 06:17:25.07,    3.7446,  999.0000,    0.5613,   -0.0342,    0.0169,    0.0379,    0.1491,  999.0000,    0.1834,    0.5582,    0.6795,   -0.0388,   -0.2846,  999.0000,    1.4053,    2.0469,  999.0000,  999.0000,  999.0000,  999.0000,    0.1881,  999.0000,  999.0000,    3.1374,    2.7846,    1.5156,    1.6663,    2.2351,    2.7991,    4.2157,    5.2251,    4.3203,    4.3997,    3.3463,    2.6845,  999.0000,    1.8824,    1.6289,    1.4669,    2.3231,    2.4803,    1.6103,  999.0000,   -0.0254,   -1.5366,   -0.4407,    0.0905,   -1.1635,   -2.5587,   -2.6844,   -1.5468,    0.4558,    1.4748,    1.4613,    1.0526,    0.0721,    0.0988,    1.3350,    2.2097,    2.4010,    2.7635,    3.3523,    2.1048,    0.6630,    0.8518,
 30-OCT-1996 06:20:02.59,    3.6375,  999.0000,    0.4120,   -0.1429,    0.2819,    0.5683,    0.5137,    0.3089,    0.4637,    0.9784,    1.0423,  999.0000,  999.0000,    0.6907,    1.4995,  999.0000,  999.0000,  999.0000,  999.0000,    0.3697,    0.1621,    0.4660,  999.0000,    2.8756,    3.2769,    1.5558,    2.0274,    1.9564,    2.9684,    4.2441,    5.1525,    4.6429,    4.9332,    4.0648,    3.3333,    2.6388,    1.9358,    1.9118,    1.7703,    2.0331,    2.1729,    1.8851,    1.3932,    0.3851,  999.0000,    0.2107,    0.6268,   -0.7773,   -2.3648,   -2.7934,   -1.6287,   -0.2194,  999.0000,  999.0000,    1.2806,    0.1626,    0.5881,    2.0077,    2.5097,    2.4367,    2.7608,    3.2902,    2.3984,    0.7368,   -0.2808,
 30-OCT-1996 06:22:39.65,    3.5579,  999.0000,    0.6261,    0.1596,    0.3521,    0.9166,    0.9588,  999.0000,    0.9153,    1.1850,    1.1599,    0.2639,   -0.2948,    0.3768,  999.0000,  999.0000,    2.3660,    1.4805,    0.8204,    1.0830,  999.0000,  999.0000,    2.1970,    2.6001,    3.4021,    1.7730,    2.1174,    2.1294,    3.1965,    4.6146,    5.3741,    4.3813,    4.5084,    4.1341,    3.4240,    2.6233,  999.0000,    1.5758,    1.3922,    1.7867,    1.7835,    1.4614,    1.2269,   -0.0613,   -1.4069,    0.3150,    0.6498,   -1.0727,   -2.6130,   -3.3163,   -1.9501,   -0.2900,    1.0995,    2.0055,    1.3947,    0.1500,    0.1865,    1.8521,    2.3642,    2.2096,    2.2871,    2.5902,    1.1980,   -0.7361,   -1.2410,
 30-OCT-1996 06:25:18.72,    3.4733,  999.0000,  999.0000,    0.3967,    0.0339,    0.6449,    0.7232,    0.7859,    1.0292,    1.1734,    1.1548,    0.8891,    0.1916,    0.7825,    1.5001,    2.3105,  999.0000,    1.9292,    1.2690,    1.4037,    1.7521,  999.0000,  999.0000,    2.1770,    3.0812,    1.9427,    2.1004,    2.1676,    3.2325,    4.8331,    5.4320,    5.0024,    4.6280,    3.4915,    3.0086,    2.4856,    1.6101,    1.7084,    1.6844,    1.8824,    1.8571,    1.3708,    1.0190,    0.1679,  999.0000,    0.2452,    0.2585,   -1.2239,  999.0000,  999.0000,   -1.6825,   -0.1217,    0.6367,    1.3692,    1.2645,    0.0995,    0.1606,    1.6389,    1.9891,    1.1778,    1.5564,    2.2356,  999.0000,   -0.7587,   -1.1754,
 30-OCT-1996 06:27:55.70,    2.9783,    2.6448,  999.0000,    0.5344,  999.0000,    0.4221,    0.5869,    0.3885,    0.8019,    1.1771,    1.2927,    0.4277,    0.1284,    0.1079,    1.3898,    1.8136,    1.9606,  999.0000,    0.8572,  999.0000,  999.0000,    1.4165,  999.0000,    1.9202,    3.0747,    1.8008,    2.0874,    2.1651,    3.0076,    4.1876,    4.8979,    4.8721,    4.8044,    3.6469,    3.2018,    2.5955,    1.8267,    1.9098,    1.8618,    2.2942,    2.0873,    1.4799,    1.2636,    0.2114,   -0.8415,    0.7185,    1.0038,   -0.6536,   -2.7849,   -3.5683,  999.0000,  999.0000,  999.0000,  999.0000,    1.6352,    0.4270,    0.2700,    1.1628,    1.8975,    1.2420,    1.6552,    1.8714,   -0.4786,   -0.9346,   -2.0459,
 30-OCT-1996 06:30:32.63,    2.6270,  999.0000,    0.7718,    0.3024,    0.0477,   -0.0701,    0.6165,    0.7617,    0.9120,    1.0410,    0.9782,    0.3560,  999.0000,   -0.4252,  999.0000,    0.7242,  999.0000,  999.0000,  999.0000,    0.7798,   -0.0167,  999.0000,  999.0000,    1.6853,    2.7837,    1.9237,    2.1599,    2.9632,    4.2255,    4.8048,    6.2527,    5.1997,    4.4415,    4.0632,    3.8266,    2.9928,    2.2727,    2.2274,    2.1385,    2.7354,    2.4469,    1.6074,    1.3412,    0.7798,  999.0000,  999.0000,  999.0000,  999.0000,   -2.5650,   -2.9315,  999.0000,  999.0000,  999.0000,  999.0000,    1.5194,    0.9336,    0.5043,    1.2341,  999.0000,    1.0195,  999.0000,    1.2049,    0.0237,   -0.9169,  999.0000,
 30-OCT-1996 06:33:09.66,    2.8348,  999.0000,    0.5429,    0.2342,    0.2151,    0.1218,   -0.0403,    0.2219,    0.5658,    0.5485,    0.1375,  999.0000,  999.0000,   -1.1786,   -0.4225,  999.0000,    0.5294,    0.2899,   -0.0148,  999.0000,  999.0000,   -0.0275,  999.0000,    1.8104,    2.5660,    1.5343,    1.9835,    3.1103,    4.2560,    5.0056,    6.2769,    5.5167,    4.2785,    3.8035,    3.2595,    2.4290,    2.4433,    2.3173,    2.3722,    2.5873,  999.0000,    2.1249,    1.4943,    0.2254,   -0.7459,    0.4529,    0.8266,   -0.6150,   -2.5047,   -2.6666,   -1.6709,   -0.4479,    1.2749,    1.9359,  999.0000,  999.0000,  999.0000,    1.3698,    1.6243,    0.6934,    1.0494,    0.7662,   -1.0355,  999.0000,   -3.5307,
 30-OCT-1996 06:35:48.82,    2.9987,  999.0000,    0.4172,    0.0188,    0.0665,   -0.0971,    0.1161,    0.4878,    0.7545,    0.8059,    0.2043,  999.0000,   -0.8936,   -0.9750,   -0.1789,  999.0000,    0.6368,  999.0000,   -0.0038,   -0.0916,   -0.4498,  999.0000,  999.0000,    2.2104,    2.6806,    1.2042,    2.0716,    2.7308,    4.0118,    5.1658,    5.9056,    5.3074,    5.4591,    3.5287,    3.4797,    2.6556,    2.2067,    1.7777,    2.0274,    2.7010,    2.6171,    1.9633,    1.3053,    0.0229,   -1.0534,    0.1109,    0.8438,   -0.5932,   -2.4201,   -2.7957,   -1.5305,   -0.4572,    0.7918,    1.7295,    0.8755,    0.3490,    0.6927,    1.2164,  999.0000,    0.5936,    0.8070,    0.4893,   -1.7573,   -2.7052,   -3.7618,
 30-OCT-1996 06:38:26.07,    3.1037,  999.0000,    0.1508,    0.0936,    0.4275,  999.0000,    0.8869,    1.0074,    0.9686,    0.9658,    0.4438,  999.0000,   -1.0885,  999.0000,  999.0000,  999.0000,  999.0000,    0.3918,   -0.0396,  999.0000,  999.0000,   -0.2116,  999.0000,    2.1216,    2.7618,  999.0000,    1.7737,    2.6357,    3.9002,    5.5529,    5.6339,    4.7413,    3.9636,    3.5193,    3.3617,    2.7029,    1.8104,    1.1114,    2.4387,    2.5778,    1.9313,    1.3973,    0.9505,   -0.4240,   -1.3662,   -0.0101,    0.6976,   -0.9302,   -2.6772,   -2.7751,   -1.9501,   -0.4347,    1.0489,    1.6418,    0.8310,   -0.1721,   -0.0020,    0.8863,    0.7926,    0.3263,    0.8251,  999.0000,   -2.4209,   -2.8059,   -3.1736,
 30-OCT-1996 06:41:03.51,    2.7368,  999.0000,  999.0000,   -0.0011,    0.0139,    0.3286,    0.8222,    1.0359,  999.0000,  999.0000,  999.0000,    0.0282,  999.0000,    0.1474,  999.0000,  999.0000,    0.8828,    0.2702,  999.0000,  999.0000,  999.0000,  999.0000,  999.0000,    2.4271,  999.0000,    1.0894,    1.8349,    2.3377,    3.5337,    4.8621,    5.1637,    4.4702,    4.2316,    3.4662,    3.0491,    1.9937,    1.5805,    0.6353,    1.5535,    1.7987,    1.6055,    0.9824,    0.8061,   -0.5264,   -1.3542,   -0.2093,   -0.1323,   -1.3680,   -2.6469,  999.0000,  999.0000,   -0.0296,    1.0095,    1.2920,    0.6977,  999.0000,  999.0000,    1.1556,    1.1230,    0.0765,    0.4552,   -0.2171,   -2.8477,   -2.9848,   -3.2982,
 30-OCT-1996 06:43:40.78,    2.6957,  999.0000,    0.3835,   -0.1050,   -0.2133,   -0.0094,    0.4127,    0.6578,    0.5947,  999.0000,    1.1697,  999.0000,   -0.8664,  999.0000,  999.0000,  999.0000,  999.0000,  999.0000,   -0.6357,  999.0000,  999.0000,   -0.8927,  999.0000,    2.1043,    2.8168,    1.2398,    1.6786,    2.3190,    3.3553,    4.4719,    4.4473,    4.3234,    3.5863,    3.0731,    2.7535,    2.1958,    1.7431,    1.1549,    1.6178,    1.4851,    1.5473,    1.4083,    0.6518,   -0.8904,   -2.1196,   -0.9021,   -0.8415,   -2.1712,   -3.2205,   -3.0853,   -1.8053,   -0.4027,    0.4342,  999.0000,  999.0000,  999.0000,  999.0000,    1.2885,    0.9248,   -0.3070,    0.4637,   -0.2093,   -2.7468,   -3.0417,   -2.9661,
 30-OCT-1996 06:46:20.13,    2.6785,  999.0000,    0.4294,   -0.0651,   -0.1343,    0.1044,  999.0000,    0.3376,    0.5144,    0.8124,    1.2226,  999.0000,   -0.4869,  999.0000,    0.7177,    0.4789,  999.0000,  999.0000,  999.0000,  999.0000,   -0.0250,   -0.6734,  999.0000,    2.1243,    2.7630,    1.5295,    1.6191,    2.4077,    3.3047,    4.6054,    4.7315,    4.5234,    3.4407,    3.0068,    2.5791,    2.0141,    1.6957,    1.0004,    1.6699,    1.5875,    1.7099,    1.5908,    0.5749,   -1.0332,   -2.2620,   -1.0409,   -0.6342,   -2.1409,   -3.6480,   -3.5127,   -2.0777,   -0.8222,    0.3955,    0.7650,    0.5495,   -0.0311,    0.0646,    1.3614,    0.8730,   -0.3090,    0.1269,   -0.9328,   -2.6120,   -2.9579,   -3.1514,
 30-OCT-1996 06:48:59.71,    2.7046,  999.0000,  999.0000,   -0.2148,   -0.1208,    0.4365,    0.5966,    0.5895,  999.0000,    0.8239,    0.9962,  999.0000,   -0.4606,   -0.0047,    0.3525,  999.0000,  999.0000,  999.0000,  999.0000,    0.2081,   -0.2518,   -0.5002,  999.0000,    2.3250,    2.9310,    1.5918,    1.8483,    2.4621,  999.0000,    4.6050,    4.8989,    4.6528,    3.7380,    3.2995,    2.7711,    2.4885,    2.3081,    1.1879,    1.4905,    2.0952,    1.8542,    1.2790,  999.0000,   -0.8692,   -1.9046,   -0.7258,   -0.3407,   -1.8698,   -3.3638,   -3.2852,   -1.9719,   -0.7862,    0.3536,    0.9172,    0.3116,   -0.1112,    0.0985,  999.0000,  999.0000,   -0.3317,    0.1650,  999.0000,   -2.3129,   -2.8313,   -3.3566,
 30-OCT-1996 06:51:37.11,    2.6706,  999.0000,   -0.0401,    0.1517,    0.3055,    0.5886,    0.8233,    1.2405,    1.1060,    1.1000,    0.9364,   -0.0272,   -0.4588,   -0.1788,    0.1675,    0.2884,    0.2742,  999.0000,    0.4954,    0.8574,  999.0000,  999.0000,  999.0000,    2.4771,    3.4904,    1.9745,    2.3563,    2.4584,    3.2262,    4.5298,    5.0349,    4.4677,    3.7173,    3.3931,    2.8093,    2.6158,    2.7286,    2.3181,    2.2019,    2.5465,    1.7361,    1.2112,    0.7714,   -0.6375,   -1.6588,   -0.5246,   -0.1007,   -1.9849,   -3.3390,   -3.0749,   -1.7473,   -0.5389,    0.7342,    1.3263,    0.3533,    0.2716,    0.7641,    1.4104,    0.6294,   -0.3624,   -0.3635,  999.0000,   -2.6999,   -3.1051,   -3.2379,
 30-OCT-1996 06:54:14.04,    2.7542,  999.0000,   -0.2304,  999.0000,    0.3591,    0.2794,  999.0000,    1.1168,  999.0000,  999.0000,   -0.0116,   -0.5161,   -0.5581,   -0.4011,  999.0000,    0.0117,  999.0000,    0.0723,   -0.2923,  999.0000,    0.0738,   -0.4857,  999.0000,    2.2325,    3.6729,  999.0000,    2.0708,    2.7394,    3.9565,    4.9021,    5.1189,    4.4091,    3.5424,  999.0000,    3.0638,    2.2707,    1.9618,    1.6422,    2.3921,    2.4098,    1.5433,    0.8121,  999.0000,   -0.9603,   -1.8503,   -0.7995,   -0.4203,   -2.0166,   -3.2666,   -3.0193,   -1.5258,   -0.0917,    1.0513,    1.6838,    1.4037,    0.5369,    0.2577,    0.8275,   -0.0408,   -1.1994,   -1.4029,   -4.0120,   -4.3347,   -3.6322,   -3.5195,
 30-OCT-1996 06:56:53.34,    3.3999,  999.0000,    0.8024,  999.0000,    0.4819,    0.2563,  999.0000,    0.5128,  999.0000,  999.0000,  999.0000,    0.0931,  999.0000,  999.0000,  999.0000,   -0.4443,   -0.0223,   -0.1659,   -0.6094,  999.0000,  999.0000,  999.0000,    0.7773,    2.1921,    3.9246,    2.0738,    2.2262,    2.7242,    3.8533,    5.0913,    5.1562,    4.5899,    3.6913,    3.4919,    2.7519,    2.4395,    1.6895,    1.3285,    2.0506,    1.5683,    0.8560,    0.3929,   -0.2419,   -1.5656,   -1.9206,   -0.8899,   -0.4349,   -2.2239,   -3.5365,   -2.7717,   -1.3938,   -1.1467,  999.0000,  999.0000,    1.4234,    0.4023,    0.1545,    0.2563,   -0.5472,   -0.4632,   -2.2946,   -4.2366,   -4.8602,   -4.4957,   -4.0785,
 30-OCT-1996 06:59:30.28,    5.3337,  999.0000,    1.5644,    0.5362,    0.2281,    0.1252,  999.0000,  999.0000,    0.7108,    0.7024,  999.0000,    0.4674,   -0.0189,  999.0000,  999.0000,  999.0000,   -0.0556,   -0.2418,  999.0000,  999.0000,  999.0000,    0.0277,  999.0000,    2.0329,    3.9757,    2.0207,    2.4493,    2.6031,    3.6009,    4.8622,    4.9149,    4.5486,    3.5670,    3.2521,    2.7513,    2.3720,    1.6708,    1.4640,    1.9492,    1.5171,    1.2186,    0.4771,   -0.7671,   -1.9826,   -1.8642,   -0.6469,   -0.1861,   -1.6260,   -2.8417,   -2.2628,   -1.0332,   -0.7152,    0.8742,    1.6850,  999.0000,  999.0000,  999.0000,    0.6476,   -0.2061,   -0.7829,   -2.3725,   -4.7387,   -4.5201,   -4.1291,   -3.8339,
 30-OCT-1996 07:02:10.40,    4.5280,  999.0000,    1.3223,  999.0000,    0.2390,    0.7391,  999.0000,  999.0000,  999.0000,    1.3494,  999.0000,  999.0000,   -0.4148,    0.0948,    0.1208,    0.0842,  999.0000,   -0.3980,   -0.9844,  999.0000,   -0.1523,   -0.5805,  999.0000,    2.2134,    3.2479,    1.9360,    2.5351,    2.4381,    3.7325,    5.0292,    4.7246,    4.3311,    3.3192,    2.9752,    2.5782,    1.7119,    1.3122,    0.9732,    1.4905,    1.5005,    0.5210,   -0.1769,   -1.6216,   -2.6700,   -2.3254,   -0.9357,   -0.5942,   -1.9153,   -3.2131,   -2.5774,   -0.9396,   -0.1411,    1.0824,    2.3038,    2.1828,    1.3732,    1.1486,    1.2316,  999.0000,   -1.0687,   -2.8260,   -4.6744,   -4.9422,   -4.4991,   -4.7487,
 30-OCT-1996 07:04:47.61,    2.7283,    1.2283,    0.3281,    0.2147,  999.0000,    2.3853,  999.0000,  999.0000,  999.0000,  999.0000,  999.0000,    1.2892,    0.9607,    0.9187,  999.0000,  999.0000,   -0.2504,  999.0000,  999.0000,  999.0000,  999.0000,  999.0000,  999.0000,    1.8495,    3.0570,    2.1083,    2.9347,    3.0608,    4.0545,    5.3489,    5.0377,    4.4594,    3.5305,  999.0000,    2.6124,    2.0507,    1.0826,    0.8182,    1.3184,    0.5164,    0.0550,   -0.2712,   -1.6411,   -2.8380,   -2.9838,   -1.6242,   -1.2056,   -2.0640,  999.0000,  999.0000,   -1.5330,   -0.5134,    1.1504,    2.2158,    1.3226,    0.5328,    1.1677,    1.3817,   -0.1418,   -0.9814,   -2.8284,   -4.9541,   -4.9675,   -4.7139,   -4.5815,
 30-OCT-1996 07:07:24.75,  999.0000,  999.0000,    1.2501,    0.6246,  999.0000,  999.0000,  999.0000,  999.0000,  999.0000,    0.9843,  999.0000,    0.5604,   -0.1527,    0.2067,    0.3003,  999.0000,   -0.0929,   -0.5853,   -0.3217,  999.0000,  999.0000,  999.0000,  999.0000,    1.7642,    3.0468,    2.2953,    3.0290,    3.3176,  999.0000,    5.4017,    4.9785,    4.4931,    3.7497,    2.9699,    2.7187,    1.9696,    1.4156,    0.9357,    0.8973,    0.1903,   -0.3719,   -0.4604,   -1.5283,   -2.6414,   -2.7213,   -1.3818,   -1.1370,   -2.4014,   -2.8806,   -1.9438,   -1.1508,   -0.5459,    0.6594,    1.6228,    0.9121,    0.4960,    1.1048,    1.1081,   -0.1211,   -0.2609,  999.0000,   -4.3520,   -4.5825,   -4.4869,   -3.7308,
 30-OCT-1996 07:10:01.71,    4.7524,  999.0000,    1.1616,  999.0000,    0.2112,  999.0000,  999.0000,  999.0000,  999.0000,  999.0000,    0.8492,  999.0000,   -0.4000,   -0.1469,    0.2766,    0.1137,   -0.3783,  999.0000,   -0.1800,   -0.1514,   -0.2769,  999.0000,  999.0000,    1.5466,    3.1477,    2.2235,    2.7954,    3.3310,    4.4032,    4.8774,    4.5395,    3.6890,    2.9056,    2.4311,    1.9533,  999.0000,    0.9023,    1.0178,    0.8320,    0.1019,   -0.9926,   -1.1798,   -1.9244,   -2.7520,   -2.8042,   -1.3387,   -0.8057,   -1.9048,   -2.6261,   -2.0070,  999.0000,  999.0000,    0.9772,    1.9028,    1.5299,    1.1387,    1.2597,    1.3555,    0.4546,    0.1757,   -2.5187,   -4.0001,   -3.7414,   -4.0400,   -3.7083,
 30-OCT-1996 07:12:40.67,    4.1158,  999.0000,    0.6789,    0.4987,  999.0000,    2.4336,  999.0000,  999.0000,    2.7866,    2.7234,  999.0000,    0.8848,    0.7515,  999.0000,    1.0942,    0.8494,   -0.0667,  999.0000,    0.0255,    0.4349,  999.0000,  999.0000,  999.0000,    1.5941,    2.8485,    2.3589,    2.9846,  999.0000,    3.8373,    4.2708,    4.1969,  999.0000,    2.3567,    1.8457,    1.8614,    1.1008,    0.6161,    0.9173,    0.9493,  999.0000,   -1.2647,   -1.4209,   -2.5420,   -3.2535,   -3.0467,   -1.6410,   -1.1027,   -2.1504,   -2.7478,   -2.0071,   -0.8286,   -0.1414,    1.3508,    2.3162,    1.3880,    1.0196,    1.9541,    1.6316,    0.1324,   -0.3397,   -2.3404,   -3.4779,   -3.0860,   -3.9883,   -3.1701,
 30-OCT-1996 07:15:17.50,    4.8078,  999.0000,    1.7354,    0.9208,  999.0000,    1.6889,  999.0000,  999.0000,  999.0000,  999.0000,    1.5172,    0.4426,    0.6399,  999.0000,    1.2240,  999.0000,   -0.3180,   -0.9229,   -0.7942,   -0.3476,  999.0000,  999.0000,  999.0000,    1.8473,    2.8424,    2.5651,    2.9639,    3.1725,    3.6259,  999.0000,    4.2540,    3.5813,    2.6065,    1.8224,    1.8103,    1.2048,    0.5342,    0.9651,    0.9099,   -0.1020,   -1.0325,   -1.5246,   -2.8953,   -3.2642,   -2.8186,   -1.3792,   -0.8562,   -2.0590,   -2.5754,   -1.8336,   -1.0158,    0.0109,    1.4898,    2.5364,    2.1589,    1.5757,    2.2526,    1.6463,   -0.0840,   -0.4980,   -2.4823,   -3.8045,   -3.7855,  999.0000,  999.0000,
 30-OCT-1996 07:17:54.58,    4.5678,  999.0000,    1.8553,    0.9528,    0.7870,    0.4558,  999.0000,  999.0000,  999.0000,  999.0000,    1.8683,    0.9880,    1.5236,  999.0000,  999.0000,  999.0000,   -0.7940,   -1.1946,   -1.6578,   -0.7799,  999.0000,  999.0000,  999.0000,    1.6284,    2.9295,    3.1516,    3.2578,    3.5627,    4.4246,    5.0440,    4.7197,    3.7060,    3.1540,    2.2131,    1.6506,    0.8967,    0.6864,    0.8600,    0.8105,    0.1316,   -0.6750,   -1.8270,   -2.8202,   -3.1069,   -2.8591,  999.0000,   -1.0798,   -2.0323,   -2.5159,   -1.6553,   -0.5872,   -0.0036,  999.0000,  999.0000,    1.4884,    1.1400,    2.0093,  999.0000,  999.0000,   -1.2183,   -2.9694,   -3.8400,   -4.3256,   -4.2698,   -3.0125,
 30-OCT-1996 07:20:31.74,    2.6358,    1.7791,    1.7028,    1.7858,    2.4425,  999.0000,  999.0000,  999.0000,  999.0000,  999.0000,  999.0000,    1.2145,    1.4849,  999.0000,  999.0000,  999.0000,  999.0000,   -0.4307,  999.0000,   -0.4381,   -0.4402,   -0.8728,    0.6476,    1.5080,    2.9109,    3.3247,    3.8527,    3.7471,    4.9674,    5.5354,    5.1953,    3.6127,    3.1251,    2.4792,    2.3347,    1.5399,    0.8639,    0.9865,    0.9066,    0.3815,   -0.7018,  999.0000,  999.0000,   -2.9508,   -3.0280,   -1.6142,   -1.3668,   -2.3024,   -2.7293,   -1.9037,   -0.9692,   -0.4124,    0.7870,    1.8510,    1.1027,    0.7319,    1.5886,    0.5050,   -1.1256,   -2.0628,   -3.7810,   -4.4351,   -5.1304,   -3.9833,   -3.2689,
 30-OCT-1996 07:23:08.80,    2.7911,  999.0000,    1.4665,    1.5314,    2.3701,    2.7084,  999.0000,  999.0000,  999.0000,  999.0000,  999.0000,    1.1751,    1.3783,  999.0000,  999.0000,    0.8102,   -0.3343,   -0.7583,  999.0000,   -1.2966,   -1.6496,   -1.5860,  999.0000,    1.7783,    3.2842,    2.8326,    3.4959,    3.5719,    4.8398,    5.0456,    5.0681,    3.5938,    3.5322,    1.9591,    1.8221,    1.1916,    0.8380,  999.0000,    0.9760,    0.8522,    0.2841,   -0.7000,   -2.2025,   -2.2249,   -2.0080,   -0.7527,   -0.4611,   -1.5391,   -2.0994,   -1.3886,   -0.2865,    0.4452,    1.4415,    2.3469,    2.0483,    1.1549,    1.6441,    0.6374,   -1.4328,   -2.9370,   -4.5311,  999.0000,  999.0000,   -3.0827,   -2.7929,
 30-OCT-1996 07:25:47.86,    3.0241,    2.0396,    0.9820,    0.2549,    2.2140,    2.6215,  999.0000,  999.0000,  999.0000,  999.0000,  999.0000,    1.4782,    1.6665,  999.0000,  999.0000,  999.0000,  999.0000,   -0.0814,  999.0000,   -0.4225,  999.0000,  999.0000,   -1.3578,    1.0070,    2.5289,    3.0519,    3.2083,    3.4254,    4.5389,    4.8259,    4.8072,    3.6823,    3.1780,  999.0000,    1.8652,    1.3069,    1.0732,    1.5438,    1.4534,    0.9277,    0.4025,   -0.7482,   -1.7435,   -1.7722,   -1.4050,   -0.0943,    0.0507,   -0.9862,   -1.6172,   -0.6911,    0.2342,    0.4894,    1.4459,    2.3412,  999.0000,  999.0000,    1.2273,    0.0959,   -1.2806,   -2.0232,   -3.7541,   -4.8103,   -5.5233,   -4.1749,   -2.7577,
 30-OCT-1996 07:28:24.83,    3.6739,  999.0000,  999.0000,  999.0000,    2.0677,  999.0000,  999.0000,  999.0000,  999.0000,  999.0000,  999.0000,  999.0000,    1.6415,    2.1215,  999.0000,  999.0000,    0.7472,   -0.4125,  999.0000,  999.0000,  999.0000,  999.0000,  999.0000,    0.9743,    2.5876,    3.2326,    3.3677,    3.1839,    4.3472,    4.7834,    4.9257,    4.2708,    3.2437,    2.0504,    1.9530,  999.0000,    1.6804,    1.6402,    1.5867,    0.8794,    0.3425,   -0.7637,   -1.7376,   -1.8396,   -1.1658,    0.4134,    0.1278,   -0.7565,   -1.2968,   -0.5519,    0.1448,    0.4074,    1.5506,    2.1790,    1.4416,    0.9691,    1.0273,   -0.1609,   -1.6969,   -2.2261,   -3.6965,   -4.7881,   -5.6761,  999.0000,   -2.6578,
 30-OCT-1996 07:31:01.90,    4.1466,  999.0000,    1.7925,    0.6270,    0.3458,  999.0000,  999.0000,  999.0000,  999.0000,  999.0000,    2.4258,    1.6929,  999.0000,  999.0000,    1.7836,    1.1642,    0.6860,   -0.9646,   -1.4820,  999.0000,   -2.0334,  999.0000,  999.0000,    1.3265,    2.7663,    3.4878,    3.1762,    3.5113,    3.8669,    4.5521,    4.3620,    4.1731,    3.1188,    1.9567,    1.4749,  999.0000,    1.4366,    1.6649,    1.1768,    0.5957,    0.2060,   -0.7996,  999.0000,   -1.8873,   -1.4036,   -0.1470,   -0.4289,   -1.0968,   -1.1768,  999.0000,  999.0000,    0.6948,    2.2504,    1.8727,    0.9762,    1.1551,    0.9692,   -0.2493,   -1.2586,   -1.8679,   -3.3819,   -5.0448,   -5.7492,   -3.6962,   -2.1600,
 30-OCT-1996 07:33:38.97,    4.5105,    2.4157,    1.3797,    0.5509,    0.8875,    1.5667,  999.0000,    1.3609,    2.4582,  999.0000,    2.7476,    1.4476,    1.6654,  999.0000,    1.9986,    1.1589,  999.0000,   -1.2886,  999.0000,   -1.5081,   -0.9919,  999.0000,  999.0000,    1.1891,    3.0891,    3.4769,    2.9972,    3.8515,    4.1692,    4.8000,    4.4449,    4.2335,    2.7232,    1.4226,    1.3374,    1.8101,    1.4056,    1.1804,    0.8370,    0.4006,    0.1083,   -0.8393,   -1.5198,   -1.5497,   -1.1285,   -0.4368,   -0.7898,   -1.2210,   -1.1983,  999.0000,  999.0000,  999.0000,  999.0000,  999.0000,  999.0000,  999.0000,  999.0000,  999.0000,   -1.1672,  999.0000,   -0.8734,  999.0000,  999.0000,  999.0000,   -1.8443,
 30-OCT-1996 07:36:15.89,    4.3047,    2.6121,  999.0000,  999.0000,  999.0000,  999.0000,    0.2988,  999.0000,  999.0000,  999.0000,  999.0000,    1.0676,    1.6522,    1.7571,    1.7074,    0.7507,   -0.2764,   -1.0959,  999.0000,   -1.7531,  999.0000,   -2.4641,  999.0000,    1.1438,    2.5920,    3.2400,    2.6853,    3.3325,    4.2219,    4.6259,    4.3354,    4.0082,    2.6809,    1.7421,    1.5543,    1.4122,    1.3509,    0.9243,  999.0000,    0.0392,   -0.3421,   -1.2516,   -1.5918,   -1.7238,   -1.2023,   -0.7173,   -1.1502,   -1.4205,   -1.5899,   -1.2685,   -0.1767,    0.5803,    1.4766,    1.2857,    0.5280,    0.5518,   -0.1583,   -1.3317,   -1.6222,   -2.4115,   -3.1579,   -5.8240,   -5.1486,   -3.6880,   -2.1620,
 30-OCT-1996 07:38:53.00,    3.8466,  999.0000,    1.0208,    0.3044,  999.0000,  999.0000,  999.0000,  999.0000,  999.0000,  999.0000,    2.1991,    1.3285,    1.6589,    1.1657,    1.1105,    0.5901,    0.0860,   -0.5986,   -1.3205,  999.0000,   -1.2201,  999.0000,  999.0000,    0.8913,    2.4206,    3.3498,    3.2216,    3.4555,    4.3345,    4.5675,    4.1154,    3.4746,    2.2669,    1.3124,    1.4481,    1.7095,    1.1410,    1.2424,    0.6024,   -0.0134,   -0.6495,   -1.4591,   -2.2415,   -2.4361,   -1.5669,   -0.9333,   -1.3639,   -1.4818,   -1.7145,   -1.3155,   -0.4932,    0.4282,    1.0257,    0.4885,    0.0368,    0.5208,    0.0024,   -1.8460,   -2.2339,   -3.2717,   -5.0435,   -6.6683,  999.0000,  999.0000,  999.0000,
 30-OCT-1996 07:41:30.17,    2.9154,  999.0000,    1.3238,    0.5038,  999.0000,    2.2398,  999.0000,  999.0000,  999.0000,  999.0000,  999.0000,    1.2516,    1.3848,    1.1416,    1.0207,    0.0817,   -0.5665,  999.0000,   -1.0469,  999.0000,   -1.3108,  999.0000,  999.0000,    0.9325,    2.5454,    4.1860,    3.7911,    3.9862,    4.4092,    5.0894,    5.0422,    3.6400,    2.3935,    1.1915,    1.9069,    2.3152,    1.6996,    1.4621,    0.8957,    0.4600,   -0.4319,   -1.1908,   -1.7154,   -2.0592,   -1.0917,   -0.7149,   -1.2371,   -1.3554,   -1.7421,   -1.0327,    0.0104,    0.7095,    1.0770,    0.3941,    0.3604,    0.9318,    0.2774,   -1.3998,   -2.2554,   -3.6751,   -5.9888,   -6.8561,   -4.5894,   -2.8186,   -2.1780,
 30-OCT-1996 07:44:07.40,    3.7463,    2.3335,    2.1337,  999.0000,    0.3418,  999.0000,  999.0000,  999.0000,  999.0000,  999.0000,  999.0000,    1.5873,    1.1884,  999.0000,  999.0000,  999.0000,   -0.0009,   -0.6554,  999.0000,  999.0000,  999.0000,   -0.8027,    0.0096,    1.0965,    2.4342,    4.4933,    3.8024,    3.6937,  999.0000,    5.1560,    4.8716,    4.0359,    2.4368,    1.3553,    1.8919,    2.6046,    1.9693,    1.5103,    1.0931,  999.0000,    0.0475,   -1.0261,   -1.4564,   -1.6262,   -0.7158,   -0.3709,   -0.7085,   -1.2260,   -1.4564,  999.0000,  999.0000,    1.1140,    1.5009,    0.6258,    0.2912,    0.9368,    0.3606,   -1.1162,   -1.9130,   -3.5270,   -5.6797,   -6.5902,   -5.4117,   -3.5847,   -2.8547,
 30-OCT-1996 07:46:46.79,    3.7027,    1.9727,    1.0771,    0.6924,    0.5865,  999.0000,  999.0000,  999.0000,  999.0000,  999.0000,    2.6531,    1.7225,    1.5835,    1.7130,    0.9421,    0.2729,   -0.2186,   -1.0326,  999.0000,   -1.4773,  999.0000,   -1.7626,  999.0000,    0.5201,    1.9037,    3.8020,    3.2323,    3.2155,    4.7244,    5.1725,    4.8954,    3.8915,    1.9416,    1.2044,    1.8772,    2.3217,    1.8487,    1.5030,    0.8653,    0.0969,   -0.0156,   -0.7291,   -1.4359,   -1.7286,   -0.6078,   -0.8378,   -1.1707,   -1.3576,   -1.6805,   -1.3159,   -0.2344,    0.7373,    0.6462,    0.0410,   -0.2840,    0.2047,   -0.1024,   -1.7309,  999.0000,   -4.5894,   -6.3339,   -7.2181,   -5.8007,   -3.9992,   -3.4043,
 30-OCT-1996 07:49:23.98,    3.4456,    1.8931,    0.6636,    1.2471,    2.0013,    3.0393,  999.0000,  999.0000,  999.0000,    3.7392,    3.6664,    2.2133,    2.4335,  999.0000,  999.0000,  999.0000,    1.3380,  999.0000,   -0.0342,   -1.2750,  999.0000,  999.0000,   -0.1274,    0.4047,    2.0061,    3.7242,    3.3538,    3.5535,    4.5794,    4.9542,    5.0304,    3.7673,    2.0078,    1.3167,    1.7683,    2.6331,    2.3609,  999.0000,    0.6920,   -0.1062,   -0.2182,   -0.9815,   -1.5114,   -1.2864,   -0.2526,   -0.6630,   -1.1830,   -1.4041,   -1.7420,   -1.1366,   -0.3072,   -0.0170,  999.0000,  999.0000,   -0.1158,    0.3177,   -0.4938,  999.0000,  999.0000,   -4.6107,   -6.2356,   -6.7112,   -5.4624,   -4.4070,   -3.3956,
 30-OCT-1996 07:52:03.78,    4.3003,  999.0000,    0.8342,  999.0000,    2.3723,    2.1587,  999.0000,  999.0000,  999.0000,    4.5722,    3.2683,    1.5980,  999.0000,  999.0000,    2.0700,  999.0000,    1.0415,  999.0000,   -0.8180,  999.0000,   -0.9125,   -0.7823,  999.0000,    0.4075,    2.2873,    3.8210,    4.0289,    3.6615,    4.6106,    4.9552,    4.9954,  999.0000,    2.5917,    1.5248,    1.6684,    2.4519,    2.0131,    1.2480,    0.7391,    0.0361,   -0.5992,   -1.1096,   -1.2786,   -0.7987,   -0.0861,   -0.7414,  999.0000,  999.0000,   -1.4141,   -0.9662,   -0.1858,    0.2960,    0.4086,   -0.3342,   -0.3135,    0.3635,   -0.2652,   -1.3820,   -2.4050,   -4.4636,   -6.0263,   -6.4512,   -5.2063,   -3.6619,   -2.9435,
 30-OCT-1996 07:54:42.77,    5.3259,  999.0000,    1.2315,  999.0000,    2.1747,  999.0000,  999.0000,  999.0000,  999.0000,    4.5418,  999.0000,  999.0000,  999.0000,    4.5366,  999.0000,  999.0000,    1.7096,    1.1252,  999.0000,  999.0000,  999.0000,   -0.7056,   -0.6661,    0.1732,    2.2793,    4.1568,    3.9503,    3.7552,    4.7274,    4.8498,    5.1322,    3.7737,    2.6108,    1.7700,    2.3236,    2.6831,    2.1999,    1.5671,    0.2713,   -0.1093,   -0.4753,   -0.9703,   -1.2991,   -0.2358,    0.1661,   -1.0545,   -1.2888,   -0.9411,  999.0000,  999.0000,   -0.7373,    0.2118,    0.1393,   -0.8152,   -0.2631,    0.5924,   -0.1333,   -1.3011,   -2.1839,   -4.1930,   -6.6450,   -6.8533,   -5.6719,   -3.8644,   -2.5474,
 30-OCT-1996 07:57:20.22,    5.1336,  999.0000,  999.0000,    0.8784,    1.1882,    2.0468,  999.0000,  999.0000,  999.0000,  999.0000,  999.0000,  999.0000,  999.0000,  999.0000,    3.1258,  999.0000,  999.0000,  999.0000,   -0.0194,  999.0000,  999.0000,   -0.7582,  999.0000,    0.3292,    2.2906,    3.5184,    3.5880,    3.7048,    4.5373,    5.0640,    4.9787,    3.8379,    2.3695,    1.9809,    2.5223,  999.0000,    2.2434,    1.6861,    0.4042,   -0.1237,   -0.0789,   -0.8145,   -1.2679,   -0.2047,    0.0294,   -1.0205,   -1.2206,   -1.0662,   -1.5978,   -1.8114,   -0.9615,   -0.0797,   -0.3166,   -1.1513,   -0.7649,    0.1421,   -0.4760,   -1.6397,   -2.4496,   -4.3311,   -6.3906,   -7.2948,   -6.0982,   -4.1010,   -3.1494,
 30-OCT-1996 07:59:57.14,    4.7096,  999.0000,    1.3307,    0.4843,    0.5547,    1.1578,  999.0000,  999.0000,  999.0000,    3.5403,    2.8410,  999.0000,    5.0119,    4.9012,    3.4748,  999.0000,  999.0000,  999.0000,  999.0000,    1.7524,  999.0000,   -0.9470,   -0.6443,    0.3130,    2.3276,    3.0208,    3.3641,    3.8097,    4.6385,    5.1455,    5.2750,  999.0000,    2.2902,    1.8076,    2.0370,    2.3220,    1.9661,    1.4319,    0.3823,    0.0666,  999.0000,   -0.9113,   -1.0334,    0.2132,   -0.2664,   -1.5779,   -1.6122,   -1.4544,   -1.9830,   -2.2316,   -1.0213,   -0.4782,   -0.9203,   -1.4950,   -0.8852,   -0.0192,  999.0000,  999.0000,   -2.9334,  999.0000,   -6.6975,   -7.7555,   -6.1048,   -4.9675,   -4.2214,
 30-OCT-1996 08:02:36.19,    4.9209,  999.0000,    1.2427,    0.7749,    1.7787,  999.0000,  999.0000,  999.0000,    4.4627,  999.0000,  999.0000,  999.0000,  999.0000,  999.0000,  999.0000,  999.0000,  999.0000,  999.0000,    0.4781,   -0.0264,  999.0000,  999.0000,   -1.0413,    0.3982,  999.0000,    3.3679,    3.5545,    3.7248,    4.6678,    5.1039,    5.3423,    3.8935,    2.4481,    1.7095,    2.2887,    2.4144,    2.0013,    1.7066,    0.6874,    0.2400,   -0.1109,   -0.7146,   -0.8017,    0.0565,   -0.6560,   -2.0151,   -2.1458,   -1.8408,   -2.3796,   -2.8349,   -1.9665,   -1.2141,   -1.3304,   -1.9787,   -1.6506,   -0.9628,   -2.2163,   -3.5125,   -3.8532,   -5.2666,   -7.0304,   -7.9435,   -6.8712,  999.0000,   -5.2644,
 30-OCT-1996 08:05:15.68,    4.3374,    2.2985,    1.1795,    0.6497,  999.0000,    2.1687,  999.0000,  999.0000,    4.9314,    5.0228,  999.0000,    1.5330,  999.0000,    3.8876,    3.6173,    2.7490,    1.4325,    0.5937,   -0.0047,   -1.1800,   -2.0714,  999.0000,  999.0000,   -0.0056,    1.8129,    3.3017,    3.6675,    4.6013,    4.9083,    5.2324,    5.4014,    4.0834,    3.0496,    1.9258,    2.5546,    2.5902,    1.9403,    1.7800,    0.9210,    0.3906,    0.2037,    0.0105,    0.1603,    0.4118,   -0.7208,   -1.8255,   -2.2556,   -2.1230,   -2.6346,  999.0000,  999.0000,   -1.3899,   -1.7511,   -1.9356,   -2.0206,   -1.6985,  999.0000,  999.0000,  999.0000,  999.0000,   -7.1128,  999.0000,  999.0000,  999.0000,  999.0000,
 30-OCT-1996 08:07:54.75,    2.0427,    1.5544,    1.0900,    1.5094,    2.1861,    2.2848,  999.0000,  999.0000,    4.8120,  999.0000,    2.1906,    2.4291,  999.0000,    4.9587,  999.0000,  999.0000,    1.4511,    0.5390,   -1.1875,  999.0000,  999.0000,  999.0000,  999.0000,   -0.3772,    2.1640,    3.2908,    3.6877,    4.2770,    4.4832,    4.8904,    4.9477,    3.6369,    2.3669,    2.0906,    2.5448,    3.0398,    2.4116,    1.8987,    1.5144,    0.9949,    0.7016,    0.7059,    0.6758,    1.1267,   -0.0325,   -0.8761,  999.0000,   -0.9015,   -1.6515,   -1.7599,   -0.9515,   -0.6388,   -1.5056,   -1.8426,   -1.1521,   -0.8268,   -2.1972,   -3.8387,   -3.8435,   -5.2228,   -6.8933,   -7.7758,   -7.8604,   -7.0864,   -6.0665,
 30-OCT-1996 08:10:32.14,    3.2525,    2.9244,  999.0000,    1.6079,    1.9767,    2.3624,  999.0000,  999.0000,    3.9578,    3.8455,    2.3102,    2.1665,  999.0000,    4.3346,    3.7659,    2.9945,  999.0000,  999.0000,  999.0000,  999.0000,   -1.3114,   -2.0756,  999.0000,   -0.1149,    2.2786,    3.4222,    4.0199,    3.9131,    4.4915,    4.5798,  999.0000,    3.5396,    2.2157,    2.2175,    2.5091,    2.9741,    2.5061,    1.9568,    1.6935,    1.5549,    1.0692,    0.9348,    1.4612,    1.3473,   -0.0131,   -0.9129,   -0.8666,   -0.6101,   -1.4340,   -1.3529,   -0.4568,   -0.0080,   -0.7981,   -1.4497,   -0.8259,   -0.4672,   -1.6998,   -3.1962,   -3.8960,   -5.3789,   -7.1663,   -8.3079,   -8.8863,   -7.7314,   -6.4264,
 30-OCT-1996 08:13:11.37,    3.1089,  999.0000,    1.5428,    0.6812,  999.0000,    2.4117,  999.0000,  999.0000,    2.3860,  999.0000,    2.5646,    2.8290,    4.0700,    4.0478,    3.4382,    2.9420,    1.5333,  999.0000,    0.1924,  999.0000,   -1.5769,   -2.2141,   -1.3464,   -0.0094,    2.4260,    3.3374,    3.8502,    3.5575,    4.1798,    4.6905,    4.7349,    3.3686,    2.6000,    2.4255,    2.6548,    2.4976,    2.1915,    1.8122,    1.3751,    1.3442,    1.0874,    0.9100,    1.5496,    1.2753,   -0.5084,   -1.4595,   -0.8814,   -0.8103,   -1.5461,   -1.5380,   -0.4570,    0.3419,   -0.4793,   -1.0806,  999.0000,  999.0000,  999.0000,  999.0000,   -3.5002,   -5.4490,   -7.6398,   -8.9818,   -8.2200,   -6.7430,   -5.7320,
 30-OCT-1996 08:15:48.31,    1.6327,    1.2814,    1.3746,    1.3336,  999.0000,    2.9574,    3.0228,    2.6143,    3.3457,    4.0236,    3.5381,    3.4647,    3.9539,    4.4747,    3.7811,    2.9811,  999.0000,  999.0000,    0.3223,    0.5269,   -0.0097,  999.0000,   -0.7976,    0.0188,    2.0986,    3.0265,    3.3071,    3.2455,    3.8512,    4.0530,    3.9796,    2.7266,    1.7920,    1.8203,    2.1804,    1.9473,    1.5926,    0.9298,    0.8639,    1.0673,    1.1720,    0.8264,    1.6005,    1.5554,  999.0000,   -1.1692,   -0.5702,   -0.8254,   -1.5505,   -1.5068,   -0.6737,    0.1185,   -0.3178,   -0.5792,   -0.4893,   -0.5679,   -1.5423,   -3.1463,   -3.7530,   -5.4904,   -7.3687,   -8.9394,   -9.1218,  999.0000,   -5.7765,
 30-OCT-1996 08:18:28.09,    0.6489,    0.9257,    1.2834,    1.4828,  999.0000,    4.3855,    3.9836,    4.1473,  999.0000,    3.6082,    2.6655,    3.2438,    4.5079,    4.8573,    3.8539,    2.6510,    2.1750,    1.5782,    1.2440,  999.0000,  999.0000,   -1.1001,   -1.2739,    0.3820,    1.9495,    3.1041,    2.9430,    3.3944,    3.6804,    3.8541,    3.7687,    2.7089,  999.0000,    1.5345,    2.1926,    2.0073,    1.2104,    0.4543,  999.0000,    0.5194,    0.3025,    0.2746,    1.3891,    1.0450,    0.1851,  999.0000,  999.0000,  999.0000,  999.0000,  999.0000,  999.0000,  999.0000,  999.0000,  999.0000,  999.0000,  999.0000,  999.0000,  999.0000,  999.0000,  999.0000,  999.0000,  -12.0727,  999.0000,  999.0000,  999.0000,
 30-OCT-1996 08:21:05.54,    1.3364,    0.6677,  999.0000,    1.2618,    2.3401,  999.0000,    3.2857,    4.2958,    4.2821,  999.0000,    2.5434,    4.1740,    5.1338,    5.4130,  999.0000,  999.0000,    1.7195,  999.0000,  999.0000,  999.0000,  999.0000,  999.0000,  999.0000,    0.0466,    2.1490,    3.0536,    2.9897,    3.6116,    3.8116,    3.4171,    3.4908,    2.9191,    2.2903,    1.7354,    2.3655,    2.0520,    0.9791,    0.3450,    0.6380,    0.5829,    0.1338,    0.5362,    1.7506,    1.7773,   -0.0069,   -0.7186,   -0.0104,   -0.4533,   -1.2850,   -1.3416,    0.0449,    0.8987,    0.5158,  999.0000,  999.0000,    0.5691,   -0.1623,  999.0000,  999.0000,  999.0000,   -5.8583,  999.0000,  999.0000,  999.0000,   20.7955,
 30-OCT-1996 08:23:44.71,    3.3877,  999.0000,    1.2861,    1.1289,  999.0000,    3.7772,    2.9720,  999.0000,    4.3958,    4.3017,    3.1890,    4.7862,    5.3795,    5.6024,    3.8373,    2.3708,    1.3114,    0.6171,    0.6320,  999.0000,   -0.3673,   -1.1991,   -1.1535,   -0.1613,    1.8872,    2.8740,    2.9979,    3.1867,    3.4602,    2.9958,    3.2354,    2.6184,    2.0655,    1.9723,    2.4440,    2.1859,    1.3804,    0.3951,    0.6827,    0.8922,    0.5770,    0.6847,  999.0000,    1.9178,    0.1224,   -0.1749,    0.3169,   -0.3391,   -1.5279,   -1.6980,   -0.0472,    0.9635,    0.4478,    0.1357,    0.1966,    0.7484,    0.0728,   -1.8934,   -3.1172,   -4.7232,   -6.4536,   -8.8826,   -6.8330,  999.0000,    3.2857,
 30-OCT-1996 08:26:23.83,    3.5492,  999.0000,    1.5488,    3.1078,  999.0000,    3.9511,    3.8868,    4.4616,    5.0292,    4.8007,    4.0229,    4.3864,    5.0266,  999.0000,    3.2439,  999.0000,    1.2667,    0.2531,  999.0000,    0.0001,   -0.7843,   -1.8114,   -1.8709,    0.0847,    1.8579,    2.2393,    2.7696,    2.5515,    3.2265,    3.0549,    2.8499,    2.7371,    1.4523,    1.7913,    1.9341,    1.9462,    0.6443,   -0.0870,   -0.1093,  999.0000,    0.3713,    0.6910,    1.7435,    1.8935,    0.6541,    0.6117,    1.0177,    0.2320,  999.0000,  999.0000,  999.0000,  999.0000,    0.4989,    0.7262,    0.9743,    0.7810,  999.0000,  999.0000,   -3.7465,   -4.4087,   -6.4741,   -8.2265,   -7.8192,  999.0000,   -5.2672,
 30-OCT-1996 08:29:00.89,    2.3109,    1.3254,    0.7464,  999.0000,    2.7487,  999.0000,    3.5925,    4.2184,    4.4741,    4.5959,  999.0000,  999.0000,  999.0000,    4.3494,  999.0000,    2.1253,    1.1422,    0.4652,  999.0000,  999.0000,  999.0000,  999.0000,  999.0000,   -0.5472,    1.1050,    2.4182,    3.0449,    2.8123,    3.2236,    3.2030,    2.6588,    2.1491,    1.5847,    1.4674,    1.7281,    1.9305,    0.7748,   -0.1559,   -0.3308,    0.2834,   -0.0620,    0.5415,    1.9946,    2.1756,    1.0395,    0.6552,    0.9250,    0.3458,   -1.0195,   -0.9888,    0.9440,    1.2121,    0.7511,    0.7854,    0.9812,    0.5058,   -0.8769,   -2.2337,   -3.3799,  999.0000,   -6.7064,   -8.2319,   -7.8744,   -5.1401,   -5.0344,
 30-OCT-1996 08:31:40.00,    3.7783,    2.3786,    1.6368,    2.3585,    4.0018,    3.7081,  999.0000,  999.0000,    4.5220,  999.0000,    3.5330,    2.3509,    3.4869,    3.9323,    2.8254,    2.1794,    0.9676,    0.8287,    1.0194,    2.0875,  999.0000,  999.0000,  999.0000,    0.0409,    1.7993,  999.0000,   41.8867,  999.0000,  999.0000,  999.0000,  -10.3302,    2.5857,  999.0000,    1.2441,  999.0000,    1.8165,  999.0000,   -0.6253,  -59.8660,    0.3869,   14.1585,    0.6611,    1.8877,    2.0563,  999.0000,   38.5897,  999.0000,    0.2732,  999.0000,  999.0000,  999.0000,  999.0000,  999.0000,  999.0000,  999.0000,    1.0009,  999.0000,  999.0000,  999.0000,  999.0000,   -9.8806,   -7.9989,   -7.3555,  999.0000,  999.0000,
 30-OCT-1996 08:34:16.93,    2.2711,    1.8848,  999.0000,  999.0000,    4.9543,    5.1586,  999.0000,    4.9595,    5.1091,    5.0665,    3.9331,    3.0720,  999.0000,    4.8753,  999.0000,    2.1657,    1.0374,    1.0211,  999.0000,    1.3434,  999.0000,  999.0000,  999.0000,    0.0042,    1.0887,    2.2964,   16.9417,    2.7466,    2.9115,    3.0014,   -2.1353,    2.3807,    1.5156,    1.0729,    1.6893,    1.7366,    0.1976,   -0.5465,  -22.4658,   -0.5259,    4.9372,    0.2726,    1.9238,    1.6660,    0.5797,   14.3525,    0.6145,    0.1496,   -0.9124,   -0.8219,    0.9366,    1.5153,    1.1066,    1.3392,    1.8608,    1.0129,   -0.6337,   -1.8832,   -3.3430,   -4.7037,   -7.5432,   -7.9180,  999.0000,   -5.6488,   -5.2283,
 30-OCT-1996 08:36:53.95,    2.4343,    1.2527,    0.3730,  999.0000,  999.0000,    4.9933,    5.3388,    5.3833,    5.4212,    5.4852,    4.3813,  999.0000,  999.0000,    4.4811,    3.1299,    2.1322,    1.0096,    1.0661,    0.9522,   -0.2129,   -1.6208,   -2.3684,   -2.2683,    0.2112,    1.4132,    2.2661,    2.6151,    3.1610,    3.0694,    2.8538,    2.4499,    1.7661,    0.9725,    1.0166,    1.8488,    1.3685,   -0.5797,   -0.6443,   -0.2816,   -0.6909,   -0.4228,    0.5890,    1.7847,  999.0000,    0.6427,    0.1813,    0.8738,    0.2208,   -1.2479,   -0.7943,    1.2849,    1.6581,    0.7900,    0.8001,    1.3589,    0.5579,   -0.7820,   -2.1009,   -3.3653,   -4.6304,  999.0000,   -7.0080,   -6.9778,   -5.7953,   -5.3357,
 30-OCT-1996 08:39:32.97,    2.3958,    1.1530,    0.4317,  999.0000,    4.7676,    5.3491,    5.2164,    5.3909,    5.8358,    5.9109,    4.7927,  999.0000,    4.7118,    4.5348,  999.0000,  999.0000,    1.7995,    1.3465,    1.4587,   -0.2446,   -1.4665,   -1.6276,    0.0515,    0.7222,    1.8014,    2.5332,    3.2035,    3.2559,    3.1748,    3.0469,    2.8248,    1.8054,    1.4659,    1.5607,  999.0000,    1.4426,   -0.1192,   -0.3053,   -0.2511,   -0.2589,   -0.1613,    0.9880,    2.2616,    1.5864,   -0.0057,    0.4650,    1.1297,   -0.0073,   -1.5557,   -0.9381,    0.9656,  999.0000,  999.0000,    0.1720,    0.9719,    0.2498,   -1.4308,   -2.7914,   -3.8390,   -5.0696,   -6.7946,   -7.9518,   -7.4541,   -5.7495,   -5.1335,
 30-OCT-1996 08:42:10.35,    3.5660,    1.8349,  999.0000,  999.0000,    4.7324,    5.1539,    4.9613,    5.2902,    5.6315,    5.8148,    4.9033,    4.5601,    4.7331,    4.7682,    4.1392,    3.3892,    1.4633,    1.3266,    1.2234,   -0.6062,   -1.7245,   -1.7681,  999.0000,    1.0185,    1.8651,    2.4958,    3.3011,    3.2439,    3.0079,    2.8750,    2.7548,    1.8768,    1.6050,    1.4656,    1.7896,    1.0043,    0.2335,   -0.1607,   -0.6460,   -0.5921,   -0.1872,    1.0090,    1.9757,    1.4415,   -0.4658,   -0.5769,  999.0000,   -0.1711,   -1.5278,   -1.2176,    0.2799,    0.6866,    0.2960,   -0.2521,   -0.2157,    0.1200,   -1.6145,   -3.3205,   -4.2727,   -5.1796,  999.0000,   -7.1938,   -6.7583,  999.0000,  999.0000,
 30-OCT-1996 08:44:49.46,    4.1155,  999.0000,    1.0819,  999.0000,    3.3517,    3.9300,  999.0000,    4.7881,  999.0000,  999.0000,    4.5775,    4.1005,    4.3856,    4.5017,  999.0000,    2.2081,    1.1808,    1.4278,    1.1538,   -0.7276,   -1.7274,   -1.4057,  999.0000,    1.1617,    2.2067,    2.7545,    3.5070,    3.4764,    3.0576,    2.7346,    2.6070,    1.9807,    2.1061,    1.2985,    1.5101,    0.7367,   -0.3162,   -0.7333,   -0.9306,   -0.5085,   -0.4993,    0.8736,    1.8544,    1.3975,   -0.1522,   -0.3007,    1.0219,   -0.1755,   -1.3354,   -1.2437,    0.2367,    0.9406,    0.7460,    0.6946,    1.0128,    0.7259,  999.0000,  999.0000,  999.0000,   -4.7968,   13.0994,   12.4134,  999.0000,  999.0000,  999.0000,
 30-OCT-1996 08:47:26.60,  999.0000,  999.0000,    1.4083,    1.5776,    2.1097,    2.5280,    2.7663,  999.0000,    4.9603,    5.2670,    4.7413,    4.2195,    4.4187,    4.2830,    2.9055,  999.0000,    1.6182,    1.7442,    1.7292,  999.0000,   -1.4176,   -1.4976,   -0.7905,    1.1576,    2.3946,    2.2652,    3.5680,    3.7805,    3.3821,    2.7331,    2.2767,    2.7881,    1.8058,    1.1894,    1.3944,    0.7540,   -0.4374,   -0.6454,   -0.8696,   -0.7965,   -0.8525,    0.6432,    1.9686,    1.4370,   -0.0235,    0.2504,    1.0751,    0.4015,  999.0000,   -0.8388,    0.7039,    1.4068,    0.5114,  999.0000,  999.0000,    0.5568,   -1.0373,   -2.6367,   -3.5731,   -4.4120,  999.0000,    0.1129,   -6.2509,   -5.0457,   -5.5040,
 30-OCT-1996 08:50:04.28,    3.7467,    2.2411,    1.4932,    2.1323,    2.5892,    2.7594,    2.8083,  999.0000,    4.6049,    4.8880,    4.5226,    3.8271,    3.9034,    3.6536,    2.8823,    2.2931,    0.9791,    1.2712,    1.4135,   -0.3488,   -0.9297,   -1.3861,   -0.1567,    1.5049,    2.3643,    2.5123,    3.6125,    4.1538,    3.7998,    2.3738,    2.6294,    2.4433,  -23.6359,    2.9052,    2.1907,    0.5734,   -4.0298,   -0.7622,  999.0000,  999.0000,    0.4674,  999.0000,    2.3451,    1.8709,   -0.2931,   -0.7654,  999.0000,   -0.1286,   -1.5991,  999.0000,    0.2339,   -0.0172,   -0.4922,    0.3797,    0.4441,    0.7232,   -0.9742,   -2.7711,   -3.1622,   -3.8061,  999.0000,  -15.0992,  999.0000,  999.0000,  999.0000,
 30-OCT-1996 08:52:43.41,    2.1195,    1.4209,    1.1223,  999.0000,    2.4526,    2.7552,    2.9949,    3.7260,    4.6437,    5.2424,    5.1762,    3.8765,    3.6844,    3.9171,    3.5355,    2.8903,    1.5848,    1.9112,  999.0000,    0.7794,   -0.4207,   -1.8191,    0.1132,    1.5464,    2.2562,    2.7986,    3.6570,    4.1408,    3.7693,    2.8827,    2.3703,    1.7855,   -7.0092,    1.4183,    0.9508,    0.0115,   -2.1697,   -1.4088,   -0.7802,   -0.6176,   -0.7176,    0.9270,    2.1823,    1.2749,   -0.4837,    0.0475,    0.9839,   -0.3604,   -1.4530,   -1.4266,   -0.1310,    0.4579,   -0.2003,   -0.1549,    0.3119,    0.0517,   -1.3501,   -2.7625,   -3.8323,   -4.7033,   -4.0463,  -10.3547,   -6.6903,   -5.6612,   -6.1077,
 30-OCT-1996 08:55:20.49,    2.4971,  999.0000,    1.6450,    2.1011,    2.5078,    3.0420,    3.5772,    4.1204,    4.8027,    5.3760,    5.2225,    4.2794,    4.1545,    4.3069,    3.3996,    2.7763,    1.8082,    1.8726,    1.6999,    0.2597,   -0.6126,   -1.0492,    0.7849,    1.3588,    2.2092,    2.8111,    3.6655,    3.9710,    3.5663,    2.7955,    2.0009,    1.6963,    1.8911,    0.9862,    0.5140,   -0.2933,   -1.2378,   -1.7013,   -0.8255,   -0.9386,   -0.9203,    0.8077,    1.8126,    0.6693,   -0.9167,   -0.2193,    0.6362,   -0.8044,   -1.9746,   -2.1819,   -0.6563,    0.2643,   -0.4500,   -0.8176,   -0.1749,   -0.6197,   -1.8316,   -3.3229,   -4.6469,   -5.5674,   -6.7714,   -7.2195,   -6.4361,   -5.6103,   -5.9755,
 30-OCT-1996 08:57:59.62,    2.1547,    1.6731,    1.6860,    2.2378,  999.0000,    3.9118,    4.3078,    5.0623,    5.3332,    5.5456,    4.9801,    3.9367,    3.7166,    3.9824,    3.0651,    2.4982,    1.8582,    1.6051,    1.1921,    0.5584,   -0.0267,   -1.5937,    0.4482,    2.6173,    2.7233,    3.2260,    0.4001,    3.6555,    4.6170,    4.0602,   21.3427,    2.6763,    2.3069,    3.3758,    0.0633,   17.4049,   -1.1219,   -1.0439,   -5.8060,  999.0000,  999.0000,   -8.4442,  999.0000,    0.7132,  999.0000,   -0.1345,   -0.4385,   -1.9029,  999.0000,  999.0000,  999.0000,   -0.0697,  -34.8697,  -38.2605,  -47.6203,  999.0000,   -2.4721,   -3.1553,  999.0000,   -5.5911,  -24.5467,  999.0000,  999.0000,   -8.6961,  -24.9367,
 30-OCT-1996 09:00:37.03,    2.1217,  999.0000,  999.0000,    3.2556,    3.0954,  999.0000,    3.8893,    4.4127,  999.0000,    5.4050,    5.2676,    4.2628,    3.2732,    3.2030,    2.8513,    2.2284,    2.0196,    1.9871,    1.7050,    0.9023,   -0.0887,  999.0000,    1.5909,    2.2086,    2.3550,    3.9664,    2.6447,    4.1945,    3.9365,    3.0411,    8.9418,    1.9236,    2.0478,    2.5178,    1.4868,    6.3113,   -0.5562,   -0.5146,   -2.2531,   -0.7265,   -0.1046,   -1.9688,    1.8268,    1.3444,  999.0000,    1.2374,    1.4541,   -0.2830,   -1.8870,  999.0000,  999.0000,    0.9955,    0.2896,   -1.1595,  -14.6103,   -0.4479,   -2.1229,  999.0000,  999.0000,   -5.7832,  -12.8920,  999.0000,  999.0000,  999.0000,  -13.8624,
 30-OCT-1996 09:03:13.93,    1.1729,    1.4306,    1.6109,    3.0383,    3.1925,    3.1212,    2.9595,    3.4354,    4.3863,    4.9820,    4.5787,    3.3490,    2.8411,    3.2738,    2.8949,    2.7486,    2.4258,    2.0182,    1.7947,    0.3468,   -0.1723,   -0.3087,  999.0000,    1.7369,    2.1612,    2.8595,    3.6589,    4.2659,    4.0836,    3.3955,    2.4081,    2.2196,    1.7964,    1.3542,    1.3050,   -0.2141,   -0.9280,   -1.0114,   -0.5431,   -0.9290,    0.2203,    1.3375,    1.6107,  999.0000,    0.3229,    1.7328,    1.7883,   -0.2958,   -1.8758,   -1.5224,    0.6019,    1.5991,   -5.7288,   -6.8611,    0.4768,   -0.4649,   -2.2199,   -3.7376,   -4.7937,   -5.6051,   -6.5805,   -7.6238,   -6.3632,   -5.7428,   -6.8223,
 30-OCT-1996 09:05:51.01,    3.6175,    1.8345,    0.7869,  999.0000,    2.4352,    2.6848,  999.0000,    4.0212,    4.4857,    5.0457,    4.5578,    3.6261,    3.9485,    4.3157,    3.5314,    2.9662,    2.4904,    2.1463,    1.9535,    0.5893,    0.1725,    0.2691,  999.0000,    1.5066,    2.2906,    3.0656,    3.7441,    4.0378,    3.9863,    3.0951,    2.1874,    1.9118,    1.3712,    1.1666,    1.0250,   -0.2431,   -0.9843,   -0.9682,   -0.9315,   -1.2195,    0.3359,    1.5486,    1.8519,    1.1227,    0.4767,    1.5450,    1.7348,   -0.4734,   -2.1093,   -1.5600,    0.6973,    1.2898,    0.2824,    0.1014,    0.8129,   -0.2181,   -2.4644,   -3.8853,   -4.6118,   -5.2895,   -5.8290,   -7.1600,  999.0000,  999.0000,   -7.2442,
 30-OCT-1996 09:08:28.18,    2.8131,    1.1043,    0.4602,  999.0000,    2.7996,    3.0138,    3.5662,    3.8482,    4.5196,    4.8911,    4.8325,    4.4819,    4.2541,    4.6497,    3.8054,    2.7892,    2.1185,    1.7057,    1.7878,    1.1323,    0.9195,    1.8986,    1.1021,    1.6502,    2.0222,    3.0473,    3.5494,    3.9423,    3.6033,    3.2355,    2.2671,    1.8537,    1.8064,    0.9843,    1.1645,    0.2401,   -1.0377,   -1.5543,   -1.0225,   -1.0048,    0.3748,    1.4768,    1.7974,    0.7877,    0.3884,    1.1925,    1.1375,   -0.8346,   -2.3366,   -2.4679,   -0.4229,  999.0000,    0.0630,   -0.4851,    0.2620,   -1.2477,   -3.1097,   -4.2322,   -4.8498,   -4.8306,   -5.3753,   -6.8555,  999.0000,  999.0000,   -7.7521,
 30-OCT-1996 09:11:05.16,    1.6969,    1.1151,    1.1640,  999.0000,    3.7535,    3.7866,    3.4097,    3.8429,    5.0468,    5.4136,    5.3268,    4.9285,    4.6173,  999.0000,    3.4962,    2.3549,    1.5730,    1.2256,    1.2159,    0.4285,    0.3209,  999.0000,    0.7190,    1.6375,    1.8182,    2.9224,    3.3271,    3.5832,    3.4053,    2.6083,    2.0308,    1.7951,    0.7193,    0.8725,    1.2769,   -0.3983,   -1.2722,   -1.3860,   -0.6248,   -0.9813,   -0.2751,    0.9809,    1.2517,    0.6194,    0.2986,    1.1546,    1.3566,   -0.6856,   -2.4122,   -2.5157,   -0.5560,    0.2627,   -0.8073,   -0.5682,    0.2247,   -1.4303,   -3.9357,   -5.2168,   -5.3904,   -4.9473,   -5.1606,  999.0000,   -6.4844,   -6.1284,   -8.1410,
 30-OCT-1996 09:13:44.74,    2.4518,    1.8230,    1.4812,    1.8205,  999.0000,    4.1091,  999.0000,  999.0000,    5.8760,    5.9767,    5.8321,    5.3742,    5.2125,    4.9760,    3.5434,  999.0000,    2.0371,  999.0000,    1.8716,    0.9961,    1.0244,   -0.9506,  999.0000,    1.7158,    2.2087,    2.9652,    3.1518,    3.6994,    3.5898,    2.1904,    1.6622,    1.8167,    0.9535,    1.2195,    0.9822,   -0.3825,   -0.8252,   -0.4293,   -0.3965,   -0.4053,   -0.4549,    1.4745,    1.3242,    1.0658,    0.7990,    1.8523,    1.7952,   -0.2073,   -2.0263,   -2.1279,   -0.0989,    0.6755,   -0.1825,    0.0347,    0.2285,   -1.5712,   -4.1128,   -5.2367,   -5.0117,   -5.3388,   -6.9523,   -7.7997,   -7.1044,  999.0000,   -8.5815,
 30-OCT-1996 09:16:24.13,    3.0401,  999.0000,    1.0623,    1.1539,  999.0000,  999.0000,    3.9899,    4.4142,    5.3767,    5.6585,    5.5042,    4.7121,    5.1028,    5.3254,    4.3314,    2.9419,    2.2453,  999.0000,    1.8081,    1.5612,    1.3381,  999.0000,    1.1457,    1.4672,    2.2231,    3.0557,    3.5004,    3.5430,    3.5619,    1.9624,    1.7889,    1.4980,    0.7826,    1.6208,    0.9487,   -0.5317,   -0.7295,   -0.2959,   -0.8097,   -0.8163,    0.2914,    1.5109,    1.4483,    0.6911,    0.5799,    1.5933,    1.4233,   -0.4911,   -2.1806,   -2.3632,   -0.3764,    0.4736,   -0.2644,   -0.0673,   -0.2690,   -2.1072,  999.0000,  999.0000,   -4.5853,   -5.6515,   -6.7368,   -5.0167,  999.0000,   -5.5636,   -8.1473,
 30-OCT-1996 09:19:01.41,    2.9401,    1.7182,  999.0000,    3.5071,    3.2245,    3.5221,    3.6401,    4.2800,    5.1124,    5.4130,    5.3496,    4.4354,    4.9745,    5.0992,    3.8881,    2.9097,    2.3623,    2.2994,    2.0651,    1.6716,  999.0000,    1.6423,    1.6025,    1.3725,    2.4740,    3.2362,    3.6510,    3.6873,    3.4588,    2.3005,    2.0669,    1.7853,    0.9483,    1.3847,    0.6120,   -1.1520,   -1.2256,   -0.5296,   -0.9233,   -0.4856,    0.4934,    1.1916,    0.5959,    0.6302,  999.0000,  999.0000,    1.2319,   -0.5590,  999.0000,  999.0000,  999.0000,  999.0000,   -0.5480,   -0.6090,   -0.8333,  999.0000,  999.0000,  999.0000,  999.0000,  999.0000,  999.0000,  999.0000,  999.0000,  999.0000,   -7.7750,
 30-OCT-1996 09:21:38.41,    3.4050,  999.0000,  999.0000,    3.5150,    2.9588,  999.0000,    3.6358,    4.3711,    5.1630,    5.2112,    5.0928,    4.5196,    4.6396,    4.6393,    4.0655,    3.4092,    2.6614,    2.5459,    2.2390,    1.9583,    2.2119,    1.5579,    1.2902,    0.9825,    2.3731,    3.3084,    3.7050,    3.7473,    3.1768,    2.0928,    2.3639,    1.6136,    1.0095,    1.2322,    0.3221,   -1.2060,  999.0000,   -0.9815,   -1.8627,   -0.9190,    0.9969,    1.1126,    0.3744,    0.0537,   -0.0373,    1.2825,    1.4809,   -0.3958,  999.0000,  999.0000,  999.0000,  999.0000,   -0.7379,   -0.4592,   -1.0423,  999.0000,  999.0000,  999.0000,  999.0000,  999.0000,   -1.9571,  999.0000,  999.0000,  999.0000,  999.0000,
 30-OCT-1996 09:24:17.70,    2.0514,    1.0852,  999.0000,    2.2724,    2.5341,    2.7533,    3.3795,  999.0000,    4.8486,    4.6555,    4.1771,    3.8320,    4.0133,    4.0345,    3.3071,    3.4574,    2.2488,    2.5899,    2.0817,    1.9996,  999.0000,  999.0000,  999.0000,    1.7852,    2.7026,    3.7508,    4.0392,    3.7895,    3.1352,    2.1568,    2.7911,    1.9141,    1.5676,    1.7176,    0.2006,   -0.8486,   -1.1412,   -0.6250,   -1.7611,   -0.6805,    0.9436,    1.3672,    1.2392,    0.4285,    0.5149,  999.0000,    1.9200,   -0.3634,   -1.7943,   -1.7808,   -0.1542,   -0.0741,    0.0466,    0.5264,   -0.5645,   -3.0231,   -4.5547,   -4.7675,   -6.1263,  999.0000,   -4.8985,  999.0000,   -4.4166,   -5.7959,   -8.5873,
 30-OCT-1996 09:26:57.34,    2.6506,    1.2532,  999.0000,  999.0000,  999.0000,  999.0000,  999.0000,    4.3657,    5.2150,    5.4696,    4.8715,    4.3280,    4.4281,    4.8078,    4.0770,    3.2569,    1.9044,  999.0000,  999.0000,    2.2132,    2.1902,    1.5997,    1.4791,    1.9626,    2.9178,    4.1276,    4.6538,    4.0111,    3.0494,    2.3473,    2.7299,    1.9432,    1.7648,    1.7780,   -0.2969,   -1.0507,   -0.8740,   -0.1483,   -0.8981,    0.0633,    1.1700,    1.5886,    0.8474,    0.4718,    1.1102,    2.4652,    2.2428,    0.0282,   -1.3993,   -1.1744,    0.2409,    0.0261,    0.2143,    0.8050,   -0.5769,   -3.1462,   -4.5538,   -5.3123,   -6.7958,  999.0000,   -6.8384,   -5.7222,   -5.6668,   -6.5952,   -8.4178,
 30-OCT-1996 09:29:36.43,    2.7466,    2.0496,  999.0000,  999.0000,  999.0000,    2.7368,    3.7623,    4.7847,    5.3881,    5.7138,    5.5446,  999.0000,  999.0000,    4.6473,    3.6474,    2.8660,    2.5656,  999.0000,    2.5662,    2.3291,    2.1384,    2.1514,    2.4148,    2.0673,    3.2225,    3.9338,    4.5764,    3.6510,    2.5636,    2.4831,    2.8141,    2.4079,    2.0490,    1.6677,   -0.0467,   -0.4495,   -0.9367,   -0.6091,   -0.5601,    0.6070,    1.9208,    1.3363,    0.9554,    0.5031,    1.0220,    2.4003,    2.4033,    0.2241,   -1.4078,   -1.1837,    0.3598,   -0.0945,    0.0499,    0.4571,   -1.0056,   -3.1782,   -4.2870,   -4.9043,   -6.3209,   -4.9964,   -5.4617,   -6.0314,   -6.3336,   -6.8089,   -8.6939,
 30-OCT-1996 09:32:13.80,    3.0425,    1.7162,    0.4736,    0.6111,    0.8355,  999.0000,    3.5708,    4.7916,    5.3047,    5.5342,  999.0000,    5.5162,    5.0722,    4.4094,    3.5323,    2.4358,    2.0697,    2.0130,    2.2658,    1.9723,    1.8326,    2.0664,    2.4077,    1.4467,    3.0638,    3.8333,    4.6595,    3.8265,    3.0300,    2.8676,    3.2941,    3.2891,    1.8332,    1.3521,   -0.1552,   -0.2627,   -0.3468,   -1.5723,   -0.7219,    0.3124,    1.9716,    2.1481,  999.0000,    0.8028,    1.5954,    2.2895,    1.9659,   -0.6596,   -1.8719,   -1.0955,  999.0000,  999.0000,   -0.6824,   -0.0172,   -1.3693,   -3.4804,   -5.3489,   -5.9799,   -6.2369,   -6.3877,   -5.8728,  999.0000,   -6.0494,   -6.9181,   -8.6436,
 30-OCT-1996 09:34:50.73,    4.3447,    2.4690,    0.6325,    1.4582,    1.9828,    2.8265,    3.5762,  999.0000,  999.0000,    5.3595,    5.4412,    5.3762,    4.8408,  999.0000,    3.7519,    2.5937,    1.5147,    0.9093,  999.0000,    1.7707,  999.0000,  999.0000,  999.0000,    1.7909,    2.8380,    3.0769,    4.0010,    3.6390,    3.0972,    2.6158,    2.9812,    3.0280,    2.1403,    1.1177,   -0.5738,   -0.6628,   -1.0394,   -1.7255,   -0.7834,   -0.2000,  999.0000,    1.2340,    0.6681,    0.7789,    1.2922,  999.0000,    1.2513,   -0.4020,   -1.8258,   -1.6310,   -0.9238,   -1.8410,  999.0000,  999.0000,   -2.0383,   -4.5131,   -6.5677,   -6.8376,   -7.0993,   -7.3233,   -6.7728,   -7.5583,  999.0000,   -7.0731,   -8.9878,
 30-OCT-1996 09:37:27.67,    4.5003,    2.4114,    0.7777,    0.2692,    0.8117,  999.0000,    3.6656,    4.9196,    5.3884,    5.4729,    5.4283,    5.0258,    4.0188,    3.6767,    3.3089,    2.2607,    2.2917,    2.4382,    2.1891,    2.0956,    1.8793,    1.8049,    2.2158,    1.7110,    3.1172,    3.6007,    3.5843,    3.5318,    2.4335,    2.2769,    2.8981,    3.1498,    2.0678,    1.2906,   -0.6130,   -1.0778,   -1.3933,   -1.7718,   -1.1350,   -0.5439,  999.0000,    1.7290,    1.0703,    0.9311,    1.5845,    2.5743,  999.0000,   -0.4650,   -2.2299,   -2.0742,   -1.1849,   -1.7960,   -1.0008,   -0.7391,   -2.0621,   -4.2200,   -6.1716,   -6.2972,   -6.8724,   -7.2836,   -7.2405,  999.0000,   -6.6498,   -7.1153,   -9.4852,
 30-OCT-1996 09:40:07.61,    4.1549,  999.0000,  999.0000,  999.0000,    2.1034,  999.0000,  999.0000,    4.8948,    5.4344,    5.5213,    5.4911,    5.3537,    5.1302,    4.5723,    3.7538,  999.0000,    2.6062,    3.0244,    2.8400,    2.3846,    2.2798,    1.8078,    2.0821,    1.3632,    3.0162,    3.3869,    3.6722,    3.1646,    2.2834,    2.0270,    3.0472,    3.1643,    1.7511,    1.2211,   -0.6469,   -1.2410,   -1.6326,   -1.7151,   -0.8018,  999.0000,    1.2089,    1.1634,    0.9943,    1.4091,    2.5638,    2.9070,  999.0000,   -0.3407,   -1.7641,   -1.7907,   -1.0525,   -1.5925,   -1.0152,   -0.5669,   -1.7446,  999.0000,  999.0000,   -5.9960,   -6.6281,  999.0000,   -7.2287,   -7.2754,   -6.5519,   -7.0400,   -9.3041,
 30-OCT-1996 09:42:46.75,    3.2648,    1.7325,  999.0000,  999.0000,    0.2300,  999.0000,    2.9705,    4.9357,    5.5033,    5.5270,    5.4291,  999.0000,    5.0273,    4.9207,    3.9169,    3.2705,    2.7377,    2.4975,    2.3713,    2.2515,    1.8128,    1.2706,    2.5489,    1.6892,    2.8213,    3.5265,    3.7830,    2.9543,    2.2278,    2.0411,    2.8214,    3.0203,    2.3238,    1.7661,   -0.4914,   -1.2788,   -1.4669,   -1.8751,   -1.3208,   -0.1907,    1.5786,    1.1414,    0.9972,    1.3594,    2.3477,  999.0000,  999.0000,   -0.6553,   -1.7778,  999.0000,  999.0000,   -1.4170,   -0.5591,   -0.5129,   -1.9498,   -4.1029,   -5.9126,   -5.9624,   -6.7392,   -7.1574,   -8.0109,   -7.8237,   -6.8263,   -7.2224,   -9.0197,
 30-OCT-1996 09:45:24.34,    3.1838,  999.0000,  999.0000,  999.0000,    0.6555,  999.0000,    3.9726,    4.9947,    5.6753,    5.7997,    5.5681,    5.3064,    5.2133,    5.0248,    4.0689,  999.0000,    2.4451,    2.6356,    2.5315,    2.1552,    2.1087,    1.5119,    1.7531,    2.2540,    2.7262,    3.4246,    4.1782,    3.3999,    2.1084,    2.3023,    2.7199,    2.9218,    2.4795,    1.3312,   -0.3281,   -1.2151,   -1.4934,   -1.9650,   -1.3587,    0.3927,    1.5505,    1.0429,    0.7737,    0.9625,    2.8916,    3.3566,    1.3819,   -0.6235,   -1.7521,   -1.3771,   -1.2255,   -1.6972,   -0.0057,    0.4056,   -1.5965,   -3.4493,   -5.1246,   -6.0482,   -6.0775,   -6.3277,  999.0000,  999.0000,   -6.6837,   -7.2612,   -9.1668,
 30-OCT-1996 09:48:03.43,    2.2632,    2.9156,    3.2500,    2.9022,  999.0000,    3.9840,    3.7013,    4.5048,    5.8351,    6.2903,    5.6718,    5.0037,    4.6652,  999.0000,    2.9899,    2.4617,    2.4795,    3.1970,  999.0000,    2.4459,    2.4928,    1.9399,    2.0852,    2.2724,    2.6061,    3.2748,    4.3941,    3.3075,    2.6375,    2.2842,    3.0982,    3.4384,    2.4119,    1.5080,    0.0401,   -1.0499,   -1.4710,   -2.1744,   -1.6209,    0.2989,    1.7763,    1.4537,    0.7853,    0.8153,    2.5672,    3.0063,    0.9820,   -0.6350,   -1.9587,   -1.9459,   -1.1956,   -1.0215,    0.4451,    0.1787,   -1.6397,   -3.6107,   -5.0714,   -5.9710,   -6.1911,   -6.5510,   -6.7641,   -7.2403,   -7.1336,   -7.6645,   -9.0774,
 30-OCT-1996 09:50:42.90,    2.0980,  999.0000,    1.9073,    2.0458,    1.9983,    2.2767,  999.0000,    5.2764,    5.8674,    6.0740,    5.5149,    5.1401,    4.8373,    5.2568,  999.0000,    2.6449,    2.5222,    3.4032,    3.1872,    2.5448,    2.6944,    2.7781,    2.1613,    1.1931,    3.0881,    3.3192,    4.2745,    3.3758,    3.0825,    2.3166,    2.9444,    3.9737,    3.1025,    2.1788,    0.1449,   -0.7097,   -1.4489,   -2.0594,   -1.7374,   -0.4282,    1.2868,    1.6678,    1.1239,    1.2470,    2.6378,    2.5045,    0.4457,   -0.9944,   -2.0321,   -1.6552,   -1.5069,   -1.2699,    0.1459,   -0.1362,   -1.4329,   -3.6141,   -5.4871,   -5.8097,   -6.4573,   -6.6918,   -6.4863,   -6.3775,   -6.9532,   -7.6834,   -9.5911,
 30-OCT-1996 09:53:22.24,    2.5984,    1.1361,    0.6646,    0.4396,    0.2111,    1.2671,  999.0000,    5.4031,    5.9260,    5.5618,    5.3603,    4.7100,    4.5334,    5.0499,    3.9209,    2.6264,    2.0178,    2.8205,    2.9123,    2.5342,    2.5058,    2.0278,    1.7432,    0.9703,    3.0699,    3.5618,    4.5727,    3.4381,    3.0637,    2.0473,    2.7191,    3.8866,    3.2662,    2.0226,    0.0975,   -0.8386,   -1.3977,   -2.0586,   -1.6621,   -0.5367,    0.9053,    1.8535,    1.4065,    1.3658,    3.2371,    2.1847,    0.1651,   -1.1559,   -1.8755,   -1.3771,   -1.4642,   -1.0170,    0.3901,   -0.2530,   -1.2765,   -3.3057,   -5.4330,   -5.9797,   -6.4485,  999.0000,   -6.0614,   -6.9015,   -6.8259,   -7.4327,   -9.5386,
 30-OCT-1996 09:56:55.45,    3.1109,    2.1739,    2.4582,  999.0000,    1.1177,  999.0000,    4.6659,    5.4585,  999.0000,    5.5986,    5.5876,    4.3666,    4.0279,    3.7122,    3.0797,    2.6765,    2.4234,    2.3238,    2.6464,    2.3011,    2.1530,    1.7848,    2.2661,    2.0781,    3.8295,    4.4989,    5.0857,    3.7802,    3.4344,    2.5856,    2.9670,    3.7100,    2.7574,    2.0929,   -0.3000,   -1.2220,   -1.5529,   -2.4297,   -1.6696,   -0.2540,    1.0109,    1.6467,    1.4541,    1.6366,    2.7029,    2.3259,    0.3773,   -1.0133,   -1.9652,   -1.4916,   -1.2285,   -0.6584,    0.6430,   -0.1297,   -1.1631,   -3.0257,   -5.1049,   -5.6672,   -6.2317,   -6.8105,  999.0000,  999.0000,   -6.6213,   -7.3675,   -9.6374,
 30-OCT-1996 09:59:34.48,    3.2876,    2.6159,    2.5263,    2.1217,    2.0131,  999.0000,    4.6442,    5.2595,    5.7858,    5.8184,    5.4152,    4.2529,    3.5915,    3.1572,    3.0432,    2.9772,    2.8853,    2.5364,    2.8588,    2.5657,    2.2000,    2.0633,    2.2856,    1.9830,    3.7110,    4.0091,    4.6526,    3.6996,    3.4573,    2.8132,    2.8817,    3.6528,    2.3802,    1.4740,   -0.1484,   -1.3048,   -1.6635,   -2.0682,   -1.4839,   -0.5607,    0.8962,    1.8795,    1.9344,    2.2229,    2.5420,    2.2222,    0.5113,   -0.8835,   -1.7331,   -1.3089,   -1.0248,   -0.1712,    1.2448,    0.2551,   -1.5050,   -3.2262,   -5.0186,   -5.6857,   -6.3147,  999.0000,  -10.5430,  999.0000,   -6.4654,   -7.2197,   -9.7394,
 30-OCT-1996 10:02:13.88,    2.8255,    2.7503,  999.0000,    1.1142,    0.5285,  999.0000,  999.0000,    5.1654,    5.8090,    5.8462,    5.7129,    5.1348,    4.7580,    3.9226,    3.1023,    2.8228,    2.5574,    2.5266,    2.3119,    2.2838,    2.0952,    2.3307,    2.1964,    1.7547,    3.5296,    3.9220,    4.1059,    3.2833,    3.0464,    2.6188,    2.5943,    3.8360,  999.0000,  999.0000,  999.0000,   -1.9683,   -1.7719,   -2.1305,   -1.8514,  999.0000,    0.5661,    1.8269,    1.8571,    1.8264,    2.4331,    2.2492,    0.4685,   -0.9415,   -1.6576,   -1.3134,   -1.3570,   -0.5195,    0.8759,   -0.3452,   -2.3680,   -4.0682,   -5.5813,   -6.0310,   -6.9401,  999.0000,  999.0000,  999.0000,   -6.1154,   -7.2433,  -10.2203,
 30-OCT-1996 10:04:50.94,    3.5009,  999.0000,    2.9552,    2.9057,  999.0000,  999.0000,  999.0000,    5.3114,    5.5491,    5.5475,    5.5259,    5.4327,    4.9545,    4.0469,    3.5827,    2.9110,    2.4138,    2.1169,    2.0964,    2.5242,    1.5046,    1.6554,  999.0000,  999.0000,    1.5558,    2.1738,    2.5943,    2.2344,    1.7226,    2.2817,    2.1997,    2.8382,    1.7435,    0.5848,   -0.5355,   -1.5953,   -1.4226,   -2.0588,   -1.5761,   -0.1299,    0.7645,    1.1982,    0.8847,    1.9454,    2.5421,    2.0876,    0.1627,   -0.9931,   -1.7736,   -1.4925,   -1.2457,   -0.8588,    0.2673,   -0.7688,   -2.7626,  999.0000,  999.0000,  999.0000,  999.0000,  999.0000,  999.0000,  999.0000,  -14.0269,  999.0000,  999.0000,
 30-OCT-1996 10:07:30.06,    3.7824,    2.9467,    3.3418,    3.1948,    2.7327,    2.3793,  999.0000,    5.0126,    5.4139,    5.4882,    5.4729,    5.3797,    3.6990,    3.3608,    3.1027,    2.5529,    2.1524,    1.9312,    2.0101,    2.4333,    2.0936,    2.3990,    2.0443,    2.3829,    2.9504,    3.4810,    3.3972,    2.8687,    2.4404,    2.4759,    2.7242,    3.1842,    2.1045,    0.2637,   -0.8942,   -1.3461,   -1.4753,   -1.7142,   -0.8199,    0.4345,    1.5956,    1.7931,    1.6639,    2.5430,    2.9341,    2.3811,    0.6025,   -0.8764,   -1.5812,   -1.3797,   -1.4226,   -1.0337,   -0.0108,   -1.0345,   -2.9235,   -5.0318,   -6.4545,   -6.5549,   -7.2879,   -8.4528,   -8.7998,   -8.7093,   -9.9650,   -7.9431,  999.0000,
 30-OCT-1996 10:10:06.93,    2.8304,    2.5396,    2.4653,    2.6683,  999.0000,  999.0000,    3.4156,  999.0000,    5.1901,    5.4166,    5.4287,    5.3143,    3.6888,    3.0898,    2.7955,    2.4763,    2.1982,    1.9840,    2.2120,    2.2396,    2.0623,    1.2030,    2.9484,    2.2416,    3.2945,    4.0455,    3.5151,    3.1739,    3.1704,    2.3083,    2.4919,    3.6656,    2.4117,    0.2937,   -1.4754,   -2.4577,   -1.9083,   -1.5906,   -0.7745,    0.5101,    1.7796,  999.0000,    1.8227,    3.0293,    3.1124,  999.0000,    0.6293,   -0.9753,   -1.8237,   -1.5125,   -1.8851,   -1.6235,   -0.6278,   -1.5196,   -3.1277,   -4.7552,   -6.1581,   -6.9302,   -7.6393,   -7.9949,   -8.9415,   -9.2631,   -8.4261,   -8.5736,  -10.4850,
 30-OCT-1996 10:12:45.96,    3.2944,    2.5664,    2.5261,    2.6867,  999.0000,  999.0000,  999.0000,  999.0000,    5.2636,    5.4344,    5.5361,    5.5085,    4.5416,  999.0000,    3.2539,    2.6883,  999.0000,    2.0925,    2.5994,    2.4267,    1.4792,    0.6355,  999.0000,    3.1996,    3.6608,    4.1556,    4.2024,    3.4017,    3.2083,    3.3854,    3.4142,    4.1502,    2.4825,   -0.0505,   -1.2299,   -1.2260,   -1.8149,   -1.3546,   -0.5296,    0.6921,    1.6040,    1.2728,    1.6616,    3.4270,    3.4493,    2.2119,    0.2253,   -1.1774,   -1.7797,   -1.7161,   -2.3260,   -1.6290,   -0.5275,   -1.5888,   -3.2724,   -4.6983,   -6.0253,   -6.9111,   -7.8917,  999.0000,  -36.8096,  999.0000,  999.0000,  999.0000,  999.0000,
 30-OCT-1996 10:15:22.98,    2.9752,    3.5030,    3.3066,    2.5402,  999.0000,  999.0000,  999.0000,  999.0000,    5.1316,    5.3331,    5.4112,    5.3366,    4.6260,    3.9662,    3.3592,    2.7485,    2.5797,    2.4428,    2.4517,    2.7494,    1.6820,    1.8222,    2.9415,    3.1211,    3.9655,    4.6037,    3.9647,    3.0729,    3.5039,    3.8189,    3.2777,  999.0000,    2.4290,    0.1141,   -1.0860,   -1.4744,   -1.7193,   -1.5193,   -0.1564,    0.9654,    1.4900,    1.3619,    2.0689,    3.1161,    3.3292,    2.4981,    0.6937,   -0.5944,   -1.2855,   -0.9923,   -1.7420,   -1.1732,   -0.4744,   -1.6565,   -3.1757,   -4.8360,   -6.7601,  999.0000,  999.0000,   -8.4795,  -19.3567,   -8.2794,   -7.7748,   -9.2146,  -11.2005,
 30-OCT-1996 10:18:00.14,    3.6270,    3.9107,    4.4445,  999.0000,  999.0000,  999.0000,    4.6893,    5.4095,    5.3142,    5.2744,    5.2338,    4.9345,    4.6297,    3.7262,    2.8902,    2.4525,    2.1695,    2.3881,    2.2543,    2.2575,    2.7020,    2.2220,    2.6632,    1.0410,    1.6249,    2.4510,    2.3662,    1.9047,    2.7478,    2.6516,    2.5416,    3.4915,    2.5146,    0.1530,   -1.0923,  999.0000,   -2.7356,   -2.6416,  999.0000,  999.0000,    3.4287,    3.4100,  999.0000,  999.0000,    3.4974,    2.3928,  999.0000,  999.0000,   -1.4145,  999.0000,    0.3164,  999.0000,  999.0000,   -6.7396,  999.0000,  999.0000,  999.0000,  999.0000,  999.0000,   12.8946,    1.7971,   -4.9561,   -5.0361,   -4.7091,   -4.2663,
 30-OCT-1996 10:20:39.92,    3.4427,    3.1589,    2.8941,    2.8488,  999.0000,  999.0000,    3.3266,  999.0000,    5.1742,    4.9595,    4.9666,    4.7408,    3.7736,    3.1753,    3.0365,    2.5523,    2.3731,    2.4652,    2.4048,    2.1906,    2.1920,    2.3258,    2.8849,    2.8088,    3.3988,    4.1741,    3.5289,    3.1274,    3.7429,    3.7834,    3.6853,    3.9404,    2.8727,    0.2077,  999.0000,  999.0000,  999.0000,   -1.4530,   -0.2139,    1.0267,    1.7049,    1.7594,    2.6699,  999.0000,  999.0000,    1.9192,    0.5353,   -0.9979,   -1.4689,   -0.8895,   -0.7530,   -0.6338,   -0.2361,   -3.3486,   -3.0864,   -5.1764,   -6.7697,   -7.2798,   -8.3111,   -1.4500,   -5.2761,   -6.9708,   -7.5991,   -9.0121,   -9.3456,
 30-OCT-1996 10:23:19.05,    3.8586,    3.0697,    2.8236,  999.0000,    1.5941,  999.0000,    4.2980,    5.2983,    5.0849,    5.0285,    5.2524,    4.9917,    4.2669,    4.4022,    4.0566,    3.3688,    2.4443,    2.2644,    2.3973,    2.7890,    2.2027,    2.6806,    3.2555,    2.9979,    4.0682,    4.7883,    4.2535,    3.7591,    4.2062,    4.3008,    4.1910,    4.0882,    2.7684,   -0.1767,   -1.5320,   -1.7167,   -1.3259,   -1.4479,   -0.1590,    1.6142,    2.3660,    1.9269,    1.9295,    3.0938,    3.1008,    2.1105,    0.7208,   -0.8974,   -1.2830,   -1.0184,   -1.6494,   -0.5034,   -0.1740,   -1.5459,   -3.3874,   -5.3668,   -6.8872,   -7.5926,   -8.4646,   -9.2908,   -9.6691,   -8.4785,   -8.8395,  -10.8788,  -10.9310,
 30-OCT-1996 10:25:58.22,    3.9838,    3.4497,    3.0701,    2.9260,    2.8382,    3.0545,    3.2552,  999.0000,    4.2820,    4.9781,    5.3035,    5.2871,    4.2663,  999.0000,  999.0000,  999.0000,    2.3922,    2.3097,    2.4769,    2.5478,    2.5323,    2.7330,    2.7377,    2.6750,    3.9062,    4.7511,    4.4794,    3.8213,    4.4342,    4.0909,    4.1986,    4.2909,    2.7426,   -0.3350,   -2.1308,   -2.0045,   -1.7349,   -1.6613,   -0.6183,    1.1462,    2.2462,    2.1948,  999.0000,    3.1595,    2.9121,    1.8609,    0.4953,   -0.8333,   -1.0870,   -1.3497,  999.0000,  999.0000,   -1.3485,  999.0000,  999.0000,   -6.0879,   -7.1476,  999.0000,  999.0000,   -8.6383,  999.0000,  999.0000,  999.0000,  999.0000,  999.0000,
 30-OCT-1996 10:28:35.19,    4.1124,    2.9505,    1.7312,    1.5278,    1.4370,    2.2148,    4.2333,    4.4759,    4.4266,    5.1984,    5.4485,    5.4925,    4.4461,    3.5904,    3.7190,    3.3913,    2.4898,    2.6194,    2.8347,    3.0099,    3.0838,    2.5615,    2.1181,    2.6842,    3.8071,    4.3045,    3.7771,    3.6512,    3.9730,    4.0420,    3.6768,    3.3911,    2.4766,   -0.5060,   -2.1802,   -2.0410,   -1.7383,   -1.7944,   -1.1360,    0.5381,    1.8469,    1.6975,    1.7863,    2.6617,    2.5094,    1.4035,    0.4213,   -0.6609,   -0.5467,   -0.4919,   -1.2298,  999.0000,  999.0000,  999.0000,   -4.2943,  999.0000,  999.0000,  999.0000,  999.0000,  999.0000,  999.0000,  999.0000,  999.0000,  999.0000,  999.0000,
 30-OCT-1996 10:31:14.63,  999.0000,  999.0000,    0.1597,    0.3922,    1.0470,    1.9090,  999.0000,    4.6207,    4.8583,    5.3466,    5.5020,    5.5289,    4.7098,    4.5911,    4.0791,    3.5244,    2.8416,    2.6676,    2.9021,    3.2590,    2.9232,  999.0000,  999.0000,    2.9016,    3.5622,    4.3584,    3.9898,    3.8091,    3.9872,    4.3454,    3.7285,    4.4144,    2.2703,   -0.2872,   -1.9337,   -2.1841,   -1.9333,   -1.9797,   -1.2498,    1.1034,    1.9917,    1.7929,    1.9150,    2.4465,    2.2167,    0.9198,    0.0237,   -0.8738,   -0.5850,   -0.5788,   -1.0891,   -0.3225,   -0.8089,   -2.7268,   -4.2822,   -5.7371,  999.0000,  999.0000,   -8.8962,   -8.9918,  -10.0330,   -9.7918,   -9.8049,   -9.1148,  999.0000,
 30-OCT-1996 10:33:51.78,    1.4826,  999.0000,    0.3968,    0.2889,    0.7817,  999.0000,    4.8904,    5.4174,    5.4938,    5.6064,    5.5863,    5.7849,    5.9611,    5.7524,    4.5344,  999.0000,    2.9380,    2.7236,    3.0853,    3.4892,    2.5969,    2.4469,    2.4518,    2.9590,    3.8902,    4.2425,    4.0671,    3.7545,    3.8760,    4.1130,    3.7272,    3.9418,    2.2461,   -0.2731,   -1.9136,   -2.1603,   -1.9216,   -1.6613,   -0.7779,    1.3093,    1.7234,    1.3382,    1.8926,    2.2969,    1.9496,    1.1791,    0.4007,   -0.4596,   -0.0382,   -0.5153,   -0.9908,  999.0000,   -1.3993,   -2.3250,   -3.7865,   -5.4966,   -7.2017,   -7.7778,   -8.6003,  999.0000,   -9.4352,   -8.9983,   -9.5421,   -9.6817,   -9.9148,
 30-OCT-1996 10:36:30.80,    1.0568,    0.8040,    0.4244,    0.2405,    0.9031,  999.0000,    4.7835,    5.2671,    5.4612,    5.5859,    5.6733,    6.1493,    6.4693,    6.0157,    5.0814,    4.3591,  999.0000,    2.9864,    3.4022,    2.9660,    2.5655,    2.2492,    2.2544,    2.7581,    3.9616,    3.8728,    3.6471,    3.2546,    3.8907,    4.3375,    4.1471,    3.6821,    1.6503,   -0.7097,   -2.2651,   -1.9462,   -1.8128,   -1.5825,   -0.4093,    1.3042,    1.6328,    1.1159,    1.6567,    2.3672,    1.9304,    1.6523,    0.7713,  999.0000,  999.0000,   -0.2695,   -1.3880,   -0.5727,    0.0284,   -1.4352,   -2.9725,   -5.0663,   -7.1740,   -8.2115,  999.0000,   -8.8736,   -7.7328,   -7.0644,   -9.2200,   -9.6681,   -9.8017,
 30-OCT-1996 10:39:07.83,    3.3844,  999.0000,    1.2274,  999.0000,  999.0000,    3.3334,  999.0000,    4.8407,    5.2970,    5.6546,    5.7492,    5.8437,    6.1250,    5.9124,    5.2301,    4.3247,    3.0980,    3.3238,    3.2359,  999.0000,    2.6257,    2.7219,    2.6458,    2.6489,    3.8599,    3.7747,    3.6583,    3.6407,    3.6114,    4.2937,    3.3668,    3.4176,    1.5035,   -0.9673,   -2.4572,   -1.0711,   -1.7598,   -1.7576,   -0.6043,    0.6681,   -2.4750,    1.5569,  -18.4444,  999.0000,    1.2899,    1.4034,    0.9954,    0.0519,  999.0000,  999.0000,    0.4293,    1.3011,   -0.1129,   -1.5568,   -2.7050,   -4.8249,   -7.1850,   -7.4892,   -8.3803,  999.0000,   -7.4816,  999.0000,  -10.0948,  999.0000,  999.0000,
 30-OCT-1996 10:41:47.12,    3.3060,  999.0000,    2.7694,  999.0000,    0.7556,  999.0000,    4.3410,    4.9205,    5.2887,    5.8681,    6.0973,    6.2274,    6.5642,  999.0000,  999.0000,    3.4990,    2.8527,    3.6324,    2.8928,    2.9562,    2.4314,    2.6269,    3.1428,    3.5847,    4.2959,    4.1491,    4.4459,    3.8666,    3.4292,    4.4133,    3.7010,    3.2248,    1.5712,   -0.9514,   -2.1260,   -0.8676,   -1.3017,   -1.8956,   -1.3674,    0.4028,   -0.1196,    1.3079,  999.0000,    2.1927,    1.2902,    1.4747,  999.0000,  999.0000,   -0.1598,   -1.1029,   -0.2950,    0.9765,   -0.3369,   -1.9712,   -3.3139,   -5.1902,   -6.7326,   -7.3561,   -8.8748,   -9.8221,  999.0000,  999.0000,  999.0000,  -10.4606,  999.0000,
 30-OCT-1996 10:44:24.19,    4.0796,    3.2086,  999.0000,    1.0696,    1.1359,  999.0000,    4.9669,    5.2057,    5.4442,    5.9604,  999.0000,    5.8526,    6.2310,    5.5828,    4.2194,    3.3688,    2.8432,    3.0697,    2.9591,    2.5138,    2.3990,    2.5154,    2.9124,    3.9873,    4.4837,    4.0196,    4.0343,    3.2154,    3.5877,    3.8578,    3.5089,    2.8272,    1.1462,   -1.2804,   -2.2359,   -1.2901,   -1.3807,   -1.7933,   -0.9691,    0.4089,    1.2839,    1.9733,   -0.0711,    2.3215,    1.5861,    1.3481,    0.5266,   -0.0773,   -0.0743,   -1.3892,   -0.5351,    0.6399,   -0.5651,   -2.2639,   -3.8557,   -5.4610,   -6.6823,   -7.2285,   -8.0875,   -8.3722,   -7.6755,   -4.5654,  999.0000,   -8.2016,   -7.7646,
 30-OCT-1996 10:47:03.56,    4.3650,  999.0000,  999.0000,    0.5527,    0.7064,  999.0000,  999.0000,    4.8248,    5.2448,    5.8342,    6.4539,    5.9811,    5.9713,    4.8296,    4.5194,    3.8361,    2.8501,    2.8310,    3.2326,    2.8964,    2.6938,    2.7230,    2.8644,    3.6283,    3.9363,    4.2965,    3.9576,    3.7597,    3.2791,    4.0495,    3.7600,    2.5458,    1.0549,  999.0000,   -2.0742,   -1.0914,   -1.2028,   -1.3498,   -0.7055,    0.8914,    1.5065,    1.8733,    3.0045,    2.8004,    1.9098,    1.2385,    0.2409,   -0.4546,   -0.0448,   -1.0531,   -0.4941,    0.3356,   -0.9184,   -2.8679,   -4.4293,  999.0000,  999.0000,   -7.5700,   -7.9832,   -8.1262,   -8.1267,   -7.1304,   -7.2589,   -7.8847,   -8.0874,
 30-OCT-1996 10:49:41.29,    3.7868,    2.9781,    2.7590,  999.0000,  999.0000,  999.0000,    5.0905,    5.2095,    5.1863,    5.6738,    5.9258,    6.1194,    5.9974,    5.0780,    4.1911,    3.3668,    2.4914,    2.2632,    2.9092,    2.9132,    2.6952,    3.2166,    3.3140,    4.1720,    3.9256,    4.7133,    4.2180,    3.3673,    3.0849,    4.3135,    3.6386,    2.4775,    0.7802,   -2.0822,   -2.5920,   -1.3998,   -1.5023,   -1.6387,   -0.9205,    0.5511,    1.4916,    1.8805,    2.6635,    2.4998,    1.4461,    0.6381,   -0.1268,   -0.4902,    0.0314,   -1.5191,   -1.3532,    0.0126,   -0.8712,   -2.5068,   -3.5840,   -4.9688,  999.0000,  999.0000,   -7.3790,   -7.1326,  999.0000,  999.0000,   -6.4321,   -7.9533,   -8.1811,
 30-OCT-1996 10:52:18.79,    2.9041,    2.5530,  999.0000,    0.5319,    0.8208,  999.0000,    4.1921,    4.7586,    5.1919,    5.4684,    5.4940,    5.5754,  999.0000,    4.8634,    3.9247,    3.4487,    2.7551,    2.9060,    3.0700,    2.5704,    2.6643,    3.3778,    3.2560,    3.2909,    3.4336,    3.8863,    3.8510,    3.1197,    3.3057,    4.3538,    3.4792,    2.6928,    0.8995,   -2.2039,   -2.4797,   -1.5783,   -1.6896,   -1.7577,   -1.0376,    0.2384,    1.0959,    1.6875,    2.7203,    2.1428,    1.1859,    0.7723,   -0.0189,   -0.5969,   -0.1329,   -1.3200,   -1.0895,    0.1869,   -0.6734,   -2.1854,   -3.3336,   -4.7843,  999.0000,  999.0000,   -7.3039,   -7.7913,   -8.1149,  999.0000,   -5.7546,   -8.0775,   -7.4615,
 30-OCT-1996 10:54:58.00,    3.9884,    3.0702,  999.0000,    0.9386,    0.5146,  999.0000,    2.4224,  999.0000,    4.8781,    5.4004,    5.5483,    5.7112,    5.7591,    4.5431,    3.8605,    3.1992,    2.5909,    3.2650,    2.9608,    2.1697,    3.0520,  999.0000,    3.0967,    3.3417,    3.3298,    4.1293,    3.6894,    2.9674,    3.2594,    4.0840,    3.8547,    2.7147,    0.6121,   -2.2093,   -2.2912,   -1.2275,   -1.5787,   -1.6177,   -0.7883,    0.5561,    1.2808,    2.0902,    2.6910,    1.9678,    0.9523,    0.9724,    0.2529,   -0.1043,   -0.0698,   -1.5499,   -1.2493,   -0.0616,   -1.1020,   -2.2670,   -3.3569,   -4.6945,   -5.6922,   -6.6972,   -7.4304,   -7.7508,   -7.4649,  999.0000,  999.0000,   -8.7363,   -8.6202,
 30-OCT-1996 10:57:35.34,    4.2227,  999.0000,    2.7486,  999.0000,    1.4980,  999.0000,  999.0000,  999.0000,  999.0000,    5.3501,    5.6350,    5.8958,    5.7944,    4.3503,    3.9662,    3.4661,    3.1213,    3.3387,    3.2505,    3.8697,    3.2729,  999.0000,    3.7778,    3.3700,    3.5047,    4.5098,    3.8230,    2.9163,    3.1070,    4.0768,    3.4576,    2.7877,    0.2453,  999.0000,   -2.1195,   -0.9214,   -1.5566,   -1.9061,   -1.4576,    0.4101,    0.8977,    1.3547,    2.2702,    1.9112,    0.8664,    0.5967,   -0.2516,   -0.5200,   -0.7196,   -2.0429,   -1.4114,   -0.4104,   -1.6044,   -2.5000,   -3.8148,   -5.5298,   -6.2549,   -6.6224,   -7.6601,   -7.6198,   -7.1004,  999.0000,   -6.4615,   -8.2220,   -8.5562,
 30-OCT-1996 11:00:12.78,    4.1613,  999.0000,    2.5393,    2.1825,    2.4897,  999.0000,  999.0000,    3.3018,    3.7997,  999.0000,    5.7215,    5.9575,    6.2675,    4.8237,    4.2630,    3.4904,    2.7886,    3.1413,    3.0868,    3.2381,    2.5960,    3.1090,    3.5640,    3.4853,    4.0921,    4.6784,    4.0492,    3.2398,    3.4452,    4.5481,    3.9480,    2.6983,   -0.1430,   -2.4941,   -2.2206,   -0.9051,   -1.4030,   -1.9800,   -1.4635,   -0.0035,    0.6778,    1.5879,    2.2762,    1.8475,    0.7469,    0.5493,   -0.2689,   -0.5002,   -1.0371,   -2.1923,   -1.1840,   -0.1814,   -1.6356,   -2.8767,   -4.3099,   -5.8960,   -6.4058,   -6.4083,   -7.5160,   -7.9610,   -7.4968,   -5.6967,  999.0000,   -7.4615,   -8.0147,
 30-OCT-1996 11:02:49.84,    3.0718,    3.0928,    2.9881,    3.1171,  999.0000,  999.0000,    3.0689,  999.0000,    3.9154,    5.4198,    6.2937,    6.7688,    6.6619,    4.3736,    4.2186,    3.4744,    2.7410,    3.3383,    3.3820,    3.2770,  999.0000,    3.2079,    3.5318,    3.4771,    3.9641,    0.7220,    3.7074,    3.7370,  -32.1789,    5.1218,   -6.7907,    2.5935,  -44.3371,  999.0000,   -2.6943,  999.0000,   -1.5270,   -1.8711,   -0.9935,  -30.4922,  999.0000,  999.0000,  -48.0944,    2.3605,    1.5932,    0.7414,   -0.0431,    0.8858,  999.0000,  999.0000,  999.0000,  999.0000,  999.0000,  999.0000,  999.0000,   -6.0248,   -6.2681,   -6.0180,   -7.1413,   -8.2141,  999.0000,  999.0000,  -28.2536,  -29.2156,  -31.2834,
 30-OCT-1996 11:05:27.33,    3.2959,    3.1255,    2.9003,    3.0555,  999.0000,  999.0000,    4.6632,    4.3839,    4.5380,    5.3858,    5.9401,  999.0000,    6.7231,    4.9600,    4.0980,    3.4732,    3.2613,    3.1955,    3.2740,    2.9739,  999.0000,    3.1445,    3.4422,    2.7583,    4.2088,    3.4959,    6.7718,   33.3903,    3.8381,    5.4909,   -7.0764,    2.4331,    1.0516,  999.0000,   -2.5730,   -2.3395,   -1.6369,   21.3269,   -0.9056,    0.6237,  999.0000,  999.0000,  -60.7509,    2.7066,  999.0000,  -31.4324,  -18.9364,  999.0000,  999.0000,  999.0000,    1.8465,    0.5407,   11.5830,   26.1091,   -3.5404,  999.0000,  999.0000,  999.0000,   -6.9187,   -7.7778,  999.0000,  999.0000,  999.0000,  -14.5631,  -15.9601,
 30-OCT-1996 11:08:06.94,    2.4641,    3.3477,    3.2010,    2.7139,  999.0000,    1.9447,    3.2773,    3.7511,  999.0000,  999.0000,  999.0000,  999.0000,  999.0000,  999.0000,  999.0000,  999.0000,  999.0000,  999.0000,  999.0000,    3.0331,    2.8249,    3.1194,    3.7433,    2.9150,    4.1524,    4.4923,    5.1922,   12.5277,   -3.1664,    5.4464,    1.5609,    2.8388,   -8.6936,   -2.4887,   -2.2702,   -0.5753,   -1.5526,    5.0407,   -1.0291,   -5.3103,    0.3595,    0.9503,  -14.0171,    1.9299,    0.8644,   -9.3913,   -6.1061,   -0.4064,   -1.0433,  999.0000,  999.0000,    0.5749,    2.9892,  999.0000,  999.0000,  999.0000,  999.0000,  999.0000,  999.0000,   -7.1703,   -7.3079,   -5.2093,  999.0000,   -5.7248,   -6.8992,
 30-OCT-1996 11:10:46.27,    2.5446,    3.0491,    3.2804,    2.7506,    2.2853,    2.8691,  999.0000,  999.0000,  999.0000,  999.0000,    5.2993,  999.0000,  999.0000,  999.0000,  999.0000,  999.0000,  999.0000,    3.2954,    3.9289,    4.2497,    2.9302,    3.2688,    3.6713,    3.8829,    4.1503,    4.4350,    3.8724,    3.0629,    3.7488,    5.0181,    3.4567,    2.5253,   -0.9714,   -2.6521,   -2.3026,   -0.7091,   -1.6219,   -2.1612,   -1.1111,    0.2578,    0.4162,  999.0000,  999.0000,    1.8692,    1.0879,    0.6286,   -0.8233,   -0.7422,   -1.5098,   -2.0541,   -0.5048,   -0.1141,   -1.5938,    1.5484,  999.0000,  999.0000,   -6.4861,  999.0000,  999.0000,   -8.1900,  999.0000,   17.8515,  999.0000,  -33.1406,  999.0000,
 30-OCT-1996 11:13:23.38,    2.0473,    2.2297,    3.0448,    3.2942,    2.4846,    2.2032,  999.0000,  999.0000,    5.1120,    5.4342,    5.4442,    5.8825,    6.1765,    4.5642,    3.8722,    3.1577,  999.0000,    3.5169,    3.9341,    4.1112,    3.0070,    3.2787,    3.2998,    4.1250,    3.8089,    3.8892,    3.5122,    2.9442,    3.6498,    4.9152,    3.2839,    2.2899,   -0.3133,   -2.4239,   -2.2748,   -0.8950,   -1.4796,   -2.0803,   -1.3354,    0.0231,    0.5441,    1.4290,    1.8991,    1.3848,    0.5877,    0.7391,   -0.6126,   -0.8662,   -1.4440,   -1.9538,   -0.7470,   -0.1921,  999.0000,   -0.9979,   -4.2979,   -5.9714,   -6.0637,   -5.4498,   -6.2427,   -6.2328,   -5.9965,    2.9328,   -6.7027,  999.0000,   -6.9598,
 30-OCT-1996 11:16:01.41,    2.4879,    2.4812,    2.9531,    3.1538,    2.5515,    1.7292,    0.5283,  999.0000,    4.9668,    5.4472,    5.4773,    5.6726,    6.3548,    4.9181,    4.3679,    3.6175,    2.8797,    3.4997,    3.9124,    4.6890,  999.0000,    3.2130,    3.2326,    3.8511,    4.0695,    3.6895,    3.6625,    3.1313,    3.2598,    4.4624,    3.3369,    2.2199,   -0.7467,   -2.2421,   -2.2525,   -1.0184,   -1.7767,   -2.1177,   -1.1701,    0.2104,    0.8660,    1.3163,    1.7508,    1.0200,    0.4532,    0.4104,   -0.5741,   -0.2450,   -0.9413,   -2.0582,   -0.9305,    0.0463,   -1.2730,   -2.1576,   -3.4161,   -5.5068,   -6.1084,   -5.5132,   -6.0381,   -6.0229,   -6.5186,  999.0000,   -5.1300,  -11.1750,   -6.9440,
 30-OCT-1996 11:18:38.90,  999.0000,    2.2361,    2.2920,    2.6522,    2.9000,    3.0320,  999.0000,  999.0000,    5.2709,    5.3623,    5.4038,    5.4623,  999.0000,    4.4964,    3.7426,    3.4031,    2.8500,    3.0223,    3.6597,  999.0000,    4.0994,    3.5243,    3.4918,    3.9474,    4.1791,    3.7700,    3.3502,    2.8967,    2.9091,    4.3275,    3.2336,    1.6142,   -1.6406,   -3.1397,   -2.7556,   -1.5085,   -2.2465,   -2.5978,   -1.5801,   -0.2640,    0.7177,    1.6156,    1.6448,    1.0888,    0.7254,    0.3633,   -1.0641,   -1.0396,   -1.0961,   -2.1779,   -1.4053,   -0.2840,   -1.2010,   -2.0967,   -3.6942,   -5.8698,   -6.8064,  999.0000,   -5.6753,   -5.9606,   -5.6449,   -4.2590,   -4.1319,   -5.5770,   -6.8014,
 30-OCT-1996 11:21:16.37,    2.9001,    2.1339,    1.8132,    2.6104,  999.0000,    2.5112,  999.0000,    4.8029,    5.3083,    5.3572,    5.5205,    5.5528,    5.8445,    4.3566,    3.1723,    2.5171,    2.6333,    2.8501,    3.5627,    3.5244,    3.5323,    3.7950,    3.9504,    4.2719,    4.3182,    3.5829,    3.8045,    3.0590,    3.2402,    4.7117,    3.6203,    2.1906,   -1.5322,   -3.2873,   -3.0995,   -1.6031,   -2.2376,   -2.9174,   -2.0038,   -0.8803,    0.1328,    1.2760,    1.2638,    1.0389,    0.2380,  999.0000,   -1.2292,   -1.4665,   -1.7054,   -2.5373,  999.0000,  999.0000,   -1.5134,   -1.8351,   -3.8175,   -6.2585,   -5.1823,   -4.0765,   -4.7625,  999.0000,   -4.3169,   -4.2233,   -3.8046,   -4.8580,   -5.7664,
 30-OCT-1996 11:23:55.38,    1.8952,    1.7968,    1.9418,    2.2250,    2.1180,    2.5988,  999.0000,    4.9958,    5.3909,    5.6764,    5.9228,    6.0957,    6.2528,    5.2558,    4.3221,    2.8753,    3.0234,  999.0000,    3.9096,    3.9174,    3.8038,    4.3124,    4.2960,    4.7361,    4.0867,    3.2382,    3.6930,    3.2844,    3.8286,    4.8387,    3.9316,    2.2587,   -1.3659,  999.0000,   -2.6345,   -1.3844,   -2.1543,   -2.9432,   -1.5655,   -0.4404,    0.2981,    1.5989,    1.9207,    1.0655,    0.3356,    0.4804,   -0.7752,   -1.2766,   -2.1501,   -2.5643,   -1.3697,   -0.5041,   -1.4714,   -1.9653,  999.0000,  999.0000,   -5.1055,   -4.6808,   -5.0426,   -5.5527,   -5.6548,   -5.0928,   -4.1205,   -4.6541,   -5.6991,
 30-OCT-1996 11:26:32.52,    2.1000,    1.4880,    1.9126,    2.4667,    2.2649,    2.5348,    2.9563,  999.0000,  999.0000,    5.3237,    5.4619,    5.4983,    5.9487,    4.7226,    3.9417,    3.1211,    3.2922,    3.8039,    3.8785,    3.5561,    3.3714,    3.9711,    4.4797,    4.3301,    4.1969,    3.0456,    3.1136,    2.8205,    4.5678,    4.7913,    3.6226,    2.1703,   -1.1857,   -2.5143,   -1.8995,   -1.2465,   -1.9741,   -2.2987,   -0.5433,    0.0998,    0.8963,    2.0912,    2.4460,    1.3338,    0.8304,    0.8067,   -0.2427,   -1.1766,   -1.8149,   -1.9689,   -0.6442,    0.0274,   -1.0295,   -1.6921,   -3.5482,   -5.7367,   -5.1967,   -4.7925,   -5.0557,   -4.3518,   -5.0410,   -5.1978,   -4.6465,   -4.9256,   -5.6837,
 30-OCT-1996 11:29:11.59,    3.2863,    3.9821,    3.1050,    2.8129,    2.6303,    2.8357,    2.9937,  999.0000,    5.1405,    5.3944,    5.3883,    5.3470,    5.4802,    4.3615,    3.4410,    2.8499,    3.2672,    3.5563,    3.7412,    3.6836,    3.9092,    3.7630,    4.5914,    4.2826,    3.8574,    3.1413,    3.2570,    3.1535,    4.5392,    4.5007,    3.7360,    2.2219,   -0.7676,   -2.4254,   -2.6431,   -1.4715,   -2.0837,   -2.2207,   -1.0624,    0.3539,    0.9481,  999.0000,    2.0410,    0.9380,    0.4762,    0.0764,    0.4315,  999.0000,   -1.8891,   -1.9818,   -0.9946,   -0.1944,   -0.6603,   -1.3577,   -3.5493,   -5.7055,   -5.1292,   -4.6809,   -4.5340,   -4.2841,   -4.8353,   -4.7631,   -4.7526,   -4.8172,   -5.2283,
 30-OCT-1996 11:31:50.80,    3.5927,    3.8382,  999.0000,    2.2482,    1.8981,    3.2835,    3.4765,  999.0000,    5.1307,    5.2921,    5.2607,    5.2112,  999.0000,    4.7446,    4.6131,    3.4429,    3.2917,    3.4748,    4.1364,    4.5707,    4.3148,    4.7786,    4.5486,    3.9620,    3.8032,    3.3884,    3.2113,    3.5312,    4.4550,    4.7867,    4.1045,    2.5868,   -0.9104,   -2.5696,   -2.6743,   -1.4934,   -2.2465,   -2.4662,   -1.4498,   -0.1260,    0.7592,    1.7713,    1.9490,  999.0000,  999.0000,   -0.1208,   -1.4609,   -1.7648,   -1.9233,   -2.0479,   -1.4705,   -0.4907,   -0.8801,   -1.7113,   -3.7714,   -5.8555,   -5.1814,   -4.6197,   -4.3215,  999.0000,  999.0000,   -4.3763,   -4.5068,   -4.8978,   -5.3525,
 30-OCT-1996 11:34:29.92,    3.0283,    3.1550,    2.3044,    0.9083,    0.2554,  999.0000,    2.6517,  999.0000,    5.2001,    5.4244,    5.4365,    5.4723,    5.9639,    5.0611,    4.4286,    2.8997,    3.0921,    3.6138,    3.9485,    4.4681,    4.6116,    5.0513,    3.9497,    3.0645,    3.7519,    3.6974,    3.6531,    4.1510,    4.9681,    5.2488,    4.4414,    2.8060,   -1.1128,   -2.4782,   -2.3184,   -1.4303,   -2.4217,   -2.7085,   -1.3903,    0.0677,    0.5467,    1.8053,    1.6968,    0.5951,    0.3494,   -0.3537,   -1.5552,   -2.0236,   -2.7136,   -2.7050,   -1.9866,   -1.1128,   -1.1806,   -1.8979,   -4.0583,   -6.0656,   -5.6654,   -5.1907,   -4.8376,   -4.1094,   -4.0155,   -5.0392,   -4.5101,   -4.8290,   -5.2143,
 30-OCT-1996 11:37:07.46,    3.0726,    3.6930,    3.2292,  999.0000,    0.9920,    0.9923,  999.0000,    4.7930,    5.3028,    5.4058,    5.4234,    5.4528,    6.0237,    5.0284,    3.8735,    2.9295,    3.4680,    3.8330,    3.9978,    4.3239,    4.6478,    5.6924,    4.4436,    3.2980,    4.5060,    4.0223,    3.6033,    3.3772,    4.3801,    4.8176,    4.3569,    2.5714,   -0.9226,   -2.3671,   -1.7404,   -2.0129,   -2.5525,   -2.5397,   -1.1861,    0.3599,    1.3945,    2.5426,    2.3187,    0.8933,    0.9183,    0.0404,   -1.6900,   -1.8938,   -2.5985,   -2.5676,   -1.7327,   -0.9124,   -1.0072,   -1.7441,  999.0000,  999.0000,   -5.6434,   -5.3275,   -4.7501,   -3.7043,   -3.9099,   -5.0546,   -4.6481,   -4.8853,   -5.2941,
 30-OCT-1996 11:39:46.84,    2.8010,    3.0889,    3.2866,    2.6585,    2.0862,  999.0000,    3.9547,    4.7023,    5.1604,  999.0000,    5.4517,    5.4904,    5.7590,    4.8155,    4.1344,    2.6893,    3.1649,    3.8980,  999.0000,  999.0000,    4.9380,    6.1541,  999.0000,    3.9215,    4.9637,    4.0998,    3.8378,    4.5191,    4.0276,    4.5225,    3.9478,    2.4414,   -0.9527,   -2.4981,   -2.1197,   -1.8864,   -2.4697,   -2.5738,   -1.5349,   -0.5564,    0.4051,    2.0165,    1.7403,    0.6223,    0.4884,    1.2148,   -2.0444,   -2.5315,   -2.8894,   -2.7403,   -2.0603,   -1.1341,   -1.3201,   -2.5378,   -4.8350,   -6.8641,   -6.0853,   -5.3993,   -4.8451,   -3.6651,   -3.4288,   -4.9033,   -4.7019,   -5.1049,   -5.4219,
 30-OCT-1996 11:42:24.18,    2.0854,    2.5155,    2.8132,    2.6683,  999.0000,    1.7413,  999.0000,    3.6517,    4.9868,    5.3969,    5.4327,    5.4304,    5.2938,    4.7125,    3.9568,    2.8004,    3.1060,    3.9733,    4.7888,    4.1369,    4.0790,    5.2829,    4.9463,    4.1186,    5.0302,    4.3603,    3.9087,    3.7173,    4.5481,    4.1504,    3.4593,    2.0702,   -1.0761,   -2.6608,   -2.1495,   -1.3517,   -2.2471,   -2.2005,   -1.2748,   -0.7408,    0.2353,    1.5369,    1.4213,    0.3136,    0.9151,    0.5349,  999.0000,   -2.7528,   -3.0292,   -3.1160,   -2.0438,   -1.1213,   -1.4079,   -2.2214,   -4.5749,   -6.9153,   -5.9330,   -5.1620,   -4.2568,   -2.6015,   -2.8528,   -4.1397,   -4.6705,   -5.1493,   -5.0623,
 30-OCT-1996 11:45:01.91,    2.3249,    2.5665,    3.1620,    3.2455,  999.0000,    2.4623,    3.2397,  999.0000,    4.9255,    5.4116,    5.5187,    5.5702,    5.8313,    5.5155,    4.2860,    3.0057,    3.3808,    4.3803,    5.4698,    4.8282,    4.5338,  999.0000,    5.4292,    5.0144,    5.3402,    4.4626,    4.1661,    4.0295,    4.3062,    4.8740,    3.4676,    1.3765,   -1.2949,   -2.4277,   -2.1247,   -1.5735,   -2.2758,   -2.3186,   -1.2404,   -0.4254,    0.5312,    1.6618,    1.2332,   -0.0088,    0.7938,    0.3183,   -1.9802,   -2.7684,   -2.7343,   -2.7550,   -1.9790,   -1.2420,   -1.4981,   -2.5168,   -5.5908,   -6.9740,   -5.9009,   -4.7215,  999.0000,   -2.4556,   -2.6546,   -3.4181,   -3.6048,   -4.2829,   -4.2067,
 30-OCT-1996 11:47:39.01,    2.1546,  999.0000,    3.2849,    2.5878,  999.0000,    1.0429,  999.0000,    4.4844,    5.1347,    5.4427,    5.5911,    5.6916,    5.9079,    5.1255,    3.9685,    2.8623,    3.1117,    3.8484,    4.9601,    4.9769,    5.1394,    5.5283,    5.4796,    4.1485,    5.6403,    4.6225,    3.8049,    3.6204,    3.8567,    4.8844,    3.0959,    1.0176,   -1.3570,   -2.2122,   -1.8397,   -1.8797,   -2.3603,   -2.2584,   -1.5918,   -0.4509,    0.7733,    1.9246,    1.3868,    0.0395,    0.8106,    0.0951,   -2.1711,   -2.9377,   -2.9403,   -2.8531,   -2.3896,   -1.3720,   -1.6822,   -3.0904,   -5.2922,   -6.8678,   -6.0977,   -4.6902,   -3.4820,   -2.3859,   -2.2692,   -2.8504,   -3.1562,   -3.8923,   -3.9367,
 30-OCT-1996 11:50:18.49,    2.6322,    3.2438,    4.1719,  999.0000,  999.0000,    1.9387,  999.0000,    4.9002,    5.4272,    5.5140,    5.4693,    5.4952,    5.9533,    4.7930,    3.5143,    2.7815,    3.0584,    3.6580,    4.6630,    4.8840,    5.2592,    5.5136,  999.0000,    5.1191,    5.3393,    4.7109,    3.9006,    3.4438,    4.3531,    4.8231,    3.1558,    1.1442,   -1.2037,   -2.1074,   -1.5941,   -2.7080,   -2.0282,   -2.0755,   -1.4499,   -0.3119,    0.7702,    1.5525,    1.3209,    0.2156,    0.8556,   -0.0272,   -2.2446,   -2.9841,   -3.0024,   -2.6611,   -2.3174,   -2.2159,   -1.5382,  999.0000,  999.0000,   -6.4186,   -5.3464,  999.0000,  999.0000,  999.0000,   -2.8770,   -2.7429,   -3.5707,   -4.4090,   -4.0068,
 30-OCT-1996 11:52:57.63,    2.2833,  999.0000,    3.4986,  999.0000,    0.7760,    0.2430,  999.0000,    4.8044,    5.4137,    5.4424,    5.4303,    5.4455,    5.6438,    4.9049,    3.9408,    2.8848,    3.1614,    3.5232,    4.3621,    5.1157,    5.4326,    5.6280,    5.3147,    4.9636,    5.3377,    5.4553,    4.4299,    3.5691,    4.4245,    4.9121,    3.2982,    1.3668,   -1.0090,   -2.0689,   -2.0761,   -1.5278,   -1.8474,   -1.9875,   -1.3874,   -0.6368,    0.3209,    1.3202,    0.5039,   -0.0199,    0.4981,   -0.0538,   -2.1937,   -3.2453,   -3.0998,   -2.8644,   -2.4675,   -1.5448,   -1.9044,   -2.9551,   -4.7982,   -6.0938,   -4.1924,   -2.8000,   -2.8560,   -2.0535,   -2.3742,  999.0000,   -3.7065,   -4.3022,   -3.9340,
 30-OCT-1996 11:55:36.87,    2.7680,    2.4747,    3.3144,  999.0000,    1.0514,    0.6010,  999.0000,    4.7185,    4.9710,    5.3413,    5.3767,    5.3588,    5.2721,    4.7770,    4.3433,    3.1092,    2.9816,    3.4131,    3.9690,    4.7949,    4.7472,    5.0473,    4.9457,    5.4039,    5.7247,    5.7657,    4.0958,    4.0575,    4.0174,    4.5780,    3.2626,    1.7547,   -1.1976,   -2.1822,   -1.5219,   -1.4208,   -2.1169,   -1.7523,   -1.1110,   -0.4698,    0.5678,    1.4317,    0.6887,    0.1813,    0.7052,    0.1481,   -1.8017,   -2.5130,   -2.6507,   -2.5162,   -2.1932,   -1.2083,   -1.5797,   -3.8035,   -4.4710,   -5.5294,   -3.6151,   -2.5127,   -2.1173,   -1.3124,   -1.2700,   -1.6514,   -3.0112,   -3.6534,   -3.2156,
 30-OCT-1996 11:58:14.44,    2.8777,    2.5619,  999.0000,    0.9548,    1.1661,    1.3842,  999.0000,  999.0000,  999.0000,    5.2061,    5.3434,    5.3745,    5.4711,  999.0000,  999.0000,    2.9771,    3.0108,    3.9673,    4.5974,    4.9867,  999.0000,    5.3212,    5.1806,    5.0569,    5.8489,    5.8811,    4.0544,    3.6602,    3.7401,    4.2793,    2.8900,    1.1546,   -1.2972,   -2.0627,   -1.1635,   -1.8734,   -2.3242,   -1.8717,   -1.3256,    0.2097,    1.3840,    1.6309,  999.0000,   -0.1772,    0.7334,    0.5153,   -1.6290,   -2.8355,   -3.0385,   -2.7792,   -2.2821,   -1.0749,   -1.4863,   -3.2549,   -5.6657,   -5.5042,   -3.1807,   -2.4510,  999.0000,   -1.5222,   -1.6993,  999.0000,   -3.1259,   -3.6705,   -3.5585,
 30-OCT-1996 12:00:53.77,  999.0000,    3.1452,    2.5316,    2.3766,    2.1921,    2.3286,    3.0471,  999.0000,    3.5027,  999.0000,    5.2637,    5.4724,    5.5922,  999.0000,    2.9969,    3.2549,    3.0681,    4.1889,    4.9095,  999.0000,    5.4295,    5.5937,    5.3036,    4.4395,    6.4863,    6.5748,    4.6115,    3.8542,    4.0262,    4.0788,    3.0605,    1.2400,   -1.1447,   -1.6858,   -1.0581,   -1.5894,   -1.7534,   -1.5077,   -0.5197,    0.4119,    2.0236,    2.2882,    1.0852,    0.4471,    1.3939,    0.9563,   -1.2103,   -2.2204,   -2.0920,   -1.9707,   -1.5276,   -1.0746,   -1.8128,   -3.6751,   -6.0038,   -5.6252,   -3.1758,   -2.3072,  999.0000,   -2.3027,   -1.7550,   -1.6814,   -2.8938,   -3.7828,   -4.1637,
 30-OCT-1996 12:03:31.80,    1.6231,  999.0000,    2.1367,    1.8613,  999.0000,    0.7641,  999.0000,    4.9011,    5.4248,    5.3787,    5.4175,  999.0000,    5.1114,    3.9414,  999.0000,    2.9688,  999.0000,    4.4387,    4.9367,  999.0000,    5.0558,  999.0000,    5.5601,    4.6968,    6.4223,    6.7185,    5.4798,    4.6016,    3.3693,    4.3930,    3.1433,    1.7147,   -1.7258,   -1.9143,   -0.8997,   -1.6103,   -2.1048,   -1.7088,   -0.5647,    0.4375,    2.3300,    2.1867,    0.3659,    0.4966,    1.7104,    0.9392,   -1.2875,   -2.0801,   -1.8449,   -2.1002,   -1.6006,   -0.9660,   -1.3182,   -3.0756,   -5.6452,  999.0000,  999.0000,  999.0000,  999.0000,  999.0000,   -1.5063,  999.0000,   -3.4030,   -4.2168,   -4.5357,
 30-OCT-1996 12:06:11.48,    2.7745,    2.7859,  999.0000,    1.8150,    0.5186,    1.0492,  999.0000,    4.9346,  999.0000,    5.3573,    5.4499,    5.4909,    5.3633,  999.0000,    2.7545,    2.7695,    3.2000,    4.2563,    5.2986,    5.8659,    5.4696,    5.1691,    5.7039,    5.1565,    6.3956,    6.7433,    5.9263,    4.7166,    3.3574,    4.1102,    2.8458,    1.6407,   -1.8615,   -2.2423,   -1.3555,   -1.8546,   -2.3240,   -1.5902,   -0.4229,    0.8128,    2.3090,    1.4486,    0.4505,    0.7501,    2.1172,    1.2728,   -1.1436,   -1.5178,   -1.4425,   -1.7319,   -1.2451,   -0.9855,   -1.9099,   -3.5489,   -5.4543,  999.0000,  999.0000,   -2.2127,   -1.1673,   -0.9348,   -1.2837,   -1.8773,   -3.2822,   -4.4393,   -4.5393,
 30-OCT-1996 12:08:48.64,    1.9831,    2.5647,    3.7853,  999.0000,    0.8614,    0.3331,  999.0000,    4.7633,    5.3937,    5.1270,    5.3962,    5.4833,    5.3862,  999.0000,  999.0000,  999.0000,    3.0053,    4.0154,    5.3419,    5.9354,    5.8425,    5.7296,    5.2954,    4.8011,    5.9780,    6.6526,    5.9850,    5.4371,    3.7455,    4.3062,    2.6853,    1.4625,   -1.0914,   -2.0289,   -1.4170,   -1.6113,   -2.0872,   -1.3519,   -0.3909,    1.1532,    2.9800,    2.1824,    0.7193,    1.1364,    2.3341,    1.1447,   -1.2999,   -1.6831,   -1.4577,   -1.7070,   -1.1303,   -0.6970,   -1.8154,   -3.8917,   -5.7529,   -4.8980,   -2.7594,   -1.7152,   -1.1390,   -0.6403,   -0.9802,  999.0000,  999.0000,   -3.9592,   -4.3637,
 30-OCT-1996 12:11:27.64,    2.0833,    2.4356,    3.2361,    3.4942,  999.0000,  999.0000,    5.2438,  999.0000,  999.0000,    5.3490,    5.4149,    5.4389,  999.0000,  999.0000,  999.0000,  999.0000,    2.9676,    3.8268,    5.1596,    5.4053,    5.7145,    6.0235,    6.1150,    4.7261,    5.7790,    6.5389,    5.9943,    5.3236,    3.9565,    4.6321,    2.7108,    1.3491,   -1.0700,   -1.5741,   -1.1866,   -1.7008,   -1.8693,   -0.8956,    0.4520,    1.9517,    2.9202,    2.2854,    0.9110,    1.5043,    2.2676,    1.2653,   -0.6072,   -1.6846,   -1.4349,   -1.1778,   -0.3819,   -0.2399,   -1.4224,   -3.9137,   -5.8123,   -5.4096,  999.0000,  999.0000,  999.0000,   -0.5909,   -1.1859,  999.0000,   -2.9754,   -3.6960,   -4.1705,
 30-OCT-1996 12:14:07.10,    2.6777,    3.6315,    3.4169,    3.9726,  999.0000,  999.0000,    4.8817,  999.0000,    5.4127,    5.3762,    5.4014,    5.4266,  999.0000,    1.0870,    1.2405,  999.0000,    2.5942,    3.8329,    5.2048,    5.7099,    5.7961,    5.6611,    6.2021,    5.1983,    5.6981,    6.1965,    5.9453,    5.3801,    4.0749,    4.5374,    2.6352,    3.3241,   -0.8047,   15.5293,   -1.7055,  -26.5600,   -2.3071,   -1.4353,   -1.2275,  999.0000,    3.3987,   -3.4798,  999.0000,   -0.0222,   -2.1512,  999.0000,  999.0000,  999.0000,  999.0000,  999.0000,   -0.6291,   -1.1722,   -1.5587,   -3.4061,  999.0000,  999.0000,  999.0000,  999.0000,  999.0000,   21.2186,  999.0000,  999.0000,    1.0961,  999.0000,  999.0000,
 30-OCT-1996 12:16:46.38,    1.3924,  999.0000,    3.2792,  999.0000,    2.7874,    2.7899,  999.0000,    5.1247,    5.3428,    5.2975,    5.3525,    5.4134,    5.4443,  999.0000,    1.6063,  999.0000,  999.0000,    4.1254,    4.7308,    5.1527,    5.8931,    5.0360,    5.8309,    5.2481,    5.4036,    5.5144,    5.9015,    5.0219,    4.0565,    4.0678,    2.0038,    1.5098,   -1.9028,    4.4700,   -1.0670,  -10.8996,   -2.0150,   -0.9783,   -0.1795,    1.5939,    3.0788,    0.9847,  999.0000,    0.8056,    0.8688,    0.9405,   -1.0507,   -1.7488,   -1.2775,   -0.9790,   -0.3143,   -0.2468,   -1.5120,   -3.6655,   -5.2782,   -3.7884,   -1.7004,   -1.1178,   -0.6288,    7.4613,   -1.0826,  999.0000,  999.0000,   -3.8448,   -4.4542,
 30-OCT-1996 12:19:24.98,    2.7754,    3.3560,    3.8093,    4.2191,  999.0000,  999.0000,    3.1270,  999.0000,    5.2085,    5.2590,    5.3968,  999.0000,    5.3949,  999.0000,  999.0000,  999.0000,  999.0000,    4.0787,    5.4750,    5.8706,    6.0892,    5.8880,    6.0876,    5.6285,    5.4443,    5.9577,    5.7239,    4.1215,    4.2038,    3.6337,    1.6163,    0.3127,   -2.0450,   -1.7160,   -1.6582,   -2.0960,   -1.9314,   -0.8900,    0.8913,    2.3904,    2.8690,    2.4923,    0.8800,    1.7330,    2.9245,    1.5543,   -0.5583,   -1.4958,   -0.5614,   -1.4010,   -0.6133,   -0.4517,   -1.1054,   -2.9722,   -4.9742,   -3.9638,   -1.5788,   -0.5885,   -0.5861,   -0.8168,   -1.1673,   -1.5854,   -2.1807,   -3.7048,   -4.4610,
 30-OCT-1996 12:22:02.42,    2.6406,    2.2772,    2.1086,    2.5084,    2.6580,  999.0000,  999.0000,    5.2004,    5.3321,    5.3591,    5.4366,    5.4549,    5.4410,    4.4086,  999.0000,    2.8161,  999.0000,  999.0000,    5.8730,    6.3921,    6.1202,    5.5600,    6.0297,    5.5481,    5.9161,    6.5044,    6.1161,    4.1724,    4.5447,    3.6936,    2.3726,    1.2547,  999.0000,   -1.6478,   -1.8007,   -2.3420,   -1.9297,   -0.8556,    1.0142,    2.3208,    2.6113,    1.7841,    1.0709,    1.8498,    2.7321,    1.6403,   -0.4456,   -1.3416,   -0.9084,   -1.0917,   -0.9137,   -0.7896,   -1.3654,   -3.4525,   -3.3272,  999.0000,   -1.5477,   -1.3495,   -1.6904,   -1.5571,   -1.4716,   -2.7741,   -3.7141,   -4.1431,   -4.9531,
 30-OCT-1996 12:24:41.78,    2.0229,    1.9410,    2.3997,    2.7083,    2.4397,  999.0000,    4.8315,    5.2429,    5.2564,    5.1613,    5.3467,    5.4005,    5.2976,  999.0000,  999.0000,  999.0000,  999.0000,    4.8153,    5.8184,    6.3789,    5.5546,    5.0361,    5.9308,    5.4873,    5.7799,    6.2741,    6.0622,    4.0496,    4.8375,    3.8571,    2.6029,    1.3700,   -0.9312,   -1.1816,   -1.1364,   -1.7300,   -1.6895,   -0.5052,    0.8666,    1.8866,    2.4602,    2.2401,    1.1018,    1.7906,    2.6911,    1.5090,  999.0000,   -1.7101,   -1.3393,   -1.3268,   -1.0812,   -0.9137,   -1.7443,   -3.5744,   -4.9726,  999.0000,  999.0000,   -1.2448,   -1.0567,   -1.2950,   -1.9682,  999.0000,  999.0000,   -3.6985,   -5.0801,
 30-OCT-1996 12:27:21.08,    2.4711,  999.0000,    3.1703,    3.2517,  999.0000,    3.5296,    4.9024,    5.3187,    5.3761,  999.0000,  999.0000,  999.0000,    5.4432,  999.0000,  999.0000,  999.0000,  999.0000,  999.0000,    4.9405,  999.0000,    6.3831,  999.0000,    5.5449,    6.1160,    5.2740,    5.8613,    6.2192,    3.8146,    4.7530,    3.6891,    1.7519,    0.7651,   -1.3898,   -1.5050,   -1.5996,   -1.9187,   -2.0731,   -1.3201,    0.6172,    1.7000,    2.2471,  999.0000,    0.4570,    1.7427,    3.1094,    1.5080,   -0.5341,   -1.8188,   -1.6056,   -1.7040,   -1.0931,   -0.7886,   -2.1941,   -3.7633,   -4.7733,   -4.2190,   -2.0715,   -1.3809,   -1.3526,   -1.4673,   -1.7629,   -3.0889,   -3.5706,   -3.4953,   -4.1974,
 30-OCT-1996 12:29:58.61,    3.6424,  999.0000,  999.0000,    3.0388,    2.6617,  999.0000,    4.6656,    5.0801,    5.2556,    5.0040,    5.3456,    5.4466,    5.4472,  999.0000,  999.0000,    1.7659,  999.0000,    3.4816,    5.2273,    5.6394,    5.5916,  999.0000,    5.5566,    5.9492,    5.3773,    5.5957,    5.9000,    3.5279,    4.2968,    3.3312,    1.3568,    0.0409,   -1.4779,   -1.7653,   -1.9933,   -2.7028,   -2.8287,   -2.0011,   -0.3733,    0.8039,  999.0000,    1.8435,    0.7191,    1.5536,    2.7658,    1.4839,  999.0000,   -1.1961,   -1.5674,   -1.6373,   -1.0784,   -0.7843,   -1.8996,   -3.9606,   -5.0987,   -4.4912,   -3.2583,   -2.2438,   -1.3585,   -1.5747,   -1.5772,   -2.2091,   -3.3377,   -3.7382,   -3.9795,
 30-OCT-1996 12:32:35.83,    4.6777,  999.0000,    2.9947,    2.6953,  999.0000,  999.0000,  999.0000,    5.2517,    5.3845,    4.9787,    5.3676,    5.4836,    5.5094,    5.5413,    5.2461,    3.4208,  999.0000,  999.0000,    5.1966,    5.5934,    5.9356,    6.5538,    6.2674,    6.2829,    5.8106,    6.0410,    5.8725,    3.7411,    4.6064,    3.0260,    1.2412,   -0.1849,   -1.6269,   -2.2322,   -1.9017,   -2.5619,   -2.9045,   -3.4217,  999.0000,  999.0000,  999.0000,  999.0000,  999.0000,    0.4006,  999.0000,  999.0000,  999.0000,  999.0000,  999.0000,   -3.0646,   -2.4456,   -1.5044,   -1.8665,  999.0000,  999.0000,  999.0000,  999.0000,  999.0000,  999.0000,   -1.7369,  999.0000,  999.0000,  999.0000,   -3.6207,   -4.3777,
 30-OCT-1996 12:35:13.41,    2.9312,    3.0802,    3.0082,    2.9574,  999.0000,  999.0000,    4.5205,    5.2191,    5.4159,    5.4208,    5.3832,    5.3869,  999.0000,    5.0817,  999.0000,  999.0000,    1.3546,    3.2397,    5.2545,  999.0000,    6.0849,    6.8417,    6.3708,    6.4601,    5.1973,    6.0733,    6.0351,    3.4453,    4.2157,    2.3741,    0.4577,   -0.6316,   -2.0383,   -1.8927,   -2.0475,   -2.8111,   -3.0506,   -2.0094,   -0.5923,    1.0262,    1.8421,    1.5694,    0.3791,    1.3722,    2.6106,    1.2273,   -0.5360,   -1.2769,   -1.1580,   -1.3687,   -1.0174,   -0.8064,   -1.8267,   -3.5212,   -4.4883,   -3.8470,   -3.0034,   -2.1560,   -1.8313,   -1.8696,  999.0000,  999.0000,   -3.2354,   -3.6988,   -5.0124,
 30-OCT-1996 12:37:50.56,    2.8093,    3.2780,    3.4282,    3.3382,    3.1784,    3.4007,    4.9032,    5.0726,  999.0000,  999.0000,    5.2406,    5.2854,    5.3552,    4.9192,  999.0000,  999.0000,  999.0000,    3.8421,    4.7077,  999.0000,    6.1548,    6.0901,    6.2472,    6.5443,    6.0058,    6.8368,    6.8989,    4.4533,    4.5922,    3.4921,    0.5701,   -0.9948,   -1.8794,   -1.5511,   -1.9693,   -2.6380,   -2.6234,   -2.4063,   -0.6538,    1.4851,    1.9869,    1.5070,    0.1547,    1.1895,    2.0922,    0.9545,   -0.6514,   -1.5734,   -1.2630,   -2.0303,   -1.8258,   -1.1453,   -2.3050,   -3.9162,   -4.8636,   -3.9194,   -2.1870,  999.0000,  999.0000,   -2.8250,   -4.1586,   -3.8520,   -3.4284,   -3.6440,   -5.0450,
 30-OCT-1996 12:40:30.17,    2.4099,    2.4521,    2.6222,    2.6985,  999.0000,  999.0000,    5.1497,  999.0000,    5.2462,    5.3951,  999.0000,  999.0000,    5.5165,    5.2697,  999.0000,  999.0000,  999.0000,    4.3766,    4.7264,    5.2612,    6.4272,    6.1212,    6.6338,    6.8160,    6.4012,    5.7197,    6.7342,    5.0733,    4.5291,    2.2361,  999.0000,   -1.2193,   -1.6170,   -1.3342,   -1.9428,   -2.7090,   -2.7379,   -2.6734,   -0.2515,    1.5768,    2.2509,    1.1785,    0.4789,    1.0463,    2.0426,    0.9969,   -0.0319,   -0.8727,   -0.9868,   -1.6422,   -1.5571,   -1.1874,   -2.6853,   -4.3344,   -5.3504,  999.0000,  999.0000,   -1.1118,   -1.4340,   -2.6027,  999.0000,   -3.5156,   -3.7678,   -4.1825,   -5.2557,
 30-OCT-1996 12:43:07.15,    2.2307,    2.3286,    2.5837,  999.0000,    2.6079,    2.0047,  999.0000,    4.5876,    5.1128,    5.3868,  999.0000,    5.4368,    5.4485,    4.9594,    4.9285,    2.6588,    2.4571,    3.4877,    5.7512,    6.2721,    6.0201,    5.9201,    6.2677,    7.1100,    6.3342,    6.1655,    6.5924,    4.8429,    4.2270,    1.7251,    0.2924,   -1.2986,   -1.3704,   -0.9252,   -2.0789,   -2.7342,   -3.1793,   -2.5697,   -0.0330,    1.3261,    1.8700,    0.9945,    0.7749,    2.3251,    2.7453,    1.4663,    0.1458,   -0.7744,   -0.9312,  999.0000,  999.0000,   -0.8965,   -2.2254,   -3.8050,   -4.7994,   -4.6926,  999.0000,  999.0000,  999.0000,   -2.8737,   -3.5622,   -3.5570,   -4.0373,   -4.6311,  999.0000,
 30-OCT-1996 12:45:44.18,    2.4378,  999.0000,    2.9443,    3.3096,  999.0000,    1.1303,  999.0000,    4.9143,    5.4743,    5.4573,  999.0000,  999.0000,    5.4400,    4.6145,  999.0000,  999.0000,  999.0000,    2.8274,  999.0000,    6.5932,    7.0051,    6.1545,    6.4481,    6.9456,    5.8414,    6.4778,    5.6898,    4.1166,    3.2201,    1.5160,   -0.3160,   -1.4128,   -1.6399,   -0.9990,   -1.8058,   -2.7532,   -3.0804,   -2.4269,    0.2449,    0.9568,    1.7365,    0.6871,    0.1941,    1.4080,    2.6004,    8.1813,  999.0000,  999.0000,  999.0000,   -1.7279,   -1.7357,   -1.1145,   -2.2276,   -3.7393,   -5.0245,  999.0000,  999.0000,  999.0000,  999.0000,  999.0000,   -3.3139,  999.0000,  999.0000,  999.0000,   -9.1424,
 30-OCT-1996 12:48:21.33,    2.9247,    3.2506,  999.0000,    4.4980,    3.8826,    2.7246,  999.0000,  999.0000,  999.0000,  999.0000,  999.0000,    5.3642,    5.4289,  999.0000,  999.0000,    2.4093,    2.9608,    3.6069,  999.0000,    6.4042,    6.7745,    6.7351,  999.0000,    5.8537,    5.4901,    6.4490,    5.0397,    4.2472,    3.9884,    1.2103,   -0.0742,   -1.5907,   -1.5507,   -0.9126,   -1.6777,   -2.3524,   -2.7911,   -2.1508,    0.0906,    1.2575,    1.7895,    0.5524,    0.3606,    2.1337,    2.6598,    3.3752,   -0.4313,   -0.0499,   -0.0557,   -1.0086,   -1.2188,   -1.0056,   -2.0153,   -3.6731,   -5.1184,   -4.6412,   -2.3080,   -1.0251,   -1.8407,   -2.9096,   -3.0339,   -3.7785,   -4.5339,   -5.3469,   -7.9902,
 30-OCT-1996 12:51:00.73,  999.0000,    3.7478,    4.4693,    4.5624,  999.0000,    2.3179,  999.0000,    5.0781,    5.3453,    5.2444,    5.4259,    5.4473,    5.4477,    5.3782,  999.0000,  999.0000,    3.2683,    4.1470,    5.5945,    5.9859,    6.1248,    6.5528,    6.8924,    5.8668,    5.3027,    6.1285,    5.0714,    4.5844,    2.9442,    0.7423,   -0.3679,  999.0000,  999.0000,   -0.9725,   -2.0555,   -3.0438,  999.0000,   -2.6106,  999.0000,  999.0000,  999.0000,  999.0000,  999.0000,    2.8082,    2.6451,    0.3551,  999.0000,  999.0000,  999.0000,  999.0000,   -2.1200,   -2.3148,  999.0000,  999.0000,  999.0000,  999.0000,  999.0000,  999.0000,  999.0000,   -1.3335,  999.0000,  999.0000,  999.0000,   -6.3640,   -6.6512,
 30-OCT-1996 12:53:37.75,    3.3450,    4.3044,    4.9427,    5.2768,  999.0000,  999.0000,    5.2005,    5.4406,    5.4741,  999.0000,    5.4072,    5.4022,    5.4455,    5.4423,  999.0000,    3.4433,    3.3717,    4.2254,  999.0000,  999.0000,    6.0960,    6.0749,    6.4090,    5.8260,    4.8512,    4.7590,    3.7995,    3.5993,    2.3159,    0.5740,   -0.4160,   -1.1822,   -0.9535,   -0.6846,   -2.2184,   -3.0034,   -2.9721,   -2.3651,   -0.2537,    0.6430,    0.8769,   -0.0119,    0.1690,    1.9338,    2.0149,    0.2442,   -0.7128,   -0.8284,   -0.2747,   -1.3556,   -1.8512,   -1.9841,  999.0000,  999.0000,   -6.6102,   -6.3442,  999.0000,  999.0000,   -2.7895,   -4.6488,   -2.5192,   -3.0671,   -4.6900,   -5.8183,  999.0000,
 30-OCT-1996 12:56:16.87,  999.0000,    4.8436,    4.9946,    4.9237,    4.7682,  999.0000,  999.0000,    5.1886,    5.2072,    5.2951,    5.3295,    5.3027,  999.0000,  999.0000,    3.9114,    4.4332,    4.4720,  999.0000,    5.5401,    6.1831,    5.7278,    5.7455,    6.5138,    5.1179,    4.1002,    4.0828,    3.3661,    3.2371,    1.2594,    0.5470,   -0.7336,   -1.5118,   -0.8182,   -0.6929,   -2.0501,   -2.7838,   -3.0126,   -2.3366,   -0.6927,    0.2981,    0.8041,    0.1781,   -0.0066,    1.7876,    1.8381,    0.2542,  999.0000,  999.0000,   -1.9140,   -2.4012,   -3.7307,   -2.5249,   -3.8846,   -4.7990,   -5.7071,   -5.5154,   -4.1697,   -2.8982,   -3.4142,   -4.8200,  999.0000,   -3.4192,   -4.3066,   -5.4825,   -7.4971,
 30-OCT-1996 12:58:53.90,    3.3329,    4.4762,    4.3315,    3.9842,    3.3838,    2.9905,    4.8130,    5.4377,    5.4403,    5.4513,    5.4312,  999.0000,  999.0000,    5.3021,  999.0000,  999.0000,    3.2656,    3.4868,    5.2621,    6.1454,    6.0466,    6.2824,    7.1413,    5.2370,    4.2963,    4.4736,    3.8158,    3.9030,    2.4800,    0.3747,   -0.5896,   -1.5735,   -0.7576,   -0.5738,   -1.8325,   -2.8638,   -3.2860,   -2.5488,   -0.5691,    0.3855,    0.7458,   -0.0336,   -0.1883,    1.4869,    1.2158,   -0.3055,   -0.7611,   -1.1319,   -0.8005,   -1.8633,   -2.6090,   -2.9006,   -4.4527,   -5.6370,   -6.5374,   -6.3412,  999.0000,  999.0000,  999.0000,   -4.6346,  999.0000,   -4.4134,   -4.8148,   -6.2289,   -8.5914,
 30-OCT-1996 13:01:32.82,    4.4641,  999.0000,    5.2065,    5.1648,    3.6940,    3.2197,    4.9628,    5.3641,    5.4531,  999.0000,    5.4120,  999.0000,  999.0000,    5.4311,  999.0000,    3.4639,    4.9975,    4.1750,    5.6121,  999.0000,    6.4131,    6.6359,    6.8246,    4.5211,    4.0859,    4.1030,    4.0116,    4.0239,    1.4775,    0.0711,   -1.0870,   -1.5275,   -0.5905,   -0.6734,   -2.1217,   -3.4583,   -3.7678,   -2.9154,   -1.4380,    0.1506,    0.8730,   -0.0445,   -0.0528,    1.6634,    1.5263,    0.1933,   -0.3361,   -0.7090,   -0.4517,   -1.3980,   -2.2646,   -2.5631,  999.0000,  999.0000,   -5.7868,   -5.5513,   -2.7441,   -2.3780,   -3.9826,   -5.0508,  999.0000,  999.0000,   -5.8034,   -7.1356,   -9.2573,
 30-OCT-1996 13:04:09.77,  999.0000,    5.0453,    5.1880,    4.7712,    3.2407,    2.2513,  999.0000,    5.0903,    5.4375,  999.0000,  999.0000,    5.4215,    5.3902,    5.1945,  999.0000,    2.5733,    3.4837,  999.0000,    6.0403,    6.1543,    6.1391,    6.5584,    7.0087,    4.3069,    4.1123,    4.0972,    4.1383,    4.0760,    1.3930,    0.0246,   -1.3913,   -1.5777,   -0.6461,   -0.9209,   -2.4045,   -3.4573,   -3.6931,   -2.7917,   -1.0407,    0.3447,    1.8234,   -0.1135,   -0.0334,    1.6290,    1.7618,    0.6105,   -0.1966,   -0.3301,   -0.1672,   -1.2104,   -2.0208,   -2.2945,  999.0000,  999.0000,  999.0000,   -5.0537,   -3.1941,   -2.7910,   -3.6957,   -5.2604,  999.0000,  999.0000,   -6.2337,   -7.5189,   -9.6629,
 30-OCT-1996 13:06:46.90,  999.0000,  999.0000,    4.9028,    4.9089,    3.9819,    3.0739,  999.0000,    5.1775,    5.4613,    5.4472,    5.3191,  999.0000,    5.3427,    4.8657,  999.0000,    2.5448,  999.0000,    5.1051,  999.0000,    6.2752,    6.0866,    6.2734,    6.5875,    3.6326,    4.2546,  999.0000,    4.1237,    3.5715,    1.5001,   -0.5015,   -2.0199,   -1.7631,   -0.5320,   -1.1889,   -2.7099,   -3.7762,   -3.7999,   -3.1217,   -1.0946,   -0.0225,    0.0469,   -0.6313,   -0.4056,    1.2837,    1.0235,   -0.4199,   -0.8848,   -0.4508,   -0.6364,   -1.9179,   -2.2019,   -2.6069,   -4.0405,   -5.6779,   -6.8659,  999.0000,  999.0000,   -3.9391,   -4.4764,  999.0000,  999.0000,  999.0000,   -6.1623,   -7.5229,  999.0000,
 30-OCT-1996 13:09:26.21,    5.7710,  999.0000,  999.0000,  999.0000,  999.0000,    3.7157,  999.0000,    5.1312,    5.3616,    5.3895,    5.0444,    5.3952,    4.2944,    4.5976,  999.0000,  999.0000,  999.0000,    4.6376,  999.0000,    6.1642,    6.0845,    6.2836,    6.5115,    3.7274,    3.7262,    3.4494,    3.8336,    3.7367,    1.6340,   -0.6097,   -1.9862,   -1.9522,   -0.4573,   -1.4689,   -2.6558,   -3.6490,   -3.8106,   -2.8453,   -0.5933,   -0.0388,   -0.0396,   -0.3402,   -0.2207,    1.1130,    1.0026,  999.0000,   -1.0394,   -0.9831,   -0.7287,   -1.7187,   -2.5921,   -3.4385,   -4.2288,   -5.5509,   -6.4810,   -5.0024,   -4.0032,   -4.1760,   -4.9899,   -5.5035,   -4.3804,  999.0000,   -6.0472,   -7.7894,  -10.2729,
 30-OCT-1996 13:12:05.51,    4.3581,    4.7478,    5.1616,    5.0461,    2.8182,    2.2642,  999.0000,    4.7779,    5.2208,    5.3039,    4.3315,  999.0000,    1.8785,    3.2181,    1.2687,    1.0627,  999.0000,    5.8471,    6.1104,    6.5955,    6.3247,    6.6197,    6.4484,    4.2350,    3.8249,    3.5972,    3.6179,    3.0846,    1.8153,   -0.0980,   -1.8434,   -1.7092,   -0.4937,   -2.5841,   -2.8961,   -4.0016,   -3.8043,   -2.7111,   -1.5669,    0.0055,   -0.2043,   -0.3468,    0.7441,    0.7754,    0.4581,   -0.6821,   -1.5785,   -1.4179,   -0.9032,   -1.7396,   -3.0723,   -3.7230,   -4.0672,   -5.3025,   -6.0611,   -5.1397,   -3.8258,   -3.1705,   -4.1129,  999.0000,  999.0000,   -3.8930,   -4.6990,   -7.3580,  -10.1302,
 30-OCT-1996 13:14:42.62,    3.7128,    3.9823,    4.6897,  999.0000,    1.6021,  999.0000,  999.0000,    4.9242,    5.1158,    5.4200,    5.1862,    5.2587,  999.0000,    5.0164,  999.0000,  999.0000,  999.0000,  999.0000,  999.0000,    7.0548,    6.5609,    6.7492,    6.6759,    4.2550,    4.0089,    3.8161,    3.7671,    3.6868,    1.1659,   -0.7477,   -2.3409,   -1.9958,   -0.9526,   -1.6869,   -3.0373,   -4.1907,   -3.7332,   -2.2705,   -0.9754,   -0.0787,   -0.0958,   -0.3092,   -0.4276,    0.3996,    0.2876,   -0.6439,   -1.3571,   -1.3938,  999.0000,  999.0000,   -3.2098,   -3.4562,   -4.4179,   -5.6053,   -5.8941,   -5.2757,   -3.8745,   -3.7245,   -4.7190,   -6.0578,  999.0000,   -4.1959,   -4.2483,   -6.7179,   -9.5019,
 30-OCT-1996 13:17:19.58,    4.1419,  999.0000,    4.8314,    4.3598,  999.0000,    2.8405,  999.0000,    4.6332,    4.5585,  999.0000,    5.3145,  999.0000,    5.4137,  999.0000,  999.0000,  999.0000,  999.0000,    5.4706,    5.9489,    6.9464,    7.1142,    7.0891,    7.0337,    3.6653,    4.3514,    3.3470,    3.2989,    3.0487,    0.8128,   -0.8578,   -2.4662,   -1.9428,   -1.6295,   -2.0784,   -3.3502,   -4.2047,   -4.0600,   -2.9819,   -1.5600,   -0.4866,   -0.1629,   -0.7194,   -0.9990,    0.2766,    0.1156,   -1.0152,   -1.7055,   -2.0433,   -1.9311,   -2.7275,   -4.0446,   -4.1805,   -5.1557,   -6.3169,   -6.6607,   -5.7476,   -4.2644,   -4.2926,   -4.8996,   -5.6181,   -5.0775,   -4.7151,   -5.2378,   -7.5934,  -10.0246,
 30-OCT-1996 13:19:57.03,    5.2295,  999.0000,    5.0038,    4.8740,  999.0000,    2.8836,    2.7388,  999.0000,    5.1760,    4.5395,    5.3893,    5.4063,    5.3437,    5.1576,  999.0000,    0.9307,  999.0000,  999.0000,  999.0000,    7.3030,  999.0000,    6.9427,    6.9589,  999.0000,    3.8334,    3.3374,    3.7422,    3.1936,    0.6129,   -1.1411,   -2.2450,  999.0000,   -1.0536,   -1.5818,   -3.0145,   -4.1551,   -4.0958,   -3.5433,   -1.8772,   -0.7897,   -0.2412,   -0.9735,   -1.2599,   -0.1017,   -0.4143,   -0.9856,   -1.7422,   -1.9914,  999.0000,  999.0000,   -4.3495,   -4.8487,   -5.9654,   -7.2627,   -6.7733,   -5.1388,   -4.5574,   -5.3191,   -5.6519,   -5.2533,   -4.4687,   -4.7938,   -5.8985,   -8.2434,  -10.2259,
 30-OCT-1996 13:22:35.95,    4.4905,    4.5242,    5.0454,    5.2200,    3.7440,    3.1987,    3.4933,  999.0000,  999.0000,    3.0185,  999.0000,  999.0000,    5.2581,  999.0000,    0.6450,    0.8061,  999.0000,  999.0000,    6.2565,    7.1348,    7.1167,    7.5804,    7.4919,    3.0728,    3.9092,    3.9543,    3.6129,    3.0874,    0.6578,   -0.9535,   -2.1891,   -2.0279,   -0.6677,   -1.4907,   -2.8390,   -4.5706,   -4.5280,   -3.5830,   -2.0267,   -0.9474,   -0.7540,   -1.8451,   -1.3498,   -0.2568,   -0.6972,   -1.1790,   -1.5259,   -1.6619,   -1.7197,   -2.6362,   -4.1579,   -4.7840,   -5.8274,   -7.1369,   -6.2140,   -4.6313,   -4.6566,   -5.3807,   -5.5260,   -5.6305,   -4.5063,   -4.5680,   -5.7255,  999.0000,   -9.7164,
 30-OCT-1996 13:25:14.99,    4.7113,    4.3209,    4.5057,    4.3815,    2.9403,  999.0000,    4.7610,  999.0000,    5.3398,    4.7902,    5.1324,    5.2362,    5.2427,  999.0000,  999.0000,    1.8499,    2.9005,  999.0000,    5.5777,  999.0000,    7.3785,    7.3677,    7.2726,    3.6372,    3.6303,    3.8009,    4.1227,    2.7707,    0.6835,   -1.0226,   -1.9462,   -1.6921,   -0.2821,   -1.4741,   -3.1540,   -4.5399,   -4.4802,   -3.6421,   -2.0690,   -0.9538,   -0.7201,   -1.4546,   -1.3883,   -0.2694,   -0.5834,   -1.4294,   -1.7448,   -1.2879,   -1.7019,   -2.6853,   -3.6186,   -4.3436,   -5.2603,   -6.0815,   -5.8616,   -4.9651,   -4.5188,   -4.8768,   -4.9593,  999.0000,   -4.1343,   -4.4257,   -5.7777,   -7.9235,   -9.4399,
 30-OCT-1996 13:27:52.09,    4.3890,    4.0820,    4.0612,  999.0000,    2.3637,    2.0890,  999.0000,    4.6461,  999.0000,    4.7673,  999.0000,  999.0000,  999.0000,    3.2330,    1.7575,  999.0000,    2.6335,  999.0000,    6.0181,    6.9977,    7.7892,    7.7656,    7.7211,    2.8171,    3.3576,    3.6978,    4.2884,    3.2151,    1.3128,   -0.3757,   -1.4567,   -1.2017,    0.2555,   -1.4441,   -2.8287,   -4.0291,   -3.9028,   -3.4245,   -1.7414,   -0.4848,   -0.2941,   -1.1226,   -1.4462,   -0.1842,   -0.3521,   -1.1823,   -2.3722,   -2.4201,   -1.8080,   -2.8320,   -4.0195,   -4.9545,  999.0000,  999.0000,  999.0000,  999.0000,   -5.5562,   -6.3374,  999.0000,   31.5925,  999.0000,    1.5763,   -6.2653,   -8.0707,   -9.7428,
 30-OCT-1996 13:30:29.72,    4.9470,    4.0502,  999.0000,    2.6340,    2.1293,    2.0394,    2.7433,  999.0000,    4.6741,  999.0000,    4.2229,    4.4122,    4.2404,    4.5331,    2.7727,  999.0000,  999.0000,  999.0000,    5.4720,  999.0000,    8.0518,    8.0601,    8.0641,    3.2562,    3.9756,    4.5680,    4.3615,    3.8956,    1.5610,    0.1239,   -1.0718,   -1.1353,    0.4429,   -1.2952,   -3.0137,   -4.0573,   -4.1994,   -3.0900,   -1.3436,   -0.1959,    0.2762,   -0.1637,   -1.3292,   -0.0889,   -0.0678,   -0.4847,   -1.6455,   -2.1368,   -1.6668,   -2.4922,   -4.2424,   -5.3713,   -6.0119,   -6.9096,  999.0000,  999.0000,   -5.4150,   -6.8138,  999.0000,  999.0000,  999.0000,   -2.9456,  999.0000,   -9.6975,  -10.7521,
 30-OCT-1996 13:33:09.02,    4.0259,    3.4217,    2.8419,  999.0000,    2.5213,    2.3542,  999.0000,  999.0000,    3.5382,  999.0000,  999.0000,    5.1410,  999.0000,    5.1731,  999.0000,    5.6707,    4.9065,  999.0000,  999.0000,    7.1773,    7.6641,    8.0241,    8.1513,    4.2116,    4.5267,    4.2653,    4.5409,    3.6104,    1.4177,   -0.1081,   -1.3117,   -1.0259,    0.4340,   -1.6035,   -3.1127,   -4.2217,   -4.2265,   -2.8469,   -1.0612,    0.1365,    0.3042,   -0.6113,   -1.4179,   -0.0058,   -0.3585,   -1.4851,   -2.1431,   -2.2068,   -1.5929,   -2.7844,  999.0000,   -4.5951,   -6.4448,   -7.2587,   -6.6916,   -5.6793,   -5.8906,   -6.9702,  999.0000,  999.0000,  999.0000,   -5.7666,   -7.0527,  -10.0654,  -11.0328,
 30-OCT-1996 13:35:46.07,    2.7532,    2.8249,    2.7712,    2.9312,    2.9687,    2.6103,    2.9503,    2.9848,  999.0000,  999.0000,    4.3413,    4.9664,    5.0290,    4.9791,  999.0000,  999.0000,  999.0000,    6.8571,    6.1560,    8.0040,    8.1999,    8.2651,    8.3207,    1.7048,    4.8922,    3.8985,    4.6495,    3.3624,    1.4073,   -0.0495,   -0.9436,   -0.4957,   -0.0667,   -2.0610,   -3.7199,   -4.4895,   -4.3900,   -2.5353,   -0.8286,    0.5128,    0.9800,    0.2794,   -0.9358,    0.3052,   -0.3903,   -1.5528,   -2.1737,   -2.2853,   -1.9743,   -3.1635,   -5.3053,   -5.9606,   -6.4305,   -7.3611,   -7.2773,   -6.3555,   -6.2085,   -7.1898,   -5.7511,   -1.6888,  999.0000,   -6.0093,   -7.9400,  -10.4481,  -11.1427,
 30-OCT-1996 13:38:25.43,    5.0871,    3.9637,    4.0332,    3.5056,    3.1970,    2.4271,    2.9045,    3.4705,  999.0000,    4.4824,    5.2410,    5.4378,  999.0000,    5.4126,  999.0000,    3.9408,  999.0000,    5.0249,  999.0000,    7.7123,    8.1600,    8.2438,    8.0471,    2.9403,    4.5627,    4.1080,    4.5056,    2.7529,    0.8996,   -0.7882,   -1.1637,   -0.5161,   -0.5069,   -2.3062,   -4.1101,   -4.4950,   -4.2932,   -2.3686,  999.0000,    0.5083,    0.5807,    1.1134,   -1.0962,    0.0501,   -0.5347,   -1.4844,   -1.8313,   -1.5569,   -1.8750,   -3.1251,   -5.3540,   -5.8794,   -6.2369,   -7.2605,  999.0000,  999.0000,   -6.2636,   -6.4382,   -6.0857,   -5.7370,   -5.1305,   -5.7803,   -8.2965,  -11.2683,  -11.9137,
 30-OCT-1996 13:41:05.20,    5.2328,  999.0000,  999.0000,    3.8312,    3.2685,    3.4486,  999.0000,    6.0344,    6.1895,    5.4767,    5.5301,    5.4614,    5.4290,  999.0000,  999.0000,    1.5987,    2.4084,    2.8978,  999.0000,  999.0000,    7.8581,    7.3150,    5.9906,    3.5177,    3.8761,    3.9152,    3.9713,    2.0928,    0.0770,   -0.4017,   -1.5847,   -1.3508,   -1.0805,   -2.4399,   -4.1662,   -4.9952,   -4.5501,   -2.2255,   -0.4738,    0.7164,    0.8595,   -0.0553,   -1.0899,   -0.1477,   -1.0905,   -2.0527,   -2.0146,   -1.9732,   -1.9860,   -3.0576,   -5.3700,   -5.9927,   -6.3048,   -7.3519,   -6.2540,   -5.6515,   -6.3959,   -6.0975,   -6.0239,   32.1937,   -5.3121,   -5.8163,  999.0000,  -10.6768,  -11.7268,
 30-OCT-1996 13:43:44.90,  999.0000,    3.9622,    4.4735,    4.7749,  999.0000,  999.0000,  999.0000,    7.6194,    7.5113,  999.0000,    5.6491,  999.0000,    5.3493,    5.2778,  999.0000,    0.8032,    1.0150,  999.0000,    3.9436,  999.0000,    6.5173,    4.8010,    4.0513,    3.4587,    4.2049,    4.1715,    4.2462,    2.2953,    0.7649,   -1.1252,   -1.7469,   -1.6344,   -0.7556,   -2.8428,   -4.0972,   -4.6114,   -4.1622,   -2.4393,   -0.7770,    1.0914,    1.2969,   -0.4070,   -1.2509,   -0.4199,   -1.2357,   -2.2550,   -2.0490,   -1.6565,   -1.7694,   -3.1842,   -5.9368,   -6.8256,   -6.8921,   -7.0490,  999.0000,  999.0000,  999.0000,  999.0000,   31.1955,  999.0000,   31.3588,  999.0000,   -1.2547,  -11.0293,  999.0000,
 30-OCT-1996 13:46:24.04,    3.1494,    4.3781,    4.8917,    3.5676,    2.8768,  999.0000,    5.6693,    6.0727,    5.8006,  999.0000,  999.0000,    5.3999,    5.3798,    5.2639,  999.0000,    2.8190,    4.0642,  999.0000,  999.0000,    7.0261,  999.0000,    4.0642,    3.2148,    3.3577,    3.6984,    4.1974,    4.3140,    2.2235,    0.6097,   -1.3037,   -1.9841,   -1.6520,   -0.5597,   -2.6862,   -4.4204,   -4.7835,   -4.0175,   -2.3937,   -0.8177,    0.6511,    0.7976,   -0.3502,   -1.2722,   -0.5277,   -1.2224,   -2.3885,   -2.3952,   -1.8057,   -1.7045,   -3.4345,   -5.8504,   -6.3076,   -6.6879,   -7.0649,   -6.9438,   -6.4387,  999.0000,  999.0000,    7.4983,   -6.3857,    7.3147,   -5.8767,   -5.8003,  -11.3132,  -11.7170,
 30-OCT-1996 13:49:02.16,    3.1780,    4.9146,    5.3970,  999.0000,    2.7424,    3.8336,    4.7418,    6.0830,    5.6194,    5.4647,    5.5214,    5.4427,    5.2967,    4.6024,  999.0000,  999.0000,    6.2928,  999.0000,  999.0000,  999.0000,    4.4071,    3.3585,    3.0090,    2.8149,    2.7901,    3.9690,    3.6275,    1.4111,    0.1027,   -1.4653,   -1.5017,   -1.5463,   -0.6900,   -3.2382,   -4.2455,   -4.7707,   -4.1774,   -2.4734,   -1.4410,   -0.9683,    0.3997,   -0.2507,   -1.6175,   -0.8773,   -1.0047,   -2.1726,   -2.0349,   -1.7843,   -1.9504,   -3.4751,   -5.3521,  999.0000,  999.0000,   -7.0887,   -6.8938,   -5.8316,   -5.1798,   -5.3520,   -5.9867,   -5.7306,   -5.2243,   -6.1310,   -8.8352,  999.0000,  -12.1080,
 30-OCT-1996 13:51:41.57,    3.0574,  999.0000,    3.6012,    3.2736,    2.4070,    3.6088,  999.0000,    7.6622,    5.6039,    5.4822,  999.0000,  999.0000,  999.0000,  999.0000,  999.0000,  999.0000,    4.6031,  999.0000,  999.0000,  999.0000,    3.4604,    2.6401,    2.5498,    2.3692,    2.5473,    3.8796,    3.4354,    1.2528,   -0.9959,   -1.5173,   -2.4999,   -1.0564,   -1.0461,   -2.9543,   -4.6888,   -5.4066,   -4.8494,   -3.2109,   -1.5267,   -0.3365,    0.5560,   -0.7249,   -2.0594,   -2.3211,   -1.3813,   -2.7010,   -2.6452,   -2.4199,   -2.1135,   -3.7843,   -6.0174,   -6.3810,   -6.5545,   -6.7196,   -6.6795,   -6.8589,   -6.2532,   -6.0926,   -6.6087,   -6.3995,   -5.9028,   -6.6560,   -8.8568,  -11.1346,  -11.5509,
 30-OCT-1996 13:54:20.69,  999.0000,  999.0000,    3.5008,  999.0000,    1.8894,    2.2992,    3.2238,  999.0000,    4.7885,  999.0000,  999.0000,  999.0000,  999.0000,    3.5473,  999.0000,  999.0000,    5.1886,  999.0000,    3.3439,    3.0125,    2.8111,    1.6538,    1.3474,    2.2359,    2.6407,    3.9178,    3.2656,    1.0862,   -1.2451,   -1.5389,   -1.4842,   -0.9586,   -1.4680,   -3.1706,   -4.7118,   -5.4430,   -4.9686,   -3.4711,  999.0000,  999.0000,  999.0000,   -0.9306,   -1.8362,   -1.2644,   -1.5491,   -2.6910,   -2.2246,   -1.6061,   -1.4624,   -3.1868,   -5.9179,   -6.5226,   -6.5319,   -7.1852,   -7.2301,   -7.4682,  999.0000,  999.0000,   -6.2344,   -6.4099,   -5.9388,   -6.3829,   -8.4381,  -11.5744,  -11.6845,
 30-OCT-1996 13:57:00.38,    3.3992,    3.2676,    3.3459,  999.0000,    3.2245,  999.0000,    6.4681,  999.0000,    6.3363,    5.4974,  999.0000,  999.0000,    5.4621,    5.1508,  999.0000,  999.0000,  999.0000,  999.0000,  999.0000,    4.2530,    3.8918,  999.0000,    2.7704,    2.4839,    3.3749,    4.5055,    2.9325,    1.2030,   -0.8587,   -1.5671,   -0.8642,    0.1758,   -1.4296,   -2.8612,   -4.1389,   -4.9663,   -4.1607,   -2.9483,   -1.5015,    0.0785,   -0.3360,   -0.7471,   -1.3087,   -0.8869,   -1.1309,   -2.4358,  999.0000,  999.0000,   -1.3508,   -3.4536,   -5.5439,   -6.3716,   -6.7030,   -6.9349,   -7.2471,   -7.7214,   -6.8908,   -7.0233,   -7.0775,   -6.9507,   -6.3903,   -6.5949,   -8.7507,  -12.2454,  999.0000,
 30-OCT-1996 13:59:37.62,    3.2303,    3.5893,    2.8313,    3.2575,  999.0000,    4.6096,  999.0000,    7.5082,    7.3524,  999.0000,  999.0000,  999.0000,    5.0722,    5.1380,    3.2902,    3.8530,  999.0000,    6.2850,    5.7729,  999.0000,    3.6353,    3.0477,    2.9086,    2.6608,    3.8276,    4.9356,    3.0860,    1.2000,   -0.6021,   -1.2489,   -0.7629,   -0.4184,   -1.3733,   -2.6823,   -3.8831,   -4.9284,   -4.3805,   -2.9377,   -1.6641,   -0.1315,   -0.0427,   -0.8544,  999.0000,   -0.7385,   -1.1302,   -2.4450,   -1.6328,   -1.2173,   -1.7884,   -4.1857,   -6.1573,   -6.9201,   -7.2992,   -7.3949,   -7.4253,   -7.6348,   -7.6102,   -6.8121,   -6.5254,   -5.2690,   -5.3960,   -6.9766,   -9.3632,  -12.6156,  -13.9293,
 30-OCT-1996 14:02:14.93,    1.5267,  999.0000,    4.1794,    5.0759,    3.5404,    3.9443,    5.6463,  999.0000,    5.4879,    5.3992,    5.4418,    4.7547,  999.0000,    3.3494,  999.0000,    3.8083,  999.0000,  999.0000,    5.2707,    4.4908,    3.6215,    3.0492,    2.7780,    2.3037,    3.3380,    4.3903,    2.6417,    0.7532,   -1.3819,   -1.8243,   -1.0193,   -1.0418,   -1.6099,   -2.8649,   -3.9281,   -4.2918,   -4.5698,   -3.5948,  999.0000,  999.0000,  999.0000,   -0.5284,   -0.8810,   -0.6588,   -1.4138,  999.0000,   -1.8663,   -1.2867,   -2.2670,   -4.6709,   -6.4278,   -7.2727,   -7.3961,   -7.2299,   -7.2701,   -8.1349,  999.0000,  999.0000,   -6.6104,   -5.0971,   -5.5991,   -7.5121,   -8.2472,  999.0000,  -13.0341,
 30-OCT-1996 14:04:52.89,    3.7638,    4.5570,    4.6855,    4.8088,    4.0620,    3.5581,  999.0000,  999.0000,  999.0000,    5.3092,  999.0000,    3.4680,  999.0000,    0.5319,    2.7697,    4.1751,  999.0000,    8.0612,  999.0000,    4.8562,    3.3784,    2.7739,    1.6231,    1.5852,    3.1358,    3.7542,    2.3592,   -0.2470,   -1.5349,   -1.8595,   -1.2240,   -1.4449,   -1.7791,   -3.0482,   -4.2601,   -5.1204,   -4.4612,   -3.5335,   -1.8127,  999.0000,  999.0000,   -0.6852,   -1.6301,   -0.8267,   -1.4875,   -2.7743,   -2.3047,   -1.9005,   -2.8707,   -4.8994,   -7.0053,   -7.6146,   -7.6371,   -8.0792,   -7.7500,   -8.0874,   -7.4743,   -6.1967,   -6.9773,   -6.4079,   -6.1923,   -7.3804,   -9.2123,  -12.4255,  -13.5515,
 30-OCT-1996 14:07:30.16,    2.9306,    3.5715,    4.2891,    4.1520,    4.0063,    4.5488,    5.7944,    5.5591,    5.4919,    5.3689,    5.3498,  999.0000,    1.8184,    0.4722,  999.0000,  999.0000,    4.4605,    5.7916,    5.9046,  999.0000,    2.3933,    2.0489,    1.8092,    1.6324,    3.4629,    3.6586,    2.0308,   -0.2157,   -1.5994,   -1.8841,   -1.0415,   -0.7269,   -1.2751,   -2.9830,   -4.2156,   -5.0281,   -3.8272,   -3.1795,   -1.5593,    0.2700,    0.8186,   -0.5400,   -1.7790,   -1.1228,   -1.5078,   -2.6700,   -2.2090,   -1.6570,   -2.4915,   -4.4318,   -6.5601,   -7.0563,   -7.1008,   -7.5939,   -7.2989,   -7.4544,   -7.3814,  999.0000,  999.0000,   -5.9177,   -5.9377,   -7.0976,   -9.7921,  -12.4206,  -13.9168,
 30-OCT-1996 14:10:07.44,  999.0000,    3.5413,    4.3684,  999.0000,    3.8935,  999.0000,    6.2346,  999.0000,    5.5235,    5.1449,    4.7456,    4.7894,    4.6799,  999.0000,    3.0264,    3.2232,  999.0000,  999.0000,    6.0204,  999.0000,  999.0000,    2.3148,    1.9813,    1.6912,    3.5667,    3.8390,    1.8225,   -0.6242,   -1.4988,   -1.8773,   -0.8340,   -0.5625,   -1.1924,   -2.8163,   -4.1076,   -5.2914,   -3.5868,   -2.6766,   -0.9930,    0.2622,    0.7263,   -0.2790,   -1.0872,   -0.9104,   -1.1542,  999.0000,   -1.4594,   -1.1297,   -2.1841,   -4.5487,   -6.7785,   -7.0239,   -7.0955,   -7.8982,   -7.3847,   -7.5733,  999.0000,  999.0000,  999.0000,   -4.9449,   -5.5341,   -7.1690,   -8.3816,  999.0000,  -13.1906,
 30-OCT-1996 14:12:45.00,    2.4203,  999.0000,    4.3062,  999.0000,    3.6491,    4.2193,  999.0000,  999.0000,    6.0747,  999.0000,    3.4229,  999.0000,    2.0279,    2.1573,    1.6288,  999.0000,    5.2718,  999.0000,    5.9907,  999.0000,    2.2174,    2.2670,  999.0000,    1.7019,    2.8883,    3.4545,    2.5019,   -0.6425,   -1.6545,   -2.0706,   -0.6098,  999.0000,   -1.9221,   -3.4233,   -4.8491,   -4.9950,   -3.5902,   -2.5939,  999.0000,    0.3319,    0.4473,   -0.7304,   -1.1552,   -1.1195,   -1.5387,   -2.5992,   -1.5593,   -1.5201,   -2.5751,   -4.7835,   -6.9635,   -7.2224,   -7.1317,   -7.9310,  999.0000,  999.0000,  999.0000,  999.0000,  999.0000,  999.0000,  999.0000,  999.0000,  999.0000,  999.0000,  999.0000,
 30-OCT-1996 14:15:22.09,    2.7622,    3.6570,    4.3057,    4.1262,    4.1777,    5.3159,    6.6519,  999.0000,    7.2758,  999.0000,  999.0000,    1.7168,    1.0931,    1.2448,    1.9350,    2.5339,    2.3733,    3.8015,    5.7446,    4.0983,    2.5379,    2.2347,    2.2342,    1.8422,    2.5171,    2.9850,    1.5262,   -0.0824,   -1.8029,   -2.5448,   -0.9898,   -1.2151,   -1.9915,   -3.5800,   -4.6974,   -4.4517,   -3.0201,   -2.1043,    0.0148,    0.4841,    0.6509,   -0.4220,   -0.8768,   -0.7514,   -1.5134,   -2.5658,   -1.6277,   -1.4392,  999.0000,  999.0000,   -6.8643,   -7.2414,   -6.9134,   -7.2832,   -7.3446,   -7.2534,  999.0000,  999.0000,  999.0000,   -4.8717,   -5.2575,  999.0000,  999.0000,  -12.9219,  -13.7078,
 30-OCT-1996 14:18:01.17,    2.1313,    3.5689,    4.0893,    3.6022,    4.0492,  999.0000,  999.0000,  999.0000,    5.4409,    4.9380,    3.1141,    3.2860,    3.3325,    3.5301,    3.1132,    3.8806,  999.0000,    2.5558,  999.0000,    3.5814,    2.5855,    2.2528,    2.4919,    1.8082,    2.2540,    2.5477,    1.0193,   -0.3078,   -1.2736,   -1.9564,   -1.3186,   -1.9757,   -1.9642,   -3.7128,   -4.7000,   -4.5064,   -2.7104,   -1.5178,    0.0387,    0.4116,    0.6139,   -0.7639,   -0.7788,   -0.7349,   -1.6687,   -2.5716,   -1.7701,   -1.5439,   -3.0357,   -5.4207,   -7.1740,   -7.6349,   -7.5717,   -7.0386,   -7.3875,   -8.0746,  999.0000,  999.0000,  999.0000,   -3.7088,   -5.0556,   -7.5773,   -7.9827,  999.0000,  -13.3043,
 30-OCT-1996 14:20:38.33,  999.0000,    3.2544,    3.4105,    3.3042,  999.0000,    5.5404,  999.0000,    5.8257,    5.6373,    5.1969,  999.0000,    2.9227,    2.8620,    2.4705,    2.4134,    3.1612,    2.0962,    1.9140,  999.0000,    3.3026,    2.2843,    1.9395,    2.8137,    1.9263,    2.2207,    2.3574,    0.3946,   -1.4008,   -1.9235,   -2.5563,   -1.5459,   -2.0559,   -2.1429,   -4.1960,   -5.4186,   -4.8052,   -3.2072,   -1.2347,    0.7963,    0.4173,    0.4664,   -1.0284,   -0.7663,   -0.9264,   -1.7717,   -2.4033,   -2.2107,   -2.2550,   -3.1580,   -5.1318,   -7.2857,   -7.7581,   -7.5002,  999.0000,  999.0000,  999.0000,  999.0000,  999.0000,  999.0000,  999.0000,  999.0000,   53.0390,  999.0000,  999.0000,   -7.9914,
 30-OCT-1996 14:23:15.45,    2.6683,  999.0000,    3.5749,  999.0000,    5.1981,    5.6890,  999.0000,    6.5820,  999.0000,  999.0000,  999.0000,    2.8530,  999.0000,    2.3714,    1.7432,    1.4071,  999.0000,    0.4821,  999.0000,  999.0000,  999.0000,    1.5602,    2.6174,    1.7198,    1.9399,    2.1327,    0.6160,   -1.2716,   -1.8874,   -2.6069,   -1.6495,   -1.9535,   -2.2311,   -4.4286,   -5.0450,   -4.6067,   -3.6359,   -1.7262,  999.0000,    1.2183,    0.3768,   -0.9518,   -0.9416,   -0.9594,   -1.8582,   -2.4525,  999.0000,   -1.8006,   -2.6851,   -4.7093,   -7.0345,   -7.3589,   -7.0478,   -7.7321,   -8.0970,  999.0000,  999.0000,   -7.0321,  999.0000,  999.0000,   -6.6088,   14.4048,   -9.9747,  -13.3903,  -12.1355,
 30-OCT-1996 14:25:54.79,  999.0000,  999.0000,  999.0000,    4.7494,    5.1753,    5.6070,  999.0000,  999.0000,  999.0000,  999.0000,    3.6247,    2.7873,    3.4037,    2.1850,    1.0038,    1.3615,    1.1382,    1.8928,  999.0000,    4.1614,  999.0000,    1.1756,    2.0262,    1.5896,    1.8638,    1.6173,    0.4841,   -0.8668,   -1.9102,   -2.3218,   -1.7318,   -2.1037,   -2.3384,   -4.4314,   -5.4375,   -4.6270,   -3.2080,  999.0000,  999.0000,    1.3176,    0.2712,   -0.3473,   -0.5405,   -0.8625,   -1.2130,   -1.6228,   -1.8742,   -1.8377,   -2.2993,   -4.2540,   -6.9581,   -7.2305,   -6.7336,   -7.2759,   -7.2726,   -6.7883,   -6.5620,   -6.8199,   -5.0914,   -4.7736,   -6.5650,   -8.3359,  -10.2871,  999.0000,  -13.6867,
 30-OCT-1996 14:28:31.90,    2.6284,    3.5659,    4.4189,    4.8211,    5.1437,    5.6962,  999.0000,    7.7363,    7.6464,  999.0000,    5.6677,  999.0000,    3.0086,  999.0000,    1.5223,    1.9164,    2.4815,    2.8518,    4.1667,    2.7095,    1.8306,    2.0136,    2.0793,    1.8979,    1.8972,    1.5962,    0.8925,   -0.7992,   -1.7059,   -2.2266,   -1.5713,   -1.9479,   -2.7636,   -4.5123,   -5.4279,   -4.3920,   -2.8462,   -0.6481,    0.8201,    0.9116,    0.1206,   -0.8392,   -1.0056,   -1.4395,   -1.6064,   -1.9251,   -2.0860,   -1.9218,   -2.3837,   -4.7271,   -7.1049,   -7.4512,   -6.9389,   -6.5098,   -6.4500,   -7.5086,   -6.4044,  999.0000,  999.0000,  999.0000,   -6.5486,   -8.2269,  -10.6317,  -13.6779,  -14.0714,
 30-OCT-1996 14:31:09.05,    2.3326,  999.0000,    4.6315,    5.2002,    5.3455,    5.8905,    7.0439,  999.0000,    6.3517,  999.0000,  999.0000,    3.0062,  999.0000,    0.6720,    0.8467,    1.5673,    1.8507,    2.5663,  999.0000,    2.5083,    1.7767,    2.0548,    1.9424,    2.3345,    1.9226,    1.8555,    1.1577,    0.1216,   -1.5721,   -2.3729,   -1.7595,   -1.9617,   -3.0198,   -4.6555,   -5.6498,   -4.4230,   -3.1214,   -0.2947,    0.8634,    0.3476,   -0.3794,   -0.8267,   -0.7546,   -1.5494,   -1.7356,   -1.8329,   -2.2477,   -2.0535,   -2.3939,   -4.6930,   -7.1194,   -7.4158,   -6.8548,   -6.4139,   -6.6849,   -7.6095,   -6.8576,  999.0000,  999.0000,  999.0000,   -6.4670,   -7.8007,  999.0000,  -13.1509,  -14.6553,
 30-OCT-1996 14:33:46.05,  999.0000,    3.3129,    4.4633,    5.0017,    5.3916,  999.0000,  999.0000,  999.0000,  999.0000,    5.3892,  999.0000,    3.7659,    3.6769,  999.0000,  999.0000,  999.0000,  999.0000,    4.5734,    4.4442,    2.7950,    1.7559,    2.0130,    2.5255,    2.2498,    1.9107,    1.7115,    0.6914,   -1.5550,   -2.3499,   -2.7804,   -2.1936,   -2.6939,   -3.3193,   -5.2426,   -6.4015,   -4.8899,   -3.3416,  999.0000,  999.0000,    0.4763,   -0.1814,   -0.5619,   -1.1419,   -1.2222,   -1.5746,   -1.9289,   -2.1439,   -1.9429,   -2.0941,   -4.0896,   -6.5719,   -7.3146,   -7.1273,   -6.8345,   -6.8607,   -7.1948,   -6.8710,   -6.7251,  999.0000,   -5.1886,   -6.0307,   -8.3486,  -11.3170,  -13.4979,  -14.9442,
 30-OCT-1996 14:36:25.55,    2.7624,    3.6770,    4.9402,    5.0745,    5.5463,  999.0000,    7.2439,  999.0000,    5.7885,    5.3215,  999.0000,    5.4946,    5.4180,  999.0000,  999.0000,    2.5026,    2.2369,  999.0000,  999.0000,    2.5573,    2.3890,    2.4023,    2.7352,    1.8170,    1.5659,    1.4524,    0.5888,   -2.0133,   -2.8307,   -3.3184,   -2.3578,   -3.0242,   -3.2344,   -4.9884,   -6.1908,   -4.4768,   -3.1515,  999.0000,    0.9046,    0.8735,   -0.1845,   -0.1626,   -0.6862,   -1.3661,   -1.6484,   -1.6596,   -1.6741,   -1.5497,   -2.0858,   -3.9866,   -5.9936,   -6.5990,   -6.4680,   -6.9182,   -7.5236,   -7.2646,  999.0000,  999.0000,  999.0000,   -5.8264,   -6.3348,  999.0000,  -12.1735,  -14.8566,  -15.4820,
 30-OCT-1996 14:39:03.07,    2.6230,    3.3590,    4.4377,    5.0503,  999.0000,    5.9524,    6.3221,    5.6549,  999.0000,    4.9504,  999.0000,  999.0000,    5.0085,  999.0000,    2.6154,    3.3640,    2.6064,    3.1225,    3.9225,    3.4631,    3.5647,  999.0000,  999.0000,    2.2173,    1.9465,    1.9587,    0.7439,   -1.4356,   -2.2645,   -2.8492,   -2.1507,   -2.8942,   -3.2933,   -5.0749,   -6.0972,   -3.9042,   -2.8706,   -0.9719,    0.5538,    0.4827,   -0.3931,   -0.4208,   -0.7836,   -1.4446,  999.0000,   -1.9035,   -1.8897,   -1.6823,   -2.2202,   -4.2754,   -5.7227,   -6.5732,   -6.8808,   -7.3159,   -7.0424,   -6.6666,   -7.0691,   -6.9433,  999.0000,   -6.2077,   -6.4278,   -8.5761,  999.0000,  -14.4643,  -14.8358,
 30-OCT-1996 14:41:41.04,    3.4309,    3.2781,    4.2409,  999.0000,  999.0000,  999.0000,    7.8311,  999.0000,    5.7331,  999.0000,    5.4517,    4.7577,  999.0000,    2.8665,    2.2864,  999.0000,    1.7550,  999.0000,    3.7898,    3.0819,    2.2275,    2.5240,    3.3511,    2.5499,    2.1699,    2.0027,    0.8601,   -0.9660,   -2.1175,   -2.9972,   -1.9673,   -2.6062,   -3.5956,   -5.1532,   -6.2384,   -3.7734,   -3.1594,  999.0000,  999.0000,    0.6097,   -0.6485,   -0.8099,   -1.3201,   -1.5189,   -1.7241,   -2.2284,   -1.9516,   -1.8750,   -2.3998,   -4.3002,   -5.8075,   -6.8286,   -6.9086,   -6.9237,   -7.3351,   -7.2470,   -6.9957,   -6.8945,  999.0000,  999.0000,   -7.5024,   -8.5346,  999.0000,  -13.6698,  -15.0331,
 30-OCT-1996 14:44:20.42,  999.0000,    5.8068,    5.0322,  999.0000,    7.5989,    8.8151,    7.8988,  999.0000,    5.6254,    5.1271,  999.0000,    2.9005,  999.0000,    1.5536,  999.0000,    4.4144,  999.0000,    5.6987,  999.0000,    2.6787,    1.8663,    2.4880,    2.8383,    2.4642,    2.0980,    2.2313,    1.2148,   -0.6852,   -2.0523,   -2.7732,   -1.8253,   -2.4080,   -3.2272,   -4.0125,   -6.0572,   -3.3715,   -2.4111,    0.2011,    1.0766,    0.4273,   -0.3684,   -0.8461,   -1.4461,   -1.5218,   -1.6471,   -1.9815,   -1.8671,   -1.8826,   -2.7236,   -5.2393,   -5.9579,   -7.0070,   -6.7387,   -6.9421,   -7.5228,   -7.2468,  999.0000,  999.0000,  999.0000,   -6.8346,   -7.4292,   -8.6610,  -11.9054,  -13.8089,  999.0000,
 30-OCT-1996 14:47:00.06,    7.5245,    7.5558,    6.3317,    6.4761,  999.0000,   10.0340,    8.7149,  999.0000,  999.0000,    5.4712,  999.0000,    3.6126,    3.4643,  999.0000,    2.9334,    3.1419,    4.2177,    3.8285,    3.0072,    2.3792,    2.0051,    1.4098,    2.2625,    2.5817,    2.6243,    2.5075,    2.1219,   -0.6498,   -2.1327,   -2.8487,   -2.2477,   -2.8246,   -3.9769,   -5.5110,   -6.0553,   -3.5274,   -2.3882,   -1.1133,    0.6275,   -0.2139,   -0.6225,   -0.9634,   -1.6624,   -1.9626,  999.0000,   -2.6115,   -2.3135,   -1.8734,   -3.1838,   -5.3513,   -6.5363,   -7.3388,   -7.0329,   -7.2645,   -8.0930,   -7.3427,   -7.1190,   -5.8105,  999.0000,   -6.0515,   -7.0706,   -8.9172,  -12.2241,  -15.0135,  999.0000,
 30-OCT-1996 14:49:39.56,    5.2119,    5.5451,    4.9875,  999.0000,  999.0000,  999.0000,  999.0000,  999.0000,    5.5821,    5.3369,    5.3137,    5.3421,    4.8671,  999.0000,    2.2351,  999.0000,    3.7105,    3.5727,    2.6375,    1.5009,    2.5180,    2.6728,    2.4827,    2.4380,    2.8278,    2.6535,    0.7740,   -0.7955,   -2.1805,   -2.7054,   -1.6075,   -2.4722,   -3.6976,   -5.2041,   -5.4648,   -3.0938,   -2.2301,   -0.6572,  999.0000,   -0.5426,   -0.6795,   -1.0838,   -1.6203,   -2.1385,   -3.0845,   -2.9483,   -5.1881,   -2.3235,   -3.7880,   -6.0264,   -6.7364,   -6.7884,   -5.6523,  999.0000,  999.0000,   -7.0623,   -6.9373,  999.0000,  999.0000,   -3.5893,  999.0000,   -1.2823,  999.0000,   -5.1010,   -3.1491,
 30-OCT-1996 14:52:16.95,    3.9739,  999.0000,    3.6442,  999.0000,    7.4871,    8.1848,    8.1702,  999.0000,  999.0000,    5.5533,    5.1765,    4.9523,  999.0000,  999.0000,    1.1148,    1.7673,  999.0000,    3.6591,    2.5377,  999.0000,    3.8467,    3.4253,    3.0372,    2.6200,    2.6806,    2.4556,    0.5614,   -0.9232,   -2.3702,   -2.0884,   -1.7897,   -2.5035,   -3.6397,   -4.9212,   -5.6682,   -2.8579,   -1.4340,    0.6899,    0.0597,   -0.5134,   -0.8044,   -1.0260,   -1.5506,  999.0000,  999.0000,   -3.4701,   -2.9163,   -2.5476,   -3.9035,   -5.8396,   -6.4646,   -5.8204,   -5.5044,   -7.1779,   -7.2162,   -6.4422,   -6.7714,   -6.1082,   -5.6735,   -5.1386,   -7.4596,   -6.7147,  -12.5631,  -11.1440,  -11.7341,
 30-OCT-1996 14:54:54.41,    4.2387,  999.0000,    3.6255,    4.3341,    6.9063,    8.0340,    8.1480,  999.0000,    6.4741,  999.0000,    4.5771,    3.8477,  999.0000,    1.7315,    1.2250,    1.6287,    3.2953,    2.7044,    2.1028,    1.0753,    2.5268,    2.8236,  999.0000,    2.9196,    2.7392,    2.1104,    0.1183,   -1.3801,   -2.4649,   -2.4168,   -2.6314,   -2.7841,   -3.5851,   -4.8076,   -5.7774,   -3.2917,   -2.0409,   -0.2431,   -0.1230,  999.0000,  999.0000,   -1.4593,   -2.3257,   -3.0800,   -3.6094,   -3.9965,   -3.3350,   -2.9359,   -4.4275,   -6.2509,   -6.9063,   -6.7039,   -6.2499,   -7.2545,   -7.9251,   -7.5269,  999.0000,  999.0000,  999.0000,  999.0000,    6.6504,  999.0000,  999.0000,  -15.6807,  -19.2439,
 30-OCT-1996 14:57:31.80,    2.6032,    3.0597,    4.1135,  999.0000,    5.5039,    7.0493,    7.5048,    8.0147,  999.0000,  999.0000,  999.0000,  999.0000,    1.1375,    2.3170,    1.3428,    0.7812,  999.0000,    3.0786,    2.5839,    1.5771,    2.1514,    2.5706,    2.9169,    3.5783,    2.7211,    1.7703,   -0.3315,   -1.4249,   -2.5356,   -2.5233,   -2.3941,   -2.9238,   -4.0242,   -5.2905,   -5.5964,   -2.8641,   -1.7606,   -0.4589,   -0.2892,   -0.9481,   -1.3101,   -1.7510,   -2.9819,   -4.0005,   -4.1303,   -4.0122,   -3.4643,   -2.9918,   -4.5376,   -6.6574,   -7.7103,   -7.7631,   -6.6569,   -6.8939,   -7.7712,   -7.9394,   -7.4136,  999.0000,  999.0000,  999.0000,   -2.9748,  -10.6967,  -13.4194,  -15.8130,  -16.7578,
 30-OCT-1996 15:00:10.92,    2.2959,  999.0000,    5.6749,  999.0000,    4.0714,  999.0000,  999.0000,    6.4758,    7.6930,  999.0000,  999.0000,    4.1283,    3.9364,    3.3632,  999.0000,    2.4404,    3.2939,    2.9846,    2.0816,    1.9888,    2.2913,    2.2787,    2.9947,    2.8365,    2.3400,    1.5940,   -0.4699,   -1.7724,   -2.7438,   -2.3310,   -2.2402,   -2.9833,   -4.1282,   -5.3942,   -5.1138,   -3.1112,   -1.4721,   -0.2149,   -0.2160,   -0.7201,   -1.2401,   -1.6186,   -3.0515,   -3.5645,   -3.6639,   -4.2528,   -3.8514,   -3.5654,   -5.3101,   -7.3432,   -8.2388,   -8.1248,   -8.7901,   -7.8550,   -7.2478,   -7.7460,   -8.9508,  999.0000,  999.0000,   -7.5804,   -8.5999,  -10.9676,  -14.0392,  -15.9775,  -15.7391,
 30-OCT-1996 15:02:48.05,  999.0000,    4.5221,    4.9606,  999.0000,    3.1631,    3.0687,    3.5510,    3.4573,  999.0000,    3.5145,  999.0000,    5.2640,    5.4193,    3.6415,    2.3751,  999.0000,    3.8085,    2.9549,    2.1555,    2.0994,    2.5046,    2.6563,    2.3427,    2.2988,    2.1846,    1.3384,   -0.3073,   -2.0527,   -3.0606,   -2.5641,   -2.8516,   -2.7511,   -4.1377,   -5.7312,   -5.3760,   -3.5820,   -1.6179,  999.0000,  999.0000,   -1.3040,   -1.2512,   -1.6364,   -2.6738,   -3.4114,   -3.9298,   -4.2326,   -3.5846,   -3.5751,   -5.4146,   -7.1474,   -7.7613,   -7.3292,   -6.3851,   -6.6915,  999.0000,  999.0000,  999.0000,  999.0000,   -6.6307,   -7.1784,   -8.6121,  -11.1130,  999.0000,  -15.2267,  -15.5013,
 30-OCT-1996 15:05:27.26,    2.8307,  999.0000,  999.0000,    3.2608,    2.9121,    3.5993,  999.0000,  999.0000,    5.3171,    5.4288,    5.3264,    5.4132,  999.0000,    4.0423,  999.0000,  999.0000,  999.0000,    2.6260,    1.8891,    2.2076,    2.6466,    2.6162,    2.0956,    2.0880,    1.6548,    0.9862,   -0.1520,   -1.7711,   -3.0976,   -3.1607,   -2.9311,   -2.8210,   -4.5220,   -6.0705,   -5.3408,   -3.5833,   -1.8755,   -0.8583,   -0.4190,  999.0000,   -0.8935,   -1.3847,   -1.8991,   -2.6645,   -3.7421,   -3.6893,   -3.0412,   -3.6273,   -5.7850,   -7.3740,   -7.9636,   -7.3579,   -6.1323,   -6.4703,   -7.5220,   -9.0935,   -9.4486,   -8.0301,   -7.3427,   -7.6711,   -8.7941,  -11.0254,  -14.3556,  -15.9390,  -15.4268,
 30-OCT-1996 15:08:04.35,    2.0458,    2.7387,    3.0269,    3.6037,    4.0050,    5.2231,  999.0000,    5.4655,    5.3983,    5.3719,  999.0000,  999.0000,    5.3905,    2.5575,    0.7773,    1.3187,  999.0000,    3.1288,    2.3481,    2.5283,    2.8310,    2.5516,    2.0497,    2.1055,    2.0828,    0.9293,   -0.2864,   -1.4669,   -3.0343,   -2.9216,   -2.3756,   -2.7572,   -4.0423,   -5.5752,   -5.1982,   -3.2662,   -1.5902,   -0.7681,   -0.3782,   -1.2393,   -0.9654,   -1.5428,   -2.2629,   -3.4040,   -3.8560,   -3.7161,   -3.0822,   -3.7169,   -5.3865,   -7.8419,   -8.7464,   -8.1694,   -6.7023,   -6.7651,   -7.8846,  999.0000,  999.0000,   -9.1305,   -8.2190,   -8.3407,   -9.4442,  -11.3971,  -14.6863,  -16.3763,  -15.5223,
 30-OCT-1996 15:10:43.63,    0.5778,  999.0000,    3.8549,    4.4171,    4.9387,    5.5907,    5.5636,  999.0000,    4.9525,    5.2518,    5.2717,    5.3994,    5.4175,  999.0000,    1.3159,    2.0273,    3.4948,    2.5419,    2.2948,    3.0578,    3.2533,    3.0444,    2.3694,    1.9163,    1.9703,    0.6487,   -0.6110,   -1.7795,   -2.8507,   -2.9274,   -2.0363,   -2.2036,   -3.5602,   -5.3665,   -4.4567,   -3.2820,   -1.8288,   -0.6164,   -0.5680,   -0.7050,   -0.8459,   -1.8314,   -2.7565,   -2.9595,   -3.2454,   -3.1572,   -2.9507,   -3.5512,   -5.2708,   -7.3305,   -8.1418,   -7.6714,   -6.3381,   -6.7544,   -8.1743,   -9.3233,   -9.3732,   -8.4854,   -8.6492,   -9.1163,   -9.1895,  -11.5267,  999.0000,  -16.2703,  999.0000,
 30-OCT-1996 15:13:23.13,    2.0844,    2.6637,  999.0000,  999.0000,    4.9479,    5.4824,    5.5230,  999.0000,    4.4412,  999.0000,    5.0734,    5.3079,    5.3195,  999.0000,    0.9854,    1.3570,  999.0000,  999.0000,    2.0126,    2.9092,    2.8211,    2.9225,    2.3874,    2.2167,    2.2505,    0.6606,   -0.8550,   -1.4868,   -2.6653,   -2.3121,   -1.1644,   -1.4071,   -3.1844,   -5.2222,   -4.3968,   -2.8695,   -1.4667,   -0.2282,   -0.1367,   -0.6291,   -1.0499,   -1.7780,   -2.3269,   -2.8291,   -3.4590,   -3.6693,   -3.1835,   -3.5338,   -5.5358,   -7.7309,   -8.1277,   -7.1175,   -6.5718,   -7.3904,   -7.9336,   -8.8255,   -9.3506,   -8.9876,   -8.9126,   -8.9426,   -9.1433,  999.0000,  -14.0107,  -15.9205,  -14.9572,
 30-OCT-1996 15:16:00.24,    3.1662,    3.5767,  999.0000,    5.2665,    5.6496,    5.6259,  999.0000,  999.0000,    5.7299,  999.0000,    5.4504,  999.0000,  999.0000,    0.7459,    0.5566,    2.0916,    2.4247,  999.0000,  999.0000,    2.7895,    2.5613,    1.9612,    2.1202,    1.4675,    1.4790,    0.2325,   -0.7995,   -2.1030,   -3.1563,   -2.7431,   -1.4059,   -1.9588,   -3.8876,   -5.5032,   -4.4879,  999.0000,   -1.8793,   -0.8380,   -0.5643,   -1.0017,   -1.4341,   -2.2348,   -2.9419,  999.0000,   -3.5162,   -3.5590,   -3.0093,   -3.2606,   -5.3482,   -7.4343,   -8.1772,   -6.8372,   -5.6720,   -6.4540,   -7.2690,   -8.2449,   -7.6513,   -8.0651,   -8.9532,  999.0000,   -9.0389,  -11.2064,  -14.7409,  -16.1427,  -15.3579,
 30-OCT-1996 15:18:37.28,    4.7634,    5.2963,    4.7248,    4.6836,    5.3465,    5.6210,    5.6290,    5.5146,    5.4779,    5.3774,  999.0000,    5.5340,  999.0000,  999.0000,  999.0000,  999.0000,    0.1504,  999.0000,    1.3753,    1.9490,    2.2125,    2.0118,    1.8860,    1.2189,    0.8905,   -0.5657,   -0.9924,   -2.3379,   -3.5064,   -2.9868,   -1.8710,   -2.6436,   -4.2120,   -5.7488,   -3.9567,   -3.1590,   -2.3366,   -1.2771,   -1.0702,   -1.2555,  999.0000,   -2.5288,   -2.9187,   -2.2744,   -3.1175,   -3.4938,   -2.9654,   -3.8623,   -6.1682,   -7.7033,   -8.0692,   -6.5437,   -5.4284,   -6.3910,   -7.2935,  999.0000,  999.0000,  999.0000,  999.0000,   -9.3719,   -9.5993,  999.0000,  -15.8416,  -17.2965,  -15.8711,
 30-OCT-1996 15:21:14.55,    4.5566,    5.3663,    5.7417,    5.3306,    5.1106,  999.0000,    5.8931,    5.6077,    5.5069,  999.0000,    5.3981,  999.0000,    4.8687,    2.3125,  999.0000,  999.0000,    1.2946,    0.1345,  999.0000,    1.9563,    1.9597,    2.0807,    1.8417,    1.2588,    1.0645,   -0.5947,   -1.0508,   -3.3044,   -3.7512,   -3.0848,   -2.0240,   -2.8984,   -4.4520,   -5.7929,   -3.7406,   -2.7804,   -1.8352,   -1.7629,  999.0000,   -1.4753,   -1.4174,   -1.7190,   -2.4740,   -2.5871,   -3.1978,   -3.5626,   -3.5124,  999.0000,  999.0000,   -8.3302,   -8.6112,   -6.9533,  999.0000,  999.0000,   -7.6058,   -8.9119,   -8.9708,   -8.3862,   -8.8839,   -8.8921,  999.0000,  -12.8698,  -15.8412,  -16.9826,  -15.6560,
 30-OCT-1996 15:23:53.70,    4.3391,    5.4603,    5.9198,    5.9542,    4.9562,    5.5115,    5.9597,    5.6419,    5.4793,    4.9727,    5.3645,    5.4715,    4.2397,  999.0000,    2.6711,    1.5059,    2.2820,  999.0000,    1.5152,  999.0000,  999.0000,    2.4556,    1.7014,    0.7540,    1.0662,   -0.6130,   -1.5432,   -3.7986,   -3.6478,   -3.1916,   -2.0173,   -2.8382,   -4.1450,   -5.5471,   -4.1866,   -3.0395,   -1.7959,   -1.4301,   -1.6081,   -1.5634,   -1.9704,   -2.0995,   -2.5545,   -2.7472,   -3.0300,   -3.3781,   -3.8743,   -4.8870,   -6.8828,   -9.1525,  -10.1130,   -8.2364,   -6.8837,   -7.5054,   -8.6197,   -9.8208,  999.0000,  999.0000,  999.0000,   -9.4121,  -10.1613,  -13.2442,  -16.2464,  -16.6532,  -14.7299,
 30-OCT-1996 15:26:30.85,    4.3086,  999.0000,    5.2223,    5.5483,    5.3305,    5.3411,    5.5224,  999.0000,    5.4482,    5.3852,    5.3149,    5.2503,  999.0000,  999.0000,  999.0000,  999.0000,    1.5349,    1.8733,    1.4003,    1.5576,  999.0000,    2.6787,  999.0000,    0.3666,    0.4766,   -1.2919,   -2.3630,   -3.8641,   -3.9982,   -3.4793,   -2.1139,   -2.9123,   -3.8223,   -4.8665,   -4.3755,   -3.4309,   -1.8349,   -1.5912,   -1.6891,   -1.8130,   -1.9449,   -1.3105,   -1.5986,  999.0000,  999.0000,   -3.9008,   -4.2294,   -5.4081,   -7.3668,   -9.5999,  -10.5936,   -9.4254,   -7.9423,   -7.5092,   -8.9448,  -10.8075,  999.0000,  999.0000,   -8.5903,   -9.3894,  -10.2609,  -12.7486,  999.0000,  -16.2647,  -15.1802,
 30-OCT-1996 15:29:10.85,    4.6717,    5.4670,    5.5807,    5.3808,    5.7853,    5.8457,    5.7824,    5.5491,    5.4670,    5.4235,    5.2411,    5.1759,    4.2483,  999.0000,  999.0000,  999.0000,  999.0000,    2.5485,    0.9803,    1.2101,    1.4750,    1.2919,    0.6906,    0.0143,   -0.1290,   -1.5910,   -1.9298,   -3.8412,   -4.0898,   -3.5121,   -2.7963,   -2.9299,   -8.1128,  999.0000,   -4.1707,   -3.2767,   -1.9558,   -1.5072,   -1.9925,   -2.0049,   -1.9041,   -1.3747,  999.0000,  999.0000,   -4.8078,   -3.9109,   -4.3357,   -5.2857,   -7.0441,   -9.2555,  -10.2423,   -9.0712,  999.0000,  999.0000,   -8.3230,  -10.8644,  999.0000,  999.0000,   -8.3906,   -8.7524,  -10.3112,  -12.9347,  999.0000,  -16.7278,  -15.9375,
 30-OCT-1996 15:32:29.17,    4.8598,    5.5588,    6.3809,    6.0359,    5.5354,    5.4270,  999.0000,    5.4733,    5.4392,    5.4365,  999.0000,    5.4357,  999.0000,  999.0000,    1.1969,    0.8371,  999.0000,  999.0000,    1.4565,    1.7319,  999.0000,    1.4723,    0.6964,    0.2650,    0.3311,   -0.8910,   -1.0696,   -3.4296,   -3.2782,   -2.3065,   -1.8535,   -2.7152,   -3.9399,   -5.1794,   -4.2190,   -3.2845,   -2.0627,   -1.4669,   -0.9509,   -1.7588,   -2.3087,   -2.0694,   -2.4155,  999.0000,   -2.9505,   -3.8621,   -4.2313,   -4.5908,  999.0000,  999.0000,   -9.6922,   -8.8463,   -8.0180,   -7.3360,   -7.7810,   -9.8523,   -9.7435,   -9.2529,   -9.4933,   -9.0584,  -10.6606,  -13.8812,  -16.3238,  -16.7863,  -16.2267,
 30-OCT-1996 15:35:06.27,    4.5588,  999.0000,    7.3589,    6.4887,    5.5750,    5.4196,    5.4632,    5.4570,    5.3679,  999.0000,    5.3547,    4.8046,    4.4567,  999.0000,    1.9643,  999.0000,    2.3055,    1.9046,    1.7243,    1.3965,    1.1642,    1.3707,    0.8309,    0.8222,    0.8761,   -0.7698,   -1.4608,   -3.2634,   -2.9453,   -1.9587,   -1.5342,   -2.6720,   -4.2349,   -5.2166,   -3.8286,   -3.7405,   -2.8322,   -1.6101,   -1.7098,   -2.0194,   -2.5436,   -2.4023,   -1.8814,   -2.1621,   -2.5747,   -3.2823,   -3.8042,   -4.5369,  999.0000,  999.0000,   -9.4887,   -9.1741,   -8.3209,   -7.5456,   -8.3588,   -9.8149,   -9.2865,   -8.1395,   -9.0122,   -9.1703,  -10.7383,  -13.4600,  -16.3023,  -16.8471,  -16.0963,
 30-OCT-1996 15:37:43.81,  999.0000,    4.8426,  999.0000,    5.1385,    5.2107,    5.3955,    5.4142,  999.0000,    5.3590,  999.0000,  999.0000,    3.6136,    3.5222,    3.5186,    2.3431,    1.9814,    2.1215,    1.5450,    1.0690,    1.5090,    1.5573,    1.4254,  999.0000,    0.7245,    1.0219,   -1.5460,   -2.1268,   -3.9882,   -2.9515,   -1.7043,   -1.2488,   -2.5279,   -4.3272,   -5.2964,   -4.0910,   -3.4920,   -2.6812,   -1.8477,   -2.2728,   -2.8214,   -3.6682,   -3.4808,  999.0000,   -2.7186,   -3.3012,   -4.3962,   -4.6638,   -4.7147,   -6.7452,   -8.6306,   -9.7668,   -9.8918,   -8.9673,   -7.9802,   -8.6153,   -9.2560,   -9.2192,   -8.5465,   -9.1202,   -9.9541,  -11.5801,  999.0000,  999.0000,  999.0000,  999.0000,
 30-OCT-1996 15:40:23.45,    4.4358,  999.0000,    5.4407,  999.0000,    5.4995,    5.4730,    5.3876,    5.4109,    5.4320,    5.2003,    4.9984,    5.0927,    4.2248,  999.0000,    0.7908,    1.4015,  999.0000,    0.1091,    0.0429,  999.0000,    1.7049,  999.0000,    0.5645,   -0.0274,    0.1536,   -1.6163,   -2.4614,   -3.6531,   -2.5545,   -1.8564,   -1.4224,   -2.1329,   -3.9814,   -4.8324,  999.0000,   -2.8785,   -2.3474,   -1.4609,   -1.8773,   -3.1394,   -3.9548,   -3.9374,   -2.8483,   -2.9302,   -3.7535,   -4.5465,   -4.5942,   -5.0070,   -6.8371,   -8.6532,   -9.8548,  -10.0884,   -9.3653,   -8.5329,   -9.2106,   -9.3890,   -9.9361,  999.0000,  999.0000,  -10.9673,  -12.5449,  -15.1563,  -16.4188,  -16.7177,  -16.9714,
 30-OCT-1996 15:43:00.61,    3.4759,    3.6195,  999.0000,    5.3144,    5.5885,    5.5091,    5.4661,    5.4184,    5.3741,    5.4297,    5.4428,    5.4422,  999.0000,    3.0916,    2.1614,  999.0000,    0.8948,    0.5338,    0.6415,    2.4748,    1.8387,    1.7534,    0.8833,    0.2145,   -0.5925,   -1.7098,   -3.0979,   -3.7805,   -2.8088,   -1.8315,   -1.5602,   -2.1315,  999.0000,   -4.8339,   -3.5826,   -3.1558,   -2.0894,   -1.3822,   -2.3155,   -3.6256,   -4.3024,   -4.1463,  999.0000,  999.0000,   -4.4350,   -4.6427,   -4.3922,   -4.9757,   -6.7713,   -8.5935,   -9.8899,  -10.1061,   -9.5516,   -8.6988,   -9.0911,   -9.5595,   -9.1224,   -8.2555,   -8.8692,  -10.8914,  -13.1769,  -15.8307,  -17.5746,  -16.4223,  -16.7878,
 30-OCT-1996 15:45:40.08,    5.5571,    6.2035,  999.0000,  999.0000,    5.4724,    5.4474,    5.4490,    5.3289,    5.1894,    5.3662,    5.4076,  999.0000,  999.0000,  999.0000,  999.0000,  999.0000,    0.9898,    0.1106,    0.5568,  999.0000,  999.0000,    0.8319,  999.0000,    0.3112,   -0.8949,   -2.0857,   -2.9535,   -3.6907,   -3.0083,   -1.9487,   -1.9410,   -2.2406,   -3.5302,   -4.7637,   -3.9092,   -2.8144,   -1.7892,   -1.3269,   -1.9689,   -2.6806,   -3.6294,   -3.7111,   -3.4008,   -3.6064,   -4.2937,   -4.3840,   -4.2244,   -5.2117,   -7.2021,   -8.8193,  -10.0297,   -9.6816,   -8.3714,   -7.3025,   -7.9505,   -8.5876,  999.0000,  999.0000,  999.0000,  -14.6940,  -13.2288,  999.0000,  999.0000,  -15.8329,  -16.2694,
 30-OCT-1996 15:48:17.09,    6.6557,    7.3737,  999.0000,    6.0484,    5.5526,    5.4745,  999.0000,    5.4213,    5.2980,    5.3734,    5.3736,  999.0000,    4.1673,    2.2853,    1.0815,    1.0878,    0.6829,   -0.0889,    0.8242,    1.8484,    0.5074,    0.4489,    0.1893,   -0.4635,   -1.0024,   -2.3497,   -3.2930,   -4.2587,   -3.5944,   -2.4022,   -2.0707,   -1.9827,   -3.1673,   -4.4041,   -4.4232,   -3.3467,   -1.9912,   -1.9416,   -2.8330,   -3.0822,   -3.5150,   -4.0124,   -4.1770,   -3.7526,   -4.6647,   -4.3352,   -3.6720,   -5.4025,   -7.6249,   -9.1604,  -10.1620,  -10.1995,   -8.4907,   -7.0554,   -7.9900,   -8.9044,   -8.6342,  999.0000,  999.0000,  999.0000,  -13.5593,  -16.8040,  -19.8609,  -17.9181,  -16.6033,
 30-OCT-1996 15:50:56.93,    5.4441,    5.4747,  999.0000,  999.0000,  999.0000,    5.6030,    5.6307,    5.4562,    5.3577,    5.3295,    5.3712,  999.0000,    3.6651,    2.0627,    0.9673,   -0.2064,    0.0622,    0.2288,    0.3563,    1.4791,    0.9534,    0.8855,    0.0671,    0.0650,   -0.6909,   -2.1325,   -2.7128,   -3.8294,   -4.4464,   -2.3132,   -2.2233,   -2.5415,   -3.0671,   -4.2140,   -4.8799,   -3.7325,   -3.0030,   -2.0740,   -2.7858,   -3.4012,   -3.6081,   -3.2202,   -3.2443,   -3.6059,   -4.5899,   -4.5925,   -3.8138,   -5.4197,   -7.4311,   -9.2349,  -10.2487,  -10.3707,   -9.0685,   -7.4882,   -8.3626,   -9.1179,   -8.9630,   -8.2063,  999.0000,  -11.4872,  -13.8969,  -16.9298,  -18.4017,  -18.1869,  -17.0080,
 30-OCT-1996 15:53:36.19,    5.4414,    5.4601,    5.5337,    5.6839,  999.0000,    5.7655,    5.8576,    5.1264,    5.2049,    5.1904,    5.2479,    5.2488,  999.0000,  999.0000,    2.2091,    0.4401,    0.4555,    0.4847,    0.4414,  999.0000,    1.0925,    0.7774,    0.1452,    0.1101,   -0.7575,   -1.7198,   -2.6546,   -3.8306,   -3.8527,   -2.1577,   -3.1157,   -2.9778,   -3.4468,   -4.8298,   -5.5413,   -4.5802,  999.0000,   -2.7246,   -3.1695,   -3.4117,   -3.7980,   -3.8376,   -4.0286,   -4.2430,   -4.7304,   -4.6322,   -3.8980,   -5.1851,   -7.0816,   -9.2824,  -10.8029,  -10.9437,   -9.4209,   -7.6805,   -8.1226,   -8.3838,   -8.5678,   -8.2703,   -8.5612,  -10.9776,  -14.2995,  -16.8644,  -18.5785,  -18.3279,  -16.9159,
 30-OCT-1996 15:56:14.36,  999.0000,  999.0000,    6.0162,  999.0000,    5.6240,    5.4873,    5.4548,    4.3394,    5.1184,  999.0000,    5.2765,    5.1498,  999.0000,  999.0000,  999.0000,   -0.0793,    0.2512,    0.8344,    0.9767,    2.5663,    1.3896,    1.0114,  999.0000,    0.4371,   -0.5282,   -1.8842,   -2.5953,   -3.7358,   -3.9060,   -4.5001,   -3.5698,   -3.5034,   -3.8160,   -4.7865,   -5.4884,   -4.6225,   -2.9734,   -2.3831,   -2.7896,   -2.8361,   -3.5853,   -4.2196,   -3.5978,   -4.0390,   -4.6113,   -4.7997,   -4.2975,   -5.8325,   -7.5534,   -9.3128,  -11.0105,  -11.0036,   -9.5415,   -8.2266,   -7.7306,   -8.0912,   -9.0227,  999.0000,  999.0000,  -11.4838,  -13.9316,  999.0000,  -19.2829,  -18.1049,  -15.7940,
 30-OCT-1996 15:58:53.89,    5.3145,  999.0000,    6.8717,  999.0000,    5.7378,    5.4872,    5.4063,    4.8054,    5.2229,    5.2008,    5.4050,    5.0595,  999.0000,  999.0000,    1.7543,  999.0000,   -0.4455,   -0.3160,  999.0000,    2.0965,    1.7460,    1.2550,    1.1312,    0.3211,   -0.4173,   -1.5613,   -1.8535,   -3.2337,   -3.4231,   -2.8029,   -2.9106,   -3.7661,   -3.9777,   -4.5982,   -5.3929,   -4.6835,   -3.4619,   -2.4057,   -2.6301,   -2.5760,  999.0000,   -3.0107,   -3.3186,   -3.7773,   -4.6848,   -5.2029,   -4.8420,   -6.1262,   -7.5260,   -9.3662,  -10.8169,  999.0000,  999.0000,   -7.5170,   -8.2570,   -8.2823,   -8.8025,  999.0000,  999.0000,  999.0000,  -14.1193,  -17.5016,  -19.6245,  -18.7575,  999.0000,
 30-OCT-1996 16:01:33.05,  999.0000,  999.0000,    5.5047,    6.0033,  999.0000,    5.5377,  999.0000,    4.2444,    4.4305,  999.0000,    4.6411,    4.2070,  999.0000,    1.4888,  999.0000,  999.0000,  999.0000,   -0.7417,  999.0000,    2.1631,    1.6904,    0.9159,    1.1064,    0.4383,   -0.7767,   -1.1587,   -1.6390,   -2.9685,   -3.3800,   -2.9542,   -2.6823,   -3.3785,   -3.5386,   -4.3515,   -5.5857,   -4.5792,   -3.8260,   -2.3229,   -2.2932,   -2.5885,   -3.1311,  999.0000,  999.0000,   -3.7882,   -4.9402,   -5.2827,   -5.1662,   -6.5513,   -8.2158,   -9.8715,  -11.3098,  -11.6428,   -8.8403,   -6.6509,   -7.7132,   -7.6008,   -7.6765,   -9.8478,  -10.4101,  -11.9220,  -14.4594,  -17.8161,  -21.0954,  -20.0238,  -16.7738,
 30-OCT-1996 16:04:12.29,    4.9187,    5.4100,    5.4818,  999.0000,    5.4609,    5.4465,    5.4372,  999.0000,    3.0175,  999.0000,    2.8134,    3.0829,  999.0000,  999.0000,    0.2557,  999.0000,   -0.5763,    0.2484,    1.2485,    1.7780,    1.5745,    0.5575,    0.3690,    0.4489,   -0.3147,   -0.4956,   -1.6517,   -2.3992,   -2.6636,   -2.5517,   -2.5016,   -3.1045,   -3.8329,   -4.7319,   -5.0019,   -4.1465,   -3.4802,   -1.7780,   -2.0959,   -2.0523,   -2.6162,   -2.8018,   -2.8659,   -3.5081,   -4.4259,   -4.7910,   -4.8128,   -6.5224,   -8.3573,   -9.8698,  -11.1149,  999.0000,  999.0000,   -7.7958,   -7.8855,   -7.4358,   -8.1707,   -9.8843,  -10.4895,  -11.9322,  -14.7902,  -18.2464,  -20.6273,  -20.2788,  999.0000,
 30-OCT-1996 16:06:51.60,    5.4499,    5.4683,    5.5018,    5.4705,    5.3949,    5.3911,    5.3589,  999.0000,    3.1126,    2.8014,  999.0000,    2.0812,  999.0000,    1.3548,    0.4457,    0.0921,    0.6618,    1.3898,    1.5682,    1.6269,    1.4353,    0.5479,    0.3573,    0.2121,   -0.5967,   -0.5623,   -1.7341,   -2.9611,   -2.5731,   -2.4906,   -3.3276,   -3.5391,   -4.0386,   -4.7983,   -4.5072,   -3.4132,   -2.1866,   -1.5385,   -1.6403,   -1.7156,   -2.5952,   -2.7332,   -2.8857,   -3.4844,   -4.0842,   -4.6372,   -5.1876,   -6.6513,   -8.5649,  -10.3554,  -11.6532,  -11.9426,   -9.5308,   -7.8644,   -8.1274,   -8.1489,   -8.6743,   -9.4492,  -10.3252,  -12.4319,  -15.0665,  -18.5024,  -20.2189,  999.0000,  -16.6157,
 30-OCT-1996 16:09:28.79,    5.3099,    5.4755,    5.4803,    5.4288,    5.4267,    5.4337,  999.0000,    2.9981,    3.6382,    3.2308,  999.0000,    0.9606,    1.5957,    2.2968,    1.5029,    0.2144,    0.4988,    1.1251,    1.8809,  999.0000,  999.0000,    0.4270,   -0.1055,   -0.5087,   -1.4228,   -0.9654,   -2.3656,   -3.1575,   -2.9641,   -3.1489,   -2.9036,   -3.3489,   -3.9002,   -4.4918,   -4.2508,   -2.9478,   -1.1158,   -0.5114,   -1.0989,   -1.4120,   -2.5722,   -3.3855,   -2.4956,   -3.1753,   -3.8630,   -4.3335,   -5.0472,   -6.3681,   -8.8096,  -10.8768,  -11.7651,  -10.6597,   -8.9509,   -8.0046,  999.0000,  999.0000,  999.0000,  999.0000,  999.0000,  -12.8130,  -15.8064,  -19.0574,  -20.8402,  -19.5109,  -16.8061,
 30-OCT-1996 16:12:06.58,    5.0601,    5.4630,    5.4611,    5.4599,    5.4566,    5.4123,    4.7175,    3.9958,    4.5134,  999.0000,    2.8686,    2.7818,  999.0000,    2.0395,    0.7001,  999.0000,    0.2661,    1.1932,    2.3332,  999.0000,  999.0000,   -0.6886,   -0.5080,   -0.3572,   -1.5010,   -1.2698,   -2.0087,   -2.9787,   -2.9823,    0.0871,   -2.9705,   -3.3693,   -3.9157,   -4.6099,   -4.1515,   -2.6410,   -0.7980,   -0.2453,   -1.2644,   -1.8042,   -2.6478,   -3.0525,   -2.6140,   -3.1578,   -4.1797,   -4.2700,   -4.9617,   -6.7378,  999.0000,  999.0000,  -12.5903,  -11.4103,   -8.8997,   -7.9548,   -8.7551,  999.0000,  999.0000,  999.0000,  -10.7207,  -12.8312,  -15.5913,  -18.9159,  -21.6957,  999.0000,   18.1724,
 30-OCT-1996 16:14:44.07,    5.3639,    5.5896,    5.5363,    5.4652,    5.0988,  999.0000,    4.1200,    3.8057,    4.0597,    4.4850,  999.0000,    2.8905,  999.0000,  999.0000,  999.0000,   -1.2227,   -1.3882,    0.2763,  999.0000,  999.0000,  999.0000,    0.2197,    0.3946,   -0.1718,   -1.3500,   -1.5594,   -1.9263,   -2.3729,   -2.2236,   -0.9707,   -2.5878,   -3.4117,   -3.8900,   -4.6379,   -3.8285,   -2.2657,   -0.4565,   -0.2957,   -0.9149,   -1.4510,   -2.0980,   -2.2645,   -2.6859,   -3.4573,   -4.2395,   -4.4148,   -4.7897,   -6.8421,   -9.1552,  -11.0973,  -11.9853,  -11.5977,   -9.7190,   -8.4165,   -9.0112,   -9.4821,  999.0000,  999.0000,  -10.3458,  -12.9570,  -15.6888,  999.0000,  -22.2790,  -20.5231,   -3.5957,
 30-OCT-1996 16:17:23.14,    5.2014,    5.8349,    5.6482,    4.8591,  999.0000,    4.7409,    4.3366,  999.0000,    2.9560,    2.7239,    2.6946,    2.5777,    2.2773,    2.6155,  999.0000,   -1.7583,   -1.5893,  999.0000,    1.2896,  999.0000,    0.0170,   -0.0424,    0.8409,    0.1095,   -1.1575,   -1.7370,   -2.2842,   -2.4316,   -2.0522,   -1.7947,   -2.9641,   -2.9409,   -3.6489,   -3.7260,   -3.5999,  999.0000,   -0.2293,   -0.9034,   -0.7886,   -1.5955,   -1.4510,   -1.9310,   -2.9563,   -3.5647,   -3.8982,   -4.4891,   -5.4264,   -7.3857,   -9.5919,  -11.4878,  -12.4502,  -12.9066,  999.0000,  999.0000,   -9.9321,   -9.6518,   -9.4909,  -10.1019,  -11.4067,  -13.7438,  -16.5072,  -19.4654,  -22.2209,  999.0000,  -17.2559,
 30-OCT-1996 16:20:00.40,    5.3796,    5.6597,  999.0000,    3.5118,    3.1839,    3.1857,    2.8941,  999.0000,  999.0000,    2.6544,    2.5737,    2.3714,    1.1611,    1.1230,  999.0000,   -0.2214,   -0.5965,    0.3711,    1.3181,    2.5548,    1.1055,   -0.7416,  999.0000,    0.5400,   -0.7768,   -1.4871,   -2.3152,   -2.3056,   -1.6703,   -1.6493,   -2.8672,   -2.8029,   -3.6200,   -4.1622,   -3.3258,   -2.1156,   -0.3241,   -0.9823,   -0.5661,   -1.7071,   -2.5852,   -2.4827,   -2.5079,   -3.1246,   -3.8403,   -4.2620,   -6.0914,   -8.1871,   -9.9246,  -11.7202,  -12.1122,  -11.3373,   -8.5565,   -8.5425,   -9.7662,   -9.4764,   -9.8471,  -10.0375,  -11.1782,  999.0000,  999.0000,  -19.6441,  -20.8201,  -18.5860,  999.0000,
 30-OCT-1996 16:22:37.39,    6.0084,    5.5955,    5.3804,    4.5870,  999.0000,    3.6013,    3.1639,    3.8617,    3.1229,    2.6096,    2.4552,    2.1442,    0.8409,    1.0417,    0.6645,   -0.7762,   -0.2555,    1.1738,  999.0000,    2.7412,  999.0000,   -0.9793,  999.0000,    0.7444,   -0.5044,   -1.0091,   -2.3782,   -2.3635,   -2.0911,   -1.8643,   -2.4345,   -2.5513,   -3.2666,   -4.0411,   -3.2940,   -2.0141,   -0.9651,   -1.1814,   -1.0676,   -1.7788,   -2.3375,  999.0000,   -2.6764,   -3.4296,   -3.9329,   -4.0130,   -5.0152,   -7.1348,   -9.2859,  -11.6028,  -12.0704,  -10.5590,   -8.5016,   -8.7304,  -10.2009,   -9.9496,   -9.7302,   -9.7207,  -10.9322,  -13.9345,  -17.7692,  -20.6084,  -21.8501,  999.0000,  999.0000,
 30-OCT-1996 16:25:16.69,    8.1328,  999.0000,    5.8177,    5.2358,    5.3187,    5.1975,    4.4461,    4.6247,  999.0000,    2.9465,    2.7072,    1.8102,    0.6852,    0.4345,   -0.0676,  999.0000,  999.0000,    0.6093,    0.7645,    0.4864,   -0.1533,   -0.2759,    1.1519,    0.3901,   -0.5982,   -0.9090,   -2.1094,   -1.9527,   -1.8156,   -2.3401,   -2.3828,   -2.4373,   -3.2490,   -3.8355,   -3.3472,   -2.6540,   -1.0971,   -0.7337,   -1.1586,   -1.6099,  999.0000,  999.0000,   -2.7200,   -3.5701,   -3.9314,   -3.9282,   -4.6047,   -7.0011,   -9.7682,  -12.3950,  -12.7641,  -11.3841,   -9.8263,   -9.8372,  -11.1119,  -11.1871,  999.0000,  999.0000,  999.0000,  -14.6262,  -17.8792,  -20.8843,  -22.2029,  999.0000,    7.5570,
 30-OCT-1996 16:27:55.88,  999.0000,  999.0000,  999.0000,    4.8775,    5.1688,    5.3472,  999.0000,    3.3081,    4.6475,  999.0000,  999.0000,  999.0000,  999.0000,    0.1391,  999.0000,   -1.2020,  999.0000,   -0.0730,   -0.0237,  999.0000,  999.0000,   -0.4860,  999.0000,   -0.3270,   -1.2012,   -1.6265,   -2.4396,   -2.2278,   -2.2999,   -2.6636,   -2.6205,   -2.5168,   -3.6263,   -3.9124,   -3.3698,   -2.3418,   -1.2570,   -1.0758,   -0.8595,   -0.7391,   -1.8399,   -2.0617,   -3.4772,   -3.0418,   -3.3236,   -4.0908,   -4.7553,   -7.1487,   -9.9354,  -12.3105,  -12.5091,  -11.1818,  999.0000,  999.0000,  999.0000,  999.0000,  999.0000,  999.0000,  999.0000,   -2.5866,  999.0000,  999.0000,  999.0000,   -8.0117,  999.0000,
 30-OCT-1996 16:30:35.01,    5.4659,    5.4792,    5.5058,    5.4545,    5.2552,    5.2539,  999.0000,  999.0000,  999.0000,    2.8472,    2.7253,    2.4548,    1.8908,  999.0000,    0.3817,  999.0000,   -1.0044,  999.0000,    0.6883,    0.6588,   -0.0368,   -0.0212,   -0.7914,   -0.4283,   -1.7844,   -2.2420,   -2.7095,   -2.1287,   -1.9337,   -2.8420,   -2.5408,   -2.1869,   -3.5553,   -3.7881,   -3.4706,   -2.1709,   -0.5833,   -0.5864,   -0.7508,   -1.6056,   -2.0209,   -1.9743,   -3.1604,   -3.5564,   -3.3054,   -3.7080,   -4.9215,   -7.7647,  -10.5260,  -10.5413,  999.0000,  999.0000,  999.0000,  999.0000,  999.0000,  999.0000,  999.0000,  999.0000,  999.0000,    7.5818,  999.0000,  999.0000,  999.0000,   12.4229,  999.0000,
 30-OCT-1996 16:33:12.12,    5.4775,    5.5032,    5.4733,    5.4387,    4.9322,    4.8724,  999.0000,  999.0000,  999.0000,    2.8026,    2.8210,    2.8169,  999.0000,   -0.4044,  999.0000,  999.0000,   -0.5934,   -0.0274,    0.2106,  999.0000,    0.0221,   -0.2995,   -0.6504,   -0.7844,   -1.6787,   -2.1861,   -2.3828,   -1.9903,   -2.0386,   -2.4479,   -2.4345,   -2.0263,   -3.1346,   -3.3595,   -2.7194,   -2.0289,   -1.1062,   -0.3601,   -0.6438,   -1.6559,   -1.6119,   -1.4810,   -2.4041,   -3.2649,   -3.2825,   -3.7051,   -5.6010,   -8.3383,  -10.9618,  -12.3688,  -10.8678,   -9.8867,   -9.9519,   -9.6035,  -10.3795,  -10.7602,  -10.6248,  -11.1226,  -11.9402,   -7.6496,  -17.4673,  -20.8602,  -23.1994,  999.0000,  -15.0646,
 30-OCT-1996 16:35:51.24,    5.4867,    5.5861,    5.4772,  999.0000,    5.3587,    5.2321,  999.0000,    3.0260,    2.7353,    2.7613,    3.0975,    2.9230,  999.0000,  999.0000,  999.0000,  999.0000,   -0.2995,   -0.0911,    0.0057,   -0.1134,   -0.4125,   -0.5080,   -0.8479,   -0.9163,   -1.4149,   -2.0513,   -2.8971,   -7.1755,  -14.4748,  999.0000,   14.7963,  999.0000,   -3.5453,   -3.6096,   -3.3311,   -3.0306,   -1.7003,   -1.4858,   -0.8524,  999.0000,   -1.2488,   -2.2001,   -3.1400,   -3.5879,   -3.4905,   -4.2265,   -5.6896,   -8.4987,  -11.2971,  -12.3980,  -11.1548,  -10.6587,  -11.0372,  999.0000,  999.0000,  -11.1760,  -12.6122,  -12.5504,  -12.6874,  -15.0049,  -17.7522,  -20.8584,  999.0000,  999.0000,  -17.7756,
 30-OCT-1996 16:38:28.53,    5.3521,  999.0000,  999.0000,  999.0000,    5.4375,    5.4336,  999.0000,    3.1047,    2.7711,  999.0000,    3.0069,  999.0000,    0.5049,   -0.0352,  999.0000,   -0.5032,   -0.5658,   -0.1663,    0.1100,   -0.1012,   -0.5989,   -0.7184,   -0.9260,  999.0000,   -1.8678,   -2.2791,   -2.2749,   -1.9444,   -7.2665,   -2.5442,    4.0902,   -3.1979,   -3.7488,   -3.8969,   -3.7456,   -3.5752,   -2.7503,   -1.3525,   -1.3613,   -2.1745,  999.0000,  999.0000,   -2.9416,   -3.6154,   -3.8068,   -3.8379,   -5.5536,   -8.4982,  -11.3412,  -12.4353,  -11.7457,  -12.0972,  -11.9535,  -12.0562,  -12.5099,  -12.3471,  -12.2266,  -12.1338,  -13.5418,  -15.6731,  -18.4479,  -21.1544,  -24.1144,  999.0000,  999.0000,
 30-OCT-1996 16:41:07.82,    5.1390,    5.7520,  999.0000,    5.4370,    5.3293,    5.3862,    4.5356,    3.0081,    2.7104,    2.7473,    2.7588,    2.7676,  999.0000,    0.8396,    0.2744,   -0.5286,   -0.4004,   -0.0535,   -0.0218,   -0.0399,   -0.3084,    0.0464,  999.0000,   -2.2812,   -1.2614,   -2.0127,   -1.9137,   -1.9430,   -2.2293,   -2.6060,   -2.4935,   -2.5928,   -3.4384,   -3.7094,   -3.2528,   -3.0530,   -1.8686,   -2.9400,   -0.9104,   -1.5623,   -1.2909,   -2.0668,   -2.7619,   -3.3680,   -3.3466,   -3.9332,   -5.9763,   -8.7238,  -11.8586,  -13.1480,  -12.4839,  -12.1316,  -11.9308,  -12.3539,  -12.2511,  -12.5626,  -13.4455,  -14.1702,  -15.5500,  -17.3504,  -19.1645,  -22.0762,  -25.8400,  -25.0644,  999.0000,
 30-OCT-1996 16:43:47.04,    5.4224,    5.7139,    5.5158,    5.3013,    5.1809,    5.2682,  999.0000,    2.9656,    2.6381,    2.7334,    2.8191,    2.8978,    1.4373,    1.3593,    0.7311,   -0.2241,    0.1311,    0.5701,  999.0000,  999.0000,   -0.0545,    0.9515,  999.0000,   -0.5620,   -0.2246,   -1.4564,   -0.6891,   -0.4832,   -2.3109,   -2.7949,   -2.9107,   -2.2792,   -3.4910,   -3.7776,   -3.2015,   -2.5039,   -0.3132,   -0.1282,   -0.7350,   -1.0226,   -0.8081,   -1.5687,   -2.4087,   -3.1396,   -3.5158,   -4.3869,   -6.4945,   -9.3262,  -12.0077,  -13.0839,  -12.5790,  -12.3029,  -12.0787,  -12.1489,  -12.4463,  -13.2704,  -14.4972,  -15.2236,  -16.0289,  -16.6137,  999.0000,  -22.3126,  999.0000,  999.0000,  999.0000,
 30-OCT-1996 16:46:24.57,    5.4209,  999.0000,  999.0000,    5.4556,    5.4725,    4.6145,    4.2360,  999.0000,  999.0000,  999.0000,    2.9690,    3.0893,  999.0000,    1.8575,    1.2027,   -0.0199,    0.5349,    1.3280,    0.2326,    0.1670,    0.0726,    0.1344,    0.6839,   -0.4227,   -0.5730,   -1.2868,   -0.9706,   -0.9891,   -3.0373,   -2.8321,   -2.1326,   -2.0905,   -3.3517,   -3.8318,   -3.2962,   -2.4353,   -1.0203,   -0.8708,   -1.3637,   -1.9267,   -1.6833,   -2.3217,   -2.7174,   -3.3329,   -3.4814,   -4.6479,   -6.9339,   -9.1928,  -11.7587,  -13.0767,  -13.0888,  999.0000,  999.0000,  -12.4433,  -12.7129,  -13.7599,  -14.9468,  -15.9567,  -16.9842,  -17.3961,  -18.2383,  999.0000,  -24.8099,  999.0000,   -1.7095,
 30-OCT-1996 16:49:03.81,    5.8157,  999.0000,  999.0000,  999.0000,  999.0000,    3.5750,  999.0000,    3.5913,  999.0000,  999.0000,    2.8252,  999.0000,  999.0000,    2.0059,  999.0000,   -0.1888,    0.2442,    0.6017,  999.0000,  999.0000,    0.0364,    0.4106,    0.8159,   -0.3054,   -0.4368,   -1.3573,   -1.0618,   -0.6652,   -2.2429,   -2.4500,   -1.7465,   -1.1006,   -2.3355,   -3.0873,   -2.4902,   -2.0667,   -0.7529,   -0.4804,   -0.9788,   -1.7551,  999.0000,   -1.7474,  999.0000,   -3.0089,   -3.2120,   -4.3492,  999.0000,   -8.7629,  -11.2829,  -13.1322,  -13.0911,  -12.4097,  -12.1261,  -12.7606,  -13.4264,  -14.3412,  -14.8374,  -15.6101,  -17.8011,  -17.3802,  -18.0126,  999.0000,  999.0000,  999.0000,  999.0000,
 30-OCT-1996 16:51:41.19,    8.0673,    8.1275,  999.0000,  999.0000,    5.5985,    4.3386,  999.0000,  999.0000,  999.0000,    2.9050,    2.9149,    2.7806,  999.0000,  999.0000,    0.6609,   -0.1100,    0.8236,  999.0000,  999.0000,    0.3499,    0.3058,    0.3659,    0.8461,    0.2863,    0.1572,   -1.5018,   -0.8948,   -0.2632,   -1.7163,   -2.4347,   -2.2904,   -1.3648,   -2.5084,   -3.4307,   -3.2241,   -3.0438,   -1.1249,   -0.3618,   -0.9768,   -2.0092,  999.0000,   -1.4482,   -1.7851,   -2.2988,   -2.3369,   -4.0177,   -6.2609,   -8.4830,  -10.8105,  -12.6488,  -12.8126,  -12.3769,  -12.8760,  -12.8736,  -12.9355,  -14.3900,  999.0000,  999.0000,  -17.8726,  -18.2699,  -18.2141,  -20.4756,  -23.2536,  999.0000,  -17.4851,
 30-OCT-1996 16:54:20.25,    8.0180,    8.1409,  999.0000,  999.0000,  999.0000,    2.4557,  999.0000,  999.0000,  999.0000,    2.8717,    2.9775,    2.7328,    3.2480,  999.0000,    0.6418,   -0.3855,    0.8564,    2.0139,    0.4199,    0.3277,    0.5799,    0.6783,    1.1203,    0.2891,   -0.3068,   -1.4669,   -1.0164,   -1.8849,   -1.7025,   -2.2844,   -2.2411,   -1.8774,   -2.6116,   -3.4763,   -3.3520,   -2.5945,   -1.1055,   -0.4225,   -1.3729,   -1.6002,   -0.4113,   -1.1864,   -1.8767,   -2.2125,   -3.0523,   -4.2712,   -6.1396,   -8.2105,  -10.7689,  -12.5384,  -13.4346,  -13.1440,  -12.9864,  -13.0238,  -13.0868,  999.0000,  999.0000,  999.0000,  999.0000,  999.0000,  999.0000,  -21.0608,  -23.4676,  999.0000,  999.0000,
 30-OCT-1996 16:56:58.22,    6.9604,    7.4174,    6.3893,    5.1329,    4.7038,    4.4278,    3.9153,    2.8131,    2.3143,    2.3525,    2.8275,  999.0000,    2.4276,    1.4810,   -0.1767,   -1.4887,    0.7738,    2.4425,   -0.0067,    0.1736,   -0.2462,   -0.3858,   -1.3514,   -0.3875,   -0.6909,   -2.0123,   -1.1435,   -1.5863,   -0.1867,   -2.0682,   -1.9832,   -1.3339,   -2.1223,   -2.7815,   -2.7491,   -2.6659,   -1.1057,   -0.3629,   -1.1689,   -1.4087,   -1.1521,   -1.4515,   -2.2607,   -2.4766,   -3.2239,   -4.3455,   -6.1654,   -8.4982,  -11.1920,  -12.7323,  -13.2233,  -13.0872,  -13.0340,  -12.8670,  999.0000,  999.0000,  999.0000,  999.0000,  999.0000,  -19.0732,  -18.1864,  -19.8509,  -22.9409,  999.0000,  999.0000,
 30-OCT-1996 16:59:35.31,    5.1726,    5.5381,  999.0000,    4.3313,    3.2616,    3.3820,  999.0000,    2.2634,  999.0000,  999.0000,    2.8814,    1.7236,    1.5305,    1.0508,   -0.7429,   -1.4438,  999.0000,  999.0000,   -0.3203,    0.0275,   -1.1219,   -1.6258,   -1.8409,   -0.2692,   -0.6869,   -2.2202,   -1.8133,   -1.1869,   -0.4622,   -1.6057,   -1.7829,   -1.5069,   -1.8547,   -3.0119,   -2.9787,   -2.4959,   -1.1754,   -0.6549,   -1.0420,   -1.6519,   -0.6223,   -1.5198,   -1.8960,   -2.3145,   -3.1223,   -4.6046,   -6.8008,   -9.2394,  -11.8660,  -13.5503,  -12.8770,  -12.3703,  -12.4657,  -12.2595,  -13.8946,  999.0000,  999.0000,  999.0000,  -18.0721,  999.0000,  -17.8075,  -19.3692,  -22.7719,  999.0000,  999.0000,
 30-OCT-1996 17:02:14.40,    5.2548,    5.5073,    5.5584,  999.0000,    3.7609,    4.5098,  999.0000,    0.9725,    0.2021,    0.1913,    1.7737,    2.1157,  999.0000,  999.0000,   -1.4917,   -1.2083,  999.0000,    3.0869,  999.0000,   -1.4500,   -1.3639,   -2.2658,   -2.5679,   -1.2889,   -1.6091,   -2.9077,   -2.1864,   -1.0264,   -0.7581,   -1.2182,   -1.6904,   -1.7010,  999.0000,   -2.8915,   -3.0881,   -2.2481,   -1.5736,  999.0000,   -1.7355,   -1.7261,   -0.3470,   -1.2686,   -1.7600,   -2.6093,   -3.3581,   -4.6956,  999.0000,  999.0000,  -11.1419,  -12.8416,  -12.9773,  999.0000,  999.0000,  -12.9610,  -14.0080,  999.0000,  999.0000,  -17.2340,  -17.8989,  999.0000,  999.0000,  -30.1992,  999.0000,  999.0000,  999.0000,
 30-OCT-1996 17:04:51.60,    5.4099,  999.0000,  999.0000,    5.2823,    5.1676,  999.0000,  999.0000,  999.0000,  999.0000,    0.9904,    1.1306,    1.2965,    0.5636,    0.8882,  999.0000,   -1.1681,    0.4721,    1.7111,  999.0000,   -1.5272,   -1.1605,   -1.2597,  999.0000,    0.0657,  999.0000,   -3.1496,   -2.1834,   -0.8980,   -0.5951,   -0.8992,   -1.5989,   -1.7054,   -1.7906,   -2.6506,   -2.7589,   -2.1071,   -1.1444,   -1.5292,   -2.5546,   -2.4683,   -0.8747,   -1.1362,   -1.7895,   -2.4970,   -3.7389,   -5.3231,  999.0000,  999.0000,  -11.6293,  -12.8550,  -12.8891,  -12.5422,  -13.1702,  -13.8635,  999.0000,  999.0000,  999.0000,  999.0000,  999.0000,  999.0000,  999.0000,  -24.1209,  -22.0587,  999.0000,  999.0000,
 30-OCT-1996 17:07:29.50,    6.9068,  999.0000,    5.7730,  999.0000,    4.3293,    3.8293,    3.5132,    2.9915,  999.0000,  999.0000,    2.9005,    2.1053,    0.9670,    0.5523,   -1.8754,   -1.7722,  999.0000,    3.4725,  999.0000,   -0.8319,   -1.3568,   -1.7950,  999.0000,    0.0019,   -2.5222,   -3.1217,   -2.4084,   -1.1300,   -0.1295,   -1.2087,   -1.4892,  999.0000,   -2.0925,   -2.6117,   -2.9054,  999.0000,   -1.1966,   -1.6352,   -2.5120,   -2.5496,   -0.9748,   -0.8020,   -1.6021,   -2.5475,   -3.7511,   -5.6685,   -7.8393,   -9.7394,  -11.5567,  -12.8920,  -13.2127,  -12.8656,  -12.9911,  -13.9386,  999.0000,  999.0000,  999.0000,  999.0000,  999.0000,  999.0000,  -20.2464,  999.0000,  -22.1336,  999.0000,  999.0000,
 30-OCT-1996 17:10:07.37,    5.4599,    5.4675,    5.4652,    3.9407,    3.9130,    4.2429,    3.2494,    2.9395,    2.1209,    3.6680,    3.1674,    2.5761,    2.3698,    1.3599,   -0.1882,   -0.3569,  999.0000,    6.0545,   -0.5670,   -1.1330,   -2.8717,  999.0000,   -0.4376,   -0.0656,   -2.5301,   -3.0707,   -2.0650,   -1.2134,   -1.2479,   -1.7444,   -1.5420,   -1.2659,   -1.7217,   -2.7790,   -2.9928,   -2.1560,   -1.0988,   -1.3897,   -1.9563,   -1.8671,   -0.9092,   -1.1113,  999.0000,   -1.7845,   -3.0716,   -5.0215,   -7.0480,   -9.1111,  -11.1799,  -12.4359,  -12.7877,  -12.5371,  -13.1900,  -14.2197,  -15.6221,  -17.1448,  -17.7477,  999.0000,  999.0000,  -17.9264,  999.0000,  999.0000,  -22.2873,  999.0000,  999.0000,
 30-OCT-1996 17:12:44.51,    5.4643,    5.4730,  999.0000,    3.0400,  999.0000,    3.0884,    2.9689,    2.7132,    3.2471,    3.4440,    3.3431,    0.8975,    1.0483,    2.1920,    1.5134,  999.0000,  999.0000,   12.5454,  999.0000,   -2.1269,   -1.4284,   -1.8366,   -0.9118,   -0.3829,   -2.2325,   -0.2294,  999.0000,  -33.4533,  999.0000,  999.0000,   -1.6386,   -1.9140,   -1.9004,   -2.3228,  999.0000,  999.0000,  999.0000,   -0.5836,  999.0000,  999.0000,  999.0000,    9.8832,  999.0000,   -1.7318,  -19.6082,   -3.8991,   -5.3484,  999.0000,  999.0000,  999.0000,  999.0000,  -24.8644,  999.0000,  999.0000,  -35.6362,  -38.1219,  -27.9574,  -44.1582,  -36.0864,   11.1416,    1.4895,  -20.0938,  -22.1104,  -13.5289,  999.0000,
 30-OCT-1996 17:15:21.68,    5.4756,    5.5223,  999.0000,    3.1791,  999.0000,    2.7575,    2.8364,  999.0000,    3.0239,  999.0000,    2.8889,    1.0037,    1.0170,    1.5783,  999.0000,   -0.6690,    1.5640,  999.0000,   -1.7541,   -1.7192,   -1.8496,   -2.4555,   -0.9185,   -1.3087,   -2.3049,   -1.6022,   -1.6460,  -13.0794,   -1.5144,   -2.2721,   -2.2887,   -1.7799,   -2.2821,   -3.1020,   -3.4778,   -2.6204,   -1.5002,   -1.3548,   -1.8278,   -1.9182,   -0.9637,    3.4537,   -1.7918,   -1.7905,   -9.5140,   -5.5503,   -7.3009,   -9.4643,  -11.7841,  -13.3219,  -13.4378,  -17.6284,  -13.9149,  -15.1150,  -23.5288,  -25.2097,  -21.8042,  -25.2980,  999.0000,  999.0000,  999.0000,  -20.7198,  -22.6346,  -22.3556,  -25.0921,
 30-OCT-1996 17:17:59.05,    5.4881,  999.0000,    5.0884,  999.0000,    3.1558,    2.9494,    2.8210,    3.1899,    2.5231,    3.3384,    3.4110,    0.4651,    1.0871,  999.0000,    0.0090,    0.0921,  999.0000,    0.7907,  999.0000,   -2.0932,   -2.2812,   -2.5274,   -1.6480,   -0.5531,   -1.9257,   -1.7826,   -1.2488,   -1.1537,   -1.5261,   -2.2981,   -2.4352,   -1.9818,   -2.4824,   -2.6946,  999.0000,   -2.8564,   -2.0737,   -1.8764,   -1.9261,   -1.7830,   -0.7528,   -0.7982,   -1.2524,   -2.2034,   -3.7796,  999.0000,   -7.6442,   -9.9684,  -12.3475,  -13.8991,  -14.1519,  -13.8229,  -13.9088,  -14.9463,  -16.5279,  -17.6236,  -18.0206,  999.0000,  999.0000,  -15.5437,  -18.2866,  -21.9050,  -23.7793,  999.0000,   -0.2627,
 30-OCT-1996 17:20:36.72,    5.5102,    5.7065,    4.2360,    3.2946,    3.2827,    3.4950,    5.1383,    3.7281,  999.0000,    3.0723,    3.1362,  999.0000,    0.7269,    0.8990,    0.8261,    0.7997,  999.0000,  999.0000,  999.0000,  999.0000,   -2.5476,   -2.9021,   -1.8580,   -1.1147,   -1.8981,   -1.7246,   -1.2232,   -1.1004,   -1.7701,   -2.2880,   -2.3060,   -1.7373,   -2.0354,   -2.3743,  999.0000,   -2.6324,   -1.9825,   -1.6807,   -2.0712,   -2.0997,   -0.9117,   -1.2343,   -1.8302,   -2.6126,   -3.7728,   -5.5994,   -7.7371,  -10.0483,  -12.5963,  -13.9319,  -13.9426,  -13.9976,  -14.2491,  -15.1184,  -16.4823,  -17.9892,  -18.5774,  999.0000,  999.0000,  999.0000,  -22.6547,  -22.3836,  -23.6031,  999.0000,  999.0000,
 30-OCT-1996 17:23:15.89,  999.0000,  999.0000,  999.0000,    3.4323,  999.0000,    2.7259,  999.0000,    0.7234,    0.2616,    0.3558,    0.5129,    0.2024,  999.0000,  999.0000,  999.0000,  999.0000,    6.7643,  999.0000,   -3.2084,  999.0000,   -3.0595,   -2.9662,   -2.6390,   -1.8243,   -2.5133,   -2.0881,   -1.6128,   -1.4014,   -1.4269,   -2.0761,   -1.8981,   -1.3429,   -1.5303,   -2.0605,   -2.5368,   -2.1488,   -1.4505,   -1.3774,   -1.7322,   -1.6837,   -0.1329,  999.0000,   -1.2567,   -3.1426,   -3.7886,   -5.2933,   -7.0539,   -9.7330,  -12.4820,  -13.7624,  -13.6814,  -13.7166,  -14.1579,  -15.0497,  -15.6139,  999.0000,  999.0000,  999.0000,  999.0000,  999.0000,  999.0000,  -20.8432,  -22.4615,  999.0000,  999.0000,
 30-OCT-1996 17:25:52.97,  999.0000,    5.2579,  999.0000,    3.5920,    3.4253,  999.0000,  999.0000,  999.0000,    1.3159,    1.6459,    2.1056,    1.2283,    1.3519,    0.5762,    0.1880,  999.0000,  999.0000,   -2.1825,  999.0000,   -2.6717,   -2.8408,   -3.1520,   -2.6631,   -2.2164,   -2.5865,   -2.4633,   -1.6290,   -0.9536,   -1.6682,   -2.1151,   -1.8085,   -1.1347,   -1.2197,   -2.0934,   -2.6978,   -2.1323,   -1.2738,   -1.2151,   -1.7669,   -1.9712,   -0.0835,   -0.9053,   -1.4171,   -2.3545,   -3.6068,   -5.1262,   -7.4187,   -9.9867,  -12.2826,  -13.4054,  -13.4027,  -13.6393,  -14.0011,  -14.5655,  -15.0440,  -16.1718,  -16.8915,  999.0000,  999.0000,  999.0000,  -15.2266,  -20.3716,  -22.4082,  -26.1909,  999.0000,
 30-OCT-1996 17:28:29.99,    5.5383,    5.5258,  999.0000,    4.1125,  999.0000,    1.5508,    1.2916,  999.0000,    3.0312,    3.1947,    3.1300,  999.0000,    1.2472,  999.0000,    0.3806,   -0.2899,   -0.5561,   -1.3391,   -1.7151,   -1.8826,   -1.9404,   -2.9669,   -2.3973,   -1.8431,   -2.1455,   -1.4154,   -1.0713,   -0.3386,   -1.2167,   -1.8067,   -1.4775,   -0.7661,   -0.5076,   -1.8410,   -2.6787,   -2.3102,   -0.8059,   -0.9671,   -1.5460,   -1.9831,   -0.4653,   -0.9719,   -1.6864,   -2.4337,   -4.0408,   -6.1218,   -8.3522,  -10.9088,  -13.1056,  -14.3855,  -14.5013,  -14.9232,  -15.1366,  -15.0497,  -15.4177,  -15.8235,  -16.3321,  -17.9941,  -21.0104,  -18.9019,  -17.9584,  -20.7929,  -22.7904,  999.0000,  999.0000,
 30-OCT-1996 17:31:06.99,    5.4075,  999.0000,    5.2118,    4.5896,  999.0000,    3.4003,    2.5280,    3.2119,    3.2302,    3.0849,    2.8650,    0.5561,    0.4692,  999.0000,  999.0000,   -0.4118,    0.6590,   -0.7133,  999.0000,   -2.0120,   -2.2842,   -3.0735,   -2.7988,   -1.4763,   -1.6734,   -1.1496,   -1.2851,   -0.2074,   -1.0915,   -1.4429,   -1.1036,   -0.3581,   -0.2760,   -0.9652,   -1.7465,   -1.7940,   -0.4058,   -0.5812,   -1.2542,   -1.9923,   -1.5903,   -1.2046,   -1.8734,   -2.7344,   -4.5523,   -6.2392,   -8.4686,  -11.4125,  -13.7980,  -14.9766,  -15.3489,  -16.0204,  -15.9405,  -15.5443,  -16.5891,  -17.3840,  -18.5733,  -19.7022,  999.0000,  -18.5830,  -19.5911,  -20.9715,  -22.5612,  -25.6946,  999.0000,
 30-OCT-1996 17:33:44.08,    5.3921,    4.9876,  999.0000,    2.6779,    2.4768,  999.0000,    0.3399,    1.1226,    1.1983,    1.1377,    1.5199,  999.0000,  999.0000,    2.7694,  999.0000,  999.0000,    0.7324,  999.0000,   -2.7440,   -2.9977,   -3.4025,   -3.3757,   -2.7735,   -1.2338,   -2.0136,   -1.8472,   -1.3714,   -0.8323,   -0.9998,   -1.3273,   -1.1190,   -0.6320,   -0.7834,   -1.3819,   -1.8620,   -1.5810,   -0.5919,   -0.3431,  999.0000,   -1.6335,   -1.2442,   -1.3198,   -2.1895,   -2.5389,   -4.3576,   -6.4618,   -8.7277,  -11.5565,  -14.2751,  -15.5525,  -16.3514,  -16.5322,  -16.9124,  -17.0606,  -16.9786,  -17.2580,  -17.9080,  -19.4285,  -20.2523,  -20.1721,  -20.8944,  -20.4988,  -22.0691,  -24.9411,  999.0000,
 30-OCT-1996 17:36:23.89,    4.8437,    5.0471,  999.0000,    3.0771,    3.5108,    4.2091,  999.0000,    2.9446,    2.9674,    2.8052,    1.4266,  999.0000,    1.1520,    1.3437,  999.0000,   -1.3855,   -1.7665,   -2.8184,   -3.0355,   -3.3297,   -3.4508,  999.0000,  999.0000,   -1.6150,   -2.5311,   -2.1989,   -1.3255,   -0.9736,   -1.0713,   -1.2530,   -1.2243,   -0.8355,   -0.9381,   -1.5931,   -2.0575,   -1.3170,   -0.3126,   -0.1036,  999.0000,   -1.5304,   -0.8193,   -1.1156,   -2.0547,   -1.9147,   -3.7442,   -6.0647,   -8.1507,  -11.1255,  -14.2779,  -15.7745,  -16.7507,  -17.4966,  -17.4958,  -17.1036,  -17.3395,  -17.1252,  -17.5606,  -19.3841,  -20.3103,  -20.6460,  -20.9504,  -20.4937,  -22.1496,  -24.7508,  999.0000,
 30-OCT-1996 17:43:44.48,    3.4556,    3.0821,    2.8105,    2.7253,    2.6313,    3.2590,  999.0000,  999.0000,    2.8586,    3.0976,  999.0000,    3.2746,  999.0000,  999.0000,   -1.9597,   -0.0055,  999.0000,   -2.4943,   -2.7715,   -2.8016,  999.0000,   -3.0771,   -3.0575,   -2.4832,   -1.2860,   -1.2779,   -0.8566,   -0.4410,   -0.9097,   -0.9641,   -0.7383,   -0.1143,   -0.5468,   -2.0310,   -1.8504,   -0.9408,   -0.3120,   -0.9559,   -2.0401,   -0.3101,   -0.5293,   -0.8773,   -1.0800,   -1.8185,   -3.3814,   -5.2831,   -7.2630,  -10.5185,  -13.6065,  999.0000,  999.0000,  -17.2263,  -17.7941,  -17.4827,  -16.9714,  -16.5009,  -17.3475,  -18.7016,  -20.4797,  -21.9241,  -22.5246,  -21.6701,  -22.6451,  -24.9545,  999.0000,
 30-OCT-1996 17:48:18.28,    6.4381,    4.3463,    3.0526,    2.7180,    2.0736,    1.4612,    1.7672,    2.8895,  999.0000,    4.1713,  999.0000,    0.7660,  999.0000,  999.0000,  -14.6930,  999.0000,   -0.8558,  999.0000,   -2.0484,   -2.6265,   -4.0682,  999.0000,   -3.7876,   -1.8538,   -1.6080,   -1.6730,   -1.1739,   -0.4937,   -0.4872,   -0.9478,   -0.8437,   -0.7002,   -1.0999,   -2.0331,  999.0000,   -0.2584,   -0.1557,   -1.0190,   -1.8900,   -0.4269,   -0.6951,   -1.1861,   -1.2939,   -2.4064,   -4.3955,   -6.0588,   -8.2536,  -11.6871,  -14.4718,  -16.1826,  -16.6294,  -17.8520,  -18.4509,  -18.3862,  -17.2153,  -16.7429,  -18.0346,  -19.2210,  -21.2413,  -21.6861,  -22.2258,  -21.3434,  -21.9094,  -24.3920,  999.0000,
 30-OCT-1996 17:52:56.35,    2.9424,    2.8810,    2.7849,    2.7945,  999.0000,    0.9945,    0.8629,  999.0000,  999.0000,  999.0000,  999.0000,    1.8067,    3.1952,    2.4954,  999.0000,    0.0416,    0.1567,  999.0000,   -2.2884,   -3.1151,   -3.7144,   -3.9540,   -3.6059,   -1.7866,   -1.5787,   -1.6699,   -0.5290,   -0.3450,   -0.5610,   -0.5260,   -0.1273,   -0.4986,   -1.3812,   -1.6246,   -1.4840,  999.0000,    0.1263,   -0.8736,   -2.3043,   -1.2111,   -0.7433,   -1.2053,   -1.3418,   -2.5173,   -4.9029,   -6.3407,   -8.2103,  -10.8674,  -13.0796,  -14.7806,  -15.8252,  -16.7557,  -17.0213,  -16.3418,  -15.4950,  -16.0817,  -17.4341,  -18.9010,  -20.2224,  -22.0874,  999.0000,  -20.0937,  -20.4587,  -22.9083,  999.0000,
 30-OCT-1996 17:57:30.92,    2.9012,  999.0000,    2.7072,    2.6841,  999.0000,    2.5659,  999.0000,  999.0000,    0.2951,  999.0000,    1.0096,  999.0000,    1.2992,    0.9260,  999.0000,  999.0000,   -0.3353,   -1.4028,   -1.7888,   -2.2328,   -2.9237,   -3.1120,  999.0000,   -2.3982,   -1.5505,   -1.3428,   -0.9400,   -0.3925,   -0.4236,   -0.4836,   -0.2451,   -0.6355,   -1.9576,   -1.6234,   -1.1794,   -0.7191,   -0.5034,   -0.6566,  999.0000,   -1.8194,   -0.7743,   -1.0249,   -1.7999,   -3.1075,   -4.8691,   -6.0789,   -8.1139,  -11.3619,  -13.7510,  -14.6592,  -15.9486,  -17.3370,  -17.3992,  -15.9736,  -15.3925,  -16.1543,  -17.5395,  -19.1587,  -20.4667,  -22.6711,  -22.9108,  -21.4698,  -20.8151,  -21.9700,  -22.9254,
 30-OCT-1996 18:02:05.15,    2.9952,    2.6866,  999.0000,  999.0000,    1.0953,    2.9782,  999.0000,    0.4593,    0.0462,   -0.0123,   -0.2246,    2.1842,  999.0000,   -1.6626,  999.0000,    2.2879,    1.0386,   -0.0112,   -0.5933,   -1.5392,   -2.6346,   -3.3283,   -3.7934,   -2.9903,   -1.4476,   -1.2657,   -0.5190,   -0.1561,   -0.2473,   -0.1590,    0.1792,   -0.4229,   -1.8226,   -1.5275,   -1.4371,   -0.4920,   -0.5704,   -0.4793,   -1.8107,   -2.2903,   -1.0619,   -1.5427,   -2.6881,   -3.9757,   -4.9909,   -6.5816,   -9.1549,  -12.2488,  -13.9508,  -14.7512,  -15.6359,  -16.7721,  -15.9769,  -14.7330,  999.0000,  -17.5254,  -18.4869,  -19.5695,  -20.5262,  -22.9471,  999.0000,  999.0000,  -21.3531,  999.0000,  999.0000,
 30-OCT-1996 18:06:38.95,    2.5613,  999.0000,    2.5561,    2.6157,  999.0000,    4.1000,  999.0000,  999.0000,    0.6635,    0.5584,  999.0000,  999.0000,   -0.6537,  999.0000,  999.0000,  999.0000,  999.0000,  999.0000,   -0.5065,   -0.7252,   -1.2852,  999.0000,   -2.9488,   -1.7942,   -1.3959,   -1.1468,   -0.2956,   -0.6939,   -0.7095,   -0.5128,   -0.6183,   -1.2313,   -2.3061,   -2.0814,  999.0000,   -0.7957,   -1.1332,   -1.4635,   -2.2051,   -1.7409,   -0.7882,   -1.8304,   -2.6081,   -3.9431,   -5.8010,   -7.3892,   -9.4149,  -12.4274,  -14.0163,  -14.4533,  -15.3057,  -16.0399,  -14.8329,  -13.7522,  -14.7443,  999.0000,  999.0000,  -19.2677,  -20.7593,  -22.8299,  -22.3947,  -19.5623,  999.0000,  -21.5989,  999.0000,
 30-OCT-1996 18:11:14.81,  999.0000,    1.7695,    1.7707,    1.7116,    1.6314,  999.0000,    0.7581,  999.0000,    2.0996,    2.6882,  999.0000,  999.0000,    1.1871,  999.0000,  999.0000,  999.0000,  999.0000,   -1.0409,   -1.2114,  999.0000,   -2.9635,   -3.9737,   -4.0524,   -1.0790,   -1.2487,   -1.6148,   -1.7964,   -1.5137,   -1.0906,   -0.8084,   -0.6225,   -1.1558,   -1.9801,   -2.2364,   -1.8608,   -1.4117,   -1.2439,   -1.5648,   -2.5936,   -1.8380,   -1.1105,   -1.1616,   -2.0438,   -3.4938,   -5.9866,   -6.9782,   -9.3612,  -11.9709,  -13.4709,  -14.4671,  -15.3647,  -15.8487,  999.0000,  999.0000,  -14.4078,  -15.7011,  -17.5998,  -19.2237,  -21.4984,  -23.4923,  999.0000,  999.0000,  999.0000,  999.0000,  999.0000,
 30-OCT-1996 18:15:51.32,    2.7542,    2.9638,    3.0406,    2.4924,  999.0000,    4.6152,    3.6147,  999.0000,    0.7827,  999.0000,    1.3124,    0.7872,    0.2949,    0.3003,  999.0000,  999.0000,    2.2604,  999.0000,  999.0000,   -2.1507,  999.0000,   -4.5112,   -4.2856,   -1.1216,   -1.3867,   -1.2743,   -1.0169,   -1.2893,   -0.4749,   -0.2499,    0.2077,   -1.3004,   -1.7581,   -2.1785,   -2.3307,   -4.5906,   -1.4350,   -1.4804,   -2.1046,   -1.7755,   -1.2586,   -1.2309,   -2.0387,   -3.3590,   -4.8728,   -6.5775,   -8.8139,  -11.4876,  -13.0267,  -13.8897,  -14.3920,  -14.7319,  -14.3309,  -15.0008,  -14.9956,  -16.8039,  -18.0596,  -20.0643,  -22.4264,  -24.4089,  -24.8755,  -24.4265,  -23.7091,  -22.4971,  -22.9863,
 30-OCT-1996 18:20:25.11,    2.8831,    2.9591,    2.5790,    2.0095,    2.2499,    2.3297,    2.5312,  999.0000,    2.7574,    2.6959,  999.0000,    0.7390,    1.7723,    1.6206,    0.8572,  999.0000,    0.5923,    0.5514,   -0.2274,   -0.7022,   -3.2352,   -4.8508,   -3.8590,   -2.2367,   -1.3935,   -0.6624,   -0.6110,   -0.7787,   -0.0395,    0.5123,    0.8882,    0.2548,   -0.9514,   -1.8127,   -1.5905,   -1.0581,   -1.4713,   -1.5473,   -1.8809,   -1.9034,   -1.0695,   -0.2912,   -2.0345,   -4.2784,   -4.8611,   -6.1363,   -8.5624,  -11.4241,  -13.3892,  -14.3547,  -14.8640,  -14.8888,  -13.7864,  -13.1741,  -14.7236,  -16.0470,  -17.0356,  -19.1743,  -21.6049,  -23.4657,  -25.0836,  -25.3512,  -24.5363,  -24.6241,  -22.6130,
 30-OCT-1996 18:25:00.90,    2.7278,    2.7282,    2.2530,    1.1509,    1.1251,  999.0000,    2.4880,    2.7703,  999.0000,    2.6101,  999.0000,    1.2386,    0.6934,  999.0000,   -0.2987,  999.0000,   -0.1622,  999.0000,   -2.2461,   -3.2334,   -3.7460,   -4.5247,   -5.0846,   -3.0047,   -2.0353,   -1.2263,   -1.2950,   -0.9186,   -0.6817,    0.2434,    0.3279,   -0.2027,   -0.8521,   -1.7756,   -1.6645,   -1.2233,   -1.2014,   -1.3637,   -1.6346,   -2.4175,   -1.5856,   -0.5945,   -2.5193,   -3.8318,   -5.2541,   -6.7473,   -9.1964,  -12.0444,  -13.6646,  -14.2980,  -14.6351,  -14.1098,  -12.4787,  -12.5396,  -12.3091,  999.0000,  -15.5716,  -18.1696,  999.0000,  -22.6754,  -24.1421,  -24.4930,  -24.4917,  999.0000,  999.0000,
 30-OCT-1996 18:29:34.85,    2.8163,    2.7308,    2.7154,    2.4709,    2.5498,    2.2327,    2.0560,  999.0000,    3.0852,  999.0000,  999.0000,  999.0000,  999.0000,    3.0994,    3.0967,  999.0000,    1.1243,  999.0000,  999.0000,   -2.1376,   -3.4421,   -5.3530,   -5.3216,   -3.0628,   -2.2233,   -1.1036,   -1.5135,   -0.7343,   -0.2836,    0.1678,    0.2764,   -0.3371,   -0.8279,   -1.4768,   -1.4707,   -1.3353,   -0.7608,   -1.2616,   -1.5893,   -2.1391,  999.0000,   -0.8867,   -2.3349,   -3.9608,   -5.8630,   -7.3964,   -9.9577,  -12.8015,  -14.3523,  -14.4627,  -14.9016,  -14.4596,  -12.8774,  -12.4152,  -13.4635,  -15.1147,  -16.5410,  -18.8371,  -21.1571,  -23.4833,  -25.3436,  -25.7512,  -25.4683,  -25.8458,  -24.5271,
 30-OCT-1996 18:34:10.92,    3.0192,  999.0000,    1.0684,    0.7412,    0.6539,    0.4041,    0.4133,  999.0000,    2.6136,  999.0000,  999.0000,    1.1482,    2.2281,  999.0000,  999.0000,  999.0000,   -0.0127,   -0.2829,   -0.4908,   -1.7969,   -3.2422,   -5.6076,   -5.8799,   -3.2532,   -2.0859,   -0.8047,   -0.6469,   -0.3659,   -0.1446,    0.5072,    0.5218,    0.0902,   -0.4951,   -1.9332,   -1.9498,   -1.3321,   -0.9910,   -1.6722,   -1.8065,   -1.9206,   -1.8376,   -1.7712,   -2.1387,   -3.5010,   -5.2922,   -7.2830,   -9.8477,  -12.6813,  -14.0966,  -14.0152,  -14.1349,  -13.0000,  -12.3362,  -13.3599,  -14.8222,  -15.6020,  -17.3557,  -18.5081,  -19.4873,  -21.4907,  -23.9060,  -25.1690,  -25.2774,  -25.7393,  -24.2736,
 30-OCT-1996 18:38:46.48,    2.6608,    2.7347,    2.4205,    2.5637,    2.3805,  999.0000,  999.0000,  999.0000,    2.1925,    1.4202,  999.0000,    0.7632,  999.0000,    4.2636,  999.0000,  999.0000,  999.0000,   -1.0355,   -1.3872,   -2.5479,   -3.7729,   -5.5977,   -6.1754,   -2.2846,   -2.0210,   -0.8164,   -0.3747,  999.0000,    0.3736,    0.3581,    0.7116,    0.0716,    0.1062,   -0.7550,   -0.9525,   -0.5354,   -0.9287,   -1.3800,   -1.1586,   -0.9480,   -0.9688,  999.0000,   -2.2691,   -3.8333,   -5.8892,   -7.8995,  -10.4968,  -12.8003,  -13.6278,  -13.7822,  -12.8546,  -11.6092,  -11.7937,  -13.0980,  -14.9687,  -15.7846,  -16.6088,  -17.2961,  -18.2095,  -20.5561,  -22.2528,  -23.7595,  -24.4775,  -24.6701,  -23.4662,
 30-OCT-1996 18:43:20.36,    2.9031,  999.0000,    3.0149,    2.7869,    1.3769,    0.2073,    0.5992,  999.0000,    0.2013,    0.3814,    1.3077,    0.4788,  999.0000,    5.4718,    5.2956,  999.0000,  999.0000,   -0.0821,   -0.3388,   -1.7395,  999.0000,   -5.5236,   -6.0063,   -2.9322,   -1.3096,   -0.5074,   -0.4639,    0.0754,    1.0010,    0.6762,    0.5984,    0.1625,    0.2319,   -0.3804,   -1.0887,   -0.8849,   -1.5890,   -0.9283,   -1.2033,   -0.9539,   -1.4444,   -1.2185,   -3.0695,   -4.5985,   -6.1443,   -8.0602,  -10.9043,  -12.8026,  -13.5362,  -13.9290,  -12.7002,  -11.1361,  -11.6809,  -13.2808,  -14.4526,  -14.9778,  -15.8555,  -16.8909,  -18.2201,  -20.3839,  999.0000,  -24.5406,  -25.6861,  999.0000,  -24.9773,
 30-OCT-1996 18:47:56.95,    2.4440,    2.7186,    2.7618,    2.6759,    3.0820,  999.0000,    2.4195,    2.5452,    2.8007,  999.0000,   -0.6470,  999.0000,  999.0000,  999.0000,    8.5572,  999.0000,   -1.3070,   -0.2874,   -0.2305,   -1.3970,  999.0000,   -5.2282,   -5.4172,   -4.0614,   -2.0650,   -1.6153,   -0.7607,    0.3311,    0.8226,    1.1636,    0.5739,    0.1445,    0.5380,   -0.2129,   -0.9425,   -0.9532,   -0.8793,   -2.3212,   -1.3605,   -0.7958,   -0.7683,   -1.8702,   -2.9863,   -4.8493,   -6.2806,   -8.1677,  -11.0150,  -12.2640,  -12.6247,  -12.6109,  -10.9395,  -10.2163,  -11.1673,  -12.5823,  -14.0100,  -14.9061,  -15.0526,  -16.9162,  -19.1272,  -20.7374,  -22.4259,  -24.0064,  -24.4079,  -24.4193,  -23.7738,
 30-OCT-1996 18:52:32.82,    2.5543,    2.6682,    2.6305,    1.8040,    2.1109,  999.0000,    0.3425,  999.0000,    1.7287,    0.5545,   -1.3227,    0.8533,    2.1400,  999.0000,  999.0000,   -1.4988,   -1.1753,   -0.1348,   -0.6196,   -2.0211,   -3.3838,   -4.4694,   -4.6791,   -4.0993,   -2.2624,   -1.0916,   -0.3691,    0.4506,    1.2408,    1.7824,    1.4301,    0.4388,    0.4477,   -0.0487,   -0.2889,   -0.0038,   -0.2837,   -0.6826,   -0.3365,   -0.2871,   -0.7366,   -1.9318,   -3.2212,   -5.1641,   -6.8884,   -9.1764,  -11.5667,  -12.5165,  -13.1930,  -12.9959,  999.0000,  -11.1088,  -12.2847,  -13.3537,  -14.9313,  -15.7949,  -16.3569,  -17.1893,  999.0000,  -20.7966,  -22.6335,  -23.5607,  -24.6015,  -25.3866,  -24.0708,
 30-OCT-1996 18:57:06.29,    2.8974,  999.0000,    2.7546,    2.7319,  999.0000,    0.7790,    0.4770,    0.6699,    0.8869,  999.0000,  999.0000,    0.4498,  999.0000,  999.0000,   -1.5546,   -0.9426,   -0.2459,    0.0128,   -0.5977,   -1.2211,  999.0000,   -3.9837,   -4.5105,   -2.8269,   -1.0590,    0.0061,   -0.1464,    0.8673,    1.8298,    1.9811,    1.5406,    0.8614,    0.8654,    0.0751,   -0.1282,    0.3838,    0.4041,    0.4653,    0.4010,   -0.0195,   -0.1630,   -1.4482,   -3.2369,   -5.2877,   -6.9568,  999.0000,  -11.1271,  -12.5693,  -13.0840,  999.0000,  999.0000,  -11.9803,  -13.5557,  -14.4690,  -15.2882,  -14.8229,  999.0000,  999.0000,  -19.5933,  -20.8343,  -21.9477,  -23.4323,  -24.5258,  -22.7056,  -22.4741,
 30-OCT-1996 19:01:40.08,    2.2457,    2.6971,    2.4653,    2.8040,    2.5389,    1.7575,    0.7757,    0.5826,    1.1308,    0.8671,  999.0000,   -1.2792,  999.0000,   -0.9944,   -2.2954,   -2.1061,   -1.9963,  999.0000,  999.0000,   -3.3132,   -4.2091,  999.0000,   -4.9628,   -4.5448,   -2.6344,   -1.1506,   -0.5658,    0.3659,    1.2613,    1.4254,    0.9115,   -0.1384,    0.6971,    0.1193,    0.1141,    0.1110,   -1.3342,   -0.6716,    0.3690,    0.4029,    0.0527,   -1.9919,   -3.6545,   -5.4192,   -7.1953,   -9.2474,  -11.1640,  -13.0385,  -12.8693,  -11.0351,  -10.7566,  -12.4532,  -14.3825,  -15.0526,  -15.0979,  -15.6035,  -16.5732,  -17.5738,  -19.0620,  -20.1370,  -21.9269,  -24.2234,  -25.0302,  -26.1660,  999.0000,
 30-OCT-1996 19:06:16.27,    0.1052,  999.0000,    0.1063,  999.0000,  999.0000,  999.0000,    2.4874,    2.5077,    1.6676,  999.0000,  999.0000,  999.0000,   -1.2452,   -1.1685,   -1.9645,   -1.5125,   -1.2456,   -2.7158,   -3.3266,   -3.6594,   -5.3799,   -5.8149,   -5.8297,   -4.9920,   -3.0503,   -1.2171,   -0.7788,    0.3192,    0.8878,    1.1009,   -0.0839,   -0.3378,    0.1945,   -0.1994,   -0.4900,   -0.7581,   -1.0631,   -1.0990,   -0.1549,   -0.1760,   -0.4781,   -1.9213,   -3.9406,   -6.0981,   -7.3491,   -9.0381,  -11.0226,  -12.6491,  -11.9676,   -9.9404,  999.0000,  -11.9570,  -14.0033,  -13.4971,  -14.9487,  -17.4041,  -16.3592,  -17.3576,  -18.8387,  -19.6038,  -20.9409,  -23.2703,  999.0000,  999.0000,  999.0000,
 30-OCT-1996 19:10:50.18,    3.3017,  999.0000,    0.7317,    0.2807,  999.0000,    2.1507,    2.4666,  999.0000,   -0.4134,  999.0000,    0.1638,  999.0000,  999.0000,    0.0453,  999.0000,   -1.7505,   -1.8856,   -1.8698,   -2.6215,   -3.2639,   -4.8304,   -5.5800,   -5.5816,   -4.0468,   -2.7370,   -0.2350,   -0.5661,    0.6559,    0.8739,    0.5347,   -0.5847,   -0.2383,    0.3929,   -0.0851,   -0.2824,   -0.0164,   -0.7164,   -0.7613,   -0.4416,   -0.4668,   -0.5462,   -2.1092,   -3.6438,   -5.7858,   -7.6132,   -9.3696,  -11.6467,  -13.0383,  -12.0799,  -10.2255,  -11.0666,  -12.8630,  -13.4859,  -13.4326,  -14.2773,  -15.7764,  -16.7734,  -16.8419,  -17.7472,  -19.0455,  -20.9128,  -23.4101,  -25.5947,  -24.6341,  -23.7644,
 30-OCT-1996 19:15:26.71,    2.0567,    1.5614,    1.0996,    1.1618,    0.5026,    0.1670,    0.2960,  999.0000,    0.0663,    0.4775,    0.1432,   -0.3686,   -1.3645,   -2.0737,   -2.3994,   -2.4838,   -2.5448,   -2.4425,   -2.9479,   -3.8400,   -4.9788,   -5.1495,   -5.3109,   -5.0517,   -2.4983,   -0.6832,   -0.5866,    0.2948,    0.8061,    0.6653,   -0.3494,    0.4232,    0.6208,    0.5449,    0.5271,    0.3546,    0.0960,    0.1085,    0.7910,    1.1703,    0.2861,   -1.4409,   -3.8604,   -5.1009,   -7.0046,   -8.7779,  -10.8903,  -12.2038,  -10.8479,   -9.7630,  -10.8659,  -11.8622,  -12.7040,  -13.6115,  -14.3677,  -15.2561,  -16.3266,  -17.0485,  -18.5600,  -19.8635,  -21.9126,  -24.9360,  -27.1562,  -25.5082,  -24.5224,
 30-OCT-1996 19:20:01.45,    0.3758,    0.1943,    0.0752,    0.1349,    0.4310,    0.4722,    0.1161,  999.0000,    0.1236,  999.0000,   -1.7364,   -1.6975,   -1.9837,   -2.2695,   -2.3417,  999.0000,   -2.5200,   -2.6186,   -2.8887,   -4.1336,   -4.5121,   -5.1833,   -5.2205,   -4.3212,   -2.9185,   -0.7851,   -0.5515,    0.3927,    0.4832,    0.4866,   -0.2514,    0.0469,    0.4134,    0.4801,    0.1368,    0.1809,   -0.3329,   -0.0839,    0.5729,    0.5048,    0.1705,   -1.0845,   -2.7391,   -4.9292,   -6.7143,   -8.3757,  -10.2230,  -10.9297,   -9.5490,   -9.1746,  -10.6529,  -12.1447,  -13.4464,  -14.9026,  -16.3092,  -17.0149,  -17.9900,  -17.9777,  -19.3394,  -21.0372,  -22.4823,  -25.3114,  -27.3306,  999.0000,  -24.6588,
 30-OCT-1996 19:24:38.09,    0.2091,    0.2896,    0.2255,  999.0000,    2.1319,    2.3964,  999.0000,    2.2827,  999.0000,    0.1358,  999.0000,    0.9554,   -0.5657,   -1.8202,   -2.1021,   -1.8866,   -1.7790,   -1.5895,   -1.9987,   -3.8077,   -4.0573,   -3.9321,   -4.1357,   -2.9777,   -1.3078,   -0.1565,    0.3507,    0.8581,    1.1769,    0.7201,    0.0902,    0.3300,    0.6211,    0.5237,    0.6243,    0.4468,   -0.0748,    0.1021,    0.3156,    0.3485,    0.4020,   -0.7111,   -3.1047,   -5.2366,   -7.5934,   -8.9782,  -10.4250,  -10.6134,   -9.8529,  -10.8101,  -12.2388,  999.0000,  999.0000,  -15.6991,  -17.7875,  -18.1129,  -17.7158,  -18.3112,  999.0000,  999.0000,  -23.1916,  -25.9377,  -27.7121,  999.0000,  999.0000,
 30-OCT-1996 19:29:13.62,    0.5079,    0.4982,    0.3884,    1.0220,    0.9281,    0.7408,    0.7822,    0.5747,   -0.0151,   -0.2624,    0.2541,  999.0000,  999.0000,   -1.8694,   -1.6331,   -0.8362,   -0.3723,   -0.6053,   -1.2346,   -2.3053,   -2.8026,   -2.6804,   -2.6811,   -1.5197,   -0.6802,  999.0000,    0.7619,    1.1535,    1.4704,    1.0451,    0.3871,    0.5715,    0.9509,    0.8475,    1.0945,    1.3699,    1.1258,    0.9108,    1.0935,    0.7283,    0.7283,   -0.3888,   -2.9594,   -5.4840,   -7.8014,   -9.4410,  -10.5276,   -9.9013,   -9.6214,  -10.9802,  -12.2228,  -13.0187,  -14.3684,  -16.2183,  -17.7524,  -18.1088,  -18.3792,  -19.2233,  -20.7995,  -22.0888,  -23.3376,  -26.7699,  -28.1331,  -26.5736,  999.0000,
 30-OCT-1996 19:33:47.74,    0.4982,    0.2252,    0.1049,  999.0000,  999.0000,    0.2272,    0.0811,  999.0000,    0.4336,   -0.0937,    1.1043,    1.1015,  999.0000,   -1.6568,   -1.7567,   -1.2637,   -1.1132,   -1.1474,  999.0000,   -3.0152,   -3.2229,   -3.2392,   -2.6182,   -2.0562,   -1.0862,    0.2498,    0.2784,    1.2109,    1.2383,    0.5412,   -0.6317,    0.1182,    1.0711,    0.7706,    0.9772,    1.2431,    0.4547,    0.2292,    0.3353,    0.4942,    0.3408,   -0.9150,  999.0000,   -6.5453,   -8.1761,   -9.4047,  -10.4971,  999.0000,  -10.4240,  -10.8009,  -11.9314,  -13.1755,  -14.9518,  -15.9513,  -16.5033,  -16.3551,  -16.8159,  -17.6838,  -19.4382,  -21.6365,  -24.4177,  -27.7147,  -27.7037,  -26.5189,  -23.7615,
 30-OCT-1996 19:38:23.65,    0.7768,    0.7728,  999.0000,  999.0000,    0.9891,    0.9969,  999.0000,    0.4448,    0.8209,   -0.7046,   -0.9685,   -2.0149,   -2.4208,   -2.3455,   -2.0320,   -2.7841,   -3.1581,   -2.9001,   -3.5122,   -4.3208,   -4.5198,   -4.5033,   -3.6591,   -3.1369,   -1.7387,   -0.0354,    0.5555,    0.9103,    0.4836,    0.1788,   -0.5418,    0.4616,    0.8558,    0.6722,    0.4667,    0.6807,    0.3634,    0.1505,   -0.3078,   -0.3253,   -0.0522,   -1.5308,   -4.2361,   -6.5887,   -8.0081,   -8.7077,   -9.5116,   -9.3027,   -9.9860,  -11.0556,  -11.7782,  -12.9916,  999.0000,  -15.4525,  -15.7240,  -16.2619,  -17.7421,  -18.7613,  -20.6413,  -22.7143,  -24.9037,  -27.4420,  -27.2068,  -26.5427,  999.0000,
 30-OCT-1996 19:42:57.89,    0.6926,    0.7933,    0.6995,    0.5767,    0.2634,    0.3019,    0.6175,    0.7694,    0.2749,    0.2711,  999.0000,   -1.7745,   -1.9855,   -1.5995,   -1.7262,   -2.0208,   -2.2339,   -2.8062,   -4.0077,   -5.3839,   -5.2184,   -4.4403,   -3.8580,   -2.5932,   -1.2839,   -0.1021,    0.3113,    0.8878,    0.8212,    0.3307,   -0.2487,    0.6874,    1.2996,    1.2907,    0.8852,    1.0121,    0.6300,    1.1369,    0.4619,    0.0027,   -0.1763,   -2.2128,   -4.7957,   -6.9970,   -7.8313,   -8.5026,   -9.1807,   -9.2896,  -10.1633,  -11.0748,  -11.7390,  -13.2528,  -15.0183,  -15.2415,  -15.1651,  -16.3921,  -17.2067,  -18.7730,  -20.0639,  -21.4988,  -23.7773,  -25.7196,  -27.2316,  -26.2424,  -22.3835,
 30-OCT-1996 19:47:34.36,    0.4927,    0.3824,  999.0000,    2.5815,  999.0000,    1.9540,    1.6108,  999.0000,   -0.3789,   -0.4932,   -0.8464,   -1.5009,   -2.1133,   -2.1443,   -1.6653,   -1.2325,   -2.1979,   -2.1858,   -3.7786,   -4.8014,   -4.9657,   -4.6041,   -3.8853,   -3.3831,   -1.8608,   -0.8454,    0.1665,    0.5325,    0.0925,    0.2011,   -0.0314,    0.7679,    1.9100,    1.6071,    0.9181,    0.6704,    0.8635,    0.9800,    0.0165,   -0.5107,   -1.1239,   -2.4832,   -4.8163,   -6.6602,   -7.8307,   -8.6072,   -8.9414,   -8.9925,   -9.9675,  -10.8634,  -11.8291,  -13.2724,  -15.0407,  -14.9726,  -14.8313,  -15.9555,  -16.8429,  -18.1516,  -19.8677,  -21.2675,  -22.6903,  -24.8561,  -26.5984,  -26.0180,  -22.6215,
 30-OCT-1996 19:52:08.38,    0.1321,   -0.1246,  999.0000,    2.2950,    2.9564,    3.0117,  999.0000,    0.2806,    0.0526,  999.0000,  999.0000,  999.0000,  999.0000,  999.0000,  999.0000,   -1.7754,   -2.0555,   -2.8565,  999.0000,   -5.0614,  999.0000,   -5.0081,   -5.4757,   -3.5979,   -1.4191,   -1.0379,    0.1557,    0.1183,   -0.1509,   -0.3441,   -0.1171,    1.5735,    2.3679,    2.2960,    1.1865,    0.4399,    0.5045,    0.7172,   -0.6502,   -1.5504,   -2.1831,   -3.1920,   -5.4323,   -7.1286,   -8.6293,   -8.6454,   -8.0963,   -8.9869,   -9.6142,  -10.4124,  -12.1046,  -13.4880,  -14.3014,  -14.3309,  -14.5971,  -15.4268,  -16.0683,  -17.9874,  -20.2695,  -21.8589,  -22.9386,  -24.0467,  -25.1254,  -25.2181,  999.0000,
 30-OCT-1996 19:56:44.26,    0.7865,    0.9401,    1.2564,    2.1765,    2.6776,    2.7028,    2.7331,  999.0000,    0.3456,    0.3036,  999.0000,   -0.2163,   -1.7139,   -1.9557,   -2.0339,   -2.1123,   -2.5192,   -3.0880,   -4.7595,   -4.9636,   -5.0340,   -4.7206,   -4.7524,   -3.3600,   -1.3492,   -1.1204,   -0.1854,   -0.4842,    0.2005,    0.7513,    0.8342,    1.8915,    2.6897,    2.6734,    1.2490,    0.8577,    0.9744,    1.1567,   -0.2112,   -1.3149,   -1.6693,   -2.8727,   -6.0168,   -7.7103,   -8.7702,   -8.8842,   -8.7370,   -9.9303,  -10.4293,  -11.6363,  999.0000,  -14.5276,  -14.7536,  -14.2328,  -14.2979,  -14.8626,  -15.7531,  -17.4709,  -19.7478,  -21.5289,  -23.1131,  -24.1310,  -25.9784,  -25.7279,  -21.7886,
 30-OCT-1996 20:01:18.82,    0.0671,   -0.0451,   -0.0327,    0.0017,  999.0000,    2.3256,    2.4838,  999.0000,    0.1227,   -1.0713,   -0.1640,    1.6155,   -0.0362,   -0.5387,   -1.3954,   -2.0875,   -3.4209,   -5.1796,   -5.7035,   -5.5712,   -5.3564,   -4.6784,   -4.6833,   -3.3794,   -1.8989,   -1.1782,    0.0817,   -0.2313,    0.7232,    0.6326,    1.6234,    2.2251,    2.4880,    2.5485,    1.6214,    1.0006,    0.9055,    1.5805,    0.5842,   -0.7922,   -1.1193,   -2.0165,   -5.2328,   -7.3279,   -7.8443,   -7.9201,   -8.1535,  -10.1974,   -9.8754,  -10.8508,  -13.7137,  -13.7526,  -13.8897,  -14.2293,  -14.1505,  -14.6299,  -16.0780,  -17.9899,  -19.4953,  -20.7107,  -22.8494,  -24.8599,  -26.5249,  -24.8613,  999.0000,
 30-OCT-1996 20:05:55.37,    0.1529,   -0.0550,    0.0020,    0.4080,    1.0514,    1.2996,    1.1701,    0.0868,   -1.0708,   -1.2052,  999.0000,    1.3471,  999.0000,   -1.5489,   -1.5633,   -2.4447,   -3.1157,   -5.3594,   -5.7616,   -6.0680,   -5.8151,   -5.2717,   -4.6562,   -3.9727,   -1.9594,   -0.9867,   -0.0611,   -0.2189,   -0.3521,    0.4655,    1.9493,    2.2526,    2.6510,    2.7211,    1.6856,    1.5642,    1.9601,    2.0641,    1.1958,   -0.5452,   -0.8239,   -1.9425,   -4.9734,   -6.2083,   -6.5689,   -6.9865,   -7.7118,   -9.4286,  -10.8517,  -12.3309,  -13.8227,  -13.9725,  -13.7912,  -14.2436,  -14.8957,  -15.6572,  -16.5734,  -17.5084,  -19.1554,  -20.4463,  -21.9068,  -24.2121,  -26.2602,  -25.1147,  999.0000,
 30-OCT-1996 20:10:30.66,   -0.1007,   -0.0303,    0.3308,    0.6267,    0.7265,    1.2890,    1.5108,    0.3084,   -0.2741,   -0.2330,    1.1635,    0.2690,   -0.2327,   -0.8017,   -1.2098,   -2.0206,   -3.1932,   -5.2932,   -6.2971,   -6.3464,   -5.9065,   -5.3849,   -4.6145,   -4.1079,   -2.2959,   -0.6770,   -0.2227,   -1.1274,   -1.1974,    0.0470,    1.2891,    2.3080,    2.8140,    2.6577,    1.3105,    1.2328,    1.3563,    1.1036,    0.4367,   -0.7171,   -1.5607,   -2.8447,   -5.2981,   -6.3586,   -7.1220,   -7.6736,   -8.6635,   -9.8994,  -11.1824,  -12.5362,  -13.6505,  -14.1353,  -14.1044,  -14.4564,  -14.6489,  -15.1372,  999.0000,  999.0000,  -19.3677,  -21.3329,  -22.7224,  -24.7108,  -26.2232,  -26.2442,  999.0000,
 30-OCT-1996 20:15:05.11,  999.0000,    0.7788,    0.5206,    0.3866,    0.3911,    0.4817,    0.5687,    0.3401,   -0.3362,    0.4438,   -0.9162,   -1.8687,   -2.0844,   -2.0111,   -1.4922,   -2.3394,  999.0000,   -6.0178,   -6.3975,   -6.0820,   -6.0371,   -5.0379,   -3.8887,   -3.2362,   -2.0042,   -0.4222,    0.0526,   -0.8373,   -0.3598,    0.5165,    1.7073,    2.4137,    3.2864,    2.8953,    1.7461,    1.4492,    1.4330,    1.1215,    0.2210,   -0.7538,   -1.7161,   -2.7896,   -4.4944,   -5.3763,   -5.8514,   -6.9769,   -8.0536,   -9.2620,  -10.4354,  -11.8321,  -13.5842,  -13.2339,  -12.6668,  -14.8782,  -15.7928,  999.0000,  -17.2258,  -16.8207,  -18.6615,  -20.2936,  -22.9636,  -25.4051,  -26.9491,  999.0000,  999.0000,
 30-OCT-1996 20:19:41.25,    0.1831,    0.2903,    0.6039,    0.3456,    0.3840,    0.2646,    0.1319,    0.7856,    0.7115,    1.4211,    0.7798,   -1.0841,   -1.0591,   -1.2892,   -1.2031,   -3.2807,   -5.1911,   -6.2409,   -7.2315,   -7.9363,   -7.2005,   -5.4540,   -4.5696,   -2.5579,   -0.8972,   -0.0849,    0.0360,   -0.4022,    0.6374,    1.3665,    2.3394,    2.6554,    3.7283,    3.0039,    1.8762,    1.6419,    1.7336,    0.6267,   -0.3259,   -0.8799,   -1.5229,   -2.7224,   -4.2714,   -5.4434,   -5.7519,   -6.5403,  999.0000,   -8.9820,   -9.9544,  -11.4406,  -13.4854,  -14.2832,  -14.4948,  -14.9029,  -15.1070,  -15.2110,  -16.8064,  -17.4774,  -18.2770,  -20.5937,  -23.2238,  -25.3259,  999.0000,  -25.7652,  -23.0778,
 30-OCT-1996 20:24:17.97,   -0.0536,    0.1493,  999.0000,    0.7969,    0.9916,    0.2911,    0.0222,  999.0000,  999.0000,    1.7596,    1.6876,  999.0000,   -1.5615,   -2.0317,   -2.3751,   -4.6313,   -6.3090,   -6.9119,   -7.3855,   -7.1065,   -6.7105,   -5.4282,   -4.5244,   -1.6376,   -0.9054,   -0.0163,   -0.1931,   -0.3414,    0.7587,    1.6387,    2.6046,    3.1486,    3.4850,    2.2201,    1.3140,    1.5011,    1.0696,    0.0616,   -0.7364,   -1.8051,   -3.0911,   -3.9147,   -4.3970,   -5.3615,   -5.9837,   -7.0427,   -8.5103,   -9.5784,  -10.6985,  -12.3737,  -13.7534,  -14.4418,  -15.0857,  -15.2814,  -15.5341,  -15.5393,  -16.7229,  -17.4578,  -18.5252,  -20.9227,  999.0000,  -24.3182,  -25.7175,  -25.0534,  -22.5030,
 30-OCT-1996 20:28:54.29,   -0.5135,    0.3624,    0.5616,    0.1986,    0.2496,    0.1932,    0.1791,   -0.0402,   -0.0858,   -0.1425,    1.0741,  999.0000,   -1.1725,   -1.5554,   -3.0029,   -4.9921,   -5.4566,   -5.6385,   -6.8143,   -6.8383,   -6.5598,   -6.1392,   -5.2208,   -2.4001,   -0.8694,   -0.8616,   -0.9300,   -1.2164,   -0.1652,    0.9030,    1.6895,    2.9283,    2.8331,    1.8906,    0.8930,    1.0979,    0.6893,   -0.1520,   -1.1621,   -2.2278,   -3.6833,   -4.3089,   -4.6459,   -5.0031,   -5.9455,   -6.9124,   -8.2726,   -9.4232,  -10.4807,  -11.6356,  -13.2708,  -13.7274,  -13.8986,  -15.2737,  -15.6865,  -15.7491,  -16.1698,  -17.5714,  -19.1538,  -21.2990,  -23.0448,  -24.9828,  -25.5464,  -24.7146,  999.0000,
 30-OCT-1996 20:33:28.40,    0.4691,    0.4395,  999.0000,  999.0000,  999.0000,    0.3481,    0.4640,    0.9747,    0.5215,    1.0540,    2.5494,    1.6940,    1.1127,  999.0000,  999.0000,  999.0000,   -5.2736,   -5.7422,   -6.2494,   -6.8819,   -6.5846,   -5.5972,   -4.6214,   -2.2348,   -1.1114,   -0.6190,   -0.6400,   -0.7461,   -0.1657,    0.4483,    1.8532,    2.9763,    2.9899,    2.1676,    1.4042,    0.9538,    0.6319,   -0.1105,   -0.8697,   -2.0525,   -3.4039,   -4.0246,   -4.4393,   -4.7743,   -5.9515,   -7.3009,   -8.8438,  -10.1522,  -10.9944,  -12.3803,  -14.0490,  -14.6141,  -14.8811,  -15.2193,  -15.3400,  -15.6991,  -16.5221,  -18.4115,  -20.1836,  -21.7335,  -22.6464,  -23.9311,  -24.7506,  -24.6281,  999.0000,
 30-OCT-1996 20:38:04.50,    0.8339,    0.5745,    0.4849,    0.1521,  999.0000,    1.9148,    2.2158,    1.1606,  999.0000,    1.8595,  999.0000,  999.0000,   -0.3074,  999.0000,  999.0000,   -2.9846,   -4.4471,   -4.9325,   -5.1819,  999.0000,  999.0000,   -4.7049,   -4.4354,   -3.0353,   -1.3156,   -0.1685,   -0.1010,   -0.8823,   -0.2235,    0.7429,    1.7551,    2.9933,    2.9525,    2.3415,    1.1817,    0.5876,   -0.6269,   -0.9322,   -1.6378,   -2.5828,   -3.5022,   -4.0634,   -3.9363,   -4.5992,   -6.1848,   -7.4264,   -8.7466,   -9.8987,  -11.1337,  -12.6943,  -14.1821,  -14.2935,  -14.0983,  -14.6053,  -15.7495,  -16.5766,  -17.7924,  -18.9662,  -20.7931,  -22.8092,  -23.7003,  -25.2736,  -24.8573,  -23.1681,  -19.4344,
 30-OCT-1996 20:42:40.68,    0.1798,    0.0165,    0.0397,  999.0000,    2.0552,    2.4023,    2.4056,  999.0000,  999.0000,  999.0000,  999.0000,  999.0000,  999.0000,   -0.5005,  999.0000,   -2.6352,   -3.0793,   -3.4267,   -4.9654,   -5.7354,   -5.6963,   -4.6307,   -4.1480,   -3.4218,   -1.0503,   -0.6512,   -0.6386,   -1.2692,    0.1715,    0.1435,    0.9847,    3.1242,    2.9392,    2.2153,    1.2359,    0.6401,   -0.6432,   -1.0788,   -1.6873,   -2.6300,   -3.5716,   -3.7412,   -3.9394,   -4.8046,   -5.9730,   -7.0242,   -8.3800,  -10.0588,  -11.2763,  -12.6953,  -12.9061,  -12.6084,  -12.3345,  -13.5532,  -15.5909,  -17.0256,  -18.1808,  -19.1336,  -20.5007,  -22.5027,  -24.1443,  -24.0727,  -24.0343,  999.0000,  -18.2276,
 30-OCT-1996 20:47:17.10,    0.0398,    0.3739,    0.3511,    0.4149,    0.2694,    0.1760,    0.1329,    0.5612,  999.0000,   -0.6764,  999.0000,  999.0000,  999.0000,   -1.7599,   -1.1757,   -2.9082,   -4.2199,   -5.5919,   -6.0916,   -5.9235,   -5.9648,   -5.9207,   -5.1240,   -4.1913,   -2.2923,   -0.4336,   -1.0681,   -1.1485,   -0.9743,   -0.7841,    0.9782,    2.7886,    3.2117,    1.9804,    0.2728,   -0.5204,   -0.8098,   -1.4063,   -1.5990,   -2.5366,   -3.7528,   -4.2184,   -4.2828,   -5.0251,  999.0000,   -7.3813,   -9.0423,  -10.4215,  -11.2685,  -12.8929,  -12.5210,  -11.4717,  -11.5841,  -13.3131,  -15.7670,  -17.2500,  -18.5056,  -19.2066,  -20.5421,  -22.8591,  -24.7609,  -25.1033,  -25.3838,  -22.9239,  -18.2030,
 30-OCT-1996 20:51:53.83,   -0.0632,   -0.0456,   -0.1368,  999.0000,    0.0513,    0.0912,    0.1322,    0.7929,  999.0000,    0.4309,    0.2842,  999.0000,   -1.3047,   -1.6828,   -1.5233,   -2.5406,   -4.3823,   -5.1918,   -5.6012,   -5.8076,  999.0000,   -7.5320,  999.0000,   -5.0438,   -2.5952,   -1.0909,   -1.5883,   -1.7944,   -1.9830,   -1.2850,    0.8687,    2.5916,    2.6773,    1.1872,   -0.0886,   -0.8534,   -0.9004,   -1.0534,   -1.6674,   -3.3838,   -4.0232,   -3.9122,   -4.5393,   -5.2982,   -6.6191,   -8.1984,   -9.3342,   -9.7049,  -11.1114,  -11.8710,  -10.9742,  -10.8143,  -11.7264,  -13.3090,  -14.4886,  -16.0700,  -17.9168,  -19.3728,  -20.7783,  -22.0946,  -23.3726,  -23.8203,  -24.8483,  999.0000,  -17.9215,
 30-OCT-1996 20:56:27.56,    0.2687,    0.0609,   -0.1706,   -0.0097,    0.1937,    0.2098,    0.2039,    0.0854,  999.0000,    0.2729,    0.2864,  999.0000,   -0.7798,   -1.1335,  999.0000,  999.0000,   -4.6366,   -5.3730,   -5.6066,  999.0000,   -6.6823,   -6.5692,  999.0000,   -4.2181,   -2.6931,   -1.0403,   -0.9145,  999.0000,   -1.6296,   -1.3625,    1.7014,    3.0406,    2.6716,    0.8244,    0.1479,   -0.4153,   -0.4224,   -0.3602,   -0.8374,   -2.2657,   -3.3327,   -3.8827,   -4.0484,   -4.8558,   -6.5233,   -7.9815,   -8.6045,   -9.8036,  -11.5155,  -11.6934,  -11.1973,  -11.1323,  -11.6363,  -12.9734,  -14.4400,  -16.0783,  -17.3368,  -19.0481,  -21.2606,  -22.1684,  -22.2947,  999.0000,  -25.2543,  -22.9809,  -18.1747,
 30-OCT-1996 21:01:04.39,    0.6012,    0.6347,    0.4417,    0.2624,   -0.1289,    0.1964,    0.1736,    0.0324,  999.0000,  999.0000,    0.1531,  999.0000,   -0.1305,    0.1587,    0.4591,   -1.6824,  999.0000,   -4.9116,   -5.5654,   -6.1839,   -6.2813,   -6.3934,   -7.0707,   -4.3746,   -3.2716,   -2.1719,   -1.2820,   -1.8478,   -1.8519,   -1.2660,    2.4129,    3.0239,    2.4740,    1.0988,   -0.0742,   -0.4576,   -0.6724,   -0.5815,   -1.0326,   -2.5116,   -3.4786,   -4.3027,   -4.3268,   -5.6848,   -7.6370,   -9.2021,   -9.9331,  -10.8885,  -12.2998,  -11.2052,  -10.0202,  -10.3039,  -11.3276,  -12.0187,  -13.3754,  -14.9776,  -16.4200,  -19.0978,  -21.0513,  -22.2001,  -22.9593,  -24.2150,  -26.1033,  -24.0503,  -18.8843,
 30-OCT-1996 21:05:40.77,    0.6940,    0.5402,    0.2093,    0.1509,  999.0000,    2.2444,    2.5674,    1.0942,   -0.1911,  999.0000,  999.0000,  999.0000,   -0.4907,   -0.3681,    0.5297,   -1.6703,   -2.9553,   -2.9916,   -4.8905,   -5.2788,   -5.7211,   -5.9417,   -6.1952,   -4.9892,   -3.4491,   -1.9890,   -1.1263,   -1.5916,   -1.8587,   -0.8484,    1.9176,    3.7365,    2.9277,    1.0992,   -0.2622,   -0.5942,   -0.8203,   -0.9083,   -0.9590,   -2.0797,   -3.1173,   -3.2074,   -2.5245,   -5.2373,   -7.3534,   -9.0616,  -10.5693,  -12.2867,  -13.2098,  -10.8249,  -10.2502,  -10.1261,  -11.7602,  -12.5515,  -12.9592,  -14.2194,  999.0000,  999.0000,  -21.1833,  -22.8668,  -23.7508,  -25.4953,  -26.6568,  -23.8573,  -18.9569,
 30-OCT-1996 21:10:15.51,    0.3760,    0.4018,    0.4856,    0.2982,    0.1946,    0.2682,    0.3521,    0.1442,  999.0000,  999.0000,  999.0000,   -0.5934,  999.0000,    0.1728,    0.7794,  999.0000,   -2.2442,   -2.7584,  999.0000,   -5.6952,   -5.7038,   -5.6172,   -5.6549,   -4.9422,   -3.4219,   -2.1894,   -1.0451,   -1.1819,   -1.7591,   -0.9575,    1.7938,    3.4256,    2.5629,    0.4693,   -0.8617,   -1.2600,   -1.5633,   -1.3723,   -2.1441,   -3.1065,   -3.5850,   -3.6861,   -4.1045,   -5.5676,  999.0000,   -8.1942,   -9.6132,  -11.3709,  -11.9027,  -10.9160,   -9.9998,  -10.2979,  -12.0510,  -12.1725,  -12.5646,  -14.7259,  -16.9875,  -18.8014,  -20.1798,  -21.8615,  -23.7909,  999.0000,  -24.8771,  -23.2416,  999.0000,
 30-OCT-1996 21:14:50.56,    0.1966,    0.6301,    0.7889,    1.5249,    2.3883,    2.8264,    2.7100,  999.0000,    0.0880,    0.2434,    0.3844,   -0.9139,  999.0000,    0.0685,   -0.1746,   -0.2291,   -2.7564,   -3.1965,  999.0000,   -5.5972,   -5.6587,   -5.6604,   -5.8006,   -5.9144,   -4.7388,   -2.7462,   -2.1951,   -1.7528,   -2.3983,   -2.3498,    0.1073,    2.0941,    1.6936,   -0.1798,   -1.3107,   -1.6301,   -1.6410,   -1.6105,   -2.4081,   -3.1709,   -3.3962,   -3.9262,   -4.6733,   -5.6709,   -6.9483,   -8.4015,   -9.3397,  -11.7674,  -11.9820,  -10.8720,  -10.2933,  -11.6093,  -13.2178,  -13.5164,  -14.1163,  -16.1517,  -17.7300,  -18.8062,  -20.4405,  -21.9731,  999.0000,  -24.1665,  -24.9040,  -23.2436,  -18.6480,
 30-OCT-1996 21:19:27.79,    0.3181,    0.4225,    0.1719,    0.6927,    0.8755,  999.0000,    0.7367,  999.0000,   -0.1386,  999.0000,    1.4630,  999.0000,   -0.5834,   -0.1893,    0.4124,    0.6653,  999.0000,   -2.9311,  999.0000,   -5.1997,   -5.4271,  999.0000,   -5.9675,   -5.5381,   -4.8773,   -3.0540,   -1.9711,   -1.5724,   -2.1711,   -2.1134,   -0.0363,    1.9250,    1.1166,   -1.5199,   -2.2516,   -2.0926,   -2.4542,   -1.5294,   -2.0528,   -2.4533,   -2.1734,   -3.2074,   -3.9667,   -5.3074,   -6.8905,   -8.5473,  -10.0898,  -11.9630,  -11.7510,  -10.5660,  -10.8859,  -11.8768,  -13.3301,  -14.3493,  -15.0406,  -16.3415,  -17.1856,  -17.6055,  -19.0337,  -21.3830,  -23.1307,  -24.1687,  -24.6245,  -22.8874,  999.0000,
 30-OCT-1996 21:24:01.74,  999.0000,  999.0000,   -0.5738,  999.0000,    0.2266,    0.5716,    0.7315,    0.3822,    1.8332,    0.8141,  999.0000,    1.4008,    0.2597,   -0.0734,  999.0000,    0.5681,  999.0000,   -2.2737,  999.0000,   -4.7388,   -5.3421,   -5.6684,  999.0000,   -5.6629,   -5.4232,   -3.1165,  999.0000,   -1.3719,   -1.9778,   -2.2302,    0.7126,    1.5544,   -0.0800,   -1.0778,   -1.9234,   -2.1759,   -1.9519,   -1.7971,   -2.2140,   -2.0393,   -2.9818,   -3.2691,   -4.3989,   -5.8922,   -7.3039,   -8.6159,  -10.5987,  -11.9782,  -12.1403,  -11.1379,  -11.1816,  -12.3553,  -14.1206,  -15.7126,  -16.4176,  -17.2087,  -17.3331,  -17.8570,  -19.7071,  -21.7134,  -22.8052,  -23.7961,  -24.5765,  -23.1811,  -19.0813,
 30-OCT-1996 21:28:37.33,    0.4252,    0.5051,    0.4427,    0.3196,    0.3489,    0.4187,    0.4056,    0.1327,  999.0000,  999.0000,  999.0000,  999.0000,  999.0000,    1.1465,    1.5130,    0.5360,   -1.5813,   -1.2709,  999.0000,   -5.1382,   -5.4335,   -5.6487,   -5.5266,   -5.9441,   -5.6130,   -3.5903,   -2.5526,   -1.9169,   -2.8242,   -1.9349,    0.8052,    1.1739,   -0.3930,   -1.1098,   -1.7734,   -1.8750,   -1.6204,   -1.5113,   -1.3216,   -1.6879,   -2.4037,   -2.5235,   -3.6912,   -5.6193,   -7.3906,   -8.1674,   -9.7378,  -11.8348,  -12.4848,  -11.6675,  -11.6624,  -13.0631,  -14.5913,  -15.6357,  -15.9790,  -16.7878,  -17.1649,  -18.0422,  -19.6002,  -20.0093,  -21.6851,  -23.6691,  -23.8348,  -22.1344,  -18.6378,
 30-OCT-1996 21:33:13.20,   -0.3758,   -0.1090,    0.1308,    0.4510,  999.0000,    0.1408,    0.0611,  999.0000,   -1.8024,  999.0000,  999.0000,  999.0000,  999.0000,    0.6426,    0.7025,    0.2725,  999.0000,   -2.5090,  999.0000,  999.0000,   -5.0577,   -5.1700,   -4.8778,   -4.8691,   -4.6978,   -3.1343,   -1.7869,   -1.3181,   -2.4514,   -1.4513,    1.1290,    0.7820,   -0.4011,   -1.4694,   -1.5829,   -1.7061,   -1.8177,   -1.0153,   -0.6704,   -1.7878,   -2.3815,   -2.1663,   -3.4733,   -5.5210,   -6.9860,   -8.1475,   -9.9420,  -11.9720,  -12.1756,  -12.0077,  -12.3885,  -13.4532,  -14.4930,  -14.9190,  -15.7067,  -16.4335,  -16.9474,  -18.3787,  -19.5558,  -20.2769,  -21.6198,  -23.5166,  -23.7632,  999.0000,  -18.6444,
 30-OCT-1996 21:37:46.78,   -0.4962,   -0.3526,   -0.2574,   -0.1784,  999.0000,   -0.0750,   -0.0372,  999.0000,  999.0000,  999.0000,   -4.0208,  999.0000,  999.0000,  999.0000,  999.0000,  999.0000,  999.0000,   -2.0438,   -3.3435,   -4.1176,   -5.3471,   -5.2873,   -5.2514,   -4.7167,   -4.0895,   -2.9085,   -1.5360,   -1.3362,   -2.2738,   -1.0090,    0.5634,   -0.3332,   -1.2437,   -2.1606,   -1.8606,   -1.7054,   -1.7307,   -0.8836,   -0.7565,   -1.8191,   -2.1313,   -2.4690,   -4.3957,   -6.3689,   -7.5234,   -8.6792,  -11.1549,  -12.7967,  -12.6612,  -12.5009,  -12.9439,  -13.3931,  -14.2639,  -14.6596,  -15.0288,  -16.1072,  -17.1419,  -18.5735,  -19.5650,  -20.5593,  -22.1788,  -23.3064,  -23.7631,  -20.9248,  -17.7403,
 30-OCT-1996 21:42:23.48,    0.3722,    0.2895,    0.1444,   -0.1853,  999.0000,   -0.3153,   -0.1781,  999.0000,  999.0000,  999.0000,  999.0000,  999.0000,    2.9754,    2.1293,    2.9646,  999.0000,  999.0000,   -1.8437,   -4.3526,   -4.3714,  999.0000,  999.0000,   -4.8693,   -4.3255,   -4.1381,   -2.9486,   -2.4908,   -1.7042,   -2.5577,   -1.3123,    0.2192,   -0.8952,   -1.4395,   -1.9623,   -1.8461,   -1.6727,   -1.5740,   -0.6256,   -0.8700,   -2.1720,   -2.7979,   -3.1376,   -4.8321,   -6.8023,   -7.8814,   -9.0919,  -11.2788,  -12.8687,  -12.8320,  -12.8819,  -13.3972,  -12.7985,  -12.6600,  999.0000,  -14.8333,  -14.9482,  -16.2181,  -17.2598,  999.0000,  -19.8860,  -21.3052,  -23.0591,  -23.4925,  -21.5609,  -18.0556,
 30-OCT-1996 21:46:57.15,    0.0082,   -0.3357,   -0.5330,  999.0000,  999.0000,   -1.6343,   -1.6136,  999.0000,   -0.0231,  999.0000,  999.0000,  999.0000,  999.0000,  999.0000,  999.0000,  999.0000,  999.0000,   -0.5080,  999.0000,   -3.8479,   -5.3808,   -5.3275,   -4.5897,   -4.2748,   -4.2809,   -3.9375,   -2.6726,   -2.0851,   -2.5390,   -0.8657,   -0.3095,   -0.6988,   -1.4262,   -1.8890,   -1.6788,   -1.1629,   -1.2195,   -0.9406,   -1.3848,   -2.3877,   -2.3548,   -3.1275,   -4.5267,   -6.3180,   -7.5947,   -9.4231,  -12.1951,  -14.0205,  -13.1405,  -12.8115,  -13.2443,  -13.0477,  -12.4220,  -12.9613,  -13.4967,  -14.4659,  -16.1126,  -17.3271,  -18.0062,  -19.6182,  -21.2778,  -22.7015,  -22.9122,  -22.0078,  -18.7016,
 30-OCT-1996 21:51:33.65,   -0.5478,   -0.3260,   -0.7352,   -0.8326,   -0.9705,   -0.3756,  999.0000,  999.0000,   -1.6316,   -0.2236,    1.1711,    3.0777,    2.0964,    2.2245,    1.9198,   -0.4302,   -1.4738,   -1.9450,   -3.2325,   -3.9124,   -5.4336,   -5.4011,   -4.8418,   -4.0646,   -3.8070,   -3.6121,   -2.6624,   -2.1503,   -2.7167,   -1.2711,   -0.3066,   -1.3925,   -1.6705,   -2.3400,   -2.1322,   -1.6476,   -1.3760,   -1.7397,   -1.8417,   -2.1848,   -3.3435,   -3.2702,   -4.9382,   -6.5043,   -7.9610,   -9.7616,  999.0000,  -13.8915,  -11.9974,  -12.0485,  -12.1856,  -11.7975,  -10.8735,  -10.7367,  -11.3826,  -12.8915,  -14.5034,  -16.0330,  -16.9868,  -18.1909,  -20.3179,  -21.8972,  999.0000,  -21.5568,  999.0000,
 30-OCT-1996 21:56:09.85,   -0.8531,   -0.5926,    0.1122,   -0.2646,   -0.4012,  999.0000,  999.0000,   -4.5762,  999.0000,    0.0771,    2.3234,  999.0000,    1.5640,    2.4963,    0.7104,    0.3468,  999.0000,   -3.1853,  999.0000,   -5.0130,   -5.9972,   -5.8369,   -5.3376,   -3.8426,   -3.4046,   -3.7463,   -3.0789,   -2.7043,   -2.9137,   -1.5489,   -0.3956,   -1.5402,   -1.8324,   -2.6762,   -1.6361,   -1.3810,   -1.0860,   -1.3798,   -1.7019,   -2.2186,   -2.4621,   -3.7571,   -5.5189,   -6.6339,   -8.1724,  -10.4867,  -12.7610,  -12.9746,  -12.0986,  -11.4504,  -10.4191,   -9.9396,   -9.6465,  -10.1881,  -11.0440,  -12.6405,  -14.4425,  -15.0733,  -15.7029,  -17.4206,  -19.2943,  -20.7853,  -20.9721,  -20.6828,  999.0000,
 30-OCT-1996 22:00:43.89,   -0.6464,   -0.8773,   -0.1847,    0.3405,    0.4291,  999.0000,   -0.6746,  999.0000,   -1.7600,   -1.1967,  999.0000,    0.0805,    0.2609,    1.5042,    1.1061,    0.4598,   -0.6919,  999.0000,   -4.5820,   -4.4874,   -5.3714,   -5.6314,   -5.1876,   -4.0483,   -3.4171,   -3.3015,   -2.6986,   -2.5316,   -3.2989,   -2.2141,   -0.9327,   -1.7644,   -1.8228,   -2.4544,   -1.9542,   -1.7583,   -1.3364,   -1.1547,   -1.6345,   -2.1076,   -2.4703,   -4.2066,   -5.4084,   -6.3875,   -8.1478,  -10.6968,  -12.3544,  -11.6373,  -10.4335,  -10.2071,  -10.6859,  -10.1038,  -10.8262,  -10.6222,  -11.3169,  -12.1852,  -13.5997,  -14.3130,  -15.3156,  -16.9070,  -18.7367,  -20.1682,  -19.7772,  -19.0929,  -17.9452,
 30-OCT-1996 22:05:17.66,   -0.4816,   -1.0652,   -0.2269,    0.1502,    0.0912,    0.2163,  999.0000,   -2.2853,   -1.3775,  999.0000,  999.0000,    1.1687,    1.1225,    1.0389,    0.9907,  999.0000,   -0.1137,   -0.4517,   -0.9837,   -3.6378,   -5.2579,   -5.2124,   -4.6267,   -3.8447,   -3.4901,   -3.4886,  999.0000,   -3.0108,   -3.3556,   -1.7575,   -0.7322,   -1.5070,   -2.2475,   -2.2711,   -1.3979,   -1.7209,   -1.8783,   -1.3837,   -1.4335,   -1.8866,   -3.0403,   -4.7606,   -6.9662,   -8.4534,   -9.9972,  -12.0817,  -12.8858,  -12.2138,  -10.9216,  -10.3280,  -11.7581,  -13.2419,  -12.7832,  -11.8404,  -12.0376,  -12.2668,  -13.0366,  -14.3577,  -15.7713,  -17.9838,  -19.7892,  -20.8971,  -20.6117,  -19.4769,  -18.1698,
 30-OCT-1996 22:09:51.33,   -0.6918,   -0.5708,  999.0000,    0.2247,    0.1013,   -0.2251,   -0.9470,   -1.8400,   -2.0294,  999.0000,   -0.3394,  999.0000,    0.7457,    1.8489,  999.0000,   -0.0244,   -0.3245,   -0.5407,  999.0000,   -2.8658,  999.0000,   -4.5164,   -4.2110,   -3.5163,   -3.2992,   -3.3786,   -2.6355,   -2.5830,   -2.9420,   -0.9655,   -0.8593,   -1.3853,   -1.7035,   -1.8739,   -1.2713,   -1.4635,   -1.0895,   -0.6012,   -0.4365,   -1.2682,   -2.4624,   -4.5042,   -6.2353,   -7.8057,   -9.5794,  -11.4431,  -11.3275,  -10.1965,  -10.2732,  -11.7299,  -12.9812,  -13.0993,  -12.4525,  -11.4134,  -11.4473,  -12.1506,  -12.8168,  -13.7939,  -15.3615,  -16.8897,  -18.5909,  -19.9493,  -20.2924,  -20.1340,  -19.0224,
 30-OCT-1996 22:14:26.47,   -0.1361,   -0.4276,   -0.0344,    0.5071,    0.2579,    0.1252,  999.0000,   -0.4795,  999.0000,  999.0000,  999.0000,    1.1604,    1.6556,    1.8722,    0.8316,   -0.1012,   -0.4953,   -0.6029,  999.0000,   -4.1694,   -4.7043,   -4.5831,   -3.9716,   -4.1709,   -3.1902,   -2.8311,   -2.6029,   -2.4506,   -2.5452,   -1.0057,   -0.6795,   -0.9899,   -1.3329,   -1.5262,   -1.3640,   -1.5969,   -1.8865,   -1.4510,   -0.8391,   -1.6409,   -2.9181,   -4.3208,   -5.9917,   -7.5225,   -9.8408,  -10.7586,   -9.7458,  -10.6297,  -12.0718,  -12.3439,  -12.1940,  -12.6499,  -12.9629,  -12.7708,  -12.8356,  -13.1399,  -13.8388,  -15.1614,  999.0000,  -18.8255,  -19.6457,  -20.9935,  -21.1665,  -21.0953,  -20.7053,
 30-OCT-1996 22:19:00.05,   -0.3511,    0.2906,    0.1617,    0.3525,    0.6800,  999.0000,   -1.5237,  999.0000,  999.0000,  999.0000,    3.2579,    2.5528,    1.8163,    1.2926,    0.2591,   -0.3198,   -0.3921,   -0.7041,   -0.4397,  999.0000,   -3.1641,   -3.8640,   -4.1976,   -2.7859,   -2.8803,   -2.8577,   -2.3947,   -1.8400,   -1.8559,   -0.7203,    0.0476,   -0.6808,   -0.9429,   -1.2393,   -1.1071,   -1.8464,   -1.7389,   -1.6100,   -1.5017,   -2.2796,   -3.8908,   -5.1598,   -6.7876,   -8.4358,  -10.4052,  -11.0484,  -10.2982,  -11.1267,  -11.8363,  -12.2737,  -12.4048,  -12.5240,  -12.7456,  -12.4946,  -13.2001,  -14.2391,  -14.9784,  -16.0182,  -17.5217,  -18.5150,  -18.2976,  -19.4134,  -19.7388,  -19.2353,  -19.6093,
 30-OCT-1996 22:23:36.41,  999.0000,  999.0000,    0.2299,    0.2366,    0.6368,    0.6788,    0.5592,   -0.3041,  999.0000,  999.0000,    2.2542,    0.9071,    1.1990,    1.5810,    1.9025,    0.5340,  999.0000,   -0.4356,   -1.3967,   -2.2557,   -2.7866,   -4.4036,   -5.2570,   -3.7965,   -3.6916,   -2.7640,   -2.3355,   -2.2426,   -2.1949,   -0.4999,   -0.0008,   -0.8006,   -1.1781,   -1.6210,   -0.9051,   -1.5119,   -1.7478,   -1.2182,   -1.7129,   -2.4855,   -3.9866,   -5.3121,   -6.9056,   -9.4914,  -10.8852,  -11.0550,   -9.7682,  -10.8444,  -11.8522,  -12.1704,  -12.4978,  -12.4354,  -12.5089,  -12.2259,  -12.5812,  -13.0685,  -13.6014,  -14.5440,  -15.5236,  -16.3447,  -17.2339,  -18.1238,  -19.3850,  -19.6944,  -19.5188,
 30-OCT-1996 22:28:10.10,   -5.1101,  999.0000,  999.0000,    0.2750,    0.3654,    0.0255,  999.0000,  999.0000,   -0.1325,  999.0000,    3.3099,    2.0441,    1.5508,    2.0729,    1.8044,    0.6316,    0.2660,   -0.0996,   -2.1118,   -3.1336,   -3.5755,   -4.5281,   -5.1911,   -4.1476,   -3.6204,   -3.5727,   -3.0484,   -3.0109,   -2.8073,   -0.4218,   -0.3906,   -0.9484,   -1.2434,   -1.4311,   -1.4974,   -1.8498,   -2.4705,   -2.4160,   -2.0263,   -2.2727,   -3.9118,   -5.1099,   -6.7410,   -8.9901,  -10.6743,  -10.6015,   -9.5143,  -10.5374,  -11.3291,  -11.7830,  -11.8295,  -11.8654,  -11.9591,  -12.2703,  -13.2122,  -13.4053,  -13.2299,  -13.0185,  -14.1175,  -15.1990,  -16.1616,  -16.2442,  999.0000,  -19.3801,  -18.3745,
 30-OCT-1996 22:32:43.94,   -0.7718,   -0.1754,    0.2546,    0.5002,   -0.0782,   -0.4391,   -0.7290,  999.0000,  999.0000,    0.4623,  999.0000,    1.5315,    1.5254,    1.7395,    0.8824,    0.8373,    0.4038,   -0.5409,  999.0000,   -1.1113,  999.0000,   -4.2433,   -4.1933,   -3.3871,   -3.3291,   -3.0619,   -2.7008,   -2.4964,   -2.2225,   -0.1936,   -0.8366,   -1.4134,   -1.2468,   -1.6442,   -0.8001,   -0.8907,   -1.5563,   -1.9354,   -1.6095,   -2.0459,   -3.8866,   -4.8778,   -6.5605,   -8.2045,  -10.0409,  -10.7359,   -9.7511,  -10.1402,  -11.3857,  -11.8193,  -11.5904,  -11.5200,  -12.0871,  -12.4687,  -12.3978,  -12.3269,  -13.0763,  -14.1848,  -14.9019,  -15.5666,  999.0000,  -16.1222,  -17.6421,  -17.7524,  -17.3073,
 30-OCT-1996 22:37:19.92,    0.1201,    0.0991,   -0.2576,   -0.0608,   -0.1501,  999.0000,   -2.2720,   -2.8400,  999.0000,  999.0000,  999.0000,    0.2327,    0.4724,    1.0490,    1.0475,    0.1413,    0.1397,   -0.1993,   -0.4781,  999.0000,   -3.4035,   -4.5426,   -4.3546,   -3.2534,   -3.1348,   -3.0294,   -3.3342,   -2.9727,   -1.6909,    0.0805,   -1.1667,   -1.3150,   -1.1345,   -0.7501,   -0.0804,    0.1234,   -0.7500,   -1.1093,   -0.7477,   -2.2750,   -3.8053,   -4.3963,   -5.7247,   -7.7266,   -9.8703,  -10.8013,  -10.0957,  -10.5662,  -11.1220,  -11.1539,  -11.0884,  -10.9948,  -11.0487,  -11.5204,  -11.5753,  -11.9418,  -12.2376,  -12.5471,  -13.7570,  -14.6286,  -15.4403,  -15.9222,  -16.6925,  -17.5175,  -17.0473,
 30-OCT-1996 22:41:58.23,   -0.1463,   -0.3151,   -0.1227,    0.1146,  999.0000,    0.1743,    0.5417,    0.4693,   -0.0279,  999.0000,  999.0000,    1.2353,    1.4528,    1.7482,    1.6132,    0.7242,    0.2723,   -0.7413,   -0.3020,   -0.3126,  999.0000,   -3.7638,   -3.9604,   -3.0034,   -3.0276,   -2.9607,   -2.7847,   -1.8163,   -1.9447,    0.1917,    2.1904,    1.6107,    0.8743,    0.3117,    0.7818,    0.9545,    1.0693,    0.6695,    0.2695,   -1.8200,   -3.5211,   -4.1223,   -5.6347,   -7.5904,   -9.7008,  -10.8139,   -9.8227,  -10.2290,  -10.7775,  -10.4890,  -10.4692,  -11.3933,  -11.8841,  -12.2955,  -13.1928,  -12.6541,  -12.0506,  -11.8501,  -11.8867,  -12.6112,  -14.1012,  -15.1578,  -16.7349,  -17.6371,  999.0000,
 30-OCT-1996 22:46:34.76,   -0.7020,   -0.9485,   -0.9222,   -0.5422,   -0.1151,    0.0394,    0.1107,   -0.6994,   -1.6445,  999.0000,    0.6350,    0.6680,    0.8699,    1.5571,    1.5391,    0.8335,    0.2445,   -0.6823,   -0.7583,   -0.7566,   -1.6144,  999.0000,   -3.9051,   -3.1363,   -2.7064,   -3.3451,   -3.7262,   -3.2805,   -2.3277,   -0.3366,   -0.1993,    0.1688,    0.2645,    0.2703,    0.6618,    1.1831,    1.0403,    0.1171,   -0.5966,   -2.0213,   -3.4926,   -4.7203,   -6.9677,   -8.9231,  -10.3636,  -10.3395,  -10.0636,  -10.6377,   -9.8870,  -10.2133,  -11.4050,  -11.2895,  -11.3245,  -11.6718,  -11.8440,  -11.4917,  -11.4936,  -11.0375,  -11.2215,  -12.6206,  -14.6647,  999.0000,  -17.2867,  -17.7575,  -17.9863,
 30-OCT-1996 22:51:09.31,   -0.3799,   -0.3565,   -0.0885,    0.1886,  999.0000,    0.2593,    0.2739,  999.0000,    0.0554,    0.2236,    0.8317,    0.8450,    0.4198,    0.7790,    0.7350,    0.3726,    0.6009,   -0.3511,   -0.4102,   -0.5105,   -2.8928,   -3.5102,   -3.6202,   -2.9362,   -3.0357,   -3.7315,   -4.0428,   -3.9425,   -2.6774,   -0.2033,   -0.7517,   -0.3526,   -0.0055,   -0.0409,    0.2375,    0.7422,    0.5848,   -0.8218,   -1.3668,   -2.5666,   -3.8136,   -5.4184,   -7.6650,   -9.6834,  -11.2625,  -10.6912,   -9.9905,  -10.6875,  -11.8915,  -12.3586,  -12.9069,  -13.3172,  -11.2250,  -11.2244,  -10.8191,  -10.4471,  -11.0897,  -12.1096,  -12.6781,  -14.0897,  -15.4956,  -15.8989,  -16.9164,  -17.2878,  -18.2870,
 30-OCT-1996 22:55:43.45,   -0.5768,   -0.3740,    0.3079,    0.7387,    0.3425,    0.1925,    0.3918,    0.7814,    0.4986,    1.3624,    1.3060,    1.3304,    1.5017,    1.4676,    1.1821,    0.5908,  999.0000,    0.1352,   -0.8675,   -1.3668,   -2.6985,   -4.1731,   -4.1226,   -3.1556,   -3.3869,   -3.5311,   -4.2720,   -4.1295,   -3.0388,   -0.3407,   -0.1670,   -0.0759,    0.2675,    0.6558,    1.0302,    1.5845,    1.1796,   -0.7086,   -1.0734,   -1.8346,   -3.1348,   -4.9550,   -7.1937,   -9.3544,  -10.4213,   -9.9054,   -9.8077,  -10.3453,  -11.3460,  -12.2033,  -11.5834,  -10.3986,  -10.2270,  -10.3038,  -11.0645,  -11.4540,  999.0000,  999.0000,  -12.7129,  -13.1873,  -14.5668,  -15.0051,  -16.9321,  -17.6006,  -18.1945,
 30-OCT-1996 23:00:17.25,   -0.6064,   -0.7101,   -0.5181,    0.1734,    0.1950,    0.2564,    0.2533,   -0.2517,   -1.4080,  999.0000,  999.0000,    0.8404,    0.3102,    0.4216,    0.7875,    0.3977,    0.2608,   -0.5026,   -1.2837,  999.0000,  999.0000,   -3.0711,   -3.2247,   -3.1694,   -3.4081,   -4.1593,   -4.5560,   -4.1918,   -4.2463,   -0.8277,    0.2855,    0.0483,    0.0832,    0.6893,    0.8066,    1.0590,    1.0841,    0.4901,   -0.7691,   -1.7918,   -3.2763,   -4.7976,   -6.9276,   -8.7414,  999.0000,  -10.1730,  -10.2821,  -11.3788,  -12.2183,  -11.6851,  -10.9587,  -10.6597,  -10.4975,  -10.7526,  -11.0891,  -11.6731,  -13.0722,  -14.0355,  -14.7226,  999.0000,  999.0000,  -16.0714,  -15.7200,  -14.4018,  -15.0508,
 30-OCT-1996 23:04:52.26,   -1.1341,   -0.7926,   -0.0580,    0.0562,  999.0000,   -0.2229,   -0.1033,  999.0000,   -1.7962,   -1.8207,   -0.3591,  999.0000,  999.0000,    0.6250,    0.9936,    0.9644,    0.7016,   -0.3411,   -0.5285,   -1.0880,   -1.7818,   -3.1382,   -3.4043,   -3.3519,   -3.3835,   -4.0107,   -4.5767,   -4.2807,   -4.0410,   -2.4911,   -0.1059,   -0.0683,   -0.1917,   -0.1712,    0.3920,    0.9842,    1.2957,    0.3847,   -1.4254,   -2.1640,   -3.2522,   -4.5191,   -6.3025,   -8.1460,   -9.9183,  -10.1202,  -10.5718,  -11.5028,  -11.1191,  -10.3106,  -10.0020,   -9.7375,  -10.2624,  -10.7608,  -11.2037,  -11.9591,  -13.2596,  -14.3767,  -15.4435,  -16.2235,  -16.2843,  -14.4902,  -12.0125,  -11.5263,  -12.5568,
 30-OCT-1996 23:09:28.60,   -1.1128,   -0.9729,  999.0000,   -0.3239,   -0.8282,  999.0000,   -1.0102,   -0.6681,   -0.6536,  999.0000,  999.0000,    1.3291,    1.3901,  999.0000,    2.1971,    1.1130,    0.6668,  999.0000,   -0.3335,   -0.5145,   -0.9574,  999.0000,   -2.1972,   -2.9341,   -2.8468,   -3.4985,   -3.9550,   -4.4381,   -3.7909,   -4.0407,   -0.4198,   -0.1078,   -0.5608,   -0.6185,   -0.2543,    0.3141,    0.3614,   -0.4299,   -1.7980,   -2.7122,   -3.3876,   -4.3792,   -6.1636,   -8.3385,  -10.1630,  -10.2091,  -11.0544,  -11.9184,  -11.3093,  -11.6614,  -12.8381,  -12.9588,  999.0000,  999.0000,  -11.1649,  -12.4019,  -13.2488,  -14.0061,  -15.2080,  -15.0579,  -14.0728,  -12.9198,  -12.8762,  -12.8846,  -12.9091,
 30-OCT-1996 23:14:02.44,   -0.7611,   -0.5723,   -0.3245,  999.0000,   -2.4602,   -2.7902,   -2.6269,  999.0000,   -0.6265,   -0.0114,  999.0000,  999.0000,  999.0000,  999.0000,    2.4326,    1.3797,    0.8689,    0.3591,   -1.2219,   -0.9982,   -1.2286,   -1.9423,   -2.4939,   -2.6271,   -2.8087,   -2.8441,   -3.3927,   -4.0199,   -3.7159,   -3.0622,   -0.9510,    0.5165,    0.3539,    0.0471,    0.4254,    1.3412,    0.8681,   -0.4352,   -1.7219,   -2.3602,   -3.0618,   -4.0608,   -6.3941,   -9.1101,  -10.6377,  999.0000,  -11.1009,  -12.1228,  -11.9870,  -11.8694,  -12.3697,  -13.0248,  -13.5418,  -13.6192,  -13.5303,  -14.2179,  -14.1307,  -14.2366,  -14.1258,  -13.2089,  -12.2087,  -11.8505,  -12.1472,  -12.2189,  -12.2957,
 30-OCT-1996 23:18:38.51,  999.0000,  999.0000,   -0.0731,  999.0000,   -2.3154,   -2.3229,   -1.4764,  999.0000,  999.0000,  999.0000,  999.0000,  999.0000,    2.7800,  999.0000,    3.2377,    2.2681,    1.8644,    1.3728,   -0.4511,   -1.0402,   -1.7120,   -2.1352,   -1.9959,   -3.2863,   -3.6500,   -3.6905,   -3.9311,   -4.3679,   -4.0351,   -3.5134,   -1.0814,   -0.2457,    0.0829,    0.2593,    0.7247,    0.9319,    0.5840,   -0.2713,   -1.3520,   -2.3536,   -3.0313,   -4.1619,   -6.7112,   -9.3112,  -10.5959,   -9.9408,  -10.6069,  -11.2973,  -11.6589,  -12.2722,  -12.0875,  -11.8279,  -12.9336,  -12.9330,  999.0000,  -14.2756,  -13.6697,  -13.7605,  -13.1981,  -12.4039,  -12.4989,  -13.1454,  -13.6536,  -12.6955,  -12.7067,
 30-OCT-1996 23:23:13.04,   -0.4358,   -0.2986,  999.0000,  999.0000,   -2.1579,   -2.1703,   -2.1748,  999.0000,   -0.0783,    0.0611,   -0.1543,  999.0000,  999.0000,  999.0000,    3.2487,    2.7434,    2.6694,    1.6125,    0.4658,   -0.0330,   -0.8225,   -1.4275,   -1.6694,   -2.7495,   -2.8768,   -3.4065,   -4.3802,   -4.6162,   -3.6866,   -2.7003,   -0.3416,    0.0449,    0.1636,    0.3957,    0.8148,    0.8700,    0.6327,   -0.0601,   -1.9422,   -3.0098,   -3.6437,   -4.5465,   -6.3900,   -8.9109,  -10.6380,  -10.1703,   -9.8646,  -10.9863,  -11.8744,  -12.2674,  -12.2374,  -12.0563,  -12.6848,  -12.8577,  -12.8751,  -13.0433,  -12.8394,  -11.9966,  -11.8045,  -12.8945,  -13.2679,  -14.0732,  -15.3646,  -14.8819,  -14.2153,
 30-OCT-1996 23:27:51.12,   -0.5123,   -0.5460,  999.0000,   -2.3447,  999.0000,   -0.0724,    0.3667,   -0.8509,   -0.3154,    0.2152,    0.5657,  999.0000,    2.9823,    3.5268,    3.5762,    2.6812,    2.2673,    1.7918,  999.0000,    0.2978,    0.1206,  999.0000,   -2.2240,   -2.6011,   -2.7962,   -3.1521,   -3.6301,   -4.0573,   -2.8691,   -2.5245,   -0.3459,   -0.2569,   -0.1914,    0.6586,    1.3204,    1.2632,    0.8379,    0.0916,   -1.3434,   -2.7565,   -3.1310,   -4.2080,   -6.2772,   -8.7545,   -9.9329,   -9.2515,   -9.9582,  -11.4901,  -11.4869,  -11.8573,  -12.8335,  -13.1036,  -12.7421,  -12.3771,  -12.3642,  -12.4132,  -11.9197,  -12.2354,  -13.0668,  -13.1400,  -13.0587,  -14.3990,  -15.3769,  -14.7622,  -14.6290,
 30-OCT-1996 23:32:25.63,   -0.5169,   -0.4816,   -0.1139,  999.0000,   -2.2093,  999.0000,  999.0000,   -3.4213,   -1.4283,  999.0000,  999.0000,  999.0000,  999.0000,    2.3640,    2.7307,    2.7008,  999.0000,    1.4493,    0.2502,   -1.0429,   -1.6462,   -2.1819,   -2.0295,   -2.7144,   -3.3036,   -3.7475,   -4.2019,   -3.9687,   -3.4026,   -2.8293,   -0.6358,   -0.2099,   -0.0875,    0.2888,    1.2809,    0.7964,    0.4714,   -0.3519,   -1.8142,   -3.1987,   -3.5690,   -4.9567,   -7.3351,   -9.8068,  -10.2522,   -9.8826,  -10.7284,  -11.3726,  -11.5197,  -12.1945,  -12.3949,  -12.0921,  -12.1178,  -11.8647,  -12.0447,  -12.5888,  -11.8062,  -11.1124,  -11.8759,  -12.5070,  -13.6303,  999.0000,  -14.9321,  -15.4744,  -14.9889,
 30-OCT-1996 23:37:01.40,   -0.3900,   -0.3140,  999.0000,   -1.2266,   -1.5232,   -1.9184,  999.0000,   -0.9505,    0.5302,    2.0426,    2.6001,    2.1332,    1.9830,    2.0496,    2.4092,    2.3551,    1.1226,    1.1552,   -0.2753,  999.0000,   -1.3951,  999.0000,   -3.0637,   -2.1963,   -3.1211,   -3.4673,   -3.4843,   -3.1709,   -2.6162,   -2.1477,   -0.4837,   -0.5984,   -0.3511,   -0.1625,    0.6341,    0.2426,   -0.8312,   -1.5526,   -3.1932,   -4.1743,   -4.0173,   -6.1713,   -8.9524,  -10.7700,  -11.2879,  -11.8002,  -11.7707,  -11.7316,  -11.7970,  -11.8025,  -11.9450,  -11.4074,  -11.3188,  -11.7565,  -11.4944,  -11.3108,  -11.3416,  -11.5599,  -12.5858,  -12.7886,  -13.3645,  -14.3722,  -14.6814,  -15.5742,  -14.7466,
 30-OCT-1996 23:41:37.55,   -0.4006,   -0.2736,   -0.1469,   -0.4577,   -0.6024,  999.0000,   -0.2545,   -0.0812,    0.1786,    2.0073,    3.9824,  999.0000,    2.3120,    1.4365,    1.7866,    2.1261,    1.8034,    1.8419,    0.1179,   -1.1281,   -0.9453,   -1.1844,   -1.8075,   -1.6094,   -2.7221,   -3.0926,   -3.1615,   -2.6535,   -2.2481,   -1.8405,   -0.7438,   -0.8892,   -0.9453,   -0.6470,    0.0466,   -0.3604,   -0.8962,   -1.6941,   -3.5091,   -4.2228,   -4.5542,   -6.7654,   -9.3314,  -11.3205,  -12.4818,  -12.4338,  -11.8412,  -12.1179,  -12.1649,  -11.4399,  -11.6542,  -12.0534,  -11.9039,  999.0000,  999.0000,  -10.6256,  -10.1918,  -10.3855,   -9.6851,  -10.1691,  -11.7482,  -12.7261,  -13.4704,  -14.1012,  -14.4146,
 30-OCT-1996 23:46:13.89,   -0.7538,   -0.7787,   -0.6454,  999.0000,  999.0000,    0.2546,  999.0000,    0.5850,    1.0766,  999.0000,  999.0000,  999.0000,    1.4583,    1.2800,    2.1912,  999.0000,    2.9568,    3.1346,  999.0000,   -0.0575,    0.0463,   -0.6325,   -1.2569,   -2.6734,   -3.2541,   -3.5700,   -3.5146,   -2.6760,   -2.4186,   -2.2010,   -1.3329,   -0.7751,   -1.1415,   -0.4155,    0.3088,   -0.6174,   -0.7965,   -1.8175,   -3.7926,   -3.9577,   -4.1540,   -6.2978,   -9.1880,  -10.9915,  -12.3701,  -12.2009,  -12.0463,  -12.0015,  -11.8940,  -12.0708,  -12.4906,  -12.5519,  999.0000,  999.0000,  -10.8509,  -10.9375,  -10.8350,  -11.4330,  -11.2388,  -12.0966,  -12.9519,  -13.3799,  -13.3729,  999.0000,  -13.9407,
 30-OCT-1996 23:50:48.71,   -0.6992,   -0.8252,   -0.8171,   -0.5607,   -0.4435,   -0.6469,  999.0000,   -1.5180,  999.0000,  999.0000,  999.0000,  999.0000,    1.3910,    1.7748,    3.1637,    2.8471,    2.9926,    2.7182,  999.0000,   -1.1345,   -1.3854,   -1.5560,   -1.8381,   -2.0178,   -2.4455,   -3.7232,   -3.3470,   -2.8021,   -2.1561,   -2.2125,   -0.9962,   -1.7093,   -2.0460,   -1.2587,   -0.7169,   -1.6474,   -1.7199,   -2.6770,   -4.5859,   -4.8779,   -5.0105,   -7.0266,   -9.8485,  -11.5302,  -13.8072,  -13.0654,  -12.8508,  -12.7946,  -12.4311,  -12.9971,  -13.7669,  -13.1212,  -12.1656,  -11.5877,  -11.7590,  -11.9851,  -11.7077,  -11.4976,  -11.8086,  -12.3725,  -12.2713,  -12.3809,  -12.1840,  -11.4773,  -12.9077,
 30-OCT-1996 23:55:25.76,   -0.2278,   -0.2756,  999.0000,   -1.8511,   -2.3639,   -2.2868,   -2.0252,   -1.5906,  999.0000,  999.0000,    3.6963,    3.0064,    1.5669,    1.9200,    2.8570,    3.0334,    4.0768,  999.0000,    1.9989,    0.0629,   -0.2726,   -0.5454,   -0.9802,   -1.3334,   -1.7484,   -2.6677,   -2.5778,   -1.7791,   -1.4076,   -1.1248,   -0.0072,   -0.9677,   -1.2604,   -0.7244,    0.1280,  999.0000,   -1.3846,   -2.2535,   -3.8617,   -4.1412,   -4.7912,   -7.2559,   -9.9968,  -12.0441,  -12.6733,  -12.3676,  -12.3583,  -12.5216,  -13.5901,  -14.2635,  -13.5006,  999.0000,  999.0000,  -10.9263,  -11.0294,  -11.0403,  -10.8290,  -11.1535,  -12.4786,  -13.3119,  -13.6517,  -12.8542,  -11.6366,  -10.5773,  -12.0080,
 30-OCT-1996 23:59:59.66,   -0.4165,   -1.0866,   -1.1124,   -0.5400,  999.0000,  999.0000,   -0.5032,   -0.6573,  999.0000,  999.0000,    2.0623,    2.0288,    1.1660,    1.3847,    2.5831,    2.4540,    2.5974,    2.1560,    1.3880,  999.0000,   -0.3205,   -0.5812,   -1.0420,   -1.3773,   -1.8513,   -2.9581,   -3.3259,   -2.0118,   -1.0669,   -0.6603,    1.4015,    0.3006,   -0.4807,   -0.3093,    0.0870,   -0.9682,   -1.0344,   -1.4946,   -2.4948,   -2.9532,   -4.7992,   -6.7548,   -9.6855,  -11.7325,  -12.2638,  -11.9543,  -12.7901,  -13.3816,  -13.5253,  -13.9620,  999.0000,  999.0000,  -11.9259,  -11.6429,  -11.5167,  -11.3549,  -11.3809,  -11.9182,  -13.0793,  -13.6175,  -12.4571,  -11.8434,  -11.0509,  -10.0437,  -10.6494,
